<?xml version="1.0" encoding="UTF-8" standalone="no" ?>
<gpx xmlns="http://www.topografix.com/GPX/1/1" xmlns:xsi="http://www.w3.org/2001/XMLSchema-instance" xsi:schemaLocation="http://www.topografix.com/GPX/1/1 http://www.topografix.com/GPX/1/1/gpx.xsd" version="1.1" creator="VisuGPX - https://www.visugpx.com">
  <metadata>
    <name>2024-11-18 Circuit 18 11 2024 Randonnée TwoNav</name>
    <desc><![CDATA[2024-11-18_110017--Circuit ]]></desc>
  </metadata>
  <trk>
    <name><![CDATA[2024-11-18 Circuit 18 11 2024 Randonnée TwoNav_1]]></name>
    <trkseg>
      <trkpt lat="48.19062" lon="6.78469">
        <ele>447.4</ele>
        <time>2024-11-18T10:00:17Z</time>
      </trkpt>
      <trkpt lat="48.19062" lon="6.78469">
        <ele>447.4</ele>
        <time>2024-11-18T10:00:18Z</time>
      </trkpt>
      <trkpt lat="48.19063" lon="6.78469">
        <ele>447.4</ele>
        <time>2024-11-18T10:00:19Z</time>
      </trkpt>
      <trkpt lat="48.19063" lon="6.78468">
        <ele>447.4</ele>
        <time>2024-11-18T10:00:20Z</time>
      </trkpt>
      <trkpt lat="48.19064" lon="6.78468">
        <ele>447.4</ele>
        <time>2024-11-18T10:00:21Z</time>
      </trkpt>
      <trkpt lat="48.19065" lon="6.78468">
        <ele>447.4</ele>
        <time>2024-11-18T10:00:22Z</time>
      </trkpt>
      <trkpt lat="48.19065" lon="6.78468">
        <ele>447.4</ele>
        <time>2024-11-18T10:00:23Z</time>
      </trkpt>
      <trkpt lat="48.19066" lon="6.78467">
        <ele>447.4</ele>
        <time>2024-11-18T10:00:24Z</time>
      </trkpt>
      <trkpt lat="48.19067" lon="6.78467">
        <ele>447.4</ele>
        <time>2024-11-18T10:00:25Z</time>
      </trkpt>
      <trkpt lat="48.19067" lon="6.78467">
        <ele>447.3</ele>
        <time>2024-11-18T10:00:26Z</time>
      </trkpt>
      <trkpt lat="48.19068" lon="6.78466">
        <ele>447.3</ele>
        <time>2024-11-18T10:00:27Z</time>
      </trkpt>
      <trkpt lat="48.19069" lon="6.78466">
        <ele>447.3</ele>
        <time>2024-11-18T10:00:28Z</time>
      </trkpt>
      <trkpt lat="48.19069" lon="6.78466">
        <ele>447.3</ele>
        <time>2024-11-18T10:00:29Z</time>
      </trkpt>
      <trkpt lat="48.1907" lon="6.78465">
        <ele>447.3</ele>
        <time>2024-11-18T10:00:36Z</time>
      </trkpt>
      <trkpt lat="48.19071" lon="6.78465">
        <ele>447.3</ele>
        <time>2024-11-18T10:00:37Z</time>
      </trkpt>
      <trkpt lat="48.19071" lon="6.78465">
        <ele>447.3</ele>
        <time>2024-11-18T10:00:38Z</time>
      </trkpt>
      <trkpt lat="48.19072" lon="6.78465">
        <ele>447.3</ele>
        <time>2024-11-18T10:00:49Z</time>
      </trkpt>
      <trkpt lat="48.19073" lon="6.78464">
        <ele>447.3</ele>
        <time>2024-11-18T10:00:49Z</time>
      </trkpt>
      <trkpt lat="48.19073" lon="6.78464">
        <ele>447.3</ele>
        <time>2024-11-18T10:00:50Z</time>
      </trkpt>
      <trkpt lat="48.19075" lon="6.78463">
        <ele>447.2</ele>
        <time>2024-11-18T10:00:51Z</time>
      </trkpt>
      <trkpt lat="48.19071" lon="6.7845">
        <ele>447.1</ele>
        <time>2024-11-18T10:01:03Z</time>
      </trkpt>
      <trkpt lat="48.19064" lon="6.78441">
        <ele>446.9</ele>
        <time>2024-11-18T10:01:12Z</time>
      </trkpt>
      <trkpt lat="48.19064" lon="6.78441">
        <ele>446.9</ele>
        <time>2024-11-18T10:01:14Z</time>
      </trkpt>
      <trkpt lat="48.19064" lon="6.78441">
        <ele>446.9</ele>
        <time>2024-11-18T10:01:15Z</time>
      </trkpt>
      <trkpt lat="48.19064" lon="6.78441">
        <ele>446.9</ele>
        <time>2024-11-18T10:01:16Z</time>
      </trkpt>
      <trkpt lat="48.19064" lon="6.78441">
        <ele>446.9</ele>
        <time>2024-11-18T10:01:17Z</time>
      </trkpt>
      <trkpt lat="48.19064" lon="6.78441">
        <ele>446.9</ele>
        <time>2024-11-18T10:01:18Z</time>
      </trkpt>
      <trkpt lat="48.19064" lon="6.78441">
        <ele>446.9</ele>
        <time>2024-11-18T10:01:19Z</time>
      </trkpt>
      <trkpt lat="48.19064" lon="6.78441">
        <ele>446.9</ele>
        <time>2024-11-18T10:01:20Z</time>
      </trkpt>
      <trkpt lat="48.19064" lon="6.7844">
        <ele>446.8</ele>
        <time>2024-11-18T10:01:21Z</time>
      </trkpt>
      <trkpt lat="48.19063" lon="6.7844">
        <ele>446.8</ele>
        <time>2024-11-18T10:01:22Z</time>
      </trkpt>
      <trkpt lat="48.19062" lon="6.78439">
        <ele>446.8</ele>
        <time>2024-11-18T10:01:23Z</time>
      </trkpt>
      <trkpt lat="48.19053" lon="6.78436">
        <ele>446.6</ele>
        <time>2024-11-18T10:01:31Z</time>
      </trkpt>
      <trkpt lat="48.19044" lon="6.78433">
        <ele>446.4</ele>
        <time>2024-11-18T10:01:39Z</time>
      </trkpt>
      <trkpt lat="48.19035" lon="6.78429">
        <ele>446.3</ele>
        <time>2024-11-18T10:01:48Z</time>
      </trkpt>
      <trkpt lat="48.19026" lon="6.78422">
        <ele>446.2</ele>
        <time>2024-11-18T10:01:56Z</time>
      </trkpt>
      <trkpt lat="48.19017" lon="6.78416">
        <ele>446.1</ele>
        <time>2024-11-18T10:02:04Z</time>
      </trkpt>
      <trkpt lat="48.19009" lon="6.7841">
        <ele>446.1</ele>
        <time>2024-11-18T10:02:11Z</time>
      </trkpt>
      <trkpt lat="48.19001" lon="6.78402">
        <ele>446.1</ele>
        <time>2024-11-18T10:02:19Z</time>
      </trkpt>
      <trkpt lat="48.18993" lon="6.78393">
        <ele>446.1</ele>
        <time>2024-11-18T10:02:27Z</time>
      </trkpt>
      <trkpt lat="48.18986" lon="6.78385">
        <ele>446.1</ele>
        <time>2024-11-18T10:02:34Z</time>
      </trkpt>
      <trkpt lat="48.18978" lon="6.78376">
        <ele>446.1</ele>
        <time>2024-11-18T10:02:45Z</time>
      </trkpt>
      <trkpt lat="48.18971" lon="6.78367">
        <ele>446.1</ele>
        <time>2024-11-18T10:02:52Z</time>
      </trkpt>
      <trkpt lat="48.18963" lon="6.78358">
        <ele>446.1</ele>
        <time>2024-11-18T10:02:59Z</time>
      </trkpt>
      <trkpt lat="48.18955" lon="6.78349">
        <ele>446</ele>
        <time>2024-11-18T10:03:06Z</time>
      </trkpt>
      <trkpt lat="48.18948" lon="6.78339">
        <ele>446</ele>
        <time>2024-11-18T10:03:13Z</time>
      </trkpt>
      <trkpt lat="48.18942" lon="6.78327">
        <ele>446.1</ele>
        <time>2024-11-18T10:03:21Z</time>
      </trkpt>
      <trkpt lat="48.18937" lon="6.78315">
        <ele>446.1</ele>
        <time>2024-11-18T10:03:28Z</time>
      </trkpt>
      <trkpt lat="48.18933" lon="6.78303">
        <ele>446.2</ele>
        <time>2024-11-18T10:03:35Z</time>
      </trkpt>
      <trkpt lat="48.18931" lon="6.78288">
        <ele>446.2</ele>
        <time>2024-11-18T10:03:42Z</time>
      </trkpt>
      <trkpt lat="48.18932" lon="6.78274">
        <ele>446.1</ele>
        <time>2024-11-18T10:03:49Z</time>
      </trkpt>
      <trkpt lat="48.18933" lon="6.7826">
        <ele>446.1</ele>
        <time>2024-11-18T10:03:56Z</time>
      </trkpt>
      <trkpt lat="48.18934" lon="6.78245">
        <ele>446.1</ele>
        <time>2024-11-18T10:04:03Z</time>
      </trkpt>
      <trkpt lat="48.18937" lon="6.78231">
        <ele>446.1</ele>
        <time>2024-11-18T10:04:10Z</time>
      </trkpt>
      <trkpt lat="48.18941" lon="6.78218">
        <ele>446.1</ele>
        <time>2024-11-18T10:04:17Z</time>
      </trkpt>
      <trkpt lat="48.18945" lon="6.78205">
        <ele>446.1</ele>
        <time>2024-11-18T10:04:24Z</time>
      </trkpt>
      <trkpt lat="48.18948" lon="6.78192">
        <ele>446.1</ele>
        <time>2024-11-18T10:04:31Z</time>
      </trkpt>
      <trkpt lat="48.18954" lon="6.7818">
        <ele>446.1</ele>
        <time>2024-11-18T10:04:38Z</time>
      </trkpt>
      <trkpt lat="48.18959" lon="6.78167">
        <ele>446.2</ele>
        <time>2024-11-18T10:04:45Z</time>
      </trkpt>
      <trkpt lat="48.18965" lon="6.78156">
        <ele>446.2</ele>
        <time>2024-11-18T10:04:52Z</time>
      </trkpt>
      <trkpt lat="48.18973" lon="6.78146">
        <ele>446.2</ele>
        <time>2024-11-18T10:04:59Z</time>
      </trkpt>
      <trkpt lat="48.18981" lon="6.78138">
        <ele>446.2</ele>
        <time>2024-11-18T10:05:06Z</time>
      </trkpt>
      <trkpt lat="48.1899" lon="6.78134">
        <ele>446.3</ele>
        <time>2024-11-18T10:05:14Z</time>
      </trkpt>
      <trkpt lat="48.18999" lon="6.78131">
        <ele>446.3</ele>
        <time>2024-11-18T10:05:21Z</time>
      </trkpt>
      <trkpt lat="48.19009" lon="6.78127">
        <ele>446.3</ele>
        <time>2024-11-18T10:05:33Z</time>
      </trkpt>
      <trkpt lat="48.19019" lon="6.78126">
        <ele>446.4</ele>
        <time>2024-11-18T10:05:40Z</time>
      </trkpt>
      <trkpt lat="48.19028" lon="6.78126">
        <ele>446.5</ele>
        <time>2024-11-18T10:05:47Z</time>
      </trkpt>
      <trkpt lat="48.19037" lon="6.7813">
        <ele>446.5</ele>
        <time>2024-11-18T10:05:54Z</time>
      </trkpt>
      <trkpt lat="48.19046" lon="6.78133">
        <ele>446.6</ele>
        <time>2024-11-18T10:06:01Z</time>
      </trkpt>
      <trkpt lat="48.19056" lon="6.78134">
        <ele>446.7</ele>
        <time>2024-11-18T10:06:08Z</time>
      </trkpt>
      <trkpt lat="48.19067" lon="6.78134">
        <ele>446.8</ele>
        <time>2024-11-18T10:06:16Z</time>
      </trkpt>
      <trkpt lat="48.19076" lon="6.78136">
        <ele>446.9</ele>
        <time>2024-11-18T10:06:23Z</time>
      </trkpt>
      <trkpt lat="48.19085" lon="6.78141">
        <ele>447</ele>
        <time>2024-11-18T10:06:31Z</time>
      </trkpt>
      <trkpt lat="48.19092" lon="6.78152">
        <ele>447.1</ele>
        <time>2024-11-18T10:06:39Z</time>
      </trkpt>
      <trkpt lat="48.19099" lon="6.78163">
        <ele>447.2</ele>
        <time>2024-11-18T10:06:47Z</time>
      </trkpt>
      <trkpt lat="48.19104" lon="6.78175">
        <ele>447.3</ele>
        <time>2024-11-18T10:06:55Z</time>
      </trkpt>
      <trkpt lat="48.19111" lon="6.78186">
        <ele>447.4</ele>
        <time>2024-11-18T10:07:03Z</time>
      </trkpt>
      <trkpt lat="48.19118" lon="6.78196">
        <ele>447.4</ele>
        <time>2024-11-18T10:07:11Z</time>
      </trkpt>
      <trkpt lat="48.19127" lon="6.78202">
        <ele>447.5</ele>
        <time>2024-11-18T10:07:17Z</time>
      </trkpt>
      <trkpt lat="48.19135" lon="6.78208">
        <ele>447.6</ele>
        <time>2024-11-18T10:07:25Z</time>
      </trkpt>
      <trkpt lat="48.19144" lon="6.78215">
        <ele>447.6</ele>
        <time>2024-11-18T10:07:33Z</time>
      </trkpt>
      <trkpt lat="48.19153" lon="6.78222">
        <ele>447.8</ele>
        <time>2024-11-18T10:07:40Z</time>
      </trkpt>
      <trkpt lat="48.1916" lon="6.78231">
        <ele>447.9</ele>
        <time>2024-11-18T10:07:47Z</time>
      </trkpt>
      <trkpt lat="48.19165" lon="6.78242">
        <ele>448.1</ele>
        <time>2024-11-18T10:07:54Z</time>
      </trkpt>
      <trkpt lat="48.19169" lon="6.78256">
        <ele>448.2</ele>
        <time>2024-11-18T10:08:01Z</time>
      </trkpt>
      <trkpt lat="48.19172" lon="6.7827">
        <ele>448.4</ele>
        <time>2024-11-18T10:08:09Z</time>
      </trkpt>
      <trkpt lat="48.19174" lon="6.78283">
        <ele>448.6</ele>
        <time>2024-11-18T10:08:16Z</time>
      </trkpt>
      <trkpt lat="48.19176" lon="6.78296">
        <ele>448.7</ele>
        <time>2024-11-18T10:08:23Z</time>
      </trkpt>
      <trkpt lat="48.19177" lon="6.7831">
        <ele>448.8</ele>
        <time>2024-11-18T10:08:30Z</time>
      </trkpt>
      <trkpt lat="48.19178" lon="6.78324">
        <ele>448.9</ele>
        <time>2024-11-18T10:08:37Z</time>
      </trkpt>
      <trkpt lat="48.19183" lon="6.78335">
        <ele>449</ele>
        <time>2024-11-18T10:08:44Z</time>
      </trkpt>
      <trkpt lat="48.19186" lon="6.78341">
        <ele>449</ele>
        <time>2024-11-18T10:08:54Z</time>
      </trkpt>
      <trkpt lat="48.19186" lon="6.78341">
        <ele>449</ele>
        <time>2024-11-18T10:08:55Z</time>
      </trkpt>
      <trkpt lat="48.19186" lon="6.78342">
        <ele>449</ele>
        <time>2024-11-18T10:09:31Z</time>
      </trkpt>
      <trkpt lat="48.19186" lon="6.78342">
        <ele>449</ele>
        <time>2024-11-18T10:09:32Z</time>
      </trkpt>
      <trkpt lat="48.19186" lon="6.78342">
        <ele>449</ele>
        <time>2024-11-18T10:09:33Z</time>
      </trkpt>
      <trkpt lat="48.19178" lon="6.78351">
        <ele>449.1</ele>
        <time>2024-11-18T10:09:46Z</time>
      </trkpt>
      <trkpt lat="48.19179" lon="6.78365">
        <ele>449.2</ele>
        <time>2024-11-18T10:09:55Z</time>
      </trkpt>
      <trkpt lat="48.19184" lon="6.78379">
        <ele>449.4</ele>
        <time>2024-11-18T10:10:03Z</time>
      </trkpt>
      <trkpt lat="48.19185" lon="6.78381">
        <ele>449.4</ele>
        <time>2024-11-18T10:10:09Z</time>
      </trkpt>
      <trkpt lat="48.19185" lon="6.78381">
        <ele>449.4</ele>
        <time>2024-11-18T10:10:10Z</time>
      </trkpt>
      <trkpt lat="48.19186" lon="6.78383">
        <ele>449.4</ele>
        <time>2024-11-18T10:10:13Z</time>
      </trkpt>
      <trkpt lat="48.19187" lon="6.78384">
        <ele>449.4</ele>
        <time>2024-11-18T10:10:14Z</time>
      </trkpt>
      <trkpt lat="48.19188" lon="6.78386">
        <ele>449.4</ele>
        <time>2024-11-18T10:10:15Z</time>
      </trkpt>
      <trkpt lat="48.19194" lon="6.78398">
        <ele>449.4</ele>
        <time>2024-11-18T10:10:23Z</time>
      </trkpt>
      <trkpt lat="48.192" lon="6.78409">
        <ele>449.5</ele>
        <time>2024-11-18T10:10:30Z</time>
      </trkpt>
      <trkpt lat="48.19205" lon="6.78421">
        <ele>449.5</ele>
        <time>2024-11-18T10:10:39Z</time>
      </trkpt>
      <trkpt lat="48.19199" lon="6.78434">
        <ele>449.3</ele>
        <time>2024-11-18T10:10:47Z</time>
      </trkpt>
      <trkpt lat="48.19196" lon="6.78448">
        <ele>449</ele>
        <time>2024-11-18T10:10:55Z</time>
      </trkpt>
      <trkpt lat="48.19196" lon="6.78463">
        <ele>449.1</ele>
        <time>2024-11-18T10:11:03Z</time>
      </trkpt>
      <trkpt lat="48.192" lon="6.78477">
        <ele>450.1</ele>
        <time>2024-11-18T10:11:11Z</time>
      </trkpt>
      <trkpt lat="48.19203" lon="6.78491">
        <ele>451</ele>
        <time>2024-11-18T10:11:19Z</time>
      </trkpt>
      <trkpt lat="48.19205" lon="6.78506">
        <ele>451.8</ele>
        <time>2024-11-18T10:11:27Z</time>
      </trkpt>
      <trkpt lat="48.19206" lon="6.78521">
        <ele>451.6</ele>
        <time>2024-11-18T10:11:35Z</time>
      </trkpt>
      <trkpt lat="48.19206" lon="6.78534">
        <ele>451.2</ele>
        <time>2024-11-18T10:11:42Z</time>
      </trkpt>
      <trkpt lat="48.19207" lon="6.78548">
        <ele>451.6</ele>
        <time>2024-11-18T10:11:49Z</time>
      </trkpt>
      <trkpt lat="48.19208" lon="6.78563">
        <ele>452.2</ele>
        <time>2024-11-18T10:11:57Z</time>
      </trkpt>
      <trkpt lat="48.1921" lon="6.78577">
        <ele>450.5</ele>
        <time>2024-11-18T10:12:05Z</time>
      </trkpt>
      <trkpt lat="48.19213" lon="6.78592">
        <ele>446.4</ele>
        <time>2024-11-18T10:12:13Z</time>
      </trkpt>
      <trkpt lat="48.19214" lon="6.78606">
        <ele>444.6</ele>
        <time>2024-11-18T10:12:21Z</time>
      </trkpt>
      <trkpt lat="48.19216" lon="6.78621">
        <ele>445.9</ele>
        <time>2024-11-18T10:12:29Z</time>
      </trkpt>
      <trkpt lat="48.19217" lon="6.78636">
        <ele>446.3</ele>
        <time>2024-11-18T10:12:37Z</time>
      </trkpt>
      <trkpt lat="48.19218" lon="6.78651">
        <ele>446.2</ele>
        <time>2024-11-18T10:12:45Z</time>
      </trkpt>
      <trkpt lat="48.1922" lon="6.78665">
        <ele>447.1</ele>
        <time>2024-11-18T10:12:52Z</time>
      </trkpt>
      <trkpt lat="48.19222" lon="6.78679">
        <ele>448.1</ele>
        <time>2024-11-18T10:12:59Z</time>
      </trkpt>
      <trkpt lat="48.19225" lon="6.78694">
        <ele>449.1</ele>
        <time>2024-11-18T10:13:07Z</time>
      </trkpt>
      <trkpt lat="48.19226" lon="6.78708">
        <ele>449.1</ele>
        <time>2024-11-18T10:13:14Z</time>
      </trkpt>
      <trkpt lat="48.19228" lon="6.78722">
        <ele>449.8</ele>
        <time>2024-11-18T10:13:21Z</time>
      </trkpt>
      <trkpt lat="48.1923" lon="6.78737">
        <ele>450.1</ele>
        <time>2024-11-18T10:13:28Z</time>
      </trkpt>
      <trkpt lat="48.19231" lon="6.7875">
        <ele>451.6</ele>
        <time>2024-11-18T10:13:35Z</time>
      </trkpt>
      <trkpt lat="48.19233" lon="6.78765">
        <ele>450.7</ele>
        <time>2024-11-18T10:13:43Z</time>
      </trkpt>
      <trkpt lat="48.19237" lon="6.78779">
        <ele>447.3</ele>
        <time>2024-11-18T10:13:51Z</time>
      </trkpt>
      <trkpt lat="48.19239" lon="6.78792">
        <ele>444.3</ele>
        <time>2024-11-18T10:13:57Z</time>
      </trkpt>
      <trkpt lat="48.19241" lon="6.78806">
        <ele>442.9</ele>
        <time>2024-11-18T10:14:04Z</time>
      </trkpt>
      <trkpt lat="48.19243" lon="6.78821">
        <ele>445.2</ele>
        <time>2024-11-18T10:14:12Z</time>
      </trkpt>
      <trkpt lat="48.19244" lon="6.78835">
        <ele>449.3</ele>
        <time>2024-11-18T10:14:19Z</time>
      </trkpt>
      <trkpt lat="48.19244" lon="6.78848">
        <ele>452.4</ele>
        <time>2024-11-18T10:14:27Z</time>
      </trkpt>
      <trkpt lat="48.19239" lon="6.78861">
        <ele>452.4</ele>
        <time>2024-11-18T10:14:35Z</time>
      </trkpt>
      <trkpt lat="48.1923" lon="6.78866">
        <ele>451.5</ele>
        <time>2024-11-18T10:14:43Z</time>
      </trkpt>
      <trkpt lat="48.19221" lon="6.78871">
        <ele>451.3</ele>
        <time>2024-11-18T10:14:49Z</time>
      </trkpt>
      <trkpt lat="48.19211" lon="6.78875">
        <ele>451</ele>
        <time>2024-11-18T10:14:57Z</time>
      </trkpt>
      <trkpt lat="48.19202" lon="6.78876">
        <ele>448.9</ele>
        <time>2024-11-18T10:15:03Z</time>
      </trkpt>
      <trkpt lat="48.19193" lon="6.78879">
        <ele>446.8</ele>
        <time>2024-11-18T10:15:10Z</time>
      </trkpt>
      <trkpt lat="48.19184" lon="6.78873">
        <ele>443.2</ele>
        <time>2024-11-18T10:15:17Z</time>
      </trkpt>
      <trkpt lat="48.19176" lon="6.78866">
        <ele>442.8</ele>
        <time>2024-11-18T10:15:24Z</time>
      </trkpt>
      <trkpt lat="48.19168" lon="6.78857">
        <ele>443.4</ele>
        <time>2024-11-18T10:15:32Z</time>
      </trkpt>
      <trkpt lat="48.19162" lon="6.78847">
        <ele>442.7</ele>
        <time>2024-11-18T10:15:40Z</time>
      </trkpt>
      <trkpt lat="48.19156" lon="6.78834">
        <ele>442.3</ele>
        <time>2024-11-18T10:15:48Z</time>
      </trkpt>
      <trkpt lat="48.19151" lon="6.78821">
        <ele>443.4</ele>
        <time>2024-11-18T10:15:56Z</time>
      </trkpt>
      <trkpt lat="48.19146" lon="6.78808">
        <ele>443.8</ele>
        <time>2024-11-18T10:16:04Z</time>
      </trkpt>
      <trkpt lat="48.19141" lon="6.78796">
        <ele>442.8</ele>
        <time>2024-11-18T10:16:12Z</time>
      </trkpt>
      <trkpt lat="48.19133" lon="6.78786">
        <ele>442.4</ele>
        <time>2024-11-18T10:16:19Z</time>
      </trkpt>
      <trkpt lat="48.19123" lon="6.7878">
        <ele>442.7</ele>
        <time>2024-11-18T10:16:26Z</time>
      </trkpt>
      <trkpt lat="48.19114" lon="6.78776">
        <ele>443.2</ele>
        <time>2024-11-18T10:16:33Z</time>
      </trkpt>
      <trkpt lat="48.19105" lon="6.78772">
        <ele>443.5</ele>
        <time>2024-11-18T10:16:40Z</time>
      </trkpt>
      <trkpt lat="48.19096" lon="6.78776">
        <ele>445</ele>
        <time>2024-11-18T10:16:46Z</time>
      </trkpt>
      <trkpt lat="48.19087" lon="6.78783">
        <ele>446.9</ele>
        <time>2024-11-18T10:16:53Z</time>
      </trkpt>
      <trkpt lat="48.19078" lon="6.78791">
        <ele>447.8</ele>
        <time>2024-11-18T10:17:00Z</time>
      </trkpt>
      <trkpt lat="48.1908" lon="6.78805">
        <ele>448.1</ele>
        <time>2024-11-18T10:17:07Z</time>
      </trkpt>
      <trkpt lat="48.19086" lon="6.78815">
        <ele>447.8</ele>
        <time>2024-11-18T10:17:15Z</time>
      </trkpt>
      <trkpt lat="48.19089" lon="6.78829">
        <ele>447.4</ele>
        <time>2024-11-18T10:17:22Z</time>
      </trkpt>
      <trkpt lat="48.1909" lon="6.78842">
        <ele>447.6</ele>
        <time>2024-11-18T10:17:29Z</time>
      </trkpt>
      <trkpt lat="48.1909" lon="6.78856">
        <ele>447.8</ele>
        <time>2024-11-18T10:17:36Z</time>
      </trkpt>
      <trkpt lat="48.19091" lon="6.78871">
        <ele>447.8</ele>
        <time>2024-11-18T10:17:43Z</time>
      </trkpt>
      <trkpt lat="48.19089" lon="6.78886">
        <ele>447.7</ele>
        <time>2024-11-18T10:17:51Z</time>
      </trkpt>
      <trkpt lat="48.19091" lon="6.789">
        <ele>447.7</ele>
        <time>2024-11-18T10:17:58Z</time>
      </trkpt>
      <trkpt lat="48.19101" lon="6.78898">
        <ele>447.7</ele>
        <time>2024-11-18T10:18:05Z</time>
      </trkpt>
      <trkpt lat="48.1911" lon="6.789">
        <ele>447.9</ele>
        <time>2024-11-18T10:18:12Z</time>
      </trkpt>
      <trkpt lat="48.19117" lon="6.78909">
        <ele>448.1</ele>
        <time>2024-11-18T10:18:19Z</time>
      </trkpt>
      <trkpt lat="48.19123" lon="6.7892">
        <ele>448.4</ele>
        <time>2024-11-18T10:18:26Z</time>
      </trkpt>
      <trkpt lat="48.1913" lon="6.7893">
        <ele>448.9</ele>
        <time>2024-11-18T10:18:33Z</time>
      </trkpt>
      <trkpt lat="48.19127" lon="6.78943">
        <ele>448.8</ele>
        <time>2024-11-18T10:18:41Z</time>
      </trkpt>
      <trkpt lat="48.19118" lon="6.78949">
        <ele>448.6</ele>
        <time>2024-11-18T10:18:48Z</time>
      </trkpt>
      <trkpt lat="48.1911" lon="6.78955">
        <ele>448.4</ele>
        <time>2024-11-18T10:18:55Z</time>
      </trkpt>
      <trkpt lat="48.19102" lon="6.78962">
        <ele>448.1</ele>
        <time>2024-11-18T10:19:02Z</time>
      </trkpt>
      <trkpt lat="48.19094" lon="6.78968">
        <ele>448</ele>
        <time>2024-11-18T10:19:09Z</time>
      </trkpt>
      <trkpt lat="48.19085" lon="6.78974">
        <ele>447.8</ele>
        <time>2024-11-18T10:19:16Z</time>
      </trkpt>
      <trkpt lat="48.19077" lon="6.78981">
        <ele>447.6</ele>
        <time>2024-11-18T10:19:23Z</time>
      </trkpt>
      <trkpt lat="48.19069" lon="6.78988">
        <ele>447.4</ele>
        <time>2024-11-18T10:19:30Z</time>
      </trkpt>
      <trkpt lat="48.19062" lon="6.78998">
        <ele>447.4</ele>
        <time>2024-11-18T10:19:37Z</time>
      </trkpt>
      <trkpt lat="48.19061" lon="6.79013">
        <ele>447.6</ele>
        <time>2024-11-18T10:19:45Z</time>
      </trkpt>
      <trkpt lat="48.19062" lon="6.79027">
        <ele>447.9</ele>
        <time>2024-11-18T10:19:52Z</time>
      </trkpt>
      <trkpt lat="48.19064" lon="6.7904">
        <ele>448</ele>
        <time>2024-11-18T10:19:59Z</time>
      </trkpt>
      <trkpt lat="48.19067" lon="6.79054">
        <ele>448.2</ele>
        <time>2024-11-18T10:20:06Z</time>
      </trkpt>
      <trkpt lat="48.19071" lon="6.79066">
        <ele>448.5</ele>
        <time>2024-11-18T10:20:14Z</time>
      </trkpt>
      <trkpt lat="48.19079" lon="6.79061">
        <ele>448.6</ele>
        <time>2024-11-18T10:20:21Z</time>
      </trkpt>
      <trkpt lat="48.19086" lon="6.79052">
        <ele>448.8</ele>
        <time>2024-11-18T10:20:28Z</time>
      </trkpt>
      <trkpt lat="48.19096" lon="6.79047">
        <ele>449.2</ele>
        <time>2024-11-18T10:20:36Z</time>
      </trkpt>
      <trkpt lat="48.19105" lon="6.79043">
        <ele>449.4</ele>
        <time>2024-11-18T10:20:43Z</time>
      </trkpt>
      <trkpt lat="48.19114" lon="6.79038">
        <ele>449.6</ele>
        <time>2024-11-18T10:20:50Z</time>
      </trkpt>
      <trkpt lat="48.19123" lon="6.79034">
        <ele>449.7</ele>
        <time>2024-11-18T10:20:57Z</time>
      </trkpt>
      <trkpt lat="48.19132" lon="6.79031">
        <ele>449.9</ele>
        <time>2024-11-18T10:21:04Z</time>
      </trkpt>
      <trkpt lat="48.19141" lon="6.79037">
        <ele>450.4</ele>
        <time>2024-11-18T10:21:11Z</time>
      </trkpt>
      <trkpt lat="48.19147" lon="6.79048">
        <ele>450.6</ele>
        <time>2024-11-18T10:21:18Z</time>
      </trkpt>
      <trkpt lat="48.19152" lon="6.7906">
        <ele>450.9</ele>
        <time>2024-11-18T10:21:25Z</time>
      </trkpt>
      <trkpt lat="48.19156" lon="6.79072">
        <ele>451.2</ele>
        <time>2024-11-18T10:21:32Z</time>
      </trkpt>
      <trkpt lat="48.19161" lon="6.79084">
        <ele>451.6</ele>
        <time>2024-11-18T10:21:39Z</time>
      </trkpt>
      <trkpt lat="48.19165" lon="6.79096">
        <ele>451.9</ele>
        <time>2024-11-18T10:21:46Z</time>
      </trkpt>
      <trkpt lat="48.19171" lon="6.79108">
        <ele>452.4</ele>
        <time>2024-11-18T10:21:53Z</time>
      </trkpt>
      <trkpt lat="48.19178" lon="6.79118">
        <ele>452.8</ele>
        <time>2024-11-18T10:22:00Z</time>
      </trkpt>
      <trkpt lat="48.19185" lon="6.79128">
        <ele>453.5</ele>
        <time>2024-11-18T10:22:07Z</time>
      </trkpt>
      <trkpt lat="48.19191" lon="6.79138">
        <ele>453.9</ele>
        <time>2024-11-18T10:22:14Z</time>
      </trkpt>
      <trkpt lat="48.19198" lon="6.79147">
        <ele>454</ele>
        <time>2024-11-18T10:22:21Z</time>
      </trkpt>
      <trkpt lat="48.19206" lon="6.79156">
        <ele>454</ele>
        <time>2024-11-18T10:22:28Z</time>
      </trkpt>
      <trkpt lat="48.19209" lon="6.7917">
        <ele>453.7</ele>
        <time>2024-11-18T10:22:36Z</time>
      </trkpt>
      <trkpt lat="48.19207" lon="6.79184">
        <ele>453.3</ele>
        <time>2024-11-18T10:22:43Z</time>
      </trkpt>
      <trkpt lat="48.19201" lon="6.79195">
        <ele>453</ele>
        <time>2024-11-18T10:22:50Z</time>
      </trkpt>
      <trkpt lat="48.19192" lon="6.79199">
        <ele>452.5</ele>
        <time>2024-11-18T10:22:57Z</time>
      </trkpt>
      <trkpt lat="48.19182" lon="6.79202">
        <ele>452</ele>
        <time>2024-11-18T10:23:04Z</time>
      </trkpt>
      <trkpt lat="48.19173" lon="6.79205">
        <ele>451.5</ele>
        <time>2024-11-18T10:23:11Z</time>
      </trkpt>
      <trkpt lat="48.19163" lon="6.79208">
        <ele>450.9</ele>
        <time>2024-11-18T10:23:18Z</time>
      </trkpt>
      <trkpt lat="48.19155" lon="6.79211">
        <ele>450.3</ele>
        <time>2024-11-18T10:23:25Z</time>
      </trkpt>
      <trkpt lat="48.19146" lon="6.79215">
        <ele>449.8</ele>
        <time>2024-11-18T10:23:32Z</time>
      </trkpt>
      <trkpt lat="48.19137" lon="6.79219">
        <ele>449.3</ele>
        <time>2024-11-18T10:23:39Z</time>
      </trkpt>
      <trkpt lat="48.19128" lon="6.79224">
        <ele>449</ele>
        <time>2024-11-18T10:23:46Z</time>
      </trkpt>
      <trkpt lat="48.19119" lon="6.79231">
        <ele>448.7</ele>
        <time>2024-11-18T10:23:54Z</time>
      </trkpt>
      <trkpt lat="48.19114" lon="6.79243">
        <ele>448.5</ele>
        <time>2024-11-18T10:24:01Z</time>
      </trkpt>
      <trkpt lat="48.19115" lon="6.79257">
        <ele>448.4</ele>
        <time>2024-11-18T10:24:08Z</time>
      </trkpt>
      <trkpt lat="48.1912" lon="6.79268">
        <ele>448.4</ele>
        <time>2024-11-18T10:24:15Z</time>
      </trkpt>
      <trkpt lat="48.19125" lon="6.79272">
        <ele>448.4</ele>
        <time>2024-11-18T10:24:25Z</time>
      </trkpt>
      <trkpt lat="48.19125" lon="6.79272">
        <ele>448.4</ele>
        <time>2024-11-18T10:24:26Z</time>
      </trkpt>
      <trkpt lat="48.19125" lon="6.79273">
        <ele>448.3</ele>
        <time>2024-11-18T10:24:44Z</time>
      </trkpt>
      <trkpt lat="48.19125" lon="6.79273">
        <ele>448.3</ele>
        <time>2024-11-18T10:24:45Z</time>
      </trkpt>
      <trkpt lat="48.19126" lon="6.79274">
        <ele>448.2</ele>
        <time>2024-11-18T10:24:51Z</time>
      </trkpt>
      <trkpt lat="48.19126" lon="6.79274">
        <ele>448.2</ele>
        <time>2024-11-18T10:24:52Z</time>
      </trkpt>
      <trkpt lat="48.19126" lon="6.79274">
        <ele>448.2</ele>
        <time>2024-11-18T10:24:58Z</time>
      </trkpt>
      <trkpt lat="48.19126" lon="6.79275">
        <ele>448.2</ele>
        <time>2024-11-18T10:24:59Z</time>
      </trkpt>
      <trkpt lat="48.19126" lon="6.79275">
        <ele>448.1</ele>
        <time>2024-11-18T10:25:00Z</time>
      </trkpt>
      <trkpt lat="48.19126" lon="6.79275">
        <ele>448.1</ele>
        <time>2024-11-18T10:25:04Z</time>
      </trkpt>
      <trkpt lat="48.19126" lon="6.79275">
        <ele>448.1</ele>
        <time>2024-11-18T10:25:05Z</time>
      </trkpt>
      <trkpt lat="48.19127" lon="6.79274">
        <ele>448</ele>
        <time>2024-11-18T10:25:14Z</time>
      </trkpt>
      <trkpt lat="48.19127" lon="6.79273">
        <ele>448</ele>
        <time>2024-11-18T10:25:15Z</time>
      </trkpt>
      <trkpt lat="48.19132" lon="6.79271">
        <ele>448.1</ele>
        <time>2024-11-18T10:25:28Z</time>
      </trkpt>
      <trkpt lat="48.19132" lon="6.79271">
        <ele>448</ele>
        <time>2024-11-18T10:25:29Z</time>
      </trkpt>
      <trkpt lat="48.19132" lon="6.79271">
        <ele>448</ele>
        <time>2024-11-18T10:25:30Z</time>
      </trkpt>
      <trkpt lat="48.19132" lon="6.79271">
        <ele>448</ele>
        <time>2024-11-18T10:25:31Z</time>
      </trkpt>
      <trkpt lat="48.19133" lon="6.79271">
        <ele>448</ele>
        <time>2024-11-18T10:25:32Z</time>
      </trkpt>
      <trkpt lat="48.19142" lon="6.79273">
        <ele>448.1</ele>
        <time>2024-11-18T10:25:40Z</time>
      </trkpt>
      <trkpt lat="48.19151" lon="6.79278">
        <ele>448.2</ele>
        <time>2024-11-18T10:25:48Z</time>
      </trkpt>
      <trkpt lat="48.19159" lon="6.79285">
        <ele>448.2</ele>
        <time>2024-11-18T10:25:54Z</time>
      </trkpt>
      <trkpt lat="48.19169" lon="6.79289">
        <ele>448.2</ele>
        <time>2024-11-18T10:26:01Z</time>
      </trkpt>
      <trkpt lat="48.19177" lon="6.79295">
        <ele>448.2</ele>
        <time>2024-11-18T10:26:10Z</time>
      </trkpt>
      <trkpt lat="48.19185" lon="6.79286">
        <ele>448.5</ele>
        <time>2024-11-18T10:26:24Z</time>
      </trkpt>
      <trkpt lat="48.19191" lon="6.79275">
        <ele>448.9</ele>
        <time>2024-11-18T10:26:31Z</time>
      </trkpt>
      <trkpt lat="48.19197" lon="6.79264">
        <ele>449.4</ele>
        <time>2024-11-18T10:26:39Z</time>
      </trkpt>
      <trkpt lat="48.19203" lon="6.79254">
        <ele>449.8</ele>
        <time>2024-11-18T10:26:45Z</time>
      </trkpt>
      <trkpt lat="48.19208" lon="6.7924">
        <ele>450.3</ele>
        <time>2024-11-18T10:26:51Z</time>
      </trkpt>
      <trkpt lat="48.1921" lon="6.79227">
        <ele>450.7</ele>
        <time>2024-11-18T10:26:58Z</time>
      </trkpt>
      <trkpt lat="48.19214" lon="6.79214">
        <ele>451.1</ele>
        <time>2024-11-18T10:27:05Z</time>
      </trkpt>
      <trkpt lat="48.1922" lon="6.79202">
        <ele>451.4</ele>
        <time>2024-11-18T10:27:12Z</time>
      </trkpt>
      <trkpt lat="48.19223" lon="6.79189">
        <ele>451.6</ele>
        <time>2024-11-18T10:27:19Z</time>
      </trkpt>
      <trkpt lat="48.19229" lon="6.79177">
        <ele>451.6</ele>
        <time>2024-11-18T10:27:25Z</time>
      </trkpt>
      <trkpt lat="48.19234" lon="6.79166">
        <ele>451.4</ele>
        <time>2024-11-18T10:27:32Z</time>
      </trkpt>
      <trkpt lat="48.19244" lon="6.79168">
        <ele>450.9</ele>
        <time>2024-11-18T10:27:39Z</time>
      </trkpt>
      <trkpt lat="48.19252" lon="6.79172">
        <ele>450.4</ele>
        <time>2024-11-18T10:27:45Z</time>
      </trkpt>
      <trkpt lat="48.1926" lon="6.79181">
        <ele>450.1</ele>
        <time>2024-11-18T10:27:52Z</time>
      </trkpt>
      <trkpt lat="48.19269" lon="6.79188">
        <ele>449.9</ele>
        <time>2024-11-18T10:27:59Z</time>
      </trkpt>
      <trkpt lat="48.19278" lon="6.7919">
        <ele>449.6</ele>
        <time>2024-11-18T10:28:07Z</time>
      </trkpt>
      <trkpt lat="48.19289" lon="6.7919">
        <ele>449.3</ele>
        <time>2024-11-18T10:28:15Z</time>
      </trkpt>
      <trkpt lat="48.19299" lon="6.79193">
        <ele>449.2</ele>
        <time>2024-11-18T10:28:23Z</time>
      </trkpt>
      <trkpt lat="48.19307" lon="6.792">
        <ele>449.3</ele>
        <time>2024-11-18T10:28:30Z</time>
      </trkpt>
      <trkpt lat="48.19316" lon="6.79208">
        <ele>449.4</ele>
        <time>2024-11-18T10:28:37Z</time>
      </trkpt>
      <trkpt lat="48.19325" lon="6.7921">
        <ele>449.5</ele>
        <time>2024-11-18T10:28:44Z</time>
      </trkpt>
      <trkpt lat="48.19328" lon="6.79223">
        <ele>450.1</ele>
        <time>2024-11-18T10:28:52Z</time>
      </trkpt>
      <trkpt lat="48.19323" lon="6.79236">
        <ele>450.5</ele>
        <time>2024-11-18T10:28:59Z</time>
      </trkpt>
      <trkpt lat="48.19317" lon="6.79247">
        <ele>451</ele>
        <time>2024-11-18T10:29:07Z</time>
      </trkpt>
      <trkpt lat="48.19322" lon="6.79259">
        <ele>451.4</ele>
        <time>2024-11-18T10:29:14Z</time>
      </trkpt>
      <trkpt lat="48.1933" lon="6.79268">
        <ele>451.7</ele>
        <time>2024-11-18T10:29:22Z</time>
      </trkpt>
      <trkpt lat="48.19336" lon="6.7928">
        <ele>452.3</ele>
        <time>2024-11-18T10:29:30Z</time>
      </trkpt>
      <trkpt lat="48.19344" lon="6.79289">
        <ele>452.7</ele>
        <time>2024-11-18T10:29:38Z</time>
      </trkpt>
      <trkpt lat="48.19352" lon="6.79299">
        <ele>453.5</ele>
        <time>2024-11-18T10:29:45Z</time>
      </trkpt>
      <trkpt lat="48.19358" lon="6.79309">
        <ele>454</ele>
        <time>2024-11-18T10:29:52Z</time>
      </trkpt>
      <trkpt lat="48.19363" lon="6.79321">
        <ele>454.7</ele>
        <time>2024-11-18T10:30:01Z</time>
      </trkpt>
      <trkpt lat="48.19367" lon="6.79335">
        <ele>455.1</ele>
        <time>2024-11-18T10:30:10Z</time>
      </trkpt>
      <trkpt lat="48.19373" lon="6.79345">
        <ele>455.3</ele>
        <time>2024-11-18T10:30:18Z</time>
      </trkpt>
      <trkpt lat="48.19379" lon="6.79357">
        <ele>455.4</ele>
        <time>2024-11-18T10:30:26Z</time>
      </trkpt>
      <trkpt lat="48.19386" lon="6.79367">
        <ele>455.3</ele>
        <time>2024-11-18T10:30:33Z</time>
      </trkpt>
      <trkpt lat="48.19392" lon="6.79378">
        <ele>455.1</ele>
        <time>2024-11-18T10:30:40Z</time>
      </trkpt>
      <trkpt lat="48.19397" lon="6.79389">
        <ele>454.6</ele>
        <time>2024-11-18T10:30:47Z</time>
      </trkpt>
      <trkpt lat="48.19404" lon="6.794">
        <ele>454.3</ele>
        <time>2024-11-18T10:30:54Z</time>
      </trkpt>
      <trkpt lat="48.1941" lon="6.79412">
        <ele>453.7</ele>
        <time>2024-11-18T10:31:01Z</time>
      </trkpt>
      <trkpt lat="48.19417" lon="6.79423">
        <ele>453.2</ele>
        <time>2024-11-18T10:31:09Z</time>
      </trkpt>
      <trkpt lat="48.19417" lon="6.79425">
        <ele>453.2</ele>
        <time>2024-11-18T10:31:17Z</time>
      </trkpt>
      <trkpt lat="48.19417" lon="6.79425">
        <ele>453.1</ele>
        <time>2024-11-18T10:31:18Z</time>
      </trkpt>
      <trkpt lat="48.19418" lon="6.79426">
        <ele>453.1</ele>
        <time>2024-11-18T10:31:19Z</time>
      </trkpt>
      <trkpt lat="48.19419" lon="6.79428">
        <ele>452.9</ele>
        <time>2024-11-18T10:31:20Z</time>
      </trkpt>
      <trkpt lat="48.1942" lon="6.79431">
        <ele>452.9</ele>
        <time>2024-11-18T10:31:21Z</time>
      </trkpt>
      <trkpt lat="48.19421" lon="6.79446">
        <ele>452.6</ele>
        <time>2024-11-18T10:31:28Z</time>
      </trkpt>
      <trkpt lat="48.19422" lon="6.7946">
        <ele>452.3</ele>
        <time>2024-11-18T10:31:34Z</time>
      </trkpt>
      <trkpt lat="48.19418" lon="6.79472">
        <ele>452.3</ele>
        <time>2024-11-18T10:31:43Z</time>
      </trkpt>
      <trkpt lat="48.19412" lon="6.79483">
        <ele>452.3</ele>
        <time>2024-11-18T10:31:50Z</time>
      </trkpt>
      <trkpt lat="48.19406" lon="6.79493">
        <ele>452.3</ele>
        <time>2024-11-18T10:31:57Z</time>
      </trkpt>
      <trkpt lat="48.19398" lon="6.79502">
        <ele>452.4</ele>
        <time>2024-11-18T10:32:05Z</time>
      </trkpt>
      <trkpt lat="48.19392" lon="6.79505">
        <ele>452.4</ele>
        <time>2024-11-18T10:32:14Z</time>
      </trkpt>
      <trkpt lat="48.19392" lon="6.79505">
        <ele>452.4</ele>
        <time>2024-11-18T10:32:15Z</time>
      </trkpt>
      <trkpt lat="48.19391" lon="6.79505">
        <ele>452.4</ele>
        <time>2024-11-18T10:32:18Z</time>
      </trkpt>
      <trkpt lat="48.1939" lon="6.79504">
        <ele>452.4</ele>
        <time>2024-11-18T10:32:19Z</time>
      </trkpt>
      <trkpt lat="48.1939" lon="6.79503">
        <ele>452.4</ele>
        <time>2024-11-18T10:32:20Z</time>
      </trkpt>
      <trkpt lat="48.1939" lon="6.79499">
        <ele>452.4</ele>
        <time>2024-11-18T10:32:36Z</time>
      </trkpt>
      <trkpt lat="48.1939" lon="6.79498">
        <ele>452.4</ele>
        <time>2024-11-18T10:32:37Z</time>
      </trkpt>
      <trkpt lat="48.19389" lon="6.79493">
        <ele>452.4</ele>
        <time>2024-11-18T10:32:41Z</time>
      </trkpt>
      <trkpt lat="48.19388" lon="6.79493">
        <ele>452.4</ele>
        <time>2024-11-18T10:32:42Z</time>
      </trkpt>
      <trkpt lat="48.19386" lon="6.79487">
        <ele>452.4</ele>
        <time>2024-11-18T10:32:58Z</time>
      </trkpt>
      <trkpt lat="48.19387" lon="6.79488">
        <ele>452.4</ele>
        <time>2024-11-18T10:32:59Z</time>
      </trkpt>
      <trkpt lat="48.19389" lon="6.7949">
        <ele>452.4</ele>
        <time>2024-11-18T10:33:00Z</time>
      </trkpt>
      <trkpt lat="48.19389" lon="6.7949">
        <ele>452.4</ele>
        <time>2024-11-18T10:33:01Z</time>
      </trkpt>
      <trkpt lat="48.1939" lon="6.79492">
        <ele>452.4</ele>
        <time>2024-11-18T10:33:02Z</time>
      </trkpt>
      <trkpt lat="48.19391" lon="6.79492">
        <ele>452.4</ele>
        <time>2024-11-18T10:33:03Z</time>
      </trkpt>
      <trkpt lat="48.19391" lon="6.79493">
        <ele>452.4</ele>
        <time>2024-11-18T10:33:04Z</time>
      </trkpt>
      <trkpt lat="48.19391" lon="6.79493">
        <ele>452.4</ele>
        <time>2024-11-18T10:33:05Z</time>
      </trkpt>
      <trkpt lat="48.19394" lon="6.79493">
        <ele>452.4</ele>
        <time>2024-11-18T10:33:18Z</time>
      </trkpt>
      <trkpt lat="48.19394" lon="6.79495">
        <ele>452.4</ele>
        <time>2024-11-18T10:33:19Z</time>
      </trkpt>
      <trkpt lat="48.19394" lon="6.79498">
        <ele>452.4</ele>
        <time>2024-11-18T10:33:20Z</time>
      </trkpt>
      <trkpt lat="48.19385" lon="6.79501">
        <ele>452.4</ele>
        <time>2024-11-18T10:33:25Z</time>
      </trkpt>
      <trkpt lat="48.19375" lon="6.79506">
        <ele>452.4</ele>
        <time>2024-11-18T10:33:32Z</time>
      </trkpt>
      <trkpt lat="48.19366" lon="6.79511">
        <ele>452.4</ele>
        <time>2024-11-18T10:33:39Z</time>
      </trkpt>
      <trkpt lat="48.19357" lon="6.79515">
        <ele>452.4</ele>
        <time>2024-11-18T10:33:46Z</time>
      </trkpt>
      <trkpt lat="48.1935" lon="6.79525">
        <ele>452.3</ele>
        <time>2024-11-18T10:33:53Z</time>
      </trkpt>
      <trkpt lat="48.19342" lon="6.79533">
        <ele>452.3</ele>
        <time>2024-11-18T10:34:01Z</time>
      </trkpt>
      <trkpt lat="48.19333" lon="6.79539">
        <ele>452.2</ele>
        <time>2024-11-18T10:34:09Z</time>
      </trkpt>
      <trkpt lat="48.19324" lon="6.79544">
        <ele>452.1</ele>
        <time>2024-11-18T10:34:17Z</time>
      </trkpt>
      <trkpt lat="48.19315" lon="6.7955">
        <ele>452</ele>
        <time>2024-11-18T10:34:25Z</time>
      </trkpt>
      <trkpt lat="48.19306" lon="6.79554">
        <ele>452</ele>
        <time>2024-11-18T10:34:32Z</time>
      </trkpt>
      <trkpt lat="48.19297" lon="6.79559">
        <ele>452</ele>
        <time>2024-11-18T10:34:39Z</time>
      </trkpt>
      <trkpt lat="48.19288" lon="6.79563">
        <ele>452</ele>
        <time>2024-11-18T10:34:47Z</time>
      </trkpt>
      <trkpt lat="48.19279" lon="6.79567">
        <ele>452</ele>
        <time>2024-11-18T10:34:55Z</time>
      </trkpt>
      <trkpt lat="48.19269" lon="6.7957">
        <ele>452.1</ele>
        <time>2024-11-18T10:35:03Z</time>
      </trkpt>
      <trkpt lat="48.1926" lon="6.79574">
        <ele>452.2</ele>
        <time>2024-11-18T10:35:11Z</time>
      </trkpt>
      <trkpt lat="48.1925" lon="6.79578">
        <ele>452.3</ele>
        <time>2024-11-18T10:35:19Z</time>
      </trkpt>
      <trkpt lat="48.19241" lon="6.79582">
        <ele>452.5</ele>
        <time>2024-11-18T10:35:27Z</time>
      </trkpt>
      <trkpt lat="48.19232" lon="6.79586">
        <ele>452.6</ele>
        <time>2024-11-18T10:35:35Z</time>
      </trkpt>
      <trkpt lat="48.19223" lon="6.7959">
        <ele>452.8</ele>
        <time>2024-11-18T10:35:43Z</time>
      </trkpt>
      <trkpt lat="48.19213" lon="6.79594">
        <ele>453</ele>
        <time>2024-11-18T10:35:51Z</time>
      </trkpt>
      <trkpt lat="48.19204" lon="6.79598">
        <ele>453.3</ele>
        <time>2024-11-18T10:35:59Z</time>
      </trkpt>
      <trkpt lat="48.19195" lon="6.79603">
        <ele>453.6</ele>
        <time>2024-11-18T10:36:06Z</time>
      </trkpt>
      <trkpt lat="48.19185" lon="6.79606">
        <ele>454</ele>
        <time>2024-11-18T10:36:14Z</time>
      </trkpt>
      <trkpt lat="48.19176" lon="6.7961">
        <ele>454.3</ele>
        <time>2024-11-18T10:36:22Z</time>
      </trkpt>
      <trkpt lat="48.19167" lon="6.79614">
        <ele>454.6</ele>
        <time>2024-11-18T10:36:29Z</time>
      </trkpt>
      <trkpt lat="48.19157" lon="6.79618">
        <ele>454.9</ele>
        <time>2024-11-18T10:36:37Z</time>
      </trkpt>
      <trkpt lat="48.19147" lon="6.79621">
        <ele>455.2</ele>
        <time>2024-11-18T10:36:45Z</time>
      </trkpt>
      <trkpt lat="48.19138" lon="6.79626">
        <ele>455.5</ele>
        <time>2024-11-18T10:36:53Z</time>
      </trkpt>
      <trkpt lat="48.19128" lon="6.79629">
        <ele>455.7</ele>
        <time>2024-11-18T10:37:01Z</time>
      </trkpt>
      <trkpt lat="48.19119" lon="6.79633">
        <ele>455.9</ele>
        <time>2024-11-18T10:37:08Z</time>
      </trkpt>
      <trkpt lat="48.19109" lon="6.79637">
        <ele>456</ele>
        <time>2024-11-18T10:37:16Z</time>
      </trkpt>
      <trkpt lat="48.19101" lon="6.79641">
        <ele>456.1</ele>
        <time>2024-11-18T10:37:23Z</time>
      </trkpt>
      <trkpt lat="48.19091" lon="6.79646">
        <ele>456.2</ele>
        <time>2024-11-18T10:37:31Z</time>
      </trkpt>
      <trkpt lat="48.19082" lon="6.79651">
        <ele>456.3</ele>
        <time>2024-11-18T10:37:38Z</time>
      </trkpt>
      <trkpt lat="48.19073" lon="6.79656">
        <ele>456.4</ele>
        <time>2024-11-18T10:37:46Z</time>
      </trkpt>
      <trkpt lat="48.19064" lon="6.79661">
        <ele>456.5</ele>
        <time>2024-11-18T10:37:54Z</time>
      </trkpt>
      <trkpt lat="48.19055" lon="6.79667">
        <ele>456.5</ele>
        <time>2024-11-18T10:38:02Z</time>
      </trkpt>
      <trkpt lat="48.19046" lon="6.79672">
        <ele>456.6</ele>
        <time>2024-11-18T10:38:10Z</time>
      </trkpt>
      <trkpt lat="48.19038" lon="6.79678">
        <ele>456.6</ele>
        <time>2024-11-18T10:38:17Z</time>
      </trkpt>
      <trkpt lat="48.19029" lon="6.79684">
        <ele>456.6</ele>
        <time>2024-11-18T10:38:24Z</time>
      </trkpt>
      <trkpt lat="48.1902" lon="6.7969">
        <ele>456.7</ele>
        <time>2024-11-18T10:38:32Z</time>
      </trkpt>
      <trkpt lat="48.19012" lon="6.79694">
        <ele>456.8</ele>
        <time>2024-11-18T10:38:39Z</time>
      </trkpt>
      <trkpt lat="48.19003" lon="6.797">
        <ele>456.9</ele>
        <time>2024-11-18T10:38:47Z</time>
      </trkpt>
      <trkpt lat="48.18994" lon="6.79709">
        <ele>457</ele>
        <time>2024-11-18T10:38:55Z</time>
      </trkpt>
      <trkpt lat="48.18995" lon="6.79723">
        <ele>457.4</ele>
        <time>2024-11-18T10:39:02Z</time>
      </trkpt>
      <trkpt lat="48.18999" lon="6.79737">
        <ele>457.9</ele>
        <time>2024-11-18T10:39:09Z</time>
      </trkpt>
      <trkpt lat="48.19004" lon="6.7975">
        <ele>458.4</ele>
        <time>2024-11-18T10:39:16Z</time>
      </trkpt>
      <trkpt lat="48.19009" lon="6.79763">
        <ele>458.9</ele>
        <time>2024-11-18T10:39:24Z</time>
      </trkpt>
      <trkpt lat="48.19014" lon="6.79776">
        <ele>459.5</ele>
        <time>2024-11-18T10:39:32Z</time>
      </trkpt>
      <trkpt lat="48.19019" lon="6.79788">
        <ele>460</ele>
        <time>2024-11-18T10:39:40Z</time>
      </trkpt>
      <trkpt lat="48.19024" lon="6.798">
        <ele>460.5</ele>
        <time>2024-11-18T10:39:48Z</time>
      </trkpt>
      <trkpt lat="48.19029" lon="6.79812">
        <ele>461</ele>
        <time>2024-11-18T10:39:56Z</time>
      </trkpt>
      <trkpt lat="48.19037" lon="6.79821">
        <ele>461.5</ele>
        <time>2024-11-18T10:40:04Z</time>
      </trkpt>
      <trkpt lat="48.19047" lon="6.79825">
        <ele>461.8</ele>
        <time>2024-11-18T10:40:12Z</time>
      </trkpt>
      <trkpt lat="48.19057" lon="6.79825">
        <ele>462</ele>
        <time>2024-11-18T10:40:20Z</time>
      </trkpt>
      <trkpt lat="48.19067" lon="6.79826">
        <ele>462.1</ele>
        <time>2024-11-18T10:40:28Z</time>
      </trkpt>
      <trkpt lat="48.19076" lon="6.79826">
        <ele>462.1</ele>
        <time>2024-11-18T10:40:35Z</time>
      </trkpt>
      <trkpt lat="48.19086" lon="6.79827">
        <ele>462.2</ele>
        <time>2024-11-18T10:40:43Z</time>
      </trkpt>
      <trkpt lat="48.19096" lon="6.79829">
        <ele>462.3</ele>
        <time>2024-11-18T10:40:51Z</time>
      </trkpt>
      <trkpt lat="48.19105" lon="6.79833">
        <ele>462.5</ele>
        <time>2024-11-18T10:40:59Z</time>
      </trkpt>
      <trkpt lat="48.19115" lon="6.79838">
        <ele>462.7</ele>
        <time>2024-11-18T10:41:07Z</time>
      </trkpt>
      <trkpt lat="48.19123" lon="6.79846">
        <ele>462.9</ele>
        <time>2024-11-18T10:41:15Z</time>
      </trkpt>
      <trkpt lat="48.1913" lon="6.79855">
        <ele>463.1</ele>
        <time>2024-11-18T10:41:23Z</time>
      </trkpt>
      <trkpt lat="48.19137" lon="6.79866">
        <ele>463.4</ele>
        <time>2024-11-18T10:41:31Z</time>
      </trkpt>
      <trkpt lat="48.19142" lon="6.79878">
        <ele>463.8</ele>
        <time>2024-11-18T10:41:39Z</time>
      </trkpt>
      <trkpt lat="48.19147" lon="6.79892">
        <ele>464.4</ele>
        <time>2024-11-18T10:41:47Z</time>
      </trkpt>
      <trkpt lat="48.19153" lon="6.79904">
        <ele>464.9</ele>
        <time>2024-11-18T10:41:55Z</time>
      </trkpt>
      <trkpt lat="48.19159" lon="6.79914">
        <ele>465.5</ele>
        <time>2024-11-18T10:42:02Z</time>
      </trkpt>
      <trkpt lat="48.19167" lon="6.79922">
        <ele>466.1</ele>
        <time>2024-11-18T10:42:09Z</time>
      </trkpt>
      <trkpt lat="48.19175" lon="6.7993">
        <ele>466.7</ele>
        <time>2024-11-18T10:42:17Z</time>
      </trkpt>
      <trkpt lat="48.19183" lon="6.79939">
        <ele>467.4</ele>
        <time>2024-11-18T10:42:25Z</time>
      </trkpt>
      <trkpt lat="48.19192" lon="6.79947">
        <ele>468</ele>
        <time>2024-11-18T10:42:33Z</time>
      </trkpt>
      <trkpt lat="48.192" lon="6.79956">
        <ele>468.7</ele>
        <time>2024-11-18T10:42:41Z</time>
      </trkpt>
      <trkpt lat="48.19208" lon="6.79964">
        <ele>469.4</ele>
        <time>2024-11-18T10:42:49Z</time>
      </trkpt>
      <trkpt lat="48.19216" lon="6.79972">
        <ele>470.1</ele>
        <time>2024-11-18T10:42:57Z</time>
      </trkpt>
      <trkpt lat="48.19224" lon="6.79981">
        <ele>470.7</ele>
        <time>2024-11-18T10:43:05Z</time>
      </trkpt>
      <trkpt lat="48.19231" lon="6.7999">
        <ele>471.4</ele>
        <time>2024-11-18T10:43:13Z</time>
      </trkpt>
      <trkpt lat="48.19239" lon="6.79999">
        <ele>472</ele>
        <time>2024-11-18T10:43:21Z</time>
      </trkpt>
      <trkpt lat="48.19247" lon="6.80008">
        <ele>472.7</ele>
        <time>2024-11-18T10:43:29Z</time>
      </trkpt>
      <trkpt lat="48.19254" lon="6.80016">
        <ele>473.4</ele>
        <time>2024-11-18T10:43:37Z</time>
      </trkpt>
      <trkpt lat="48.19262" lon="6.80026">
        <ele>474</ele>
        <time>2024-11-18T10:43:45Z</time>
      </trkpt>
      <trkpt lat="48.19269" lon="6.80034">
        <ele>474.7</ele>
        <time>2024-11-18T10:43:53Z</time>
      </trkpt>
      <trkpt lat="48.19277" lon="6.80044">
        <ele>475.2</ele>
        <time>2024-11-18T10:44:01Z</time>
      </trkpt>
      <trkpt lat="48.19284" lon="6.80054">
        <ele>475.7</ele>
        <time>2024-11-18T10:44:09Z</time>
      </trkpt>
      <trkpt lat="48.19291" lon="6.80063">
        <ele>476.2</ele>
        <time>2024-11-18T10:44:17Z</time>
      </trkpt>
      <trkpt lat="48.19298" lon="6.80074">
        <ele>476.4</ele>
        <time>2024-11-18T10:44:25Z</time>
      </trkpt>
      <trkpt lat="48.19305" lon="6.80084">
        <ele>476.6</ele>
        <time>2024-11-18T10:44:33Z</time>
      </trkpt>
      <trkpt lat="48.19312" lon="6.80095">
        <ele>476.7</ele>
        <time>2024-11-18T10:44:41Z</time>
      </trkpt>
      <trkpt lat="48.19319" lon="6.80105">
        <ele>476.8</ele>
        <time>2024-11-18T10:44:49Z</time>
      </trkpt>
      <trkpt lat="48.19326" lon="6.80115">
        <ele>476.8</ele>
        <time>2024-11-18T10:44:57Z</time>
      </trkpt>
      <trkpt lat="48.19333" lon="6.80126">
        <ele>476.7</ele>
        <time>2024-11-18T10:45:05Z</time>
      </trkpt>
      <trkpt lat="48.1934" lon="6.80136">
        <ele>476.6</ele>
        <time>2024-11-18T10:45:13Z</time>
      </trkpt>
      <trkpt lat="48.19345" lon="6.80148">
        <ele>476.5</ele>
        <time>2024-11-18T10:45:20Z</time>
      </trkpt>
      <trkpt lat="48.19351" lon="6.8016">
        <ele>476.4</ele>
        <time>2024-11-18T10:45:28Z</time>
      </trkpt>
      <trkpt lat="48.19356" lon="6.80173">
        <ele>476.2</ele>
        <time>2024-11-18T10:45:36Z</time>
      </trkpt>
      <trkpt lat="48.19361" lon="6.80185">
        <ele>476.1</ele>
        <time>2024-11-18T10:45:43Z</time>
      </trkpt>
      <trkpt lat="48.19368" lon="6.80196">
        <ele>476</ele>
        <time>2024-11-18T10:45:50Z</time>
      </trkpt>
      <trkpt lat="48.19378" lon="6.80201">
        <ele>476.1</ele>
        <time>2024-11-18T10:45:58Z</time>
      </trkpt>
      <trkpt lat="48.19387" lon="6.80203">
        <ele>476.1</ele>
        <time>2024-11-18T10:46:06Z</time>
      </trkpt>
      <trkpt lat="48.19397" lon="6.80203">
        <ele>476.2</ele>
        <time>2024-11-18T10:46:13Z</time>
      </trkpt>
      <trkpt lat="48.19406" lon="6.80204">
        <ele>476.2</ele>
        <time>2024-11-18T10:46:21Z</time>
      </trkpt>
      <trkpt lat="48.19415" lon="6.8021">
        <ele>476.3</ele>
        <time>2024-11-18T10:46:29Z</time>
      </trkpt>
      <trkpt lat="48.19421" lon="6.8021">
        <ele>476.3</ele>
        <time>2024-11-18T10:46:38Z</time>
      </trkpt>
      <trkpt lat="48.19421" lon="6.8021">
        <ele>476.3</ele>
        <time>2024-11-18T10:46:39Z</time>
      </trkpt>
      <trkpt lat="48.19421" lon="6.8021">
        <ele>476.4</ele>
        <time>2024-11-18T10:46:40Z</time>
      </trkpt>
      <trkpt lat="48.1942" lon="6.80211">
        <ele>476.5</ele>
        <time>2024-11-18T10:46:41Z</time>
      </trkpt>
      <trkpt lat="48.19419" lon="6.80212">
        <ele>476.6</ele>
        <time>2024-11-18T10:46:42Z</time>
      </trkpt>
      <trkpt lat="48.19415" lon="6.80226">
        <ele>477.4</ele>
        <time>2024-11-18T10:46:51Z</time>
      </trkpt>
      <trkpt lat="48.19411" lon="6.80238">
        <ele>478.1</ele>
        <time>2024-11-18T10:46:59Z</time>
      </trkpt>
      <trkpt lat="48.19404" lon="6.8025">
        <ele>478.9</ele>
        <time>2024-11-18T10:47:07Z</time>
      </trkpt>
      <trkpt lat="48.19397" lon="6.8026">
        <ele>479.8</ele>
        <time>2024-11-18T10:47:15Z</time>
      </trkpt>
      <trkpt lat="48.19391" lon="6.8027">
        <ele>480.7</ele>
        <time>2024-11-18T10:47:22Z</time>
      </trkpt>
      <trkpt lat="48.19384" lon="6.80281">
        <ele>481.8</ele>
        <time>2024-11-18T10:47:30Z</time>
      </trkpt>
      <trkpt lat="48.19377" lon="6.80293">
        <ele>482.9</ele>
        <time>2024-11-18T10:47:38Z</time>
      </trkpt>
      <trkpt lat="48.1937" lon="6.80304">
        <ele>483.9</ele>
        <time>2024-11-18T10:47:46Z</time>
      </trkpt>
      <trkpt lat="48.19364" lon="6.80314">
        <ele>484.8</ele>
        <time>2024-11-18T10:47:53Z</time>
      </trkpt>
      <trkpt lat="48.19358" lon="6.80326">
        <ele>485.8</ele>
        <time>2024-11-18T10:48:01Z</time>
      </trkpt>
      <trkpt lat="48.19353" lon="6.80338">
        <ele>486.6</ele>
        <time>2024-11-18T10:48:08Z</time>
      </trkpt>
      <trkpt lat="48.19349" lon="6.80351">
        <ele>487.5</ele>
        <time>2024-11-18T10:48:16Z</time>
      </trkpt>
      <trkpt lat="48.19345" lon="6.80364">
        <ele>488.5</ele>
        <time>2024-11-18T10:48:24Z</time>
      </trkpt>
      <trkpt lat="48.19339" lon="6.80376">
        <ele>489.6</ele>
        <time>2024-11-18T10:48:32Z</time>
      </trkpt>
      <trkpt lat="48.19333" lon="6.80388">
        <ele>490.8</ele>
        <time>2024-11-18T10:48:40Z</time>
      </trkpt>
      <trkpt lat="48.19325" lon="6.80397">
        <ele>492</ele>
        <time>2024-11-18T10:48:48Z</time>
      </trkpt>
      <trkpt lat="48.19316" lon="6.80403">
        <ele>493.4</ele>
        <time>2024-11-18T10:48:56Z</time>
      </trkpt>
      <trkpt lat="48.19307" lon="6.80408">
        <ele>494.7</ele>
        <time>2024-11-18T10:49:03Z</time>
      </trkpt>
      <trkpt lat="48.19298" lon="6.80412">
        <ele>495.9</ele>
        <time>2024-11-18T10:49:10Z</time>
      </trkpt>
      <trkpt lat="48.19289" lon="6.80417">
        <ele>496.9</ele>
        <time>2024-11-18T10:49:17Z</time>
      </trkpt>
      <trkpt lat="48.19279" lon="6.8042">
        <ele>497.7</ele>
        <time>2024-11-18T10:49:25Z</time>
      </trkpt>
      <trkpt lat="48.1927" lon="6.80422">
        <ele>498.3</ele>
        <time>2024-11-18T10:49:33Z</time>
      </trkpt>
      <trkpt lat="48.19259" lon="6.80422">
        <ele>499</ele>
        <time>2024-11-18T10:49:40Z</time>
      </trkpt>
      <trkpt lat="48.19252" lon="6.80413">
        <ele>499.5</ele>
        <time>2024-11-18T10:49:49Z</time>
      </trkpt>
      <trkpt lat="48.19246" lon="6.80403">
        <ele>500</ele>
        <time>2024-11-18T10:49:58Z</time>
      </trkpt>
      <trkpt lat="48.19241" lon="6.80391">
        <ele>500.5</ele>
        <time>2024-11-18T10:50:05Z</time>
      </trkpt>
      <trkpt lat="48.19239" lon="6.80377">
        <ele>501</ele>
        <time>2024-11-18T10:50:12Z</time>
      </trkpt>
      <trkpt lat="48.19232" lon="6.80367">
        <ele>501.7</ele>
        <time>2024-11-18T10:50:19Z</time>
      </trkpt>
      <trkpt lat="48.19223" lon="6.80361">
        <ele>502.4</ele>
        <time>2024-11-18T10:50:25Z</time>
      </trkpt>
      <trkpt lat="48.19214" lon="6.80366">
        <ele>503.3</ele>
        <time>2024-11-18T10:50:30Z</time>
      </trkpt>
      <trkpt lat="48.19207" lon="6.80375">
        <ele>504.4</ele>
        <time>2024-11-18T10:50:37Z</time>
      </trkpt>
      <trkpt lat="48.19202" lon="6.80387">
        <ele>505.6</ele>
        <time>2024-11-18T10:50:44Z</time>
      </trkpt>
      <trkpt lat="48.19199" lon="6.80401">
        <ele>507.1</ele>
        <time>2024-11-18T10:50:52Z</time>
      </trkpt>
      <trkpt lat="48.19201" lon="6.80416">
        <ele>508.9</ele>
        <time>2024-11-18T10:51:00Z</time>
      </trkpt>
      <trkpt lat="48.19205" lon="6.80429">
        <ele>510.5</ele>
        <time>2024-11-18T10:51:08Z</time>
      </trkpt>
      <trkpt lat="48.19213" lon="6.8044">
        <ele>512.2</ele>
        <time>2024-11-18T10:51:16Z</time>
      </trkpt>
      <trkpt lat="48.19217" lon="6.80452">
        <ele>513.6</ele>
        <time>2024-11-18T10:51:25Z</time>
      </trkpt>
      <trkpt lat="48.1922" lon="6.80465">
        <ele>514.9</ele>
        <time>2024-11-18T10:51:32Z</time>
      </trkpt>
      <trkpt lat="48.19224" lon="6.80478">
        <ele>516.2</ele>
        <time>2024-11-18T10:51:40Z</time>
      </trkpt>
      <trkpt lat="48.19226" lon="6.80492">
        <ele>517.5</ele>
        <time>2024-11-18T10:51:47Z</time>
      </trkpt>
      <trkpt lat="48.19229" lon="6.80505">
        <ele>518.8</ele>
        <time>2024-11-18T10:51:54Z</time>
      </trkpt>
      <trkpt lat="48.19233" lon="6.80519">
        <ele>520.1</ele>
        <time>2024-11-18T10:52:03Z</time>
      </trkpt>
      <trkpt lat="48.19237" lon="6.80531">
        <ele>521.2</ele>
        <time>2024-11-18T10:52:11Z</time>
      </trkpt>
      <trkpt lat="48.19241" lon="6.80544">
        <ele>522.4</ele>
        <time>2024-11-18T10:52:18Z</time>
      </trkpt>
      <trkpt lat="48.19247" lon="6.80556">
        <ele>523.6</ele>
        <time>2024-11-18T10:52:26Z</time>
      </trkpt>
      <trkpt lat="48.19252" lon="6.80566">
        <ele>524.8</ele>
        <time>2024-11-18T10:52:34Z</time>
      </trkpt>
      <trkpt lat="48.19259" lon="6.80576">
        <ele>525.9</ele>
        <time>2024-11-18T10:52:41Z</time>
      </trkpt>
      <trkpt lat="48.19267" lon="6.80584">
        <ele>527.1</ele>
        <time>2024-11-18T10:52:48Z</time>
      </trkpt>
      <trkpt lat="48.19271" lon="6.80596">
        <ele>528.1</ele>
        <time>2024-11-18T10:52:55Z</time>
      </trkpt>
      <trkpt lat="48.19277" lon="6.80608">
        <ele>529.2</ele>
        <time>2024-11-18T10:53:03Z</time>
      </trkpt>
      <trkpt lat="48.19284" lon="6.80617">
        <ele>530.2</ele>
        <time>2024-11-18T10:53:10Z</time>
      </trkpt>
      <trkpt lat="48.1929" lon="6.80627">
        <ele>531.3</ele>
        <time>2024-11-18T10:53:17Z</time>
      </trkpt>
      <trkpt lat="48.19296" lon="6.80638">
        <ele>532.4</ele>
        <time>2024-11-18T10:53:25Z</time>
      </trkpt>
      <trkpt lat="48.19303" lon="6.80648">
        <ele>533.6</ele>
        <time>2024-11-18T10:53:32Z</time>
      </trkpt>
      <trkpt lat="48.1931" lon="6.80657">
        <ele>534.8</ele>
        <time>2024-11-18T10:53:39Z</time>
      </trkpt>
      <trkpt lat="48.19316" lon="6.80668">
        <ele>536</ele>
        <time>2024-11-18T10:53:47Z</time>
      </trkpt>
      <trkpt lat="48.19322" lon="6.8068">
        <ele>537.4</ele>
        <time>2024-11-18T10:53:56Z</time>
      </trkpt>
      <trkpt lat="48.19327" lon="6.80691">
        <ele>538.6</ele>
        <time>2024-11-18T10:54:03Z</time>
      </trkpt>
      <trkpt lat="48.19332" lon="6.80704">
        <ele>540</ele>
        <time>2024-11-18T10:54:13Z</time>
      </trkpt>
      <trkpt lat="48.19336" lon="6.80718">
        <ele>541.5</ele>
        <time>2024-11-18T10:54:22Z</time>
      </trkpt>
      <trkpt lat="48.19341" lon="6.80729">
        <ele>542.9</ele>
        <time>2024-11-18T10:54:31Z</time>
      </trkpt>
      <trkpt lat="48.19344" lon="6.80742">
        <ele>544.4</ele>
        <time>2024-11-18T10:54:39Z</time>
      </trkpt>
      <trkpt lat="48.19346" lon="6.80757">
        <ele>546</ele>
        <time>2024-11-18T10:54:47Z</time>
      </trkpt>
      <trkpt lat="48.19349" lon="6.80771">
        <ele>547.5</ele>
        <time>2024-11-18T10:54:56Z</time>
      </trkpt>
      <trkpt lat="48.19352" lon="6.80784">
        <ele>549</ele>
        <time>2024-11-18T10:55:04Z</time>
      </trkpt>
      <trkpt lat="48.19356" lon="6.80797">
        <ele>550.4</ele>
        <time>2024-11-18T10:55:12Z</time>
      </trkpt>
      <trkpt lat="48.19359" lon="6.8081">
        <ele>551.8</ele>
        <time>2024-11-18T10:55:20Z</time>
      </trkpt>
      <trkpt lat="48.19363" lon="6.80824">
        <ele>553.2</ele>
        <time>2024-11-18T10:55:28Z</time>
      </trkpt>
      <trkpt lat="48.19365" lon="6.80839">
        <ele>554.5</ele>
        <time>2024-11-18T10:55:37Z</time>
      </trkpt>
      <trkpt lat="48.1937" lon="6.80852">
        <ele>555.8</ele>
        <time>2024-11-18T10:55:45Z</time>
      </trkpt>
      <trkpt lat="48.19375" lon="6.80864">
        <ele>556.9</ele>
        <time>2024-11-18T10:55:53Z</time>
      </trkpt>
      <trkpt lat="48.19379" lon="6.80877">
        <ele>557.9</ele>
        <time>2024-11-18T10:56:01Z</time>
      </trkpt>
      <trkpt lat="48.19381" lon="6.8089">
        <ele>558.9</ele>
        <time>2024-11-18T10:56:09Z</time>
      </trkpt>
      <trkpt lat="48.19385" lon="6.80904">
        <ele>559.9</ele>
        <time>2024-11-18T10:56:17Z</time>
      </trkpt>
      <trkpt lat="48.19389" lon="6.80918">
        <ele>561</ele>
        <time>2024-11-18T10:56:25Z</time>
      </trkpt>
      <trkpt lat="48.19391" lon="6.80932">
        <ele>562</ele>
        <time>2024-11-18T10:56:32Z</time>
      </trkpt>
      <trkpt lat="48.19393" lon="6.80946">
        <ele>563</ele>
        <time>2024-11-18T10:56:40Z</time>
      </trkpt>
      <trkpt lat="48.19395" lon="6.8096">
        <ele>564</ele>
        <time>2024-11-18T10:56:48Z</time>
      </trkpt>
      <trkpt lat="48.19397" lon="6.80964">
        <ele>564.4</ele>
        <time>2024-11-18T10:57:06Z</time>
      </trkpt>
      <trkpt lat="48.19397" lon="6.80964">
        <ele>564.4</ele>
        <time>2024-11-18T10:57:07Z</time>
      </trkpt>
      <trkpt lat="48.19397" lon="6.80964">
        <ele>564.4</ele>
        <time>2024-11-18T10:57:08Z</time>
      </trkpt>
      <trkpt lat="48.19396" lon="6.80964">
        <ele>564.4</ele>
        <time>2024-11-18T10:58:51Z</time>
      </trkpt>
      <trkpt lat="48.19396" lon="6.80964">
        <ele>564.4</ele>
        <time>2024-11-18T10:58:52Z</time>
      </trkpt>
      <trkpt lat="48.19396" lon="6.80964">
        <ele>564.4</ele>
        <time>2024-11-18T10:58:53Z</time>
      </trkpt>
      <trkpt lat="48.19396" lon="6.80964">
        <ele>564.4</ele>
        <time>2024-11-18T10:58:57Z</time>
      </trkpt>
      <trkpt lat="48.19396" lon="6.80964">
        <ele>564.4</ele>
        <time>2024-11-18T10:58:58Z</time>
      </trkpt>
      <trkpt lat="48.19396" lon="6.80964">
        <ele>564.5</ele>
        <time>2024-11-18T10:59:01Z</time>
      </trkpt>
      <trkpt lat="48.19396" lon="6.80964">
        <ele>564.5</ele>
        <time>2024-11-18T10:59:02Z</time>
      </trkpt>
      <trkpt lat="48.19396" lon="6.80964">
        <ele>564.5</ele>
        <time>2024-11-18T10:59:03Z</time>
      </trkpt>
      <trkpt lat="48.19396" lon="6.80964">
        <ele>564.5</ele>
        <time>2024-11-18T10:59:04Z</time>
      </trkpt>
      <trkpt lat="48.19396" lon="6.80964">
        <ele>564.5</ele>
        <time>2024-11-18T10:59:05Z</time>
      </trkpt>
      <trkpt lat="48.19396" lon="6.80964">
        <ele>564.5</ele>
        <time>2024-11-18T10:59:06Z</time>
      </trkpt>
      <trkpt lat="48.19396" lon="6.80963">
        <ele>564.5</ele>
        <time>2024-11-18T10:59:07Z</time>
      </trkpt>
      <trkpt lat="48.19396" lon="6.80963">
        <ele>564.5</ele>
        <time>2024-11-18T10:59:08Z</time>
      </trkpt>
      <trkpt lat="48.19396" lon="6.80963">
        <ele>564.5</ele>
        <time>2024-11-18T10:59:09Z</time>
      </trkpt>
      <trkpt lat="48.19396" lon="6.80963">
        <ele>564.6</ele>
        <time>2024-11-18T10:59:10Z</time>
      </trkpt>
      <trkpt lat="48.19396" lon="6.80963">
        <ele>564.6</ele>
        <time>2024-11-18T10:59:11Z</time>
      </trkpt>
      <trkpt lat="48.19395" lon="6.80963">
        <ele>564.6</ele>
        <time>2024-11-18T10:59:14Z</time>
      </trkpt>
      <trkpt lat="48.19395" lon="6.80962">
        <ele>564.7</ele>
        <time>2024-11-18T10:59:15Z</time>
      </trkpt>
      <trkpt lat="48.19395" lon="6.80962">
        <ele>564.7</ele>
        <time>2024-11-18T10:59:16Z</time>
      </trkpt>
      <trkpt lat="48.19395" lon="6.80962">
        <ele>564.7</ele>
        <time>2024-11-18T10:59:17Z</time>
      </trkpt>
      <trkpt lat="48.19395" lon="6.80962">
        <ele>564.7</ele>
        <time>2024-11-18T10:59:18Z</time>
      </trkpt>
      <trkpt lat="48.19395" lon="6.80962">
        <ele>564.7</ele>
        <time>2024-11-18T10:59:24Z</time>
      </trkpt>
      <trkpt lat="48.19394" lon="6.80963">
        <ele>564.8</ele>
        <time>2024-11-18T10:59:25Z</time>
      </trkpt>
      <trkpt lat="48.19394" lon="6.80963">
        <ele>564.8</ele>
        <time>2024-11-18T10:59:26Z</time>
      </trkpt>
      <trkpt lat="48.19392" lon="6.80964">
        <ele>565</ele>
        <time>2024-11-18T10:59:33Z</time>
      </trkpt>
      <trkpt lat="48.19392" lon="6.80964">
        <ele>565</ele>
        <time>2024-11-18T10:59:34Z</time>
      </trkpt>
      <trkpt lat="48.19391" lon="6.80964">
        <ele>565.1</ele>
        <time>2024-11-18T10:59:35Z</time>
      </trkpt>
      <trkpt lat="48.19391" lon="6.80964">
        <ele>565.1</ele>
        <time>2024-11-18T10:59:36Z</time>
      </trkpt>
      <trkpt lat="48.19391" lon="6.80962">
        <ele>565.3</ele>
        <time>2024-11-18T10:59:37Z</time>
      </trkpt>
      <trkpt lat="48.19392" lon="6.80961">
        <ele>565.3</ele>
        <time>2024-11-18T10:59:38Z</time>
      </trkpt>
      <trkpt lat="48.19392" lon="6.80961">
        <ele>565.3</ele>
        <time>2024-11-18T10:59:39Z</time>
      </trkpt>
      <trkpt lat="48.19392" lon="6.80962">
        <ele>565.4</ele>
        <time>2024-11-18T10:59:40Z</time>
      </trkpt>
      <trkpt lat="48.19393" lon="6.80962">
        <ele>565.5</ele>
        <time>2024-11-18T10:59:41Z</time>
      </trkpt>
      <trkpt lat="48.19393" lon="6.80963">
        <ele>565.5</ele>
        <time>2024-11-18T10:59:42Z</time>
      </trkpt>
      <trkpt lat="48.19393" lon="6.80963">
        <ele>565.6</ele>
        <time>2024-11-18T10:59:46Z</time>
      </trkpt>
      <trkpt lat="48.19394" lon="6.80963">
        <ele>565.6</ele>
        <time>2024-11-18T10:59:47Z</time>
      </trkpt>
      <trkpt lat="48.19394" lon="6.80964">
        <ele>565.7</ele>
        <time>2024-11-18T10:59:48Z</time>
      </trkpt>
      <trkpt lat="48.19394" lon="6.80965">
        <ele>565.7</ele>
        <time>2024-11-18T10:59:49Z</time>
      </trkpt>
      <trkpt lat="48.19393" lon="6.80966">
        <ele>565.8</ele>
        <time>2024-11-18T10:59:50Z</time>
      </trkpt>
      <trkpt lat="48.19396" lon="6.80979">
        <ele>566.6</ele>
        <time>2024-11-18T11:00:02Z</time>
      </trkpt>
      <trkpt lat="48.19402" lon="6.8099">
        <ele>566.9</ele>
        <time>2024-11-18T11:00:09Z</time>
      </trkpt>
      <trkpt lat="48.1941" lon="6.81">
        <ele>567</ele>
        <time>2024-11-18T11:00:18Z</time>
      </trkpt>
      <trkpt lat="48.19416" lon="6.81009">
        <ele>567.1</ele>
        <time>2024-11-18T11:00:27Z</time>
      </trkpt>
      <trkpt lat="48.19416" lon="6.8101">
        <ele>567.1</ele>
        <time>2024-11-18T11:00:31Z</time>
      </trkpt>
      <trkpt lat="48.19416" lon="6.8101">
        <ele>567.1</ele>
        <time>2024-11-18T11:00:32Z</time>
      </trkpt>
      <trkpt lat="48.19416" lon="6.8101">
        <ele>567.1</ele>
        <time>2024-11-18T11:00:33Z</time>
      </trkpt>
      <trkpt lat="48.19418" lon="6.81014">
        <ele>567.1</ele>
        <time>2024-11-18T11:00:51Z</time>
      </trkpt>
      <trkpt lat="48.19419" lon="6.81016">
        <ele>567.1</ele>
        <time>2024-11-18T11:00:52Z</time>
      </trkpt>
      <trkpt lat="48.1942" lon="6.81018">
        <ele>567.1</ele>
        <time>2024-11-18T11:00:53Z</time>
      </trkpt>
      <trkpt lat="48.19426" lon="6.81028">
        <ele>567.2</ele>
        <time>2024-11-18T11:01:00Z</time>
      </trkpt>
      <trkpt lat="48.19427" lon="6.81029">
        <ele>567.2</ele>
        <time>2024-11-18T11:01:04Z</time>
      </trkpt>
      <trkpt lat="48.19427" lon="6.81029">
        <ele>567.2</ele>
        <time>2024-11-18T11:01:05Z</time>
      </trkpt>
      <trkpt lat="48.19429" lon="6.81033">
        <ele>567.2</ele>
        <time>2024-11-18T11:01:24Z</time>
      </trkpt>
      <trkpt lat="48.1943" lon="6.81035">
        <ele>567.2</ele>
        <time>2024-11-18T11:01:25Z</time>
      </trkpt>
      <trkpt lat="48.19436" lon="6.81046">
        <ele>567.3</ele>
        <time>2024-11-18T11:01:32Z</time>
      </trkpt>
      <trkpt lat="48.1944" lon="6.81056">
        <ele>567.3</ele>
        <time>2024-11-18T11:01:43Z</time>
      </trkpt>
      <trkpt lat="48.1944" lon="6.81056">
        <ele>567.3</ele>
        <time>2024-11-18T11:01:44Z</time>
      </trkpt>
      <trkpt lat="48.1944" lon="6.81056">
        <ele>567.3</ele>
        <time>2024-11-18T11:01:45Z</time>
      </trkpt>
      <trkpt lat="48.1944" lon="6.81058">
        <ele>567.3</ele>
        <time>2024-11-18T11:02:01Z</time>
      </trkpt>
      <trkpt lat="48.1944" lon="6.81058">
        <ele>567.3</ele>
        <time>2024-11-18T11:02:02Z</time>
      </trkpt>
      <trkpt lat="48.1944" lon="6.81058">
        <ele>567.3</ele>
        <time>2024-11-18T11:02:03Z</time>
      </trkpt>
      <trkpt lat="48.1944" lon="6.81059">
        <ele>567.3</ele>
        <time>2024-11-18T11:02:04Z</time>
      </trkpt>
      <trkpt lat="48.19439" lon="6.81059">
        <ele>567.3</ele>
        <time>2024-11-18T11:02:05Z</time>
      </trkpt>
      <trkpt lat="48.1944" lon="6.81061">
        <ele>567.3</ele>
        <time>2024-11-18T11:02:24Z</time>
      </trkpt>
      <trkpt lat="48.1944" lon="6.81062">
        <ele>567.3</ele>
        <time>2024-11-18T11:02:25Z</time>
      </trkpt>
      <trkpt lat="48.1944" lon="6.81064">
        <ele>567.3</ele>
        <time>2024-11-18T11:02:26Z</time>
      </trkpt>
      <trkpt lat="48.19444" lon="6.81078">
        <ele>567.3</ele>
        <time>2024-11-18T11:02:34Z</time>
      </trkpt>
      <trkpt lat="48.19447" lon="6.81091">
        <ele>567.3</ele>
        <time>2024-11-18T11:02:41Z</time>
      </trkpt>
      <trkpt lat="48.1945" lon="6.81104">
        <ele>567.4</ele>
        <time>2024-11-18T11:02:48Z</time>
      </trkpt>
      <trkpt lat="48.19454" lon="6.81117">
        <ele>567.6</ele>
        <time>2024-11-18T11:02:55Z</time>
      </trkpt>
      <trkpt lat="48.19459" lon="6.81128">
        <ele>567.9</ele>
        <time>2024-11-18T11:03:02Z</time>
      </trkpt>
      <trkpt lat="48.19468" lon="6.81136">
        <ele>568.2</ele>
        <time>2024-11-18T11:03:10Z</time>
      </trkpt>
      <trkpt lat="48.19475" lon="6.81145">
        <ele>568.5</ele>
        <time>2024-11-18T11:03:17Z</time>
      </trkpt>
      <trkpt lat="48.19483" lon="6.81153">
        <ele>569</ele>
        <time>2024-11-18T11:03:25Z</time>
      </trkpt>
      <trkpt lat="48.1949" lon="6.81164">
        <ele>569.4</ele>
        <time>2024-11-18T11:03:32Z</time>
      </trkpt>
      <trkpt lat="48.19495" lon="6.81176">
        <ele>569.9</ele>
        <time>2024-11-18T11:03:39Z</time>
      </trkpt>
      <trkpt lat="48.195" lon="6.81189">
        <ele>570.2</ele>
        <time>2024-11-18T11:03:47Z</time>
      </trkpt>
      <trkpt lat="48.19502" lon="6.81203">
        <ele>570.5</ele>
        <time>2024-11-18T11:03:55Z</time>
      </trkpt>
      <trkpt lat="48.19505" lon="6.81217">
        <ele>570.7</ele>
        <time>2024-11-18T11:04:03Z</time>
      </trkpt>
      <trkpt lat="48.19508" lon="6.8123">
        <ele>571.2</ele>
        <time>2024-11-18T11:04:11Z</time>
      </trkpt>
      <trkpt lat="48.19515" lon="6.81241">
        <ele>571.7</ele>
        <time>2024-11-18T11:04:19Z</time>
      </trkpt>
      <trkpt lat="48.19521" lon="6.81253">
        <ele>572.3</ele>
        <time>2024-11-18T11:04:28Z</time>
      </trkpt>
      <trkpt lat="48.19525" lon="6.81265">
        <ele>572.7</ele>
        <time>2024-11-18T11:04:36Z</time>
      </trkpt>
      <trkpt lat="48.19531" lon="6.81278">
        <ele>573.1</ele>
        <time>2024-11-18T11:04:44Z</time>
      </trkpt>
      <trkpt lat="48.19537" lon="6.8129">
        <ele>573.4</ele>
        <time>2024-11-18T11:04:51Z</time>
      </trkpt>
      <trkpt lat="48.19542" lon="6.81302">
        <ele>573.7</ele>
        <time>2024-11-18T11:04:58Z</time>
      </trkpt>
      <trkpt lat="48.19548" lon="6.81312">
        <ele>574</ele>
        <time>2024-11-18T11:05:05Z</time>
      </trkpt>
      <trkpt lat="48.19552" lon="6.81325">
        <ele>574.3</ele>
        <time>2024-11-18T11:05:12Z</time>
      </trkpt>
      <trkpt lat="48.19557" lon="6.81336">
        <ele>574.6</ele>
        <time>2024-11-18T11:05:19Z</time>
      </trkpt>
      <trkpt lat="48.19563" lon="6.81348">
        <ele>575</ele>
        <time>2024-11-18T11:05:26Z</time>
      </trkpt>
      <trkpt lat="48.19569" lon="6.81358">
        <ele>575.4</ele>
        <time>2024-11-18T11:05:33Z</time>
      </trkpt>
      <trkpt lat="48.19573" lon="6.81371">
        <ele>575.8</ele>
        <time>2024-11-18T11:05:40Z</time>
      </trkpt>
      <trkpt lat="48.19576" lon="6.81385">
        <ele>576.2</ele>
        <time>2024-11-18T11:05:48Z</time>
      </trkpt>
      <trkpt lat="48.19578" lon="6.81399">
        <ele>576.6</ele>
        <time>2024-11-18T11:05:55Z</time>
      </trkpt>
      <trkpt lat="48.19581" lon="6.81413">
        <ele>576.8</ele>
        <time>2024-11-18T11:06:02Z</time>
      </trkpt>
      <trkpt lat="48.19583" lon="6.81426">
        <ele>576.9</ele>
        <time>2024-11-18T11:06:09Z</time>
      </trkpt>
      <trkpt lat="48.19583" lon="6.81441">
        <ele>577</ele>
        <time>2024-11-18T11:06:16Z</time>
      </trkpt>
      <trkpt lat="48.19585" lon="6.81456">
        <ele>577.1</ele>
        <time>2024-11-18T11:06:23Z</time>
      </trkpt>
      <trkpt lat="48.19587" lon="6.81471">
        <ele>577.1</ele>
        <time>2024-11-18T11:06:31Z</time>
      </trkpt>
      <trkpt lat="48.19586" lon="6.81486">
        <ele>577.2</ele>
        <time>2024-11-18T11:06:39Z</time>
      </trkpt>
      <trkpt lat="48.19588" lon="6.815">
        <ele>577.4</ele>
        <time>2024-11-18T11:06:46Z</time>
      </trkpt>
      <trkpt lat="48.19589" lon="6.81514">
        <ele>577.5</ele>
        <time>2024-11-18T11:06:55Z</time>
      </trkpt>
      <trkpt lat="48.19591" lon="6.81528">
        <ele>577.6</ele>
        <time>2024-11-18T11:07:02Z</time>
      </trkpt>
      <trkpt lat="48.19593" lon="6.81542">
        <ele>577.7</ele>
        <time>2024-11-18T11:07:09Z</time>
      </trkpt>
      <trkpt lat="48.19593" lon="6.81555">
        <ele>577.8</ele>
        <time>2024-11-18T11:07:16Z</time>
      </trkpt>
      <trkpt lat="48.19595" lon="6.81569">
        <ele>578</ele>
        <time>2024-11-18T11:07:23Z</time>
      </trkpt>
      <trkpt lat="48.19595" lon="6.81584">
        <ele>578.1</ele>
        <time>2024-11-18T11:07:32Z</time>
      </trkpt>
      <trkpt lat="48.19593" lon="6.81597">
        <ele>578.3</ele>
        <time>2024-11-18T11:07:40Z</time>
      </trkpt>
      <trkpt lat="48.1959" lon="6.8161">
        <ele>578.5</ele>
        <time>2024-11-18T11:07:50Z</time>
      </trkpt>
      <trkpt lat="48.19589" lon="6.81625">
        <ele>578.6</ele>
        <time>2024-11-18T11:07:57Z</time>
      </trkpt>
      <trkpt lat="48.19589" lon="6.8164">
        <ele>578.8</ele>
        <time>2024-11-18T11:08:05Z</time>
      </trkpt>
      <trkpt lat="48.19586" lon="6.81654">
        <ele>578.9</ele>
        <time>2024-11-18T11:08:13Z</time>
      </trkpt>
      <trkpt lat="48.19586" lon="6.81668">
        <ele>579.2</ele>
        <time>2024-11-18T11:08:21Z</time>
      </trkpt>
      <trkpt lat="48.19584" lon="6.81681">
        <ele>579.5</ele>
        <time>2024-11-18T11:08:30Z</time>
      </trkpt>
      <trkpt lat="48.19582" lon="6.81695">
        <ele>579.9</ele>
        <time>2024-11-18T11:08:39Z</time>
      </trkpt>
      <trkpt lat="48.19579" lon="6.81709">
        <ele>580.5</ele>
        <time>2024-11-18T11:08:48Z</time>
      </trkpt>
      <trkpt lat="48.19575" lon="6.81722">
        <ele>580.9</ele>
        <time>2024-11-18T11:08:57Z</time>
      </trkpt>
      <trkpt lat="48.19572" lon="6.81734">
        <ele>581.3</ele>
        <time>2024-11-18T11:09:06Z</time>
      </trkpt>
      <trkpt lat="48.19569" lon="6.81748">
        <ele>581.7</ele>
        <time>2024-11-18T11:09:15Z</time>
      </trkpt>
      <trkpt lat="48.19566" lon="6.81762">
        <ele>582</ele>
        <time>2024-11-18T11:09:24Z</time>
      </trkpt>
      <trkpt lat="48.19561" lon="6.81775">
        <ele>582.3</ele>
        <time>2024-11-18T11:09:33Z</time>
      </trkpt>
      <trkpt lat="48.19559" lon="6.81789">
        <ele>582.6</ele>
        <time>2024-11-18T11:09:41Z</time>
      </trkpt>
      <trkpt lat="48.19561" lon="6.81802">
        <ele>582.9</ele>
        <time>2024-11-18T11:09:48Z</time>
      </trkpt>
      <trkpt lat="48.19567" lon="6.81812">
        <ele>583.1</ele>
        <time>2024-11-18T11:09:56Z</time>
      </trkpt>
      <trkpt lat="48.19576" lon="6.81817">
        <ele>583.4</ele>
        <time>2024-11-18T11:10:04Z</time>
      </trkpt>
      <trkpt lat="48.19585" lon="6.81825">
        <ele>583.6</ele>
        <time>2024-11-18T11:10:12Z</time>
      </trkpt>
      <trkpt lat="48.19592" lon="6.81835">
        <ele>583.7</ele>
        <time>2024-11-18T11:10:20Z</time>
      </trkpt>
      <trkpt lat="48.19597" lon="6.81846">
        <ele>583.9</ele>
        <time>2024-11-18T11:10:29Z</time>
      </trkpt>
      <trkpt lat="48.19603" lon="6.81857">
        <ele>584</ele>
        <time>2024-11-18T11:10:38Z</time>
      </trkpt>
      <trkpt lat="48.19605" lon="6.81868">
        <ele>584</ele>
        <time>2024-11-18T11:10:59Z</time>
      </trkpt>
      <trkpt lat="48.19605" lon="6.81868">
        <ele>584</ele>
        <time>2024-11-18T11:11:00Z</time>
      </trkpt>
      <trkpt lat="48.19605" lon="6.81868">
        <ele>584</ele>
        <time>2024-11-18T11:11:29Z</time>
      </trkpt>
      <trkpt lat="48.19604" lon="6.81868">
        <ele>584.7</ele>
        <time>2024-11-18T11:11:30Z</time>
      </trkpt>
      <trkpt lat="48.19603" lon="6.81869">
        <ele>584.7</ele>
        <time>2024-11-18T11:11:31Z</time>
      </trkpt>
      <trkpt lat="48.19599" lon="6.81873">
        <ele>585.8</ele>
        <time>2024-11-18T11:11:38Z</time>
      </trkpt>
      <trkpt lat="48.19599" lon="6.81873">
        <ele>585.8</ele>
        <time>2024-11-18T11:11:39Z</time>
      </trkpt>
      <trkpt lat="48.19599" lon="6.81873">
        <ele>585.8</ele>
        <time>2024-11-18T11:11:40Z</time>
      </trkpt>
      <trkpt lat="48.19599" lon="6.81875">
        <ele>586.2</ele>
        <time>2024-11-18T11:12:27Z</time>
      </trkpt>
      <trkpt lat="48.19599" lon="6.81875">
        <ele>586.2</ele>
        <time>2024-11-18T11:12:28Z</time>
      </trkpt>
      <trkpt lat="48.19599" lon="6.81875">
        <ele>586.1</ele>
        <time>2024-11-18T11:12:33Z</time>
      </trkpt>
      <trkpt lat="48.19599" lon="6.81875">
        <ele>586.1</ele>
        <time>2024-11-18T11:12:34Z</time>
      </trkpt>
      <trkpt lat="48.19599" lon="6.81875">
        <ele>586.1</ele>
        <time>2024-11-18T11:12:35Z</time>
      </trkpt>
      <trkpt lat="48.19599" lon="6.81876">
        <ele>586.7</ele>
        <time>2024-11-18T11:15:38Z</time>
      </trkpt>
      <trkpt lat="48.19599" lon="6.81876">
        <ele>586.7</ele>
        <time>2024-11-18T11:15:39Z</time>
      </trkpt>
      <trkpt lat="48.19599" lon="6.81877">
        <ele>586.7</ele>
        <time>2024-11-18T11:15:40Z</time>
      </trkpt>
      <trkpt lat="48.19598" lon="6.81878">
        <ele>587.2</ele>
        <time>2024-11-18T11:15:46Z</time>
      </trkpt>
      <trkpt lat="48.19598" lon="6.81878">
        <ele>587.1</ele>
        <time>2024-11-18T11:15:47Z</time>
      </trkpt>
      <trkpt lat="48.19598" lon="6.81878">
        <ele>587.1</ele>
        <time>2024-11-18T11:15:48Z</time>
      </trkpt>
      <trkpt lat="48.19597" lon="6.81879">
        <ele>587.1</ele>
        <time>2024-11-18T11:17:46Z</time>
      </trkpt>
      <trkpt lat="48.19597" lon="6.81879">
        <ele>587.1</ele>
        <time>2024-11-18T11:17:47Z</time>
      </trkpt>
      <trkpt lat="48.19596" lon="6.8188">
        <ele>587</ele>
        <time>2024-11-18T11:17:54Z</time>
      </trkpt>
      <trkpt lat="48.19596" lon="6.8188">
        <ele>587</ele>
        <time>2024-11-18T11:17:55Z</time>
      </trkpt>
      <trkpt lat="48.19596" lon="6.8188">
        <ele>587</ele>
        <time>2024-11-18T11:17:56Z</time>
      </trkpt>
      <trkpt lat="48.19596" lon="6.81882">
        <ele>587.6</ele>
        <time>2024-11-18T11:18:21Z</time>
      </trkpt>
      <trkpt lat="48.19595" lon="6.81882">
        <ele>587.6</ele>
        <time>2024-11-18T11:18:22Z</time>
      </trkpt>
      <trkpt lat="48.19589" lon="6.81893">
        <ele>590.9</ele>
        <time>2024-11-18T11:18:35Z</time>
      </trkpt>
      <trkpt lat="48.1959" lon="6.81907">
        <ele>592.6</ele>
        <time>2024-11-18T11:18:46Z</time>
      </trkpt>
      <trkpt lat="48.19585" lon="6.81919">
        <ele>595.1</ele>
        <time>2024-11-18T11:18:59Z</time>
      </trkpt>
      <trkpt lat="48.19589" lon="6.81932">
        <ele>595.6</ele>
        <time>2024-11-18T11:19:12Z</time>
      </trkpt>
      <trkpt lat="48.19586" lon="6.81945">
        <ele>598.7</ele>
        <time>2024-11-18T11:19:27Z</time>
      </trkpt>
      <trkpt lat="48.19581" lon="6.81957">
        <ele>603.2</ele>
        <time>2024-11-18T11:19:43Z</time>
      </trkpt>
      <trkpt lat="48.19577" lon="6.81969">
        <ele>606.4</ele>
        <time>2024-11-18T11:20:05Z</time>
      </trkpt>
      <trkpt lat="48.1957" lon="6.81979">
        <ele>611.5</ele>
        <time>2024-11-18T11:20:28Z</time>
      </trkpt>
      <trkpt lat="48.19569" lon="6.8198">
        <ele>611.5</ele>
        <time>2024-11-18T11:20:36Z</time>
      </trkpt>
      <trkpt lat="48.19569" lon="6.8198">
        <ele>611.4</ele>
        <time>2024-11-18T11:20:37Z</time>
      </trkpt>
      <trkpt lat="48.19569" lon="6.81981">
        <ele>612.3</ele>
        <time>2024-11-18T11:20:43Z</time>
      </trkpt>
      <trkpt lat="48.19568" lon="6.81981">
        <ele>612.2</ele>
        <time>2024-11-18T11:20:44Z</time>
      </trkpt>
      <trkpt lat="48.19568" lon="6.81982">
        <ele>612.2</ele>
        <time>2024-11-18T11:20:45Z</time>
      </trkpt>
      <trkpt lat="48.19561" lon="6.81992">
        <ele>618</ele>
        <time>2024-11-18T11:21:06Z</time>
      </trkpt>
      <trkpt lat="48.19558" lon="6.82005">
        <ele>622.4</ele>
        <time>2024-11-18T11:21:27Z</time>
      </trkpt>
      <trkpt lat="48.19559" lon="6.82019">
        <ele>624</ele>
        <time>2024-11-18T11:21:42Z</time>
      </trkpt>
      <trkpt lat="48.1956" lon="6.82033">
        <ele>628.1</ele>
        <time>2024-11-18T11:21:57Z</time>
      </trkpt>
      <trkpt lat="48.19563" lon="6.82046">
        <ele>629.6</ele>
        <time>2024-11-18T11:22:07Z</time>
      </trkpt>
      <trkpt lat="48.19566" lon="6.8206">
        <ele>631.2</ele>
        <time>2024-11-18T11:22:20Z</time>
      </trkpt>
      <trkpt lat="48.19569" lon="6.82072">
        <ele>633.2</ele>
        <time>2024-11-18T11:22:31Z</time>
      </trkpt>
      <trkpt lat="48.19572" lon="6.82085">
        <ele>635.2</ele>
        <time>2024-11-18T11:22:41Z</time>
      </trkpt>
      <trkpt lat="48.19578" lon="6.82098">
        <ele>636</ele>
        <time>2024-11-18T11:22:50Z</time>
      </trkpt>
      <trkpt lat="48.19581" lon="6.8211">
        <ele>638.5</ele>
        <time>2024-11-18T11:23:00Z</time>
      </trkpt>
      <trkpt lat="48.19588" lon="6.82121">
        <ele>637.1</ele>
        <time>2024-11-18T11:23:09Z</time>
      </trkpt>
      <trkpt lat="48.19592" lon="6.82134">
        <ele>639.4</ele>
        <time>2024-11-18T11:23:18Z</time>
      </trkpt>
      <trkpt lat="48.19599" lon="6.82143">
        <ele>638.6</ele>
        <time>2024-11-18T11:23:26Z</time>
      </trkpt>
      <trkpt lat="48.19607" lon="6.8215">
        <ele>638.9</ele>
        <time>2024-11-18T11:23:34Z</time>
      </trkpt>
      <trkpt lat="48.19615" lon="6.82158">
        <ele>638.7</ele>
        <time>2024-11-18T11:23:43Z</time>
      </trkpt>
      <trkpt lat="48.19622" lon="6.82167">
        <ele>639.2</ele>
        <time>2024-11-18T11:23:54Z</time>
      </trkpt>
      <trkpt lat="48.19627" lon="6.82171">
        <ele>639.9</ele>
        <time>2024-11-18T11:24:08Z</time>
      </trkpt>
      <trkpt lat="48.19627" lon="6.82171">
        <ele>639.8</ele>
        <time>2024-11-18T11:24:09Z</time>
      </trkpt>
      <trkpt lat="48.19627" lon="6.82171">
        <ele>639.8</ele>
        <time>2024-11-18T11:24:10Z</time>
      </trkpt>
      <trkpt lat="48.19627" lon="6.82171">
        <ele>639.8</ele>
        <time>2024-11-18T11:24:11Z</time>
      </trkpt>
      <trkpt lat="48.19627" lon="6.82171">
        <ele>639.8</ele>
        <time>2024-11-18T11:24:12Z</time>
      </trkpt>
      <trkpt lat="48.19627" lon="6.82171">
        <ele>639.7</ele>
        <time>2024-11-18T11:24:13Z</time>
      </trkpt>
      <trkpt lat="48.19627" lon="6.82171">
        <ele>639.7</ele>
        <time>2024-11-18T11:24:14Z</time>
      </trkpt>
      <trkpt lat="48.19627" lon="6.82171">
        <ele>639.7</ele>
        <time>2024-11-18T11:24:15Z</time>
      </trkpt>
      <trkpt lat="48.19627" lon="6.82171">
        <ele>639.7</ele>
        <time>2024-11-18T11:24:36Z</time>
      </trkpt>
      <trkpt lat="48.19627" lon="6.82171">
        <ele>639.6</ele>
        <time>2024-11-18T11:24:37Z</time>
      </trkpt>
      <trkpt lat="48.19627" lon="6.82171">
        <ele>639.6</ele>
        <time>2024-11-18T11:24:38Z</time>
      </trkpt>
      <trkpt lat="48.19627" lon="6.82171">
        <ele>639.6</ele>
        <time>2024-11-18T11:24:39Z</time>
      </trkpt>
      <trkpt lat="48.19627" lon="6.82171">
        <ele>639.6</ele>
        <time>2024-11-18T11:24:40Z</time>
      </trkpt>
      <trkpt lat="48.19628" lon="6.82171">
        <ele>638.9</ele>
        <time>2024-11-18T11:24:43Z</time>
      </trkpt>
      <trkpt lat="48.19629" lon="6.82171">
        <ele>638.9</ele>
        <time>2024-11-18T11:24:44Z</time>
      </trkpt>
      <trkpt lat="48.19629" lon="6.82171">
        <ele>638.9</ele>
        <time>2024-11-18T11:24:45Z</time>
      </trkpt>
      <trkpt lat="48.1963" lon="6.82171">
        <ele>638.9</ele>
        <time>2024-11-18T11:24:51Z</time>
      </trkpt>
      <trkpt lat="48.1963" lon="6.82171">
        <ele>638.8</ele>
        <time>2024-11-18T11:24:52Z</time>
      </trkpt>
      <trkpt lat="48.1963" lon="6.82171">
        <ele>638.8</ele>
        <time>2024-11-18T11:24:53Z</time>
      </trkpt>
      <trkpt lat="48.1963" lon="6.82171">
        <ele>638.8</ele>
        <time>2024-11-18T11:24:54Z</time>
      </trkpt>
      <trkpt lat="48.19631" lon="6.82172">
        <ele>638.1</ele>
        <time>2024-11-18T11:24:55Z</time>
      </trkpt>
      <trkpt lat="48.19635" lon="6.82175">
        <ele>638.8</ele>
        <time>2024-11-18T11:25:08Z</time>
      </trkpt>
      <trkpt lat="48.19635" lon="6.82175">
        <ele>638.8</ele>
        <time>2024-11-18T11:25:09Z</time>
      </trkpt>
      <trkpt lat="48.19635" lon="6.82175">
        <ele>638.8</ele>
        <time>2024-11-18T11:25:10Z</time>
      </trkpt>
      <trkpt lat="48.19635" lon="6.82175">
        <ele>638.8</ele>
        <time>2024-11-18T11:25:11Z</time>
      </trkpt>
      <trkpt lat="48.19635" lon="6.82175">
        <ele>638.8</ele>
        <time>2024-11-18T11:25:12Z</time>
      </trkpt>
      <trkpt lat="48.19635" lon="6.82175">
        <ele>638.7</ele>
        <time>2024-11-18T11:25:13Z</time>
      </trkpt>
      <trkpt lat="48.19635" lon="6.82175">
        <ele>638.7</ele>
        <time>2024-11-18T11:25:14Z</time>
      </trkpt>
      <trkpt lat="48.19635" lon="6.82175">
        <ele>638.7</ele>
        <time>2024-11-18T11:25:15Z</time>
      </trkpt>
      <trkpt lat="48.19635" lon="6.82176">
        <ele>638.7</ele>
        <time>2024-11-18T11:25:41Z</time>
      </trkpt>
      <trkpt lat="48.19635" lon="6.82176">
        <ele>638.6</ele>
        <time>2024-11-18T11:25:42Z</time>
      </trkpt>
      <trkpt lat="48.19635" lon="6.82176">
        <ele>638.6</ele>
        <time>2024-11-18T11:25:49Z</time>
      </trkpt>
      <trkpt lat="48.19635" lon="6.82176">
        <ele>638.6</ele>
        <time>2024-11-18T11:25:50Z</time>
      </trkpt>
      <trkpt lat="48.19635" lon="6.82176">
        <ele>638.6</ele>
        <time>2024-11-18T11:26:01Z</time>
      </trkpt>
      <trkpt lat="48.19635" lon="6.82176">
        <ele>638.5</ele>
        <time>2024-11-18T11:26:02Z</time>
      </trkpt>
      <trkpt lat="48.19635" lon="6.82176">
        <ele>638.5</ele>
        <time>2024-11-18T11:26:03Z</time>
      </trkpt>
      <trkpt lat="48.19635" lon="6.82176">
        <ele>638.5</ele>
        <time>2024-11-18T11:26:04Z</time>
      </trkpt>
      <trkpt lat="48.19635" lon="6.82176">
        <ele>638.5</ele>
        <time>2024-11-18T11:26:05Z</time>
      </trkpt>
      <trkpt lat="48.19635" lon="6.82176">
        <ele>638.5</ele>
        <time>2024-11-18T11:26:06Z</time>
      </trkpt>
      <trkpt lat="48.19635" lon="6.82176">
        <ele>638.4</ele>
        <time>2024-11-18T11:26:07Z</time>
      </trkpt>
      <trkpt lat="48.19635" lon="6.82176">
        <ele>638.4</ele>
        <time>2024-11-18T11:26:08Z</time>
      </trkpt>
      <trkpt lat="48.19635" lon="6.82176">
        <ele>638.4</ele>
        <time>2024-11-18T11:26:09Z</time>
      </trkpt>
      <trkpt lat="48.19635" lon="6.82176">
        <ele>638.4</ele>
        <time>2024-11-18T11:26:10Z</time>
      </trkpt>
      <trkpt lat="48.19635" lon="6.82176">
        <ele>638.3</ele>
        <time>2024-11-18T11:26:11Z</time>
      </trkpt>
      <trkpt lat="48.19635" lon="6.82176">
        <ele>638.3</ele>
        <time>2024-11-18T11:26:24Z</time>
      </trkpt>
      <trkpt lat="48.19635" lon="6.82176">
        <ele>638.3</ele>
        <time>2024-11-18T11:26:25Z</time>
      </trkpt>
      <trkpt lat="48.19635" lon="6.82176">
        <ele>638.3</ele>
        <time>2024-11-18T11:26:29Z</time>
      </trkpt>
      <trkpt lat="48.19635" lon="6.82176">
        <ele>638.2</ele>
        <time>2024-11-18T11:26:30Z</time>
      </trkpt>
      <trkpt lat="48.19635" lon="6.82175">
        <ele>638.2</ele>
        <time>2024-11-18T11:26:37Z</time>
      </trkpt>
      <trkpt lat="48.19635" lon="6.82175">
        <ele>638.2</ele>
        <time>2024-11-18T11:26:38Z</time>
      </trkpt>
      <trkpt lat="48.19645" lon="6.82175">
        <ele>636.4</ele>
        <time>2024-11-18T11:27:05Z</time>
      </trkpt>
      <trkpt lat="48.19645" lon="6.82175">
        <ele>635.9</ele>
        <time>2024-11-18T11:27:09Z</time>
      </trkpt>
      <trkpt lat="48.19645" lon="6.82175">
        <ele>635.9</ele>
        <time>2024-11-18T11:27:10Z</time>
      </trkpt>
      <trkpt lat="48.19646" lon="6.82175">
        <ele>635.9</ele>
        <time>2024-11-18T11:27:13Z</time>
      </trkpt>
      <trkpt lat="48.19646" lon="6.82175">
        <ele>635.8</ele>
        <time>2024-11-18T11:27:14Z</time>
      </trkpt>
      <trkpt lat="48.19647" lon="6.82175">
        <ele>635.8</ele>
        <time>2024-11-18T11:27:15Z</time>
      </trkpt>
      <trkpt lat="48.19656" lon="6.82174">
        <ele>634.7</ele>
        <time>2024-11-18T11:27:26Z</time>
      </trkpt>
      <trkpt lat="48.19665" lon="6.82173">
        <ele>631.9</ele>
        <time>2024-11-18T11:27:40Z</time>
      </trkpt>
      <trkpt lat="48.19667" lon="6.82173">
        <ele>631.8</ele>
        <time>2024-11-18T11:27:51Z</time>
      </trkpt>
      <trkpt lat="48.19667" lon="6.82173">
        <ele>631.8</ele>
        <time>2024-11-18T11:27:52Z</time>
      </trkpt>
      <trkpt lat="48.19667" lon="6.82173">
        <ele>631.8</ele>
        <time>2024-11-18T11:27:53Z</time>
      </trkpt>
      <trkpt lat="48.19668" lon="6.82172">
        <ele>631.5</ele>
        <time>2024-11-18T11:28:04Z</time>
      </trkpt>
      <trkpt lat="48.19668" lon="6.82171">
        <ele>631.4</ele>
        <time>2024-11-18T11:28:05Z</time>
      </trkpt>
      <trkpt lat="48.19668" lon="6.82171">
        <ele>631.4</ele>
        <time>2024-11-18T11:28:08Z</time>
      </trkpt>
      <trkpt lat="48.19668" lon="6.82171">
        <ele>631.4</ele>
        <time>2024-11-18T11:28:09Z</time>
      </trkpt>
      <trkpt lat="48.19669" lon="6.82171">
        <ele>631.4</ele>
        <time>2024-11-18T11:28:10Z</time>
      </trkpt>
      <trkpt lat="48.19669" lon="6.8217">
        <ele>631.3</ele>
        <time>2024-11-18T11:28:11Z</time>
      </trkpt>
      <trkpt lat="48.19669" lon="6.8217">
        <ele>631.3</ele>
        <time>2024-11-18T11:28:12Z</time>
      </trkpt>
      <trkpt lat="48.19669" lon="6.8217">
        <ele>631.3</ele>
        <time>2024-11-18T11:28:13Z</time>
      </trkpt>
      <trkpt lat="48.19669" lon="6.82169">
        <ele>629.8</ele>
        <time>2024-11-18T11:28:18Z</time>
      </trkpt>
      <trkpt lat="48.19669" lon="6.82169">
        <ele>629.7</ele>
        <time>2024-11-18T11:28:19Z</time>
      </trkpt>
      <trkpt lat="48.1967" lon="6.82169">
        <ele>629.7</ele>
        <time>2024-11-18T11:28:20Z</time>
      </trkpt>
      <trkpt lat="48.1967" lon="6.82169">
        <ele>629.7</ele>
        <time>2024-11-18T11:28:21Z</time>
      </trkpt>
      <trkpt lat="48.1967" lon="6.82169">
        <ele>629.7</ele>
        <time>2024-11-18T11:28:22Z</time>
      </trkpt>
      <trkpt lat="48.1967" lon="6.82169">
        <ele>629.6</ele>
        <time>2024-11-18T11:28:23Z</time>
      </trkpt>
      <trkpt lat="48.1967" lon="6.82168">
        <ele>629.6</ele>
        <time>2024-11-18T11:28:38Z</time>
      </trkpt>
      <trkpt lat="48.1967" lon="6.82168">
        <ele>629.6</ele>
        <time>2024-11-18T11:28:39Z</time>
      </trkpt>
      <trkpt lat="48.1967" lon="6.82168">
        <ele>629.6</ele>
        <time>2024-11-18T11:28:40Z</time>
      </trkpt>
      <trkpt lat="48.1967" lon="6.82168">
        <ele>629.5</ele>
        <time>2024-11-18T11:28:43Z</time>
      </trkpt>
      <trkpt lat="48.1967" lon="6.82168">
        <ele>629.5</ele>
        <time>2024-11-18T11:28:44Z</time>
      </trkpt>
      <trkpt lat="48.1967" lon="6.82167">
        <ele>629.5</ele>
        <time>2024-11-18T11:28:45Z</time>
      </trkpt>
      <trkpt lat="48.19674" lon="6.82174">
        <ele>630.5</ele>
        <time>2024-11-18T11:29:07Z</time>
      </trkpt>
      <trkpt lat="48.19674" lon="6.82174">
        <ele>630.5</ele>
        <time>2024-11-18T11:29:08Z</time>
      </trkpt>
      <trkpt lat="48.19674" lon="6.82174">
        <ele>630.5</ele>
        <time>2024-11-18T11:29:09Z</time>
      </trkpt>
      <trkpt lat="48.19675" lon="6.82174">
        <ele>630.4</ele>
        <time>2024-11-18T11:29:10Z</time>
      </trkpt>
      <trkpt lat="48.19675" lon="6.82174">
        <ele>630.4</ele>
        <time>2024-11-18T11:29:11Z</time>
      </trkpt>
      <trkpt lat="48.19675" lon="6.82174">
        <ele>630.4</ele>
        <time>2024-11-18T11:29:12Z</time>
      </trkpt>
      <trkpt lat="48.19675" lon="6.82174">
        <ele>630.4</ele>
        <time>2024-11-18T11:29:13Z</time>
      </trkpt>
      <trkpt lat="48.19675" lon="6.82174">
        <ele>631.8</ele>
        <time>2024-11-18T11:29:17Z</time>
      </trkpt>
      <trkpt lat="48.19675" lon="6.82174">
        <ele>631.8</ele>
        <time>2024-11-18T11:29:18Z</time>
      </trkpt>
      <trkpt lat="48.19675" lon="6.82173">
        <ele>630.3</ele>
        <time>2024-11-18T11:29:27Z</time>
      </trkpt>
      <trkpt lat="48.19675" lon="6.82173">
        <ele>630.3</ele>
        <time>2024-11-18T11:29:28Z</time>
      </trkpt>
      <trkpt lat="48.19675" lon="6.82174">
        <ele>630.2</ele>
        <time>2024-11-18T11:29:36Z</time>
      </trkpt>
      <trkpt lat="48.19675" lon="6.82174">
        <ele>630.2</ele>
        <time>2024-11-18T11:29:37Z</time>
      </trkpt>
      <trkpt lat="48.19682" lon="6.82183">
        <ele>633.8</ele>
        <time>2024-11-18T11:29:50Z</time>
      </trkpt>
      <trkpt lat="48.19686" lon="6.82185">
        <ele>633.6</ele>
        <time>2024-11-18T11:30:04Z</time>
      </trkpt>
      <trkpt lat="48.19686" lon="6.82185">
        <ele>633.6</ele>
        <time>2024-11-18T11:30:05Z</time>
      </trkpt>
      <trkpt lat="48.19686" lon="6.82185">
        <ele>633.6</ele>
        <time>2024-11-18T11:30:06Z</time>
      </trkpt>
      <trkpt lat="48.19687" lon="6.82185">
        <ele>633.6</ele>
        <time>2024-11-18T11:30:16Z</time>
      </trkpt>
      <trkpt lat="48.19687" lon="6.82185">
        <ele>633.6</ele>
        <time>2024-11-18T11:30:17Z</time>
      </trkpt>
      <trkpt lat="48.19695" lon="6.82192">
        <ele>635.6</ele>
        <time>2024-11-18T11:30:48Z</time>
      </trkpt>
      <trkpt lat="48.19702" lon="6.82202">
        <ele>637.5</ele>
        <time>2024-11-18T11:31:32Z</time>
      </trkpt>
      <trkpt lat="48.19708" lon="6.82214">
        <ele>640.8</ele>
        <time>2024-11-18T11:31:47Z</time>
      </trkpt>
      <trkpt lat="48.19712" lon="6.82222">
        <ele>642.9</ele>
        <time>2024-11-18T11:31:59Z</time>
      </trkpt>
      <trkpt lat="48.19713" lon="6.82223">
        <ele>642.9</ele>
        <time>2024-11-18T11:32:00Z</time>
      </trkpt>
      <trkpt lat="48.19713" lon="6.82223">
        <ele>642.9</ele>
        <time>2024-11-18T11:32:01Z</time>
      </trkpt>
      <trkpt lat="48.19714" lon="6.82225">
        <ele>642.5</ele>
        <time>2024-11-18T11:32:04Z</time>
      </trkpt>
      <trkpt lat="48.19714" lon="6.82227">
        <ele>643.6</ele>
        <time>2024-11-18T11:32:05Z</time>
      </trkpt>
      <trkpt lat="48.19714" lon="6.82228">
        <ele>643.6</ele>
        <time>2024-11-18T11:32:06Z</time>
      </trkpt>
      <trkpt lat="48.19717" lon="6.82242">
        <ele>646.2</ele>
        <time>2024-11-18T11:32:34Z</time>
      </trkpt>
      <trkpt lat="48.1972" lon="6.82254">
        <ele>649.1</ele>
        <time>2024-11-18T11:32:46Z</time>
      </trkpt>
      <trkpt lat="48.19722" lon="6.82268">
        <ele>651.6</ele>
        <time>2024-11-18T11:32:59Z</time>
      </trkpt>
      <trkpt lat="48.19724" lon="6.82282">
        <ele>653.3</ele>
        <time>2024-11-18T11:33:11Z</time>
      </trkpt>
      <trkpt lat="48.19727" lon="6.82296">
        <ele>654.5</ele>
        <time>2024-11-18T11:33:24Z</time>
      </trkpt>
      <trkpt lat="48.19729" lon="6.82309">
        <ele>655.4</ele>
        <time>2024-11-18T11:33:35Z</time>
      </trkpt>
      <trkpt lat="48.19727" lon="6.82323">
        <ele>656.5</ele>
        <time>2024-11-18T11:34:03Z</time>
      </trkpt>
      <trkpt lat="48.19725" lon="6.82336">
        <ele>657.5</ele>
        <time>2024-11-18T11:34:12Z</time>
      </trkpt>
      <trkpt lat="48.19719" lon="6.82348">
        <ele>658.3</ele>
        <time>2024-11-18T11:34:25Z</time>
      </trkpt>
      <trkpt lat="48.19718" lon="6.82349">
        <ele>658.6</ele>
        <time>2024-11-18T11:34:29Z</time>
      </trkpt>
      <trkpt lat="48.19718" lon="6.82349">
        <ele>658.6</ele>
        <time>2024-11-18T11:34:30Z</time>
      </trkpt>
      <trkpt lat="48.19717" lon="6.8235">
        <ele>658.5</ele>
        <time>2024-11-18T11:34:33Z</time>
      </trkpt>
      <trkpt lat="48.19717" lon="6.8235">
        <ele>658.6</ele>
        <time>2024-11-18T11:34:34Z</time>
      </trkpt>
      <trkpt lat="48.19716" lon="6.82351">
        <ele>658.6</ele>
        <time>2024-11-18T11:34:35Z</time>
      </trkpt>
      <trkpt lat="48.19707" lon="6.82356">
        <ele>659.6</ele>
        <time>2024-11-18T11:34:48Z</time>
      </trkpt>
      <trkpt lat="48.19698" lon="6.82359">
        <ele>660.6</ele>
        <time>2024-11-18T11:35:00Z</time>
      </trkpt>
      <trkpt lat="48.1969" lon="6.82362">
        <ele>661.9</ele>
        <time>2024-11-18T11:35:10Z</time>
      </trkpt>
      <trkpt lat="48.1968" lon="6.82365">
        <ele>663.5</ele>
        <time>2024-11-18T11:35:23Z</time>
      </trkpt>
      <trkpt lat="48.1968" lon="6.82365">
        <ele>663.5</ele>
        <time>2024-11-18T11:35:29Z</time>
      </trkpt>
      <trkpt lat="48.1968" lon="6.82365">
        <ele>663.5</ele>
        <time>2024-11-18T11:35:30Z</time>
      </trkpt>
      <trkpt lat="48.19679" lon="6.82366">
        <ele>663.5</ele>
        <time>2024-11-18T11:35:38Z</time>
      </trkpt>
      <trkpt lat="48.19679" lon="6.82366">
        <ele>664</ele>
        <time>2024-11-18T11:35:39Z</time>
      </trkpt>
      <trkpt lat="48.19679" lon="6.82367">
        <ele>663.9</ele>
        <time>2024-11-18T11:35:40Z</time>
      </trkpt>
      <trkpt lat="48.19669" lon="6.82363">
        <ele>665.7</ele>
        <time>2024-11-18T11:35:54Z</time>
      </trkpt>
      <trkpt lat="48.1966" lon="6.82359">
        <ele>667.5</ele>
        <time>2024-11-18T11:36:03Z</time>
      </trkpt>
      <trkpt lat="48.19651" lon="6.82356">
        <ele>669.1</ele>
        <time>2024-11-18T11:36:14Z</time>
      </trkpt>
      <trkpt lat="48.19646" lon="6.82356">
        <ele>670.4</ele>
        <time>2024-11-18T11:36:26Z</time>
      </trkpt>
      <trkpt lat="48.19646" lon="6.82356">
        <ele>670.4</ele>
        <time>2024-11-18T11:36:27Z</time>
      </trkpt>
      <trkpt lat="48.19647" lon="6.82356">
        <ele>670.4</ele>
        <time>2024-11-18T11:36:32Z</time>
      </trkpt>
      <trkpt lat="48.19646" lon="6.82355">
        <ele>670.3</ele>
        <time>2024-11-18T11:36:33Z</time>
      </trkpt>
      <trkpt lat="48.19637" lon="6.82355">
        <ele>672.6</ele>
        <time>2024-11-18T11:36:48Z</time>
      </trkpt>
      <trkpt lat="48.19628" lon="6.82352">
        <ele>674.3</ele>
        <time>2024-11-18T11:37:01Z</time>
      </trkpt>
      <trkpt lat="48.1962" lon="6.82352">
        <ele>676.5</ele>
        <time>2024-11-18T11:37:17Z</time>
      </trkpt>
      <trkpt lat="48.1962" lon="6.82352">
        <ele>676.4</ele>
        <time>2024-11-18T11:37:18Z</time>
      </trkpt>
      <trkpt lat="48.19619" lon="6.82351">
        <ele>676.4</ele>
        <time>2024-11-18T11:37:46Z</time>
      </trkpt>
      <trkpt lat="48.19619" lon="6.82351">
        <ele>677.2</ele>
        <time>2024-11-18T11:37:47Z</time>
      </trkpt>
      <trkpt lat="48.19609" lon="6.8235">
        <ele>679.6</ele>
        <time>2024-11-18T11:37:58Z</time>
      </trkpt>
      <trkpt lat="48.19599" lon="6.82353">
        <ele>682.1</ele>
        <time>2024-11-18T11:38:10Z</time>
      </trkpt>
      <trkpt lat="48.1959" lon="6.82354">
        <ele>684.6</ele>
        <time>2024-11-18T11:38:22Z</time>
      </trkpt>
      <trkpt lat="48.19581" lon="6.82354">
        <ele>687.7</ele>
        <time>2024-11-18T11:38:38Z</time>
      </trkpt>
      <trkpt lat="48.19572" lon="6.82352">
        <ele>689.2</ele>
        <time>2024-11-18T11:38:52Z</time>
      </trkpt>
      <trkpt lat="48.19562" lon="6.82349">
        <ele>690.6</ele>
        <time>2024-11-18T11:39:02Z</time>
      </trkpt>
      <trkpt lat="48.19553" lon="6.82346">
        <ele>692.8</ele>
        <time>2024-11-18T11:39:18Z</time>
      </trkpt>
      <trkpt lat="48.19544" lon="6.82342">
        <ele>694.8</ele>
        <time>2024-11-18T11:39:30Z</time>
      </trkpt>
      <trkpt lat="48.19534" lon="6.82339">
        <ele>695.9</ele>
        <time>2024-11-18T11:39:39Z</time>
      </trkpt>
      <trkpt lat="48.19526" lon="6.82332">
        <ele>696.4</ele>
        <time>2024-11-18T11:39:51Z</time>
      </trkpt>
      <trkpt lat="48.19517" lon="6.82328">
        <ele>697.5</ele>
        <time>2024-11-18T11:40:00Z</time>
      </trkpt>
      <trkpt lat="48.19508" lon="6.82331">
        <ele>699</ele>
        <time>2024-11-18T11:40:09Z</time>
      </trkpt>
      <trkpt lat="48.19498" lon="6.8233">
        <ele>700.7</ele>
        <time>2024-11-18T11:40:21Z</time>
      </trkpt>
      <trkpt lat="48.19489" lon="6.82331">
        <ele>701.8</ele>
        <time>2024-11-18T11:40:29Z</time>
      </trkpt>
      <trkpt lat="48.19479" lon="6.82332">
        <ele>702.8</ele>
        <time>2024-11-18T11:40:36Z</time>
      </trkpt>
      <trkpt lat="48.19471" lon="6.82325">
        <ele>703.7</ele>
        <time>2024-11-18T11:40:43Z</time>
      </trkpt>
      <trkpt lat="48.19462" lon="6.82321">
        <ele>704.6</ele>
        <time>2024-11-18T11:40:50Z</time>
      </trkpt>
      <trkpt lat="48.19456" lon="6.82311">
        <ele>704.8</ele>
        <time>2024-11-18T11:40:56Z</time>
      </trkpt>
      <trkpt lat="48.19452" lon="6.82298">
        <ele>704.6</ele>
        <time>2024-11-18T11:41:03Z</time>
      </trkpt>
      <trkpt lat="48.19451" lon="6.82293">
        <ele>704.4</ele>
        <time>2024-11-18T11:41:11Z</time>
      </trkpt>
      <trkpt lat="48.19451" lon="6.82293">
        <ele>704.4</ele>
        <time>2024-11-18T11:41:12Z</time>
      </trkpt>
      <trkpt lat="48.19451" lon="6.82292">
        <ele>704.3</ele>
        <time>2024-11-18T11:41:13Z</time>
      </trkpt>
      <trkpt lat="48.19451" lon="6.82292">
        <ele>704.3</ele>
        <time>2024-11-18T11:41:14Z</time>
      </trkpt>
      <trkpt lat="48.19451" lon="6.8229">
        <ele>704.3</ele>
        <time>2024-11-18T11:41:15Z</time>
      </trkpt>
      <trkpt lat="48.19448" lon="6.82277">
        <ele>704.2</ele>
        <time>2024-11-18T11:41:22Z</time>
      </trkpt>
      <trkpt lat="48.19443" lon="6.82264">
        <ele>704.6</ele>
        <time>2024-11-18T11:41:29Z</time>
      </trkpt>
      <trkpt lat="48.19441" lon="6.82251">
        <ele>704.8</ele>
        <time>2024-11-18T11:41:36Z</time>
      </trkpt>
      <trkpt lat="48.19437" lon="6.82237">
        <ele>705</ele>
        <time>2024-11-18T11:41:45Z</time>
      </trkpt>
      <trkpt lat="48.19433" lon="6.82223">
        <ele>705.5</ele>
        <time>2024-11-18T11:41:53Z</time>
      </trkpt>
      <trkpt lat="48.1943" lon="6.8221">
        <ele>705.4</ele>
        <time>2024-11-18T11:42:00Z</time>
      </trkpt>
      <trkpt lat="48.19427" lon="6.82196">
        <ele>706.1</ele>
        <time>2024-11-18T11:42:08Z</time>
      </trkpt>
      <trkpt lat="48.19422" lon="6.82183">
        <ele>706.6</ele>
        <time>2024-11-18T11:42:15Z</time>
      </trkpt>
      <trkpt lat="48.1942" lon="6.8217">
        <ele>707.1</ele>
        <time>2024-11-18T11:42:23Z</time>
      </trkpt>
      <trkpt lat="48.19417" lon="6.82156">
        <ele>707.4</ele>
        <time>2024-11-18T11:42:31Z</time>
      </trkpt>
      <trkpt lat="48.19412" lon="6.82144">
        <ele>708.2</ele>
        <time>2024-11-18T11:42:38Z</time>
      </trkpt>
      <trkpt lat="48.19405" lon="6.82133">
        <ele>708.8</ele>
        <time>2024-11-18T11:42:47Z</time>
      </trkpt>
      <trkpt lat="48.194" lon="6.82121">
        <ele>709</ele>
        <time>2024-11-18T11:42:56Z</time>
      </trkpt>
      <trkpt lat="48.19394" lon="6.82109">
        <ele>708.9</ele>
        <time>2024-11-18T11:43:03Z</time>
      </trkpt>
      <trkpt lat="48.19387" lon="6.82097">
        <ele>709.3</ele>
        <time>2024-11-18T11:43:11Z</time>
      </trkpt>
      <trkpt lat="48.19383" lon="6.82084">
        <ele>709.3</ele>
        <time>2024-11-18T11:43:20Z</time>
      </trkpt>
      <trkpt lat="48.19377" lon="6.82073">
        <ele>709</ele>
        <time>2024-11-18T11:43:25Z</time>
      </trkpt>
      <trkpt lat="48.1937" lon="6.82062">
        <ele>709.1</ele>
        <time>2024-11-18T11:43:31Z</time>
      </trkpt>
      <trkpt lat="48.19363" lon="6.82053">
        <ele>709.7</ele>
        <time>2024-11-18T11:43:38Z</time>
      </trkpt>
      <trkpt lat="48.19356" lon="6.82042">
        <ele>710.3</ele>
        <time>2024-11-18T11:43:46Z</time>
      </trkpt>
      <trkpt lat="48.19348" lon="6.82034">
        <ele>710.9</ele>
        <time>2024-11-18T11:43:54Z</time>
      </trkpt>
      <trkpt lat="48.19342" lon="6.82022">
        <ele>710.5</ele>
        <time>2024-11-18T11:44:03Z</time>
      </trkpt>
      <trkpt lat="48.19336" lon="6.8201">
        <ele>710.4</ele>
        <time>2024-11-18T11:44:10Z</time>
      </trkpt>
      <trkpt lat="48.19329" lon="6.82">
        <ele>711.3</ele>
        <time>2024-11-18T11:44:17Z</time>
      </trkpt>
      <trkpt lat="48.19322" lon="6.8199">
        <ele>711.6</ele>
        <time>2024-11-18T11:44:25Z</time>
      </trkpt>
      <trkpt lat="48.19316" lon="6.81979">
        <ele>711.8</ele>
        <time>2024-11-18T11:44:33Z</time>
      </trkpt>
      <trkpt lat="48.19309" lon="6.81969">
        <ele>712</ele>
        <time>2024-11-18T11:44:41Z</time>
      </trkpt>
      <trkpt lat="48.19303" lon="6.81958">
        <ele>712.2</ele>
        <time>2024-11-18T11:44:48Z</time>
      </trkpt>
      <trkpt lat="48.19296" lon="6.81948">
        <ele>712.7</ele>
        <time>2024-11-18T11:44:55Z</time>
      </trkpt>
      <trkpt lat="48.1929" lon="6.81936">
        <ele>713.2</ele>
        <time>2024-11-18T11:45:04Z</time>
      </trkpt>
      <trkpt lat="48.19286" lon="6.81922">
        <ele>713.6</ele>
        <time>2024-11-18T11:45:14Z</time>
      </trkpt>
      <trkpt lat="48.19283" lon="6.81909">
        <ele>713.6</ele>
        <time>2024-11-18T11:45:20Z</time>
      </trkpt>
      <trkpt lat="48.19278" lon="6.81895">
        <ele>713.9</ele>
        <time>2024-11-18T11:45:27Z</time>
      </trkpt>
      <trkpt lat="48.19277" lon="6.81881">
        <ele>713.2</ele>
        <time>2024-11-18T11:45:35Z</time>
      </trkpt>
      <trkpt lat="48.19277" lon="6.81867">
        <ele>712.9</ele>
        <time>2024-11-18T11:45:42Z</time>
      </trkpt>
      <trkpt lat="48.19274" lon="6.81854">
        <ele>713.3</ele>
        <time>2024-11-18T11:45:50Z</time>
      </trkpt>
      <trkpt lat="48.19271" lon="6.8184">
        <ele>713.9</ele>
        <time>2024-11-18T11:45:58Z</time>
      </trkpt>
      <trkpt lat="48.1927" lon="6.81826">
        <ele>714.7</ele>
        <time>2024-11-18T11:46:06Z</time>
      </trkpt>
      <trkpt lat="48.19271" lon="6.81812">
        <ele>714.2</ele>
        <time>2024-11-18T11:46:15Z</time>
      </trkpt>
      <trkpt lat="48.19269" lon="6.81798">
        <ele>714.5</ele>
        <time>2024-11-18T11:46:22Z</time>
      </trkpt>
      <trkpt lat="48.19269" lon="6.81785">
        <ele>714.3</ele>
        <time>2024-11-18T11:46:27Z</time>
      </trkpt>
      <trkpt lat="48.19274" lon="6.81773">
        <ele>713</ele>
        <time>2024-11-18T11:46:50Z</time>
      </trkpt>
      <trkpt lat="48.19271" lon="6.81759">
        <ele>713.4</ele>
        <time>2024-11-18T11:46:59Z</time>
      </trkpt>
      <trkpt lat="48.19274" lon="6.81747">
        <ele>713</ele>
        <time>2024-11-18T11:47:05Z</time>
      </trkpt>
      <trkpt lat="48.19279" lon="6.81732">
        <ele>712.6</ele>
        <time>2024-11-18T11:47:22Z</time>
      </trkpt>
      <trkpt lat="48.19286" lon="6.81723">
        <ele>712.3</ele>
        <time>2024-11-18T11:47:29Z</time>
      </trkpt>
      <trkpt lat="48.19293" lon="6.81711">
        <ele>711.8</ele>
        <time>2024-11-18T11:47:38Z</time>
      </trkpt>
      <trkpt lat="48.19299" lon="6.81701">
        <ele>711.2</ele>
        <time>2024-11-18T11:47:48Z</time>
      </trkpt>
      <trkpt lat="48.19306" lon="6.81692">
        <ele>710.6</ele>
        <time>2024-11-18T11:47:56Z</time>
      </trkpt>
      <trkpt lat="48.19314" lon="6.81685">
        <ele>709.8</ele>
        <time>2024-11-18T11:48:01Z</time>
      </trkpt>
      <trkpt lat="48.19321" lon="6.81673">
        <ele>708.7</ele>
        <time>2024-11-18T11:48:08Z</time>
      </trkpt>
      <trkpt lat="48.19326" lon="6.8166">
        <ele>707.7</ele>
        <time>2024-11-18T11:48:16Z</time>
      </trkpt>
      <trkpt lat="48.1933" lon="6.81647">
        <ele>706.9</ele>
        <time>2024-11-18T11:48:25Z</time>
      </trkpt>
      <trkpt lat="48.19335" lon="6.81636">
        <ele>706.2</ele>
        <time>2024-11-18T11:48:33Z</time>
      </trkpt>
      <trkpt lat="48.19337" lon="6.81621">
        <ele>706</ele>
        <time>2024-11-18T11:48:42Z</time>
      </trkpt>
      <trkpt lat="48.1934" lon="6.81608">
        <ele>706</ele>
        <time>2024-11-18T11:48:50Z</time>
      </trkpt>
      <trkpt lat="48.19341" lon="6.81603">
        <ele>706</ele>
        <time>2024-11-18T11:48:59Z</time>
      </trkpt>
      <trkpt lat="48.19341" lon="6.81603">
        <ele>706</ele>
        <time>2024-11-18T11:49:00Z</time>
      </trkpt>
      <trkpt lat="48.19342" lon="6.81601">
        <ele>706</ele>
        <time>2024-11-18T11:49:04Z</time>
      </trkpt>
      <trkpt lat="48.19343" lon="6.81599">
        <ele>706</ele>
        <time>2024-11-18T11:49:05Z</time>
      </trkpt>
      <trkpt lat="48.19344" lon="6.81584">
        <ele>705.9</ele>
        <time>2024-11-18T11:49:15Z</time>
      </trkpt>
      <trkpt lat="48.19343" lon="6.81579">
        <ele>705.7</ele>
        <time>2024-11-18T11:49:23Z</time>
      </trkpt>
      <trkpt lat="48.19343" lon="6.81579">
        <ele>705.7</ele>
        <time>2024-11-18T11:49:24Z</time>
      </trkpt>
      <trkpt lat="48.19343" lon="6.81579">
        <ele>705.7</ele>
        <time>2024-11-18T11:49:25Z</time>
      </trkpt>
      <trkpt lat="48.19343" lon="6.81578">
        <ele>705.7</ele>
        <time>2024-11-18T11:49:34Z</time>
      </trkpt>
      <trkpt lat="48.19343" lon="6.81576">
        <ele>705.6</ele>
        <time>2024-11-18T11:49:35Z</time>
      </trkpt>
      <trkpt lat="48.19342" lon="6.81575">
        <ele>705.6</ele>
        <time>2024-11-18T11:49:36Z</time>
      </trkpt>
      <trkpt lat="48.19343" lon="6.81561">
        <ele>705.1</ele>
        <time>2024-11-18T11:49:44Z</time>
      </trkpt>
      <trkpt lat="48.19344" lon="6.81547">
        <ele>704.7</ele>
        <time>2024-11-18T11:49:52Z</time>
      </trkpt>
      <trkpt lat="48.19342" lon="6.81538">
        <ele>704.6</ele>
        <time>2024-11-18T11:50:04Z</time>
      </trkpt>
      <trkpt lat="48.19342" lon="6.81538">
        <ele>704.6</ele>
        <time>2024-11-18T11:50:05Z</time>
      </trkpt>
      <trkpt lat="48.19341" lon="6.81537">
        <ele>704.6</ele>
        <time>2024-11-18T11:50:12Z</time>
      </trkpt>
      <trkpt lat="48.19341" lon="6.81535">
        <ele>704.6</ele>
        <time>2024-11-18T11:50:13Z</time>
      </trkpt>
      <trkpt lat="48.19341" lon="6.81534">
        <ele>704.5</ele>
        <time>2024-11-18T11:50:18Z</time>
      </trkpt>
      <trkpt lat="48.19341" lon="6.81534">
        <ele>704.5</ele>
        <time>2024-11-18T11:50:19Z</time>
      </trkpt>
      <trkpt lat="48.19341" lon="6.81534">
        <ele>704.5</ele>
        <time>2024-11-18T11:50:20Z</time>
      </trkpt>
      <trkpt lat="48.1934" lon="6.81531">
        <ele>704.4</ele>
        <time>2024-11-18T11:50:24Z</time>
      </trkpt>
      <trkpt lat="48.1934" lon="6.81531">
        <ele>704.4</ele>
        <time>2024-11-18T11:50:25Z</time>
      </trkpt>
      <trkpt lat="48.1934" lon="6.81531">
        <ele>704.4</ele>
        <time>2024-11-18T11:50:28Z</time>
      </trkpt>
      <trkpt lat="48.1934" lon="6.81531">
        <ele>704.4</ele>
        <time>2024-11-18T11:50:29Z</time>
      </trkpt>
      <trkpt lat="48.1934" lon="6.81531">
        <ele>704.4</ele>
        <time>2024-11-18T11:50:30Z</time>
      </trkpt>
      <trkpt lat="48.1934" lon="6.81531">
        <ele>704.4</ele>
        <time>2024-11-18T11:50:37Z</time>
      </trkpt>
      <trkpt lat="48.1934" lon="6.81531">
        <ele>704.4</ele>
        <time>2024-11-18T11:50:38Z</time>
      </trkpt>
      <trkpt lat="48.1934" lon="6.81531">
        <ele>704.4</ele>
        <time>2024-11-18T11:50:39Z</time>
      </trkpt>
      <trkpt lat="48.1934" lon="6.81531">
        <ele>704.4</ele>
        <time>2024-11-18T11:50:40Z</time>
      </trkpt>
      <trkpt lat="48.1934" lon="6.81531">
        <ele>704.4</ele>
        <time>2024-11-18T11:50:41Z</time>
      </trkpt>
      <trkpt lat="48.1934" lon="6.81531">
        <ele>704.4</ele>
        <time>2024-11-18T11:51:49Z</time>
      </trkpt>
      <trkpt lat="48.1934" lon="6.81531">
        <ele>704.4</ele>
        <time>2024-11-18T11:51:50Z</time>
      </trkpt>
      <trkpt lat="48.19341" lon="6.81531">
        <ele>704.3</ele>
        <time>2024-11-18T11:51:59Z</time>
      </trkpt>
      <trkpt lat="48.19341" lon="6.8153">
        <ele>704.3</ele>
        <time>2024-11-18T11:52:00Z</time>
      </trkpt>
      <trkpt lat="48.19339" lon="6.8153">
        <ele>704.1</ele>
        <time>2024-11-18T11:52:29Z</time>
      </trkpt>
      <trkpt lat="48.19339" lon="6.8153">
        <ele>704.1</ele>
        <time>2024-11-18T11:52:30Z</time>
      </trkpt>
      <trkpt lat="48.19337" lon="6.81522">
        <ele>703.5</ele>
        <time>2024-11-18T11:52:41Z</time>
      </trkpt>
      <trkpt lat="48.19337" lon="6.81522">
        <ele>703.5</ele>
        <time>2024-11-18T11:52:42Z</time>
      </trkpt>
      <trkpt lat="48.19338" lon="6.81519">
        <ele>703.3</ele>
        <time>2024-11-18T11:54:34Z</time>
      </trkpt>
      <trkpt lat="48.19338" lon="6.81519">
        <ele>703.3</ele>
        <time>2024-11-18T11:54:35Z</time>
      </trkpt>
      <trkpt lat="48.19338" lon="6.81519">
        <ele>703.3</ele>
        <time>2024-11-18T11:54:36Z</time>
      </trkpt>
      <trkpt lat="48.19338" lon="6.81519">
        <ele>703.3</ele>
        <time>2024-11-18T11:54:37Z</time>
      </trkpt>
      <trkpt lat="48.19338" lon="6.81519">
        <ele>703.2</ele>
        <time>2024-11-18T11:54:43Z</time>
      </trkpt>
      <trkpt lat="48.19338" lon="6.81517">
        <ele>703</ele>
        <time>2024-11-18T11:54:44Z</time>
      </trkpt>
      <trkpt lat="48.19338" lon="6.81516">
        <ele>702.9</ele>
        <time>2024-11-18T11:54:45Z</time>
      </trkpt>
      <trkpt lat="48.19338" lon="6.81515">
        <ele>702.8</ele>
        <time>2024-11-18T11:54:51Z</time>
      </trkpt>
      <trkpt lat="48.19338" lon="6.81515">
        <ele>702.8</ele>
        <time>2024-11-18T11:54:52Z</time>
      </trkpt>
      <trkpt lat="48.19338" lon="6.81511">
        <ele>702.4</ele>
        <time>2024-11-18T11:54:59Z</time>
      </trkpt>
      <trkpt lat="48.19337" lon="6.8151">
        <ele>702.2</ele>
        <time>2024-11-18T11:55:00Z</time>
      </trkpt>
      <trkpt lat="48.19335" lon="6.81496">
        <ele>700.8</ele>
        <time>2024-11-18T11:55:10Z</time>
      </trkpt>
      <trkpt lat="48.1933" lon="6.81483">
        <ele>699.9</ele>
        <time>2024-11-18T11:55:19Z</time>
      </trkpt>
      <trkpt lat="48.19324" lon="6.8147">
        <ele>699.6</ele>
        <time>2024-11-18T11:55:27Z</time>
      </trkpt>
      <trkpt lat="48.19319" lon="6.81457">
        <ele>699.1</ele>
        <time>2024-11-18T11:55:36Z</time>
      </trkpt>
      <trkpt lat="48.19314" lon="6.81446">
        <ele>698.2</ele>
        <time>2024-11-18T11:55:44Z</time>
      </trkpt>
      <trkpt lat="48.19308" lon="6.81433">
        <ele>697.1</ele>
        <time>2024-11-18T11:55:53Z</time>
      </trkpt>
      <trkpt lat="48.19303" lon="6.81421">
        <ele>696.1</ele>
        <time>2024-11-18T11:56:01Z</time>
      </trkpt>
      <trkpt lat="48.19297" lon="6.81409">
        <ele>694.7</ele>
        <time>2024-11-18T11:56:10Z</time>
      </trkpt>
      <trkpt lat="48.19292" lon="6.81398">
        <ele>693.3</ele>
        <time>2024-11-18T11:56:18Z</time>
      </trkpt>
      <trkpt lat="48.19287" lon="6.81385">
        <ele>691.9</ele>
        <time>2024-11-18T11:56:27Z</time>
      </trkpt>
      <trkpt lat="48.19281" lon="6.81373">
        <ele>690.7</ele>
        <time>2024-11-18T11:56:36Z</time>
      </trkpt>
      <trkpt lat="48.19276" lon="6.8136">
        <ele>689.8</ele>
        <time>2024-11-18T11:56:44Z</time>
      </trkpt>
      <trkpt lat="48.1927" lon="6.81348">
        <ele>689</ele>
        <time>2024-11-18T11:56:52Z</time>
      </trkpt>
      <trkpt lat="48.19263" lon="6.81337">
        <ele>688.1</ele>
        <time>2024-11-18T11:57:00Z</time>
      </trkpt>
      <trkpt lat="48.19256" lon="6.81328">
        <ele>687.5</ele>
        <time>2024-11-18T11:57:08Z</time>
      </trkpt>
      <trkpt lat="48.19248" lon="6.81318">
        <ele>686.9</ele>
        <time>2024-11-18T11:57:16Z</time>
      </trkpt>
      <trkpt lat="48.19241" lon="6.81307">
        <ele>686.4</ele>
        <time>2024-11-18T11:57:25Z</time>
      </trkpt>
      <trkpt lat="48.19236" lon="6.81295">
        <ele>686</ele>
        <time>2024-11-18T11:57:34Z</time>
      </trkpt>
      <trkpt lat="48.1923" lon="6.81283">
        <ele>685.5</ele>
        <time>2024-11-18T11:57:43Z</time>
      </trkpt>
      <trkpt lat="48.19227" lon="6.81269">
        <ele>685.1</ele>
        <time>2024-11-18T11:57:52Z</time>
      </trkpt>
      <trkpt lat="48.19222" lon="6.81257">
        <ele>684.7</ele>
        <time>2024-11-18T11:57:58Z</time>
      </trkpt>
      <trkpt lat="48.19216" lon="6.81246">
        <ele>684.3</ele>
        <time>2024-11-18T11:58:04Z</time>
      </trkpt>
      <trkpt lat="48.19212" lon="6.81233">
        <ele>683.9</ele>
        <time>2024-11-18T11:58:12Z</time>
      </trkpt>
      <trkpt lat="48.19206" lon="6.81222">
        <ele>683.5</ele>
        <time>2024-11-18T11:58:19Z</time>
      </trkpt>
      <trkpt lat="48.19202" lon="6.81209">
        <ele>683.1</ele>
        <time>2024-11-18T11:58:28Z</time>
      </trkpt>
      <trkpt lat="48.19198" lon="6.81196">
        <ele>682.7</ele>
        <time>2024-11-18T11:58:36Z</time>
      </trkpt>
      <trkpt lat="48.19196" lon="6.81183">
        <ele>682.3</ele>
        <time>2024-11-18T11:58:45Z</time>
      </trkpt>
      <trkpt lat="48.19192" lon="6.8117">
        <ele>682</ele>
        <time>2024-11-18T11:58:54Z</time>
      </trkpt>
      <trkpt lat="48.19188" lon="6.81157">
        <ele>681.6</ele>
        <time>2024-11-18T11:59:03Z</time>
      </trkpt>
      <trkpt lat="48.19184" lon="6.81145">
        <ele>681.2</ele>
        <time>2024-11-18T11:59:12Z</time>
      </trkpt>
      <trkpt lat="48.1918" lon="6.81132">
        <ele>680.9</ele>
        <time>2024-11-18T11:59:21Z</time>
      </trkpt>
      <trkpt lat="48.19179" lon="6.81118">
        <ele>680.5</ele>
        <time>2024-11-18T11:59:31Z</time>
      </trkpt>
      <trkpt lat="48.19174" lon="6.81105">
        <ele>680.1</ele>
        <time>2024-11-18T11:59:38Z</time>
      </trkpt>
      <trkpt lat="48.19168" lon="6.81095">
        <ele>679.7</ele>
        <time>2024-11-18T11:59:43Z</time>
      </trkpt>
      <trkpt lat="48.19164" lon="6.81082">
        <ele>679.4</ele>
        <time>2024-11-18T11:59:50Z</time>
      </trkpt>
      <trkpt lat="48.19163" lon="6.81068">
        <ele>678.9</ele>
        <time>2024-11-18T11:59:58Z</time>
      </trkpt>
      <trkpt lat="48.19159" lon="6.81055">
        <ele>678.4</ele>
        <time>2024-11-18T12:00:06Z</time>
      </trkpt>
      <trkpt lat="48.19154" lon="6.81042">
        <ele>677.8</ele>
        <time>2024-11-18T12:00:14Z</time>
      </trkpt>
      <trkpt lat="48.19148" lon="6.8103">
        <ele>677.1</ele>
        <time>2024-11-18T12:00:22Z</time>
      </trkpt>
      <trkpt lat="48.19141" lon="6.8102">
        <ele>676.4</ele>
        <time>2024-11-18T12:00:30Z</time>
      </trkpt>
      <trkpt lat="48.19134" lon="6.81011">
        <ele>675.8</ele>
        <time>2024-11-18T12:00:38Z</time>
      </trkpt>
      <trkpt lat="48.19127" lon="6.81">
        <ele>675.1</ele>
        <time>2024-11-18T12:00:46Z</time>
      </trkpt>
      <trkpt lat="48.1912" lon="6.80993">
        <ele>674.5</ele>
        <time>2024-11-18T12:00:52Z</time>
      </trkpt>
      <trkpt lat="48.19113" lon="6.80982">
        <ele>673.8</ele>
        <time>2024-11-18T12:01:00Z</time>
      </trkpt>
      <trkpt lat="48.19106" lon="6.80972">
        <ele>673.4</ele>
        <time>2024-11-18T12:01:08Z</time>
      </trkpt>
      <trkpt lat="48.19097" lon="6.80966">
        <ele>673.2</ele>
        <time>2024-11-18T12:01:14Z</time>
      </trkpt>
      <trkpt lat="48.19089" lon="6.80962">
        <ele>673.1</ele>
        <time>2024-11-18T12:01:21Z</time>
      </trkpt>
      <trkpt lat="48.19079" lon="6.80962">
        <ele>672.8</ele>
        <time>2024-11-18T12:01:30Z</time>
      </trkpt>
      <trkpt lat="48.1907" lon="6.80968">
        <ele>672.5</ele>
        <time>2024-11-18T12:01:37Z</time>
      </trkpt>
      <trkpt lat="48.19062" lon="6.80975">
        <ele>672.2</ele>
        <time>2024-11-18T12:01:44Z</time>
      </trkpt>
      <trkpt lat="48.19056" lon="6.80985">
        <ele>671.8</ele>
        <time>2024-11-18T12:01:51Z</time>
      </trkpt>
      <trkpt lat="48.1905" lon="6.80997">
        <ele>671.4</ele>
        <time>2024-11-18T12:01:58Z</time>
      </trkpt>
      <trkpt lat="48.19045" lon="6.81009">
        <ele>671.2</ele>
        <time>2024-11-18T12:02:05Z</time>
      </trkpt>
      <trkpt lat="48.19041" lon="6.81022">
        <ele>671</ele>
        <time>2024-11-18T12:02:12Z</time>
      </trkpt>
      <trkpt lat="48.19037" lon="6.81034">
        <ele>670.8</ele>
        <time>2024-11-18T12:02:19Z</time>
      </trkpt>
      <trkpt lat="48.19032" lon="6.81046">
        <ele>670.6</ele>
        <time>2024-11-18T12:02:26Z</time>
      </trkpt>
      <trkpt lat="48.19029" lon="6.81058">
        <ele>670.4</ele>
        <time>2024-11-18T12:02:33Z</time>
      </trkpt>
      <trkpt lat="48.19026" lon="6.81072">
        <ele>670.1</ele>
        <time>2024-11-18T12:02:41Z</time>
      </trkpt>
      <trkpt lat="48.19021" lon="6.81083">
        <ele>669.9</ele>
        <time>2024-11-18T12:02:48Z</time>
      </trkpt>
      <trkpt lat="48.19018" lon="6.81096">
        <ele>669.7</ele>
        <time>2024-11-18T12:02:56Z</time>
      </trkpt>
      <trkpt lat="48.19013" lon="6.81109">
        <ele>669.5</ele>
        <time>2024-11-18T12:03:04Z</time>
      </trkpt>
      <trkpt lat="48.19009" lon="6.81123">
        <ele>669.2</ele>
        <time>2024-11-18T12:03:12Z</time>
      </trkpt>
      <trkpt lat="48.19006" lon="6.81137">
        <ele>668.9</ele>
        <time>2024-11-18T12:03:20Z</time>
      </trkpt>
      <trkpt lat="48.18999" lon="6.81148">
        <ele>668.7</ele>
        <time>2024-11-18T12:03:28Z</time>
      </trkpt>
      <trkpt lat="48.18994" lon="6.8116">
        <ele>668.5</ele>
        <time>2024-11-18T12:03:36Z</time>
      </trkpt>
      <trkpt lat="48.18988" lon="6.81172">
        <ele>668.4</ele>
        <time>2024-11-18T12:03:43Z</time>
      </trkpt>
      <trkpt lat="48.18982" lon="6.81184">
        <ele>668.2</ele>
        <time>2024-11-18T12:03:51Z</time>
      </trkpt>
      <trkpt lat="48.18978" lon="6.81197">
        <ele>668</ele>
        <time>2024-11-18T12:03:59Z</time>
      </trkpt>
      <trkpt lat="48.18975" lon="6.8121">
        <ele>667.8</ele>
        <time>2024-11-18T12:04:07Z</time>
      </trkpt>
      <trkpt lat="48.18971" lon="6.81224">
        <ele>667.6</ele>
        <time>2024-11-18T12:04:14Z</time>
      </trkpt>
      <trkpt lat="48.18967" lon="6.81238">
        <ele>667.4</ele>
        <time>2024-11-18T12:04:22Z</time>
      </trkpt>
      <trkpt lat="48.18965" lon="6.81252">
        <ele>667.1</ele>
        <time>2024-11-18T12:04:29Z</time>
      </trkpt>
      <trkpt lat="48.18962" lon="6.81267">
        <ele>666.8</ele>
        <time>2024-11-18T12:04:37Z</time>
      </trkpt>
      <trkpt lat="48.18958" lon="6.8128">
        <ele>666.5</ele>
        <time>2024-11-18T12:04:45Z</time>
      </trkpt>
      <trkpt lat="48.18956" lon="6.81293">
        <ele>666.4</ele>
        <time>2024-11-18T12:04:53Z</time>
      </trkpt>
      <trkpt lat="48.18953" lon="6.81306">
        <ele>666.2</ele>
        <time>2024-11-18T12:05:01Z</time>
      </trkpt>
      <trkpt lat="48.18949" lon="6.8132">
        <ele>666.1</ele>
        <time>2024-11-18T12:05:10Z</time>
      </trkpt>
      <trkpt lat="48.18947" lon="6.81335">
        <ele>665.9</ele>
        <time>2024-11-18T12:05:18Z</time>
      </trkpt>
      <trkpt lat="48.18946" lon="6.81349">
        <ele>665.6</ele>
        <time>2024-11-18T12:05:26Z</time>
      </trkpt>
      <trkpt lat="48.18945" lon="6.81363">
        <ele>665.4</ele>
        <time>2024-11-18T12:05:34Z</time>
      </trkpt>
      <trkpt lat="48.18946" lon="6.81378">
        <ele>665.1</ele>
        <time>2024-11-18T12:05:41Z</time>
      </trkpt>
      <trkpt lat="48.18947" lon="6.81391">
        <ele>664.9</ele>
        <time>2024-11-18T12:05:47Z</time>
      </trkpt>
      <trkpt lat="48.18945" lon="6.81406">
        <ele>664.6</ele>
        <time>2024-11-18T12:05:54Z</time>
      </trkpt>
      <trkpt lat="48.18942" lon="6.8142">
        <ele>664.4</ele>
        <time>2024-11-18T12:06:02Z</time>
      </trkpt>
      <trkpt lat="48.1894" lon="6.81434">
        <ele>664.3</ele>
        <time>2024-11-18T12:06:10Z</time>
      </trkpt>
      <trkpt lat="48.18938" lon="6.81448">
        <ele>664.1</ele>
        <time>2024-11-18T12:06:18Z</time>
      </trkpt>
      <trkpt lat="48.18938" lon="6.81463">
        <ele>663.8</ele>
        <time>2024-11-18T12:06:26Z</time>
      </trkpt>
      <trkpt lat="48.18935" lon="6.81476">
        <ele>663.5</ele>
        <time>2024-11-18T12:06:33Z</time>
      </trkpt>
      <trkpt lat="48.18935" lon="6.8149">
        <ele>663.2</ele>
        <time>2024-11-18T12:06:40Z</time>
      </trkpt>
      <trkpt lat="48.18936" lon="6.81505">
        <ele>663</ele>
        <time>2024-11-18T12:06:48Z</time>
      </trkpt>
      <trkpt lat="48.18935" lon="6.81519">
        <ele>662.9</ele>
        <time>2024-11-18T12:06:57Z</time>
      </trkpt>
      <trkpt lat="48.18934" lon="6.81534">
        <ele>662.7</ele>
        <time>2024-11-18T12:07:05Z</time>
      </trkpt>
      <trkpt lat="48.18933" lon="6.81548">
        <ele>662.4</ele>
        <time>2024-11-18T12:07:13Z</time>
      </trkpt>
      <trkpt lat="48.18932" lon="6.81562">
        <ele>662.2</ele>
        <time>2024-11-18T12:07:21Z</time>
      </trkpt>
      <trkpt lat="48.18933" lon="6.81577">
        <ele>661.9</ele>
        <time>2024-11-18T12:07:29Z</time>
      </trkpt>
      <trkpt lat="48.18933" lon="6.81591">
        <ele>661.8</ele>
        <time>2024-11-18T12:07:37Z</time>
      </trkpt>
      <trkpt lat="48.18933" lon="6.81605">
        <ele>661.6</ele>
        <time>2024-11-18T12:07:45Z</time>
      </trkpt>
      <trkpt lat="48.18934" lon="6.8162">
        <ele>661.4</ele>
        <time>2024-11-18T12:07:54Z</time>
      </trkpt>
      <trkpt lat="48.18934" lon="6.81634">
        <ele>661.3</ele>
        <time>2024-11-18T12:08:02Z</time>
      </trkpt>
      <trkpt lat="48.18935" lon="6.81648">
        <ele>661.1</ele>
        <time>2024-11-18T12:08:11Z</time>
      </trkpt>
      <trkpt lat="48.18936" lon="6.81662">
        <ele>661</ele>
        <time>2024-11-18T12:08:19Z</time>
      </trkpt>
      <trkpt lat="48.18938" lon="6.81675">
        <ele>660.8</ele>
        <time>2024-11-18T12:08:27Z</time>
      </trkpt>
      <trkpt lat="48.18939" lon="6.81689">
        <ele>660.7</ele>
        <time>2024-11-18T12:08:36Z</time>
      </trkpt>
      <trkpt lat="48.18941" lon="6.81703">
        <ele>660.5</ele>
        <time>2024-11-18T12:08:44Z</time>
      </trkpt>
      <trkpt lat="48.18944" lon="6.81717">
        <ele>660.2</ele>
        <time>2024-11-18T12:08:52Z</time>
      </trkpt>
      <trkpt lat="48.18946" lon="6.81725">
        <ele>660.1</ele>
        <time>2024-11-18T12:09:07Z</time>
      </trkpt>
      <trkpt lat="48.18946" lon="6.81725">
        <ele>660.1</ele>
        <time>2024-11-18T12:09:08Z</time>
      </trkpt>
      <trkpt lat="48.18946" lon="6.81725">
        <ele>660.1</ele>
        <time>2024-11-18T12:09:09Z</time>
      </trkpt>
      <trkpt lat="48.18946" lon="6.81725">
        <ele>660.1</ele>
        <time>2024-11-18T12:09:10Z</time>
      </trkpt>
      <trkpt lat="48.18946" lon="6.81726">
        <ele>660.1</ele>
        <time>2024-11-18T12:09:11Z</time>
      </trkpt>
      <trkpt lat="48.18946" lon="6.81726">
        <ele>660.1</ele>
        <time>2024-11-18T12:09:12Z</time>
      </trkpt>
      <trkpt lat="48.18946" lon="6.81726">
        <ele>660.1</ele>
        <time>2024-11-18T12:09:13Z</time>
      </trkpt>
      <trkpt lat="48.18947" lon="6.81729">
        <ele>660</ele>
        <time>2024-11-18T12:09:17Z</time>
      </trkpt>
      <trkpt lat="48.18947" lon="6.8173">
        <ele>660</ele>
        <time>2024-11-18T12:09:18Z</time>
      </trkpt>
      <trkpt lat="48.18951" lon="6.81743">
        <ele>659.9</ele>
        <time>2024-11-18T12:09:27Z</time>
      </trkpt>
      <trkpt lat="48.18954" lon="6.81757">
        <ele>659.8</ele>
        <time>2024-11-18T12:09:36Z</time>
      </trkpt>
      <trkpt lat="48.18954" lon="6.81759">
        <ele>659.8</ele>
        <time>2024-11-18T12:09:40Z</time>
      </trkpt>
      <trkpt lat="48.18954" lon="6.81759">
        <ele>659.8</ele>
        <time>2024-11-18T12:09:41Z</time>
      </trkpt>
      <trkpt lat="48.18954" lon="6.81762">
        <ele>659.8</ele>
        <time>2024-11-18T12:09:59Z</time>
      </trkpt>
      <trkpt lat="48.18955" lon="6.81763">
        <ele>659.8</ele>
        <time>2024-11-18T12:10:00Z</time>
      </trkpt>
      <trkpt lat="48.18961" lon="6.81774">
        <ele>659.6</ele>
        <time>2024-11-18T12:10:09Z</time>
      </trkpt>
      <trkpt lat="48.18967" lon="6.81785">
        <ele>659.3</ele>
        <time>2024-11-18T12:10:17Z</time>
      </trkpt>
      <trkpt lat="48.18972" lon="6.81796">
        <ele>659</ele>
        <time>2024-11-18T12:10:26Z</time>
      </trkpt>
      <trkpt lat="48.1898" lon="6.81807">
        <ele>658.7</ele>
        <time>2024-11-18T12:10:35Z</time>
      </trkpt>
      <trkpt lat="48.18987" lon="6.81817">
        <ele>658.3</ele>
        <time>2024-11-18T12:10:43Z</time>
      </trkpt>
      <trkpt lat="48.18994" lon="6.81826">
        <ele>657.9</ele>
        <time>2024-11-18T12:10:52Z</time>
      </trkpt>
      <trkpt lat="48.19002" lon="6.81834">
        <ele>657.5</ele>
        <time>2024-11-18T12:11:01Z</time>
      </trkpt>
      <trkpt lat="48.19009" lon="6.81843">
        <ele>657.2</ele>
        <time>2024-11-18T12:11:10Z</time>
      </trkpt>
      <trkpt lat="48.19016" lon="6.81853">
        <ele>656.9</ele>
        <time>2024-11-18T12:11:19Z</time>
      </trkpt>
      <trkpt lat="48.19023" lon="6.81864">
        <ele>656.6</ele>
        <time>2024-11-18T12:11:29Z</time>
      </trkpt>
      <trkpt lat="48.19028" lon="6.81876">
        <ele>656.3</ele>
        <time>2024-11-18T12:11:39Z</time>
      </trkpt>
      <trkpt lat="48.19032" lon="6.81888">
        <ele>655.9</ele>
        <time>2024-11-18T12:11:48Z</time>
      </trkpt>
      <trkpt lat="48.19034" lon="6.81891">
        <ele>655.8</ele>
        <time>2024-11-18T12:11:54Z</time>
      </trkpt>
      <trkpt lat="48.19034" lon="6.81891">
        <ele>655.8</ele>
        <time>2024-11-18T12:11:55Z</time>
      </trkpt>
      <trkpt lat="48.19036" lon="6.81893">
        <ele>655.7</ele>
        <time>2024-11-18T12:12:31Z</time>
      </trkpt>
      <trkpt lat="48.19037" lon="6.81894">
        <ele>655.6</ele>
        <time>2024-11-18T12:12:32Z</time>
      </trkpt>
      <trkpt lat="48.19044" lon="6.81904">
        <ele>655.3</ele>
        <time>2024-11-18T12:12:40Z</time>
      </trkpt>
      <trkpt lat="48.19049" lon="6.81915">
        <ele>655</ele>
        <time>2024-11-18T12:12:48Z</time>
      </trkpt>
      <trkpt lat="48.19055" lon="6.81928">
        <ele>654.7</ele>
        <time>2024-11-18T12:12:56Z</time>
      </trkpt>
      <trkpt lat="48.1906" lon="6.8194">
        <ele>654.5</ele>
        <time>2024-11-18T12:13:04Z</time>
      </trkpt>
      <trkpt lat="48.19064" lon="6.81953">
        <ele>654.3</ele>
        <time>2024-11-18T12:13:12Z</time>
      </trkpt>
      <trkpt lat="48.19066" lon="6.81955">
        <ele>654.2</ele>
        <time>2024-11-18T12:13:19Z</time>
      </trkpt>
      <trkpt lat="48.19066" lon="6.81955">
        <ele>654.2</ele>
        <time>2024-11-18T12:13:20Z</time>
      </trkpt>
      <trkpt lat="48.19066" lon="6.81955">
        <ele>654.2</ele>
        <time>2024-11-18T12:13:26Z</time>
      </trkpt>
      <trkpt lat="48.19066" lon="6.81955">
        <ele>654.2</ele>
        <time>2024-11-18T12:13:27Z</time>
      </trkpt>
      <trkpt lat="48.19065" lon="6.81957">
        <ele>654.1</ele>
        <time>2024-11-18T12:13:41Z</time>
      </trkpt>
      <trkpt lat="48.19065" lon="6.81957">
        <ele>654.1</ele>
        <time>2024-11-18T12:13:42Z</time>
      </trkpt>
      <trkpt lat="48.19065" lon="6.81957">
        <ele>654.1</ele>
        <time>2024-11-18T12:13:54Z</time>
      </trkpt>
      <trkpt lat="48.19065" lon="6.81958">
        <ele>654.1</ele>
        <time>2024-11-18T12:13:55Z</time>
      </trkpt>
      <trkpt lat="48.19065" lon="6.81959">
        <ele>654.1</ele>
        <time>2024-11-18T12:13:56Z</time>
      </trkpt>
      <trkpt lat="48.19071" lon="6.8197">
        <ele>653.9</ele>
        <time>2024-11-18T12:14:09Z</time>
      </trkpt>
      <trkpt lat="48.19074" lon="6.81983">
        <ele>653.6</ele>
        <time>2024-11-18T12:14:15Z</time>
      </trkpt>
      <trkpt lat="48.1908" lon="6.81993">
        <ele>653.4</ele>
        <time>2024-11-18T12:14:21Z</time>
      </trkpt>
      <trkpt lat="48.19084" lon="6.82006">
        <ele>653.1</ele>
        <time>2024-11-18T12:14:28Z</time>
      </trkpt>
      <trkpt lat="48.19087" lon="6.82021">
        <ele>652.8</ele>
        <time>2024-11-18T12:14:36Z</time>
      </trkpt>
      <trkpt lat="48.19091" lon="6.82034">
        <ele>652.4</ele>
        <time>2024-11-18T12:14:44Z</time>
      </trkpt>
      <trkpt lat="48.19094" lon="6.82047">
        <ele>652</ele>
        <time>2024-11-18T12:14:52Z</time>
      </trkpt>
      <trkpt lat="48.19098" lon="6.8206">
        <ele>651.6</ele>
        <time>2024-11-18T12:14:59Z</time>
      </trkpt>
      <trkpt lat="48.191" lon="6.82074">
        <ele>651.3</ele>
        <time>2024-11-18T12:15:06Z</time>
      </trkpt>
      <trkpt lat="48.19102" lon="6.82089">
        <ele>650.9</ele>
        <time>2024-11-18T12:15:15Z</time>
      </trkpt>
      <trkpt lat="48.19104" lon="6.82102">
        <ele>650.5</ele>
        <time>2024-11-18T12:15:23Z</time>
      </trkpt>
      <trkpt lat="48.19106" lon="6.82116">
        <ele>650.2</ele>
        <time>2024-11-18T12:15:31Z</time>
      </trkpt>
      <trkpt lat="48.19096" lon="6.82115">
        <ele>648.9</ele>
        <time>2024-11-18T12:15:43Z</time>
      </trkpt>
      <trkpt lat="48.19096" lon="6.82114">
        <ele>648.9</ele>
        <time>2024-11-18T12:15:47Z</time>
      </trkpt>
      <trkpt lat="48.19096" lon="6.82114">
        <ele>648.8</ele>
        <time>2024-11-18T12:15:48Z</time>
      </trkpt>
      <trkpt lat="48.19095" lon="6.82111">
        <ele>648.5</ele>
        <time>2024-11-18T12:15:51Z</time>
      </trkpt>
      <trkpt lat="48.19095" lon="6.8211">
        <ele>648.4</ele>
        <time>2024-11-18T12:15:52Z</time>
      </trkpt>
      <trkpt lat="48.19088" lon="6.821">
        <ele>646.9</ele>
        <time>2024-11-18T12:16:00Z</time>
      </trkpt>
      <trkpt lat="48.19085" lon="6.82087">
        <ele>645.6</ele>
        <time>2024-11-18T12:16:10Z</time>
      </trkpt>
      <trkpt lat="48.1908" lon="6.82074">
        <ele>644.3</ele>
        <time>2024-11-18T12:16:18Z</time>
      </trkpt>
      <trkpt lat="48.19073" lon="6.82064">
        <ele>643.1</ele>
        <time>2024-11-18T12:16:24Z</time>
      </trkpt>
      <trkpt lat="48.19067" lon="6.82054">
        <ele>642.1</ele>
        <time>2024-11-18T12:16:31Z</time>
      </trkpt>
      <trkpt lat="48.19061" lon="6.82044">
        <ele>641.2</ele>
        <time>2024-11-18T12:16:40Z</time>
      </trkpt>
      <trkpt lat="48.19056" lon="6.8203">
        <ele>640.2</ele>
        <time>2024-11-18T12:16:47Z</time>
      </trkpt>
      <trkpt lat="48.19048" lon="6.82021">
        <ele>639.2</ele>
        <time>2024-11-18T12:16:55Z</time>
      </trkpt>
      <trkpt lat="48.19046" lon="6.82007">
        <ele>638.2</ele>
        <time>2024-11-18T12:17:04Z</time>
      </trkpt>
      <trkpt lat="48.1904" lon="6.81995">
        <ele>637.2</ele>
        <time>2024-11-18T12:17:11Z</time>
      </trkpt>
      <trkpt lat="48.19034" lon="6.81984">
        <ele>636.2</ele>
        <time>2024-11-18T12:17:20Z</time>
      </trkpt>
      <trkpt lat="48.19026" lon="6.81976">
        <ele>635.3</ele>
        <time>2024-11-18T12:17:26Z</time>
      </trkpt>
      <trkpt lat="48.19017" lon="6.81972">
        <ele>634.5</ele>
        <time>2024-11-18T12:17:34Z</time>
      </trkpt>
      <trkpt lat="48.19013" lon="6.81969">
        <ele>634.1</ele>
        <time>2024-11-18T12:17:44Z</time>
      </trkpt>
      <trkpt lat="48.19012" lon="6.81967">
        <ele>634</ele>
        <time>2024-11-18T12:17:56Z</time>
      </trkpt>
      <trkpt lat="48.19012" lon="6.81967">
        <ele>634</ele>
        <time>2024-11-18T12:17:57Z</time>
      </trkpt>
      <trkpt lat="48.19012" lon="6.81966">
        <ele>634</ele>
        <time>2024-11-18T12:17:58Z</time>
      </trkpt>
      <trkpt lat="48.19012" lon="6.81966">
        <ele>634</ele>
        <time>2024-11-18T12:17:59Z</time>
      </trkpt>
      <trkpt lat="48.19012" lon="6.81966">
        <ele>633.9</ele>
        <time>2024-11-18T12:18:00Z</time>
      </trkpt>
      <trkpt lat="48.19012" lon="6.81965">
        <ele>633.9</ele>
        <time>2024-11-18T12:18:04Z</time>
      </trkpt>
      <trkpt lat="48.19012" lon="6.81965">
        <ele>633.9</ele>
        <time>2024-11-18T12:18:05Z</time>
      </trkpt>
      <trkpt lat="48.19013" lon="6.81965">
        <ele>633.9</ele>
        <time>2024-11-18T12:18:06Z</time>
      </trkpt>
      <trkpt lat="48.19009" lon="6.8196">
        <ele>633.5</ele>
        <time>2024-11-18T12:18:16Z</time>
      </trkpt>
      <trkpt lat="48.19009" lon="6.8196">
        <ele>633.4</ele>
        <time>2024-11-18T12:18:17Z</time>
      </trkpt>
      <trkpt lat="48.19009" lon="6.8196">
        <ele>633.4</ele>
        <time>2024-11-18T12:18:18Z</time>
      </trkpt>
      <trkpt lat="48.19005" lon="6.81964">
        <ele>633</ele>
        <time>2024-11-18T12:18:34Z</time>
      </trkpt>
      <trkpt lat="48.19004" lon="6.81963">
        <ele>632.8</ele>
        <time>2024-11-18T12:18:35Z</time>
      </trkpt>
      <trkpt lat="48.18995" lon="6.81958">
        <ele>631.8</ele>
        <time>2024-11-18T12:18:43Z</time>
      </trkpt>
      <trkpt lat="48.18989" lon="6.81947">
        <ele>630.8</ele>
        <time>2024-11-18T12:18:55Z</time>
      </trkpt>
      <trkpt lat="48.18981" lon="6.81938">
        <ele>629.9</ele>
        <time>2024-11-18T12:19:03Z</time>
      </trkpt>
      <trkpt lat="48.18972" lon="6.81932">
        <ele>629</ele>
        <time>2024-11-18T12:19:12Z</time>
      </trkpt>
      <trkpt lat="48.18965" lon="6.81922">
        <ele>628.1</ele>
        <time>2024-11-18T12:19:21Z</time>
      </trkpt>
      <trkpt lat="48.18956" lon="6.81915">
        <ele>627.3</ele>
        <time>2024-11-18T12:19:28Z</time>
      </trkpt>
      <trkpt lat="48.18947" lon="6.81907">
        <ele>626.6</ele>
        <time>2024-11-18T12:19:35Z</time>
      </trkpt>
      <trkpt lat="48.18938" lon="6.81901">
        <ele>625.9</ele>
        <time>2024-11-18T12:19:45Z</time>
      </trkpt>
      <trkpt lat="48.18928" lon="6.81897">
        <ele>625.4</ele>
        <time>2024-11-18T12:19:53Z</time>
      </trkpt>
      <trkpt lat="48.1892" lon="6.81892">
        <ele>624.9</ele>
        <time>2024-11-18T12:20:01Z</time>
      </trkpt>
      <trkpt lat="48.18911" lon="6.81886">
        <ele>624.5</ele>
        <time>2024-11-18T12:20:09Z</time>
      </trkpt>
      <trkpt lat="48.18903" lon="6.81879">
        <ele>624</ele>
        <time>2024-11-18T12:20:19Z</time>
      </trkpt>
      <trkpt lat="48.18894" lon="6.81873">
        <ele>623.4</ele>
        <time>2024-11-18T12:20:24Z</time>
      </trkpt>
      <trkpt lat="48.18886" lon="6.81865">
        <ele>622.9</ele>
        <time>2024-11-18T12:20:30Z</time>
      </trkpt>
      <trkpt lat="48.18877" lon="6.8186">
        <ele>622.3</ele>
        <time>2024-11-18T12:20:38Z</time>
      </trkpt>
      <trkpt lat="48.18868" lon="6.81852">
        <ele>621.7</ele>
        <time>2024-11-18T12:20:45Z</time>
      </trkpt>
      <trkpt lat="48.1886" lon="6.81847">
        <ele>620.9</ele>
        <time>2024-11-18T12:20:54Z</time>
      </trkpt>
      <trkpt lat="48.18851" lon="6.81842">
        <ele>620.1</ele>
        <time>2024-11-18T12:21:02Z</time>
      </trkpt>
      <trkpt lat="48.18841" lon="6.81838">
        <ele>619.1</ele>
        <time>2024-11-18T12:21:11Z</time>
      </trkpt>
      <trkpt lat="48.18833" lon="6.81832">
        <ele>617.9</ele>
        <time>2024-11-18T12:21:20Z</time>
      </trkpt>
      <trkpt lat="48.18823" lon="6.81829">
        <ele>616.1</ele>
        <time>2024-11-18T12:21:27Z</time>
      </trkpt>
      <trkpt lat="48.18815" lon="6.81825">
        <ele>614.3</ele>
        <time>2024-11-18T12:21:37Z</time>
      </trkpt>
      <trkpt lat="48.18805" lon="6.81821">
        <ele>612.3</ele>
        <time>2024-11-18T12:21:45Z</time>
      </trkpt>
      <trkpt lat="48.18797" lon="6.81816">
        <ele>610.3</ele>
        <time>2024-11-18T12:21:51Z</time>
      </trkpt>
      <trkpt lat="48.18787" lon="6.81813">
        <ele>608.3</ele>
        <time>2024-11-18T12:21:58Z</time>
      </trkpt>
      <trkpt lat="48.18778" lon="6.81809">
        <ele>606.4</ele>
        <time>2024-11-18T12:22:06Z</time>
      </trkpt>
      <trkpt lat="48.18768" lon="6.81806">
        <ele>604.7</ele>
        <time>2024-11-18T12:22:13Z</time>
      </trkpt>
      <trkpt lat="48.18762" lon="6.81797">
        <ele>603.2</ele>
        <time>2024-11-18T12:22:22Z</time>
      </trkpt>
      <trkpt lat="48.18753" lon="6.8179">
        <ele>601.8</ele>
        <time>2024-11-18T12:22:30Z</time>
      </trkpt>
      <trkpt lat="48.18745" lon="6.81784">
        <ele>600.3</ele>
        <time>2024-11-18T12:22:39Z</time>
      </trkpt>
      <trkpt lat="48.18736" lon="6.81782">
        <ele>598.8</ele>
        <time>2024-11-18T12:22:47Z</time>
      </trkpt>
      <trkpt lat="48.18735" lon="6.81782">
        <ele>598.8</ele>
        <time>2024-11-18T12:22:51Z</time>
      </trkpt>
      <trkpt lat="48.18736" lon="6.81783">
        <ele>598.7</ele>
        <time>2024-11-18T12:22:52Z</time>
      </trkpt>
      <trkpt lat="48.18736" lon="6.81783">
        <ele>598.6</ele>
        <time>2024-11-18T12:22:53Z</time>
      </trkpt>
      <trkpt lat="48.18735" lon="6.81784">
        <ele>598.5</ele>
        <time>2024-11-18T12:22:54Z</time>
      </trkpt>
      <trkpt lat="48.18735" lon="6.81785">
        <ele>598.4</ele>
        <time>2024-11-18T12:22:55Z</time>
      </trkpt>
      <trkpt lat="48.18726" lon="6.81785">
        <ele>597.1</ele>
        <time>2024-11-18T12:23:08Z</time>
      </trkpt>
      <trkpt lat="48.18716" lon="6.81783">
        <ele>595.9</ele>
        <time>2024-11-18T12:23:16Z</time>
      </trkpt>
      <trkpt lat="48.18706" lon="6.81779">
        <ele>592.2</ele>
        <time>2024-11-18T12:23:23Z</time>
      </trkpt>
      <trkpt lat="48.18698" lon="6.81776">
        <ele>587.9</ele>
        <time>2024-11-18T12:23:30Z</time>
      </trkpt>
      <trkpt lat="48.18689" lon="6.81772">
        <ele>584.1</ele>
        <time>2024-11-18T12:23:37Z</time>
      </trkpt>
      <trkpt lat="48.1868" lon="6.81767">
        <ele>580.7</ele>
        <time>2024-11-18T12:23:45Z</time>
      </trkpt>
      <trkpt lat="48.18671" lon="6.81761">
        <ele>577.4</ele>
        <time>2024-11-18T12:23:53Z</time>
      </trkpt>
      <trkpt lat="48.18663" lon="6.81753">
        <ele>576.1</ele>
        <time>2024-11-18T12:24:05Z</time>
      </trkpt>
      <trkpt lat="48.18656" lon="6.81743">
        <ele>574.8</ele>
        <time>2024-11-18T12:24:15Z</time>
      </trkpt>
      <trkpt lat="48.18647" lon="6.81736">
        <ele>573.5</ele>
        <time>2024-11-18T12:24:23Z</time>
      </trkpt>
      <trkpt lat="48.18639" lon="6.81728">
        <ele>572.2</ele>
        <time>2024-11-18T12:24:33Z</time>
      </trkpt>
      <trkpt lat="48.18631" lon="6.8172">
        <ele>570.9</ele>
        <time>2024-11-18T12:24:40Z</time>
      </trkpt>
      <trkpt lat="48.18623" lon="6.81712">
        <ele>569.7</ele>
        <time>2024-11-18T12:24:48Z</time>
      </trkpt>
      <trkpt lat="48.18616" lon="6.81706">
        <ele>568.6</ele>
        <time>2024-11-18T12:24:59Z</time>
      </trkpt>
      <trkpt lat="48.18616" lon="6.81706">
        <ele>568.6</ele>
        <time>2024-11-18T12:25:00Z</time>
      </trkpt>
      <trkpt lat="48.18616" lon="6.81706">
        <ele>568.6</ele>
        <time>2024-11-18T12:25:17Z</time>
      </trkpt>
      <trkpt lat="48.18616" lon="6.81705">
        <ele>568.5</ele>
        <time>2024-11-18T12:25:18Z</time>
      </trkpt>
      <trkpt lat="48.18609" lon="6.81697">
        <ele>567.3</ele>
        <time>2024-11-18T12:25:27Z</time>
      </trkpt>
      <trkpt lat="48.18602" lon="6.81688">
        <ele>566.1</ele>
        <time>2024-11-18T12:25:35Z</time>
      </trkpt>
      <trkpt lat="48.18594" lon="6.81679">
        <ele>564.8</ele>
        <time>2024-11-18T12:25:44Z</time>
      </trkpt>
      <trkpt lat="48.18585" lon="6.81672">
        <ele>563.5</ele>
        <time>2024-11-18T12:25:52Z</time>
      </trkpt>
      <trkpt lat="48.18577" lon="6.81665">
        <ele>562.3</ele>
        <time>2024-11-18T12:25:59Z</time>
      </trkpt>
      <trkpt lat="48.1857" lon="6.81657">
        <ele>561.1</ele>
        <time>2024-11-18T12:26:07Z</time>
      </trkpt>
      <trkpt lat="48.18561" lon="6.81651">
        <ele>559.8</ele>
        <time>2024-11-18T12:26:15Z</time>
      </trkpt>
      <trkpt lat="48.18553" lon="6.81644">
        <ele>558.5</ele>
        <time>2024-11-18T12:26:23Z</time>
      </trkpt>
      <trkpt lat="48.18545" lon="6.81636">
        <ele>557.2</ele>
        <time>2024-11-18T12:26:32Z</time>
      </trkpt>
      <trkpt lat="48.18537" lon="6.81627">
        <ele>556</ele>
        <time>2024-11-18T12:26:39Z</time>
      </trkpt>
      <trkpt lat="48.1853" lon="6.81618">
        <ele>554.7</ele>
        <time>2024-11-18T12:26:48Z</time>
      </trkpt>
      <trkpt lat="48.18522" lon="6.8161">
        <ele>553.5</ele>
        <time>2024-11-18T12:26:57Z</time>
      </trkpt>
      <trkpt lat="48.18514" lon="6.81602">
        <ele>552.4</ele>
        <time>2024-11-18T12:27:05Z</time>
      </trkpt>
      <trkpt lat="48.18507" lon="6.81595">
        <ele>551.3</ele>
        <time>2024-11-18T12:27:13Z</time>
      </trkpt>
      <trkpt lat="48.18498" lon="6.81589">
        <ele>550.2</ele>
        <time>2024-11-18T12:27:21Z</time>
      </trkpt>
      <trkpt lat="48.18489" lon="6.81583">
        <ele>549.1</ele>
        <time>2024-11-18T12:27:28Z</time>
      </trkpt>
      <trkpt lat="48.18481" lon="6.81577">
        <ele>548</ele>
        <time>2024-11-18T12:27:36Z</time>
      </trkpt>
      <trkpt lat="48.18472" lon="6.81572">
        <ele>546.9</ele>
        <time>2024-11-18T12:27:45Z</time>
      </trkpt>
      <trkpt lat="48.18463" lon="6.81568">
        <ele>545.6</ele>
        <time>2024-11-18T12:27:54Z</time>
      </trkpt>
      <trkpt lat="48.18453" lon="6.81565">
        <ele>544.5</ele>
        <time>2024-11-18T12:28:03Z</time>
      </trkpt>
      <trkpt lat="48.18444" lon="6.81561">
        <ele>543.4</ele>
        <time>2024-11-18T12:28:11Z</time>
      </trkpt>
      <trkpt lat="48.18435" lon="6.81557">
        <ele>542.3</ele>
        <time>2024-11-18T12:28:19Z</time>
      </trkpt>
      <trkpt lat="48.18426" lon="6.81554">
        <ele>541.2</ele>
        <time>2024-11-18T12:28:27Z</time>
      </trkpt>
      <trkpt lat="48.18417" lon="6.81551">
        <ele>540</ele>
        <time>2024-11-18T12:28:35Z</time>
      </trkpt>
      <trkpt lat="48.18408" lon="6.81547">
        <ele>538.9</ele>
        <time>2024-11-18T12:28:43Z</time>
      </trkpt>
      <trkpt lat="48.18398" lon="6.81545">
        <ele>537.7</ele>
        <time>2024-11-18T12:28:51Z</time>
      </trkpt>
      <trkpt lat="48.18389" lon="6.81543">
        <ele>536.5</ele>
        <time>2024-11-18T12:28:59Z</time>
      </trkpt>
      <trkpt lat="48.18379" lon="6.81541">
        <ele>535.4</ele>
        <time>2024-11-18T12:29:07Z</time>
      </trkpt>
      <trkpt lat="48.18369" lon="6.81538">
        <ele>534.2</ele>
        <time>2024-11-18T12:29:15Z</time>
      </trkpt>
      <trkpt lat="48.1836" lon="6.81536">
        <ele>533.1</ele>
        <time>2024-11-18T12:29:23Z</time>
      </trkpt>
      <trkpt lat="48.18351" lon="6.81533">
        <ele>531.9</ele>
        <time>2024-11-18T12:29:31Z</time>
      </trkpt>
      <trkpt lat="48.18342" lon="6.81529">
        <ele>530.8</ele>
        <time>2024-11-18T12:29:38Z</time>
      </trkpt>
      <trkpt lat="48.18333" lon="6.81524">
        <ele>529.6</ele>
        <time>2024-11-18T12:29:46Z</time>
      </trkpt>
      <trkpt lat="48.18324" lon="6.81521">
        <ele>528.5</ele>
        <time>2024-11-18T12:29:54Z</time>
      </trkpt>
      <trkpt lat="48.18314" lon="6.81518">
        <ele>527.4</ele>
        <time>2024-11-18T12:30:02Z</time>
      </trkpt>
      <trkpt lat="48.18305" lon="6.81515">
        <ele>526.2</ele>
        <time>2024-11-18T12:30:10Z</time>
      </trkpt>
      <trkpt lat="48.18296" lon="6.81511">
        <ele>525.1</ele>
        <time>2024-11-18T12:30:18Z</time>
      </trkpt>
      <trkpt lat="48.18287" lon="6.81505">
        <ele>523.9</ele>
        <time>2024-11-18T12:30:26Z</time>
      </trkpt>
      <trkpt lat="48.18277" lon="6.815">
        <ele>522.7</ele>
        <time>2024-11-18T12:30:34Z</time>
      </trkpt>
      <trkpt lat="48.18268" lon="6.81496">
        <ele>521.5</ele>
        <time>2024-11-18T12:30:42Z</time>
      </trkpt>
      <trkpt lat="48.18259" lon="6.81493">
        <ele>520.5</ele>
        <time>2024-11-18T12:30:50Z</time>
      </trkpt>
      <trkpt lat="48.1825" lon="6.81488">
        <ele>519.4</ele>
        <time>2024-11-18T12:30:58Z</time>
      </trkpt>
      <trkpt lat="48.18242" lon="6.81485">
        <ele>518.3</ele>
        <time>2024-11-18T12:31:06Z</time>
      </trkpt>
      <trkpt lat="48.18233" lon="6.8148">
        <ele>517.1</ele>
        <time>2024-11-18T12:31:14Z</time>
      </trkpt>
      <trkpt lat="48.18224" lon="6.81473">
        <ele>516</ele>
        <time>2024-11-18T12:31:22Z</time>
      </trkpt>
      <trkpt lat="48.18216" lon="6.81466">
        <ele>514.8</ele>
        <time>2024-11-18T12:31:31Z</time>
      </trkpt>
      <trkpt lat="48.18208" lon="6.81456">
        <ele>513.6</ele>
        <time>2024-11-18T12:31:40Z</time>
      </trkpt>
      <trkpt lat="48.18201" lon="6.81447">
        <ele>512.5</ele>
        <time>2024-11-18T12:31:48Z</time>
      </trkpt>
      <trkpt lat="48.18194" lon="6.81438">
        <ele>511.4</ele>
        <time>2024-11-18T12:31:56Z</time>
      </trkpt>
      <trkpt lat="48.18187" lon="6.81428">
        <ele>510.2</ele>
        <time>2024-11-18T12:32:04Z</time>
      </trkpt>
      <trkpt lat="48.1818" lon="6.81418">
        <ele>509</ele>
        <time>2024-11-18T12:32:12Z</time>
      </trkpt>
      <trkpt lat="48.18173" lon="6.81409">
        <ele>507.9</ele>
        <time>2024-11-18T12:32:20Z</time>
      </trkpt>
      <trkpt lat="48.18165" lon="6.814">
        <ele>506.7</ele>
        <time>2024-11-18T12:32:28Z</time>
      </trkpt>
      <trkpt lat="48.18158" lon="6.81397">
        <ele>505.9</ele>
        <time>2024-11-18T12:32:41Z</time>
      </trkpt>
      <trkpt lat="48.18158" lon="6.81397">
        <ele>505.9</ele>
        <time>2024-11-18T12:32:42Z</time>
      </trkpt>
      <trkpt lat="48.18158" lon="6.81397">
        <ele>505.9</ele>
        <time>2024-11-18T12:32:43Z</time>
      </trkpt>
      <trkpt lat="48.18157" lon="6.81395">
        <ele>505.7</ele>
        <time>2024-11-18T12:32:49Z</time>
      </trkpt>
      <trkpt lat="48.18157" lon="6.81394">
        <ele>505.6</ele>
        <time>2024-11-18T12:32:50Z</time>
      </trkpt>
      <trkpt lat="48.18156" lon="6.81393">
        <ele>505.5</ele>
        <time>2024-11-18T12:32:51Z</time>
      </trkpt>
      <trkpt lat="48.18153" lon="6.81378">
        <ele>504.3</ele>
        <time>2024-11-18T12:33:00Z</time>
      </trkpt>
      <trkpt lat="48.18149" lon="6.81366">
        <ele>503.1</ele>
        <time>2024-11-18T12:33:08Z</time>
      </trkpt>
      <trkpt lat="48.18144" lon="6.81354">
        <ele>502.4</ele>
        <time>2024-11-18T12:33:16Z</time>
      </trkpt>
      <trkpt lat="48.1814" lon="6.81341">
        <ele>501.8</ele>
        <time>2024-11-18T12:33:24Z</time>
      </trkpt>
      <trkpt lat="48.18136" lon="6.81327">
        <ele>501.2</ele>
        <time>2024-11-18T12:33:33Z</time>
      </trkpt>
      <trkpt lat="48.18133" lon="6.81314">
        <ele>500.7</ele>
        <time>2024-11-18T12:33:42Z</time>
      </trkpt>
      <trkpt lat="48.18128" lon="6.813">
        <ele>500.1</ele>
        <time>2024-11-18T12:33:51Z</time>
      </trkpt>
      <trkpt lat="48.18123" lon="6.81288">
        <ele>499.5</ele>
        <time>2024-11-18T12:33:59Z</time>
      </trkpt>
      <trkpt lat="48.18116" lon="6.81279">
        <ele>498.9</ele>
        <time>2024-11-18T12:34:08Z</time>
      </trkpt>
      <trkpt lat="48.18107" lon="6.81272">
        <ele>498.3</ele>
        <time>2024-11-18T12:34:17Z</time>
      </trkpt>
      <trkpt lat="48.18099" lon="6.81265">
        <ele>497.7</ele>
        <time>2024-11-18T12:34:25Z</time>
      </trkpt>
      <trkpt lat="48.18092" lon="6.81258">
        <ele>497.1</ele>
        <time>2024-11-18T12:34:33Z</time>
      </trkpt>
      <trkpt lat="48.1809" lon="6.81255">
        <ele>496.9</ele>
        <time>2024-11-18T12:34:46Z</time>
      </trkpt>
      <trkpt lat="48.1809" lon="6.81253">
        <ele>496.9</ele>
        <time>2024-11-18T12:35:23Z</time>
      </trkpt>
      <trkpt lat="48.18089" lon="6.81252">
        <ele>496.8</ele>
        <time>2024-11-18T12:35:24Z</time>
      </trkpt>
      <trkpt lat="48.18089" lon="6.81251">
        <ele>496.8</ele>
        <time>2024-11-18T12:35:25Z</time>
      </trkpt>
      <trkpt lat="48.18089" lon="6.8125">
        <ele>496.7</ele>
        <time>2024-11-18T12:35:29Z</time>
      </trkpt>
      <trkpt lat="48.18089" lon="6.8125">
        <ele>496.7</ele>
        <time>2024-11-18T12:35:30Z</time>
      </trkpt>
      <trkpt lat="48.18089" lon="6.8125">
        <ele>496.7</ele>
        <time>2024-11-18T12:35:31Z</time>
      </trkpt>
      <trkpt lat="48.18089" lon="6.81252">
        <ele>496.6</ele>
        <time>2024-11-18T12:35:49Z</time>
      </trkpt>
      <trkpt lat="48.1809" lon="6.81253">
        <ele>496.6</ele>
        <time>2024-11-18T12:35:50Z</time>
      </trkpt>
      <trkpt lat="48.18086" lon="6.81241">
        <ele>495.9</ele>
        <time>2024-11-18T12:36:00Z</time>
      </trkpt>
      <trkpt lat="48.18083" lon="6.81227">
        <ele>495.3</ele>
        <time>2024-11-18T12:36:08Z</time>
      </trkpt>
      <trkpt lat="48.18081" lon="6.81213">
        <ele>494.5</ele>
        <time>2024-11-18T12:36:16Z</time>
      </trkpt>
      <trkpt lat="48.18081" lon="6.8121">
        <ele>494.4</ele>
        <time>2024-11-18T12:36:24Z</time>
      </trkpt>
      <trkpt lat="48.18081" lon="6.81209">
        <ele>494.4</ele>
        <time>2024-11-18T12:36:25Z</time>
      </trkpt>
      <trkpt lat="48.18081" lon="6.81208">
        <ele>494.3</ele>
        <time>2024-11-18T12:36:26Z</time>
      </trkpt>
      <trkpt lat="48.18081" lon="6.81208">
        <ele>494.3</ele>
        <time>2024-11-18T12:36:27Z</time>
      </trkpt>
      <trkpt lat="48.18081" lon="6.81208">
        <ele>494.3</ele>
        <time>2024-11-18T12:36:28Z</time>
      </trkpt>
      <trkpt lat="48.18081" lon="6.81208">
        <ele>494.3</ele>
        <time>2024-11-18T12:37:13Z</time>
      </trkpt>
      <trkpt lat="48.18081" lon="6.81208">
        <ele>494.3</ele>
        <time>2024-11-18T12:37:14Z</time>
      </trkpt>
      <trkpt lat="48.18081" lon="6.81208">
        <ele>494.3</ele>
        <time>2024-11-18T12:37:15Z</time>
      </trkpt>
      <trkpt lat="48.18081" lon="6.81208">
        <ele>494.3</ele>
        <time>2024-11-18T12:37:16Z</time>
      </trkpt>
      <trkpt lat="48.1808" lon="6.81208">
        <ele>494.2</ele>
        <time>2024-11-18T12:37:17Z</time>
      </trkpt>
      <trkpt lat="48.1808" lon="6.81206">
        <ele>494.1</ele>
        <time>2024-11-18T12:37:18Z</time>
      </trkpt>
      <trkpt lat="48.18079" lon="6.81204">
        <ele>494.1</ele>
        <time>2024-11-18T12:37:19Z</time>
      </trkpt>
      <trkpt lat="48.18078" lon="6.81203">
        <ele>494.1</ele>
        <time>2024-11-18T12:37:20Z</time>
      </trkpt>
      <trkpt lat="48.18078" lon="6.81201">
        <ele>494</ele>
        <time>2024-11-18T12:37:21Z</time>
      </trkpt>
      <trkpt lat="48.18077" lon="6.81186">
        <ele>494</ele>
        <time>2024-11-18T12:37:28Z</time>
      </trkpt>
      <trkpt lat="48.18077" lon="6.81171">
        <ele>494.4</ele>
        <time>2024-11-18T12:37:36Z</time>
      </trkpt>
      <trkpt lat="48.18076" lon="6.81158">
        <ele>494.5</ele>
        <time>2024-11-18T12:37:46Z</time>
      </trkpt>
      <trkpt lat="48.18076" lon="6.81158">
        <ele>494.5</ele>
        <time>2024-11-18T12:37:47Z</time>
      </trkpt>
      <trkpt lat="48.18076" lon="6.81158">
        <ele>494.5</ele>
        <time>2024-11-18T12:37:48Z</time>
      </trkpt>
      <trkpt lat="48.18076" lon="6.81156">
        <ele>494.5</ele>
        <time>2024-11-18T12:37:49Z</time>
      </trkpt>
      <trkpt lat="48.18075" lon="6.81154">
        <ele>494.4</ele>
        <time>2024-11-18T12:37:50Z</time>
      </trkpt>
      <trkpt lat="48.18075" lon="6.81152">
        <ele>494.4</ele>
        <time>2024-11-18T12:37:51Z</time>
      </trkpt>
      <trkpt lat="48.18074" lon="6.81138">
        <ele>493.9</ele>
        <time>2024-11-18T12:37:59Z</time>
      </trkpt>
      <trkpt lat="48.18074" lon="6.81124">
        <ele>493</ele>
        <time>2024-11-18T12:38:07Z</time>
      </trkpt>
      <trkpt lat="48.18075" lon="6.8111">
        <ele>491.9</ele>
        <time>2024-11-18T12:38:15Z</time>
      </trkpt>
      <trkpt lat="48.18073" lon="6.81095">
        <ele>490.7</ele>
        <time>2024-11-18T12:38:23Z</time>
      </trkpt>
      <trkpt lat="48.18074" lon="6.81081">
        <ele>489.5</ele>
        <time>2024-11-18T12:38:31Z</time>
      </trkpt>
      <trkpt lat="48.18074" lon="6.81066">
        <ele>488.3</ele>
        <time>2024-11-18T12:38:39Z</time>
      </trkpt>
      <trkpt lat="48.18072" lon="6.81051">
        <ele>487.1</ele>
        <time>2024-11-18T12:38:47Z</time>
      </trkpt>
      <trkpt lat="48.18071" lon="6.81037">
        <ele>486</ele>
        <time>2024-11-18T12:38:55Z</time>
      </trkpt>
      <trkpt lat="48.18069" lon="6.81023">
        <ele>485.1</ele>
        <time>2024-11-18T12:39:03Z</time>
      </trkpt>
      <trkpt lat="48.18067" lon="6.81009">
        <ele>484.3</ele>
        <time>2024-11-18T12:39:11Z</time>
      </trkpt>
      <trkpt lat="48.18066" lon="6.80995">
        <ele>483.5</ele>
        <time>2024-11-18T12:39:19Z</time>
      </trkpt>
      <trkpt lat="48.18065" lon="6.80981">
        <ele>482.7</ele>
        <time>2024-11-18T12:39:27Z</time>
      </trkpt>
      <trkpt lat="48.18065" lon="6.80967">
        <ele>481.9</ele>
        <time>2024-11-18T12:39:35Z</time>
      </trkpt>
      <trkpt lat="48.18064" lon="6.80952">
        <ele>481</ele>
        <time>2024-11-18T12:39:43Z</time>
      </trkpt>
      <trkpt lat="48.18064" lon="6.80938">
        <ele>480.4</ele>
        <time>2024-11-18T12:39:51Z</time>
      </trkpt>
      <trkpt lat="48.18062" lon="6.80924">
        <ele>479.8</ele>
        <time>2024-11-18T12:39:59Z</time>
      </trkpt>
      <trkpt lat="48.1806" lon="6.8091">
        <ele>479.5</ele>
        <time>2024-11-18T12:40:07Z</time>
      </trkpt>
      <trkpt lat="48.18056" lon="6.80897">
        <ele>479.3</ele>
        <time>2024-11-18T12:40:15Z</time>
      </trkpt>
      <trkpt lat="48.18048" lon="6.80887">
        <ele>479.1</ele>
        <time>2024-11-18T12:40:23Z</time>
      </trkpt>
      <trkpt lat="48.18039" lon="6.80885">
        <ele>478.9</ele>
        <time>2024-11-18T12:40:30Z</time>
      </trkpt>
      <trkpt lat="48.1803" lon="6.80885">
        <ele>478.6</ele>
        <time>2024-11-18T12:40:37Z</time>
      </trkpt>
      <trkpt lat="48.1802" lon="6.80887">
        <ele>478.2</ele>
        <time>2024-11-18T12:40:44Z</time>
      </trkpt>
      <trkpt lat="48.18011" lon="6.80884">
        <ele>477.4</ele>
        <time>2024-11-18T12:40:52Z</time>
      </trkpt>
      <trkpt lat="48.18003" lon="6.80876">
        <ele>476.6</ele>
        <time>2024-11-18T12:41:01Z</time>
      </trkpt>
      <trkpt lat="48.18002" lon="6.80874">
        <ele>476.5</ele>
        <time>2024-11-18T12:41:18Z</time>
      </trkpt>
      <trkpt lat="48.18002" lon="6.80874">
        <ele>476.5</ele>
        <time>2024-11-18T12:41:19Z</time>
      </trkpt>
      <trkpt lat="48.18002" lon="6.80874">
        <ele>476.5</ele>
        <time>2024-11-18T12:41:20Z</time>
      </trkpt>
      <trkpt lat="48.18002" lon="6.80874">
        <ele>476.5</ele>
        <time>2024-11-18T12:41:21Z</time>
      </trkpt>
      <trkpt lat="48.18002" lon="6.80874">
        <ele>476.5</ele>
        <time>2024-11-18T12:41:22Z</time>
      </trkpt>
      <trkpt lat="48.18002" lon="6.80874">
        <ele>476.5</ele>
        <time>2024-11-18T12:41:23Z</time>
      </trkpt>
      <trkpt lat="48.18002" lon="6.80874">
        <ele>476.5</ele>
        <time>2024-11-18T12:41:24Z</time>
      </trkpt>
      <trkpt lat="48.18002" lon="6.80874">
        <ele>476.5</ele>
        <time>2024-11-18T12:41:25Z</time>
      </trkpt>
      <trkpt lat="48.18002" lon="6.80874">
        <ele>476.5</ele>
        <time>2024-11-18T12:41:26Z</time>
      </trkpt>
      <trkpt lat="48.18002" lon="6.80873">
        <ele>476.4</ele>
        <time>2024-11-18T12:42:19Z</time>
      </trkpt>
      <trkpt lat="48.18001" lon="6.80873">
        <ele>476.4</ele>
        <time>2024-11-18T12:42:20Z</time>
      </trkpt>
      <trkpt lat="48.18001" lon="6.80873">
        <ele>476.4</ele>
        <time>2024-11-18T12:42:21Z</time>
      </trkpt>
      <trkpt lat="48.18001" lon="6.80873">
        <ele>476.4</ele>
        <time>2024-11-18T12:42:22Z</time>
      </trkpt>
      <trkpt lat="48.18001" lon="6.80873">
        <ele>476.4</ele>
        <time>2024-11-18T12:42:23Z</time>
      </trkpt>
      <trkpt lat="48.18001" lon="6.80873">
        <ele>476.4</ele>
        <time>2024-11-18T12:42:24Z</time>
      </trkpt>
      <trkpt lat="48.18001" lon="6.80873">
        <ele>476.4</ele>
        <time>2024-11-18T12:42:25Z</time>
      </trkpt>
      <trkpt lat="48.18001" lon="6.80873">
        <ele>476.4</ele>
        <time>2024-11-18T12:42:26Z</time>
      </trkpt>
      <trkpt lat="48.18001" lon="6.80873">
        <ele>476.4</ele>
        <time>2024-11-18T12:42:27Z</time>
      </trkpt>
      <trkpt lat="48.18001" lon="6.80873">
        <ele>476.4</ele>
        <time>2024-11-18T12:42:28Z</time>
      </trkpt>
      <trkpt lat="48.18001" lon="6.80873">
        <ele>476.4</ele>
        <time>2024-11-18T12:43:06Z</time>
      </trkpt>
      <trkpt lat="48.18001" lon="6.80873">
        <ele>476.4</ele>
        <time>2024-11-18T12:43:07Z</time>
      </trkpt>
      <trkpt lat="48.18001" lon="6.80873">
        <ele>476.4</ele>
        <time>2024-11-18T12:43:08Z</time>
      </trkpt>
      <trkpt lat="48.18001" lon="6.80873">
        <ele>476.4</ele>
        <time>2024-11-18T12:43:12Z</time>
      </trkpt>
      <trkpt lat="48.18001" lon="6.80873">
        <ele>476.4</ele>
        <time>2024-11-18T12:43:13Z</time>
      </trkpt>
      <trkpt lat="48.18001" lon="6.80873">
        <ele>476.4</ele>
        <time>2024-11-18T12:43:14Z</time>
      </trkpt>
      <trkpt lat="48.18001" lon="6.80874">
        <ele>476.4</ele>
        <time>2024-11-18T12:43:32Z</time>
      </trkpt>
      <trkpt lat="48.18001" lon="6.80874">
        <ele>476.3</ele>
        <time>2024-11-18T12:43:33Z</time>
      </trkpt>
      <trkpt lat="48.18" lon="6.80875">
        <ele>476.3</ele>
        <time>2024-11-18T12:43:41Z</time>
      </trkpt>
      <trkpt lat="48.18" lon="6.80875">
        <ele>476.3</ele>
        <time>2024-11-18T12:43:42Z</time>
      </trkpt>
      <trkpt lat="48.18" lon="6.80875">
        <ele>476.3</ele>
        <time>2024-11-18T12:43:43Z</time>
      </trkpt>
      <trkpt lat="48.18" lon="6.80875">
        <ele>476.3</ele>
        <time>2024-11-18T12:43:44Z</time>
      </trkpt>
      <trkpt lat="48.18" lon="6.80875">
        <ele>476.3</ele>
        <time>2024-11-18T12:43:45Z</time>
      </trkpt>
      <trkpt lat="48.18" lon="6.80875">
        <ele>476.3</ele>
        <time>2024-11-18T12:43:46Z</time>
      </trkpt>
      <trkpt lat="48.18" lon="6.80875">
        <ele>476.3</ele>
        <time>2024-11-18T12:43:47Z</time>
      </trkpt>
      <trkpt lat="48.18" lon="6.80875">
        <ele>476.3</ele>
        <time>2024-11-18T12:43:48Z</time>
      </trkpt>
      <trkpt lat="48.18001" lon="6.80875">
        <ele>476.2</ele>
        <time>2024-11-18T12:44:26Z</time>
      </trkpt>
      <trkpt lat="48.18001" lon="6.80875">
        <ele>476.2</ele>
        <time>2024-11-18T12:44:27Z</time>
      </trkpt>
      <trkpt lat="48.18001" lon="6.80875">
        <ele>476.2</ele>
        <time>2024-11-18T12:44:28Z</time>
      </trkpt>
      <trkpt lat="48.18001" lon="6.80875">
        <ele>476.2</ele>
        <time>2024-11-18T12:44:29Z</time>
      </trkpt>
      <trkpt lat="48.18001" lon="6.80875">
        <ele>476.2</ele>
        <time>2024-11-18T12:44:30Z</time>
      </trkpt>
      <trkpt lat="48.18001" lon="6.80875">
        <ele>476.2</ele>
        <time>2024-11-18T12:44:41Z</time>
      </trkpt>
      <trkpt lat="48.18001" lon="6.80875">
        <ele>476.2</ele>
        <time>2024-11-18T12:44:42Z</time>
      </trkpt>
      <trkpt lat="48.18001" lon="6.80875">
        <ele>476.2</ele>
        <time>2024-11-18T12:44:43Z</time>
      </trkpt>
      <trkpt lat="48.18001" lon="6.80875">
        <ele>476.2</ele>
        <time>2024-11-18T12:44:44Z</time>
      </trkpt>
      <trkpt lat="48.18001" lon="6.80875">
        <ele>476.2</ele>
        <time>2024-11-18T12:44:45Z</time>
      </trkpt>
      <trkpt lat="48.18" lon="6.80875">
        <ele>476.2</ele>
        <time>2024-11-18T12:45:07Z</time>
      </trkpt>
      <trkpt lat="48.17999" lon="6.80875">
        <ele>476.1</ele>
        <time>2024-11-18T12:45:08Z</time>
      </trkpt>
      <trkpt lat="48.1799" lon="6.80878">
        <ele>476.1</ele>
        <time>2024-11-18T12:45:17Z</time>
      </trkpt>
      <trkpt lat="48.17982" lon="6.80883">
        <ele>476.1</ele>
        <time>2024-11-18T12:45:25Z</time>
      </trkpt>
      <trkpt lat="48.17973" lon="6.80889">
        <ele>476.1</ele>
        <time>2024-11-18T12:45:33Z</time>
      </trkpt>
      <trkpt lat="48.17964" lon="6.80894">
        <ele>476.1</ele>
        <time>2024-11-18T12:45:40Z</time>
      </trkpt>
      <trkpt lat="48.17955" lon="6.80899">
        <ele>476.1</ele>
        <time>2024-11-18T12:45:48Z</time>
      </trkpt>
      <trkpt lat="48.17947" lon="6.80906">
        <ele>476.2</ele>
        <time>2024-11-18T12:45:55Z</time>
      </trkpt>
      <trkpt lat="48.17938" lon="6.80912">
        <ele>476.3</ele>
        <time>2024-11-18T12:46:03Z</time>
      </trkpt>
      <trkpt lat="48.17929" lon="6.80919">
        <ele>476.3</ele>
        <time>2024-11-18T12:46:11Z</time>
      </trkpt>
      <trkpt lat="48.17921" lon="6.80927">
        <ele>476.3</ele>
        <time>2024-11-18T12:46:19Z</time>
      </trkpt>
      <trkpt lat="48.17912" lon="6.80931">
        <ele>476.4</ele>
        <time>2024-11-18T12:46:27Z</time>
      </trkpt>
      <trkpt lat="48.17904" lon="6.80938">
        <ele>476.6</ele>
        <time>2024-11-18T12:46:35Z</time>
      </trkpt>
      <trkpt lat="48.17896" lon="6.80946">
        <ele>476.8</ele>
        <time>2024-11-18T12:46:42Z</time>
      </trkpt>
      <trkpt lat="48.17888" lon="6.80955">
        <ele>477</ele>
        <time>2024-11-18T12:46:49Z</time>
      </trkpt>
      <trkpt lat="48.17881" lon="6.80964">
        <ele>477.3</ele>
        <time>2024-11-18T12:46:56Z</time>
      </trkpt>
      <trkpt lat="48.17875" lon="6.80974">
        <ele>477.6</ele>
        <time>2024-11-18T12:47:03Z</time>
      </trkpt>
      <trkpt lat="48.17869" lon="6.80985">
        <ele>478</ele>
        <time>2024-11-18T12:47:11Z</time>
      </trkpt>
      <trkpt lat="48.17862" lon="6.80996">
        <ele>478.3</ele>
        <time>2024-11-18T12:47:19Z</time>
      </trkpt>
      <trkpt lat="48.17855" lon="6.81007">
        <ele>478.7</ele>
        <time>2024-11-18T12:47:27Z</time>
      </trkpt>
      <trkpt lat="48.17849" lon="6.81017">
        <ele>479</ele>
        <time>2024-11-18T12:47:35Z</time>
      </trkpt>
      <trkpt lat="48.17841" lon="6.81028">
        <ele>479.4</ele>
        <time>2024-11-18T12:47:43Z</time>
      </trkpt>
      <trkpt lat="48.17834" lon="6.81038">
        <ele>479.8</ele>
        <time>2024-11-18T12:47:51Z</time>
      </trkpt>
      <trkpt lat="48.17827" lon="6.81048">
        <ele>480.3</ele>
        <time>2024-11-18T12:47:59Z</time>
      </trkpt>
      <trkpt lat="48.17819" lon="6.81058">
        <ele>480.8</ele>
        <time>2024-11-18T12:48:07Z</time>
      </trkpt>
      <trkpt lat="48.17812" lon="6.81069">
        <ele>481.2</ele>
        <time>2024-11-18T12:48:15Z</time>
      </trkpt>
      <trkpt lat="48.17805" lon="6.8108">
        <ele>481.7</ele>
        <time>2024-11-18T12:48:23Z</time>
      </trkpt>
      <trkpt lat="48.17799" lon="6.81091">
        <ele>482.1</ele>
        <time>2024-11-18T12:48:31Z</time>
      </trkpt>
      <trkpt lat="48.17793" lon="6.81103">
        <ele>482.5</ele>
        <time>2024-11-18T12:48:39Z</time>
      </trkpt>
      <trkpt lat="48.17787" lon="6.81115">
        <ele>482.8</ele>
        <time>2024-11-18T12:48:47Z</time>
      </trkpt>
      <trkpt lat="48.1778" lon="6.81126">
        <ele>483.2</ele>
        <time>2024-11-18T12:48:55Z</time>
      </trkpt>
      <trkpt lat="48.17775" lon="6.81138">
        <ele>483.6</ele>
        <time>2024-11-18T12:49:03Z</time>
      </trkpt>
      <trkpt lat="48.17772" lon="6.81151">
        <ele>484</ele>
        <time>2024-11-18T12:49:10Z</time>
      </trkpt>
      <trkpt lat="48.17772" lon="6.81166">
        <ele>483.9</ele>
        <time>2024-11-18T12:49:18Z</time>
      </trkpt>
      <trkpt lat="48.17771" lon="6.8118">
        <ele>483.9</ele>
        <time>2024-11-18T12:49:26Z</time>
      </trkpt>
      <trkpt lat="48.1777" lon="6.81195">
        <ele>484</ele>
        <time>2024-11-18T12:49:34Z</time>
      </trkpt>
      <trkpt lat="48.17769" lon="6.8121">
        <ele>484.3</ele>
        <time>2024-11-18T12:49:42Z</time>
      </trkpt>
      <trkpt lat="48.17769" lon="6.81224">
        <ele>484.6</ele>
        <time>2024-11-18T12:49:50Z</time>
      </trkpt>
      <trkpt lat="48.17769" lon="6.81239">
        <ele>484.8</ele>
        <time>2024-11-18T12:49:58Z</time>
      </trkpt>
      <trkpt lat="48.17768" lon="6.81254">
        <ele>484.9</ele>
        <time>2024-11-18T12:50:06Z</time>
      </trkpt>
      <trkpt lat="48.17768" lon="6.81269">
        <ele>484.9</ele>
        <time>2024-11-18T12:50:14Z</time>
      </trkpt>
      <trkpt lat="48.17768" lon="6.81283">
        <ele>485</ele>
        <time>2024-11-18T12:50:21Z</time>
      </trkpt>
      <trkpt lat="48.17767" lon="6.81296">
        <ele>485.1</ele>
        <time>2024-11-18T12:50:28Z</time>
      </trkpt>
      <trkpt lat="48.17767" lon="6.81312">
        <ele>485.2</ele>
        <time>2024-11-18T12:50:36Z</time>
      </trkpt>
      <trkpt lat="48.17767" lon="6.81327">
        <ele>485.3</ele>
        <time>2024-11-18T12:50:44Z</time>
      </trkpt>
      <trkpt lat="48.17766" lon="6.81341">
        <ele>485.3</ele>
        <time>2024-11-18T12:50:52Z</time>
      </trkpt>
      <trkpt lat="48.17764" lon="6.81354">
        <ele>485.2</ele>
        <time>2024-11-18T12:51:00Z</time>
      </trkpt>
      <trkpt lat="48.17763" lon="6.81369">
        <ele>484.8</ele>
        <time>2024-11-18T12:51:08Z</time>
      </trkpt>
      <trkpt lat="48.17763" lon="6.81383">
        <ele>484.4</ele>
        <time>2024-11-18T12:51:16Z</time>
      </trkpt>
      <trkpt lat="48.17765" lon="6.81397">
        <ele>484.3</ele>
        <time>2024-11-18T12:51:24Z</time>
      </trkpt>
      <trkpt lat="48.17761" lon="6.81411">
        <ele>484.8</ele>
        <time>2024-11-18T12:51:32Z</time>
      </trkpt>
      <trkpt lat="48.17759" lon="6.81424">
        <ele>485.6</ele>
        <time>2024-11-18T12:51:39Z</time>
      </trkpt>
      <trkpt lat="48.17754" lon="6.81438">
        <ele>486.1</ele>
        <time>2024-11-18T12:51:47Z</time>
      </trkpt>
      <trkpt lat="48.17749" lon="6.8145">
        <ele>486.7</ele>
        <time>2024-11-18T12:51:55Z</time>
      </trkpt>
      <trkpt lat="48.17742" lon="6.8146">
        <ele>487.9</ele>
        <time>2024-11-18T12:52:03Z</time>
      </trkpt>
      <trkpt lat="48.17734" lon="6.81469">
        <ele>489</ele>
        <time>2024-11-18T12:52:11Z</time>
      </trkpt>
      <trkpt lat="48.17726" lon="6.81476">
        <ele>490.6</ele>
        <time>2024-11-18T12:52:19Z</time>
      </trkpt>
      <trkpt lat="48.17717" lon="6.81482">
        <ele>492.5</ele>
        <time>2024-11-18T12:52:26Z</time>
      </trkpt>
      <trkpt lat="48.1771" lon="6.81492">
        <ele>494.6</ele>
        <time>2024-11-18T12:52:34Z</time>
      </trkpt>
      <trkpt lat="48.17703" lon="6.81503">
        <ele>496.1</ele>
        <time>2024-11-18T12:52:42Z</time>
      </trkpt>
      <trkpt lat="48.17696" lon="6.81514">
        <ele>497.8</ele>
        <time>2024-11-18T12:52:51Z</time>
      </trkpt>
      <trkpt lat="48.1769" lon="6.81524">
        <ele>500.3</ele>
        <time>2024-11-18T12:52:59Z</time>
      </trkpt>
      <trkpt lat="48.17683" lon="6.81534">
        <ele>501.8</ele>
        <time>2024-11-18T12:53:07Z</time>
      </trkpt>
      <trkpt lat="48.17677" lon="6.81546">
        <ele>503.5</ele>
        <time>2024-11-18T12:53:14Z</time>
      </trkpt>
      <trkpt lat="48.17671" lon="6.81556">
        <ele>505.2</ele>
        <time>2024-11-18T12:53:21Z</time>
      </trkpt>
      <trkpt lat="48.17665" lon="6.81568">
        <ele>506.9</ele>
        <time>2024-11-18T12:53:28Z</time>
      </trkpt>
      <trkpt lat="48.1766" lon="6.8158">
        <ele>508.5</ele>
        <time>2024-11-18T12:53:36Z</time>
      </trkpt>
      <trkpt lat="48.17656" lon="6.81593">
        <ele>509.8</ele>
        <time>2024-11-18T12:53:44Z</time>
      </trkpt>
      <trkpt lat="48.1765" lon="6.81606">
        <ele>511.1</ele>
        <time>2024-11-18T12:53:52Z</time>
      </trkpt>
      <trkpt lat="48.17647" lon="6.81619">
        <ele>511.5</ele>
        <time>2024-11-18T12:54:00Z</time>
      </trkpt>
      <trkpt lat="48.17643" lon="6.81633">
        <ele>511.7</ele>
        <time>2024-11-18T12:54:08Z</time>
      </trkpt>
      <trkpt lat="48.17639" lon="6.81646">
        <ele>511.6</ele>
        <time>2024-11-18T12:54:23Z</time>
      </trkpt>
      <trkpt lat="48.17638" lon="6.81661">
        <ele>511.8</ele>
        <time>2024-11-18T12:54:31Z</time>
      </trkpt>
      <trkpt lat="48.17632" lon="6.81672">
        <ele>512.7</ele>
        <time>2024-11-18T12:54:40Z</time>
      </trkpt>
      <trkpt lat="48.17624" lon="6.81681">
        <ele>514.2</ele>
        <time>2024-11-18T12:54:46Z</time>
      </trkpt>
      <trkpt lat="48.17624" lon="6.81696">
        <ele>513.4</ele>
        <time>2024-11-18T12:54:56Z</time>
      </trkpt>
      <trkpt lat="48.17624" lon="6.81705">
        <ele>512.9</ele>
        <time>2024-11-18T12:55:06Z</time>
      </trkpt>
      <trkpt lat="48.17625" lon="6.81706">
        <ele>512</ele>
        <time>2024-11-18T12:55:07Z</time>
      </trkpt>
      <trkpt lat="48.17622" lon="6.81709">
        <ele>513.4</ele>
        <time>2024-11-18T12:55:27Z</time>
      </trkpt>
      <trkpt lat="48.17622" lon="6.81709">
        <ele>513.4</ele>
        <time>2024-11-18T12:55:28Z</time>
      </trkpt>
      <trkpt lat="48.17622" lon="6.81709">
        <ele>513.4</ele>
        <time>2024-11-18T12:55:29Z</time>
      </trkpt>
      <trkpt lat="48.17622" lon="6.81709">
        <ele>513.4</ele>
        <time>2024-11-18T12:55:30Z</time>
      </trkpt>
      <trkpt lat="48.17622" lon="6.81709">
        <ele>513.4</ele>
        <time>2024-11-18T12:55:31Z</time>
      </trkpt>
      <trkpt lat="48.17622" lon="6.81708">
        <ele>512.7</ele>
        <time>2024-11-18T12:55:44Z</time>
      </trkpt>
      <trkpt lat="48.17622" lon="6.81708">
        <ele>512.7</ele>
        <time>2024-11-18T12:55:45Z</time>
      </trkpt>
      <trkpt lat="48.17623" lon="6.81709">
        <ele>512.7</ele>
        <time>2024-11-18T12:55:46Z</time>
      </trkpt>
      <trkpt lat="48.17623" lon="6.8171">
        <ele>512.7</ele>
        <time>2024-11-18T12:55:47Z</time>
      </trkpt>
      <trkpt lat="48.17623" lon="6.8171">
        <ele>512.7</ele>
        <time>2024-11-18T12:55:48Z</time>
      </trkpt>
      <trkpt lat="48.17623" lon="6.8171">
        <ele>512.5</ele>
        <time>2024-11-18T12:55:49Z</time>
      </trkpt>
      <trkpt lat="48.17623" lon="6.8171">
        <ele>512.5</ele>
        <time>2024-11-18T12:55:52Z</time>
      </trkpt>
      <trkpt lat="48.17623" lon="6.8171">
        <ele>512.5</ele>
        <time>2024-11-18T12:55:53Z</time>
      </trkpt>
      <trkpt lat="48.17623" lon="6.8171">
        <ele>512.7</ele>
        <time>2024-11-18T12:56:04Z</time>
      </trkpt>
      <trkpt lat="48.17623" lon="6.8171">
        <ele>512.7</ele>
        <time>2024-11-18T12:56:05Z</time>
      </trkpt>
      <trkpt lat="48.17623" lon="6.8171">
        <ele>512.7</ele>
        <time>2024-11-18T12:56:06Z</time>
      </trkpt>
      <trkpt lat="48.17623" lon="6.8171">
        <ele>512.8</ele>
        <time>2024-11-18T12:56:07Z</time>
      </trkpt>
      <trkpt lat="48.17623" lon="6.8171">
        <ele>512.8</ele>
        <time>2024-11-18T12:56:08Z</time>
      </trkpt>
      <trkpt lat="48.17623" lon="6.8171">
        <ele>512.8</ele>
        <time>2024-11-18T12:56:23Z</time>
      </trkpt>
      <trkpt lat="48.17623" lon="6.8171">
        <ele>512.8</ele>
        <time>2024-11-18T12:56:24Z</time>
      </trkpt>
      <trkpt lat="48.17623" lon="6.8171">
        <ele>512.8</ele>
        <time>2024-11-18T12:56:25Z</time>
      </trkpt>
      <trkpt lat="48.17623" lon="6.8171">
        <ele>512.8</ele>
        <time>2024-11-18T12:56:26Z</time>
      </trkpt>
      <trkpt lat="48.17623" lon="6.8171">
        <ele>512.8</ele>
        <time>2024-11-18T12:56:27Z</time>
      </trkpt>
      <trkpt lat="48.17623" lon="6.8171">
        <ele>512.8</ele>
        <time>2024-11-18T12:56:28Z</time>
      </trkpt>
      <trkpt lat="48.17623" lon="6.8171">
        <ele>512.8</ele>
        <time>2024-11-18T12:56:56Z</time>
      </trkpt>
      <trkpt lat="48.17622" lon="6.8171">
        <ele>512.8</ele>
        <time>2024-11-18T12:56:57Z</time>
      </trkpt>
      <trkpt lat="48.17622" lon="6.8171">
        <ele>512.8</ele>
        <time>2024-11-18T12:56:58Z</time>
      </trkpt>
      <trkpt lat="48.17623" lon="6.8171">
        <ele>512.8</ele>
        <time>2024-11-18T12:56:59Z</time>
      </trkpt>
      <trkpt lat="48.17623" lon="6.8171">
        <ele>512.8</ele>
        <time>2024-11-18T12:57:00Z</time>
      </trkpt>
      <trkpt lat="48.17623" lon="6.81711">
        <ele>512.6</ele>
        <time>2024-11-18T12:57:06Z</time>
      </trkpt>
      <trkpt lat="48.17623" lon="6.81711">
        <ele>512.6</ele>
        <time>2024-11-18T12:57:07Z</time>
      </trkpt>
      <trkpt lat="48.17624" lon="6.8171">
        <ele>512.6</ele>
        <time>2024-11-18T12:57:08Z</time>
      </trkpt>
      <trkpt lat="48.17624" lon="6.8171">
        <ele>512.8</ele>
        <time>2024-11-18T12:57:12Z</time>
      </trkpt>
      <trkpt lat="48.17624" lon="6.81709">
        <ele>512.8</ele>
        <time>2024-11-18T12:57:13Z</time>
      </trkpt>
      <trkpt lat="48.17625" lon="6.8171">
        <ele>512.8</ele>
        <time>2024-11-18T12:57:16Z</time>
      </trkpt>
      <trkpt lat="48.17624" lon="6.8171">
        <ele>512.6</ele>
        <time>2024-11-18T12:57:17Z</time>
      </trkpt>
      <trkpt lat="48.17623" lon="6.817">
        <ele>513.3</ele>
        <time>2024-11-18T12:57:31Z</time>
      </trkpt>
      <trkpt lat="48.17623" lon="6.817">
        <ele>513.3</ele>
        <time>2024-11-18T12:57:32Z</time>
      </trkpt>
      <trkpt lat="48.17623" lon="6.81699">
        <ele>513.3</ele>
        <time>2024-11-18T12:58:08Z</time>
      </trkpt>
      <trkpt lat="48.17623" lon="6.81698">
        <ele>513.3</ele>
        <time>2024-11-18T12:58:09Z</time>
      </trkpt>
      <trkpt lat="48.17623" lon="6.81697">
        <ele>513.6</ele>
        <time>2024-11-18T12:58:10Z</time>
      </trkpt>
      <trkpt lat="48.17624" lon="6.81682">
        <ele>514.4</ele>
        <time>2024-11-18T12:58:19Z</time>
      </trkpt>
      <trkpt lat="48.17623" lon="6.81668">
        <ele>515.3</ele>
        <time>2024-11-18T12:58:28Z</time>
      </trkpt>
      <trkpt lat="48.1762" lon="6.81659">
        <ele>516.6</ele>
        <time>2024-11-18T12:58:39Z</time>
      </trkpt>
      <trkpt lat="48.1762" lon="6.81659">
        <ele>516.6</ele>
        <time>2024-11-18T12:58:40Z</time>
      </trkpt>
      <trkpt lat="48.17619" lon="6.81656">
        <ele>517.7</ele>
        <time>2024-11-18T12:58:54Z</time>
      </trkpt>
      <trkpt lat="48.17619" lon="6.81655">
        <ele>517.7</ele>
        <time>2024-11-18T12:58:55Z</time>
      </trkpt>
      <trkpt lat="48.17617" lon="6.81654">
        <ele>518</ele>
        <time>2024-11-18T12:58:56Z</time>
      </trkpt>
      <trkpt lat="48.17616" lon="6.81639">
        <ele>518.8</ele>
        <time>2024-11-18T12:59:10Z</time>
      </trkpt>
      <trkpt lat="48.17616" lon="6.81624">
        <ele>520.4</ele>
        <time>2024-11-18T12:59:18Z</time>
      </trkpt>
      <trkpt lat="48.17615" lon="6.8161">
        <ele>520.9</ele>
        <time>2024-11-18T12:59:28Z</time>
      </trkpt>
      <trkpt lat="48.17615" lon="6.81605">
        <ele>521</ele>
        <time>2024-11-18T12:59:34Z</time>
      </trkpt>
      <trkpt lat="48.17614" lon="6.81604">
        <ele>521</ele>
        <time>2024-11-18T12:59:35Z</time>
      </trkpt>
      <trkpt lat="48.17612" lon="6.81602">
        <ele>521.9</ele>
        <time>2024-11-18T12:59:36Z</time>
      </trkpt>
      <trkpt lat="48.17611" lon="6.816">
        <ele>521.9</ele>
        <time>2024-11-18T12:59:41Z</time>
      </trkpt>
      <trkpt lat="48.17611" lon="6.81599">
        <ele>521.9</ele>
        <time>2024-11-18T12:59:42Z</time>
      </trkpt>
      <trkpt lat="48.17612" lon="6.81591">
        <ele>522</ele>
        <time>2024-11-18T12:59:54Z</time>
      </trkpt>
      <trkpt lat="48.17612" lon="6.81591">
        <ele>522</ele>
        <time>2024-11-18T12:59:55Z</time>
      </trkpt>
      <trkpt lat="48.17612" lon="6.81589">
        <ele>522.1</ele>
        <time>2024-11-18T12:59:59Z</time>
      </trkpt>
      <trkpt lat="48.17612" lon="6.81588">
        <ele>522.1</ele>
        <time>2024-11-18T13:00:00Z</time>
      </trkpt>
      <trkpt lat="48.17611" lon="6.81587">
        <ele>522.1</ele>
        <time>2024-11-18T13:00:01Z</time>
      </trkpt>
      <trkpt lat="48.17605" lon="6.81575">
        <ele>523.7</ele>
        <time>2024-11-18T13:00:11Z</time>
      </trkpt>
      <trkpt lat="48.176" lon="6.81563">
        <ele>525</ele>
        <time>2024-11-18T13:00:21Z</time>
      </trkpt>
      <trkpt lat="48.17598" lon="6.81556">
        <ele>525.6</ele>
        <time>2024-11-18T13:00:29Z</time>
      </trkpt>
      <trkpt lat="48.17598" lon="6.81556">
        <ele>525.6</ele>
        <time>2024-11-18T13:00:30Z</time>
      </trkpt>
      <trkpt lat="48.17597" lon="6.81555">
        <ele>525.6</ele>
        <time>2024-11-18T13:00:44Z</time>
      </trkpt>
      <trkpt lat="48.17597" lon="6.81554">
        <ele>525.6</ele>
        <time>2024-11-18T13:00:45Z</time>
      </trkpt>
      <trkpt lat="48.17596" lon="6.81553">
        <ele>525.6</ele>
        <time>2024-11-18T13:00:49Z</time>
      </trkpt>
      <trkpt lat="48.17597" lon="6.81553">
        <ele>525.6</ele>
        <time>2024-11-18T13:00:50Z</time>
      </trkpt>
      <trkpt lat="48.17598" lon="6.8155">
        <ele>525.6</ele>
        <time>2024-11-18T13:00:59Z</time>
      </trkpt>
      <trkpt lat="48.17598" lon="6.8155">
        <ele>525.6</ele>
        <time>2024-11-18T13:01:00Z</time>
      </trkpt>
      <trkpt lat="48.17597" lon="6.8155">
        <ele>525.6</ele>
        <time>2024-11-18T13:01:01Z</time>
      </trkpt>
      <trkpt lat="48.17599" lon="6.81536">
        <ele>525.5</ele>
        <time>2024-11-18T13:01:12Z</time>
      </trkpt>
      <trkpt lat="48.17597" lon="6.81522">
        <ele>525.4</ele>
        <time>2024-11-18T13:01:18Z</time>
      </trkpt>
      <trkpt lat="48.17595" lon="6.81508">
        <ele>525.5</ele>
        <time>2024-11-18T13:01:26Z</time>
      </trkpt>
      <trkpt lat="48.17591" lon="6.81506">
        <ele>526</ele>
        <time>2024-11-18T13:01:31Z</time>
      </trkpt>
      <trkpt lat="48.17593" lon="6.81507">
        <ele>525.5</ele>
        <time>2024-11-18T13:02:26Z</time>
      </trkpt>
      <trkpt lat="48.17594" lon="6.81507">
        <ele>525.5</ele>
        <time>2024-11-18T13:02:27Z</time>
      </trkpt>
      <trkpt lat="48.17594" lon="6.81506">
        <ele>525.5</ele>
        <time>2024-11-18T13:02:28Z</time>
      </trkpt>
      <trkpt lat="48.17591" lon="6.81501">
        <ele>525.9</ele>
        <time>2024-11-18T13:02:36Z</time>
      </trkpt>
      <trkpt lat="48.17591" lon="6.81501">
        <ele>525.9</ele>
        <time>2024-11-18T13:02:37Z</time>
      </trkpt>
      <trkpt lat="48.17591" lon="6.81501">
        <ele>525.9</ele>
        <time>2024-11-18T13:02:43Z</time>
      </trkpt>
      <trkpt lat="48.17591" lon="6.81501">
        <ele>525.9</ele>
        <time>2024-11-18T13:02:44Z</time>
      </trkpt>
      <trkpt lat="48.1759" lon="6.81501">
        <ele>525.9</ele>
        <time>2024-11-18T13:02:45Z</time>
      </trkpt>
      <trkpt lat="48.1759" lon="6.81501">
        <ele>526.4</ele>
        <time>2024-11-18T13:02:51Z</time>
      </trkpt>
      <trkpt lat="48.1759" lon="6.81501">
        <ele>526.4</ele>
        <time>2024-11-18T13:02:52Z</time>
      </trkpt>
      <trkpt lat="48.17589" lon="6.815">
        <ele>526.4</ele>
        <time>2024-11-18T13:03:03Z</time>
      </trkpt>
      <trkpt lat="48.17589" lon="6.81499">
        <ele>526.2</ele>
        <time>2024-11-18T13:03:04Z</time>
      </trkpt>
      <trkpt lat="48.17588" lon="6.81498">
        <ele>526.2</ele>
        <time>2024-11-18T13:03:05Z</time>
      </trkpt>
      <trkpt lat="48.17588" lon="6.81495">
        <ele>526.1</ele>
        <time>2024-11-18T13:03:11Z</time>
      </trkpt>
      <trkpt lat="48.17588" lon="6.81495">
        <ele>526.1</ele>
        <time>2024-11-18T13:03:12Z</time>
      </trkpt>
      <trkpt lat="48.17588" lon="6.81495">
        <ele>526.1</ele>
        <time>2024-11-18T13:03:16Z</time>
      </trkpt>
      <trkpt lat="48.17588" lon="6.81495">
        <ele>526.1</ele>
        <time>2024-11-18T13:03:17Z</time>
      </trkpt>
      <trkpt lat="48.17588" lon="6.81493">
        <ele>526.1</ele>
        <time>2024-11-18T13:03:21Z</time>
      </trkpt>
      <trkpt lat="48.17588" lon="6.81493">
        <ele>526.1</ele>
        <time>2024-11-18T13:03:22Z</time>
      </trkpt>
      <trkpt lat="48.17588" lon="6.81493">
        <ele>526.1</ele>
        <time>2024-11-18T13:03:26Z</time>
      </trkpt>
      <trkpt lat="48.17588" lon="6.81493">
        <ele>526.1</ele>
        <time>2024-11-18T13:03:27Z</time>
      </trkpt>
      <trkpt lat="48.17589" lon="6.81493">
        <ele>526.1</ele>
        <time>2024-11-18T13:03:28Z</time>
      </trkpt>
      <trkpt lat="48.17589" lon="6.81493">
        <ele>526.1</ele>
        <time>2024-11-18T13:03:29Z</time>
      </trkpt>
      <trkpt lat="48.17589" lon="6.81493">
        <ele>526.1</ele>
        <time>2024-11-18T13:03:30Z</time>
      </trkpt>
      <trkpt lat="48.17588" lon="6.81494">
        <ele>526.2</ele>
        <time>2024-11-18T13:03:51Z</time>
      </trkpt>
      <trkpt lat="48.17588" lon="6.81494">
        <ele>526.2</ele>
        <time>2024-11-18T13:03:52Z</time>
      </trkpt>
      <trkpt lat="48.17588" lon="6.81494">
        <ele>526.2</ele>
        <time>2024-11-18T13:03:53Z</time>
      </trkpt>
      <trkpt lat="48.17588" lon="6.81493">
        <ele>526.2</ele>
        <time>2024-11-18T13:03:56Z</time>
      </trkpt>
      <trkpt lat="48.17588" lon="6.81493">
        <ele>526.2</ele>
        <time>2024-11-18T13:03:57Z</time>
      </trkpt>
      <trkpt lat="48.17588" lon="6.81493">
        <ele>526.2</ele>
        <time>2024-11-18T13:03:58Z</time>
      </trkpt>
      <trkpt lat="48.17587" lon="6.81491">
        <ele>526.6</ele>
        <time>2024-11-18T13:04:16Z</time>
      </trkpt>
      <trkpt lat="48.17587" lon="6.81491">
        <ele>526.6</ele>
        <time>2024-11-18T13:04:17Z</time>
      </trkpt>
      <trkpt lat="48.17587" lon="6.81491">
        <ele>526.6</ele>
        <time>2024-11-18T13:04:18Z</time>
      </trkpt>
      <trkpt lat="48.17587" lon="6.81491">
        <ele>526.6</ele>
        <time>2024-11-18T13:04:19Z</time>
      </trkpt>
      <trkpt lat="48.17586" lon="6.8149">
        <ele>526.6</ele>
        <time>2024-11-18T13:04:20Z</time>
      </trkpt>
      <trkpt lat="48.17586" lon="6.81489">
        <ele>526.6</ele>
        <time>2024-11-18T13:04:21Z</time>
      </trkpt>
      <trkpt lat="48.17586" lon="6.81488">
        <ele>526.6</ele>
        <time>2024-11-18T13:04:22Z</time>
      </trkpt>
      <trkpt lat="48.17583" lon="6.81489">
        <ele>527.2</ele>
        <time>2024-11-18T13:04:28Z</time>
      </trkpt>
      <trkpt lat="48.17583" lon="6.81489">
        <ele>527.2</ele>
        <time>2024-11-18T13:04:29Z</time>
      </trkpt>
      <trkpt lat="48.17583" lon="6.81488">
        <ele>527.2</ele>
        <time>2024-11-18T13:04:30Z</time>
      </trkpt>
      <trkpt lat="48.17583" lon="6.81488">
        <ele>527.2</ele>
        <time>2024-11-18T13:04:43Z</time>
      </trkpt>
      <trkpt lat="48.17583" lon="6.81488">
        <ele>527.2</ele>
        <time>2024-11-18T13:04:44Z</time>
      </trkpt>
      <trkpt lat="48.17583" lon="6.81488">
        <ele>527.2</ele>
        <time>2024-11-18T13:04:45Z</time>
      </trkpt>
      <trkpt lat="48.17583" lon="6.81475">
        <ele>526.9</ele>
        <time>2024-11-18T13:04:55Z</time>
      </trkpt>
      <trkpt lat="48.17583" lon="6.81472">
        <ele>526.8</ele>
        <time>2024-11-18T13:05:01Z</time>
      </trkpt>
      <trkpt lat="48.17583" lon="6.81472">
        <ele>526.8</ele>
        <time>2024-11-18T13:05:02Z</time>
      </trkpt>
      <trkpt lat="48.17582" lon="6.81471">
        <ele>526.8</ele>
        <time>2024-11-18T13:05:03Z</time>
      </trkpt>
      <trkpt lat="48.17581" lon="6.8147">
        <ele>527.3</ele>
        <time>2024-11-18T13:05:04Z</time>
      </trkpt>
      <trkpt lat="48.17581" lon="6.8147">
        <ele>527.2</ele>
        <time>2024-11-18T13:05:05Z</time>
      </trkpt>
      <trkpt lat="48.1758" lon="6.81469">
        <ele>527.2</ele>
        <time>2024-11-18T13:05:06Z</time>
      </trkpt>
      <trkpt lat="48.17574" lon="6.81457">
        <ele>527.7</ele>
        <time>2024-11-18T13:05:12Z</time>
      </trkpt>
      <trkpt lat="48.17567" lon="6.81449">
        <ele>528.7</ele>
        <time>2024-11-18T13:05:21Z</time>
      </trkpt>
      <trkpt lat="48.17559" lon="6.8144">
        <ele>529.1</ele>
        <time>2024-11-18T13:05:31Z</time>
      </trkpt>
      <trkpt lat="48.17551" lon="6.8143">
        <ele>529.3</ele>
        <time>2024-11-18T13:05:37Z</time>
      </trkpt>
      <trkpt lat="48.17545" lon="6.81419">
        <ele>529.1</ele>
        <time>2024-11-18T13:05:46Z</time>
      </trkpt>
      <trkpt lat="48.17539" lon="6.81408">
        <ele>528.2</ele>
        <time>2024-11-18T13:05:54Z</time>
      </trkpt>
      <trkpt lat="48.17533" lon="6.81396">
        <ele>526.8</ele>
        <time>2024-11-18T13:06:01Z</time>
      </trkpt>
      <trkpt lat="48.17525" lon="6.81387">
        <ele>525.5</ele>
        <time>2024-11-18T13:06:12Z</time>
      </trkpt>
      <trkpt lat="48.17518" lon="6.81377">
        <ele>524.2</ele>
        <time>2024-11-18T13:06:22Z</time>
      </trkpt>
      <trkpt lat="48.17511" lon="6.81366">
        <ele>522.1</ele>
        <time>2024-11-18T13:06:32Z</time>
      </trkpt>
      <trkpt lat="48.17514" lon="6.81352">
        <ele>519.7</ele>
        <time>2024-11-18T13:06:39Z</time>
      </trkpt>
      <trkpt lat="48.17506" lon="6.81341">
        <ele>517.7</ele>
        <time>2024-11-18T13:06:50Z</time>
      </trkpt>
      <trkpt lat="48.17497" lon="6.81335">
        <ele>517.4</ele>
        <time>2024-11-18T13:06:54Z</time>
      </trkpt>
      <trkpt lat="48.17488" lon="6.81331">
        <ele>517.1</ele>
        <time>2024-11-18T13:07:01Z</time>
      </trkpt>
      <trkpt lat="48.17479" lon="6.81327">
        <ele>516.9</ele>
        <time>2024-11-18T13:07:09Z</time>
      </trkpt>
      <trkpt lat="48.17475" lon="6.81328">
        <ele>518</ele>
        <time>2024-11-18T13:07:14Z</time>
      </trkpt>
      <trkpt lat="48.17474" lon="6.81329">
        <ele>518</ele>
        <time>2024-11-18T13:07:15Z</time>
      </trkpt>
      <trkpt lat="48.17474" lon="6.8133">
        <ele>518</ele>
        <time>2024-11-18T13:07:16Z</time>
      </trkpt>
      <trkpt lat="48.17473" lon="6.81329">
        <ele>518</ele>
        <time>2024-11-18T13:07:21Z</time>
      </trkpt>
      <trkpt lat="48.17473" lon="6.81329">
        <ele>518.1</ele>
        <time>2024-11-18T13:07:22Z</time>
      </trkpt>
      <trkpt lat="48.17472" lon="6.81329">
        <ele>518.1</ele>
        <time>2024-11-18T13:07:23Z</time>
      </trkpt>
      <trkpt lat="48.17464" lon="6.81323">
        <ele>517</ele>
        <time>2024-11-18T13:07:35Z</time>
      </trkpt>
      <trkpt lat="48.17454" lon="6.81322">
        <ele>517.3</ele>
        <time>2024-11-18T13:07:44Z</time>
      </trkpt>
      <trkpt lat="48.17445" lon="6.81317">
        <ele>516.8</ele>
        <time>2024-11-18T13:07:51Z</time>
      </trkpt>
      <trkpt lat="48.17436" lon="6.81318">
        <ele>517</ele>
        <time>2024-11-18T13:07:59Z</time>
      </trkpt>
      <trkpt lat="48.17427" lon="6.81314">
        <ele>516.5</ele>
        <time>2024-11-18T13:08:06Z</time>
      </trkpt>
      <trkpt lat="48.17419" lon="6.81305">
        <ele>515.7</ele>
        <time>2024-11-18T13:08:14Z</time>
      </trkpt>
      <trkpt lat="48.17413" lon="6.81295">
        <ele>515.6</ele>
        <time>2024-11-18T13:08:25Z</time>
      </trkpt>
      <trkpt lat="48.17408" lon="6.81282">
        <ele>515.8</ele>
        <time>2024-11-18T13:08:35Z</time>
      </trkpt>
      <trkpt lat="48.174" lon="6.81274">
        <ele>516.6</ele>
        <time>2024-11-18T13:08:43Z</time>
      </trkpt>
      <trkpt lat="48.17394" lon="6.81263">
        <ele>517.6</ele>
        <time>2024-11-18T13:08:53Z</time>
      </trkpt>
      <trkpt lat="48.17387" lon="6.81253">
        <ele>518.6</ele>
        <time>2024-11-18T13:09:02Z</time>
      </trkpt>
      <trkpt lat="48.17379" lon="6.81245">
        <ele>520</ele>
        <time>2024-11-18T13:09:11Z</time>
      </trkpt>
      <trkpt lat="48.17368" lon="6.81244">
        <ele>520.8</ele>
        <time>2024-11-18T13:09:24Z</time>
      </trkpt>
      <trkpt lat="48.17358" lon="6.81244">
        <ele>522.2</ele>
        <time>2024-11-18T13:09:32Z</time>
      </trkpt>
      <trkpt lat="48.17349" lon="6.81245">
        <ele>523.1</ele>
        <time>2024-11-18T13:09:41Z</time>
      </trkpt>
      <trkpt lat="48.1734" lon="6.81244">
        <ele>524.2</ele>
        <time>2024-11-18T13:09:54Z</time>
      </trkpt>
      <trkpt lat="48.1733" lon="6.81242">
        <ele>525.7</ele>
        <time>2024-11-18T13:10:06Z</time>
      </trkpt>
      <trkpt lat="48.17321" lon="6.81239">
        <ele>526.7</ele>
        <time>2024-11-18T13:10:16Z</time>
      </trkpt>
      <trkpt lat="48.17312" lon="6.81237">
        <ele>528.9</ele>
        <time>2024-11-18T13:10:26Z</time>
      </trkpt>
      <trkpt lat="48.17307" lon="6.81237">
        <ele>529.4</ele>
        <time>2024-11-18T13:10:36Z</time>
      </trkpt>
      <trkpt lat="48.17307" lon="6.81237">
        <ele>529.4</ele>
        <time>2024-11-18T13:10:37Z</time>
      </trkpt>
      <trkpt lat="48.17307" lon="6.81237">
        <ele>529.4</ele>
        <time>2024-11-18T13:10:38Z</time>
      </trkpt>
      <trkpt lat="48.17307" lon="6.81237">
        <ele>529.4</ele>
        <time>2024-11-18T13:10:39Z</time>
      </trkpt>
      <trkpt lat="48.17307" lon="6.81237">
        <ele>529.4</ele>
        <time>2024-11-18T13:10:40Z</time>
      </trkpt>
      <trkpt lat="48.17307" lon="6.81236">
        <ele>529.9</ele>
        <time>2024-11-18T13:10:48Z</time>
      </trkpt>
      <trkpt lat="48.17307" lon="6.81236">
        <ele>529.9</ele>
        <time>2024-11-18T13:10:49Z</time>
      </trkpt>
      <trkpt lat="48.17307" lon="6.81237">
        <ele>529.9</ele>
        <time>2024-11-18T13:10:50Z</time>
      </trkpt>
      <trkpt lat="48.17307" lon="6.81237">
        <ele>529.9</ele>
        <time>2024-11-18T13:10:51Z</time>
      </trkpt>
      <trkpt lat="48.17306" lon="6.81237">
        <ele>529.9</ele>
        <time>2024-11-18T13:10:52Z</time>
      </trkpt>
      <trkpt lat="48.17305" lon="6.81237">
        <ele>529.9</ele>
        <time>2024-11-18T13:10:53Z</time>
      </trkpt>
      <trkpt lat="48.17297" lon="6.81245">
        <ele>529.8</ele>
        <time>2024-11-18T13:11:02Z</time>
      </trkpt>
      <trkpt lat="48.17289" lon="6.81251">
        <ele>529.6</ele>
        <time>2024-11-18T13:11:13Z</time>
      </trkpt>
      <trkpt lat="48.17279" lon="6.81255">
        <ele>531</ele>
        <time>2024-11-18T13:11:23Z</time>
      </trkpt>
      <trkpt lat="48.17271" lon="6.81261">
        <ele>531.3</ele>
        <time>2024-11-18T13:11:32Z</time>
      </trkpt>
      <trkpt lat="48.17263" lon="6.81269">
        <ele>531.5</ele>
        <time>2024-11-18T13:11:39Z</time>
      </trkpt>
      <trkpt lat="48.17255" lon="6.81275">
        <ele>532.1</ele>
        <time>2024-11-18T13:11:47Z</time>
      </trkpt>
      <trkpt lat="48.17246" lon="6.81279">
        <ele>532.7</ele>
        <time>2024-11-18T13:11:55Z</time>
      </trkpt>
      <trkpt lat="48.17236" lon="6.8128">
        <ele>533.6</ele>
        <time>2024-11-18T13:12:03Z</time>
      </trkpt>
      <trkpt lat="48.17228" lon="6.81287">
        <ele>533</ele>
        <time>2024-11-18T13:12:11Z</time>
      </trkpt>
      <trkpt lat="48.17219" lon="6.81292">
        <ele>533.3</ele>
        <time>2024-11-18T13:12:20Z</time>
      </trkpt>
      <trkpt lat="48.17211" lon="6.813">
        <ele>532.8</ele>
        <time>2024-11-18T13:12:29Z</time>
      </trkpt>
      <trkpt lat="48.17202" lon="6.81303">
        <ele>533.1</ele>
        <time>2024-11-18T13:12:37Z</time>
      </trkpt>
      <trkpt lat="48.17193" lon="6.81306">
        <ele>534.4</ele>
        <time>2024-11-18T13:12:48Z</time>
      </trkpt>
      <trkpt lat="48.17183" lon="6.81307">
        <ele>535.3</ele>
        <time>2024-11-18T13:12:56Z</time>
      </trkpt>
      <trkpt lat="48.17174" lon="6.8131">
        <ele>536.4</ele>
        <time>2024-11-18T13:13:04Z</time>
      </trkpt>
      <trkpt lat="48.17165" lon="6.81309">
        <ele>537.6</ele>
        <time>2024-11-18T13:13:23Z</time>
      </trkpt>
      <trkpt lat="48.17163" lon="6.81311">
        <ele>538</ele>
        <time>2024-11-18T13:13:34Z</time>
      </trkpt>
      <trkpt lat="48.17163" lon="6.81311">
        <ele>538</ele>
        <time>2024-11-18T13:13:35Z</time>
      </trkpt>
      <trkpt lat="48.17162" lon="6.8131">
        <ele>538</ele>
        <time>2024-11-18T13:13:36Z</time>
      </trkpt>
      <trkpt lat="48.17162" lon="6.8131">
        <ele>538</ele>
        <time>2024-11-18T13:13:37Z</time>
      </trkpt>
      <trkpt lat="48.17161" lon="6.81309">
        <ele>538.4</ele>
        <time>2024-11-18T13:13:38Z</time>
      </trkpt>
      <trkpt lat="48.1716" lon="6.81309">
        <ele>538.4</ele>
        <time>2024-11-18T13:13:39Z</time>
      </trkpt>
      <trkpt lat="48.17151" lon="6.81305">
        <ele>540.4</ele>
        <time>2024-11-18T13:13:49Z</time>
      </trkpt>
      <trkpt lat="48.17143" lon="6.81297">
        <ele>542.9</ele>
        <time>2024-11-18T13:13:57Z</time>
      </trkpt>
      <trkpt lat="48.17135" lon="6.8129">
        <ele>544.7</ele>
        <time>2024-11-18T13:14:05Z</time>
      </trkpt>
      <trkpt lat="48.17126" lon="6.81286">
        <ele>546.4</ele>
        <time>2024-11-18T13:14:15Z</time>
      </trkpt>
      <trkpt lat="48.17116" lon="6.81282">
        <ele>548</ele>
        <time>2024-11-18T13:14:24Z</time>
      </trkpt>
      <trkpt lat="48.17111" lon="6.81269">
        <ele>550.8</ele>
        <time>2024-11-18T13:14:34Z</time>
      </trkpt>
      <trkpt lat="48.17104" lon="6.81258">
        <ele>553.8</ele>
        <time>2024-11-18T13:14:42Z</time>
      </trkpt>
      <trkpt lat="48.17098" lon="6.81247">
        <ele>555.9</ele>
        <time>2024-11-18T13:14:50Z</time>
      </trkpt>
      <trkpt lat="48.17092" lon="6.81236">
        <ele>558.2</ele>
        <time>2024-11-18T13:14:59Z</time>
      </trkpt>
      <trkpt lat="48.17087" lon="6.81224">
        <ele>560.9</ele>
        <time>2024-11-18T13:15:08Z</time>
      </trkpt>
      <trkpt lat="48.17083" lon="6.81211">
        <ele>562.8</ele>
        <time>2024-11-18T13:15:19Z</time>
      </trkpt>
      <trkpt lat="48.17083" lon="6.8121">
        <ele>562.8</ele>
        <time>2024-11-18T13:15:25Z</time>
      </trkpt>
      <trkpt lat="48.17083" lon="6.8121">
        <ele>562.8</ele>
        <time>2024-11-18T13:15:26Z</time>
      </trkpt>
      <trkpt lat="48.17083" lon="6.8121">
        <ele>562.8</ele>
        <time>2024-11-18T13:15:27Z</time>
      </trkpt>
      <trkpt lat="48.17083" lon="6.8121">
        <ele>562.8</ele>
        <time>2024-11-18T13:15:28Z</time>
      </trkpt>
      <trkpt lat="48.17083" lon="6.8121">
        <ele>562.8</ele>
        <time>2024-11-18T13:15:29Z</time>
      </trkpt>
      <trkpt lat="48.17083" lon="6.81209">
        <ele>562.8</ele>
        <time>2024-11-18T13:15:30Z</time>
      </trkpt>
      <trkpt lat="48.17083" lon="6.81203">
        <ele>563.7</ele>
        <time>2024-11-18T13:15:42Z</time>
      </trkpt>
      <trkpt lat="48.17083" lon="6.81203">
        <ele>563.7</ele>
        <time>2024-11-18T13:15:43Z</time>
      </trkpt>
      <trkpt lat="48.17083" lon="6.81203">
        <ele>563.7</ele>
        <time>2024-11-18T13:15:55Z</time>
      </trkpt>
      <trkpt lat="48.17083" lon="6.81203">
        <ele>563.7</ele>
        <time>2024-11-18T13:15:56Z</time>
      </trkpt>
      <trkpt lat="48.17083" lon="6.81203">
        <ele>563.7</ele>
        <time>2024-11-18T13:15:59Z</time>
      </trkpt>
      <trkpt lat="48.17083" lon="6.81203">
        <ele>563.7</ele>
        <time>2024-11-18T13:16:00Z</time>
      </trkpt>
      <trkpt lat="48.17083" lon="6.81203">
        <ele>563.7</ele>
        <time>2024-11-18T13:16:01Z</time>
      </trkpt>
      <trkpt lat="48.17084" lon="6.81205">
        <ele>563</ele>
        <time>2024-11-18T13:16:29Z</time>
      </trkpt>
      <trkpt lat="48.17084" lon="6.81206">
        <ele>563.3</ele>
        <time>2024-11-18T13:16:30Z</time>
      </trkpt>
      <trkpt lat="48.17083" lon="6.81208">
        <ele>563.3</ele>
        <time>2024-11-18T13:16:31Z</time>
      </trkpt>
      <trkpt lat="48.17083" lon="6.81221">
        <ele>561.8</ele>
        <time>2024-11-18T13:16:44Z</time>
      </trkpt>
      <trkpt lat="48.17089" lon="6.81232">
        <ele>559.6</ele>
        <time>2024-11-18T13:16:52Z</time>
      </trkpt>
      <trkpt lat="48.1709" lon="6.81239">
        <ele>558.2</ele>
        <time>2024-11-18T13:17:04Z</time>
      </trkpt>
      <trkpt lat="48.17089" lon="6.81239">
        <ele>558.6</ele>
        <time>2024-11-18T13:17:05Z</time>
      </trkpt>
      <trkpt lat="48.17088" lon="6.81239">
        <ele>558.6</ele>
        <time>2024-11-18T13:17:06Z</time>
      </trkpt>
      <trkpt lat="48.17087" lon="6.81239">
        <ele>558.6</ele>
        <time>2024-11-18T13:17:07Z</time>
      </trkpt>
      <trkpt lat="48.17086" lon="6.81239">
        <ele>559.1</ele>
        <time>2024-11-18T13:17:08Z</time>
      </trkpt>
      <trkpt lat="48.17076" lon="6.81241">
        <ele>560.2</ele>
        <time>2024-11-18T13:17:18Z</time>
      </trkpt>
      <trkpt lat="48.17066" lon="6.81243">
        <ele>560.6</ele>
        <time>2024-11-18T13:17:28Z</time>
      </trkpt>
      <trkpt lat="48.17057" lon="6.81244">
        <ele>561</ele>
        <time>2024-11-18T13:17:35Z</time>
      </trkpt>
      <trkpt lat="48.17047" lon="6.81244">
        <ele>561.3</ele>
        <time>2024-11-18T13:17:50Z</time>
      </trkpt>
      <trkpt lat="48.17038" lon="6.81243">
        <ele>561.6</ele>
        <time>2024-11-18T13:17:57Z</time>
      </trkpt>
      <trkpt lat="48.17029" lon="6.81236">
        <ele>563.1</ele>
        <time>2024-11-18T13:18:05Z</time>
      </trkpt>
      <trkpt lat="48.1702" lon="6.81232">
        <ele>564</ele>
        <time>2024-11-18T13:18:13Z</time>
      </trkpt>
      <trkpt lat="48.17011" lon="6.81223">
        <ele>565.1</ele>
        <time>2024-11-18T13:18:21Z</time>
      </trkpt>
      <trkpt lat="48.17002" lon="6.81218">
        <ele>565.7</ele>
        <time>2024-11-18T13:18:39Z</time>
      </trkpt>
      <trkpt lat="48.16993" lon="6.81221">
        <ele>565.5</ele>
        <time>2024-11-18T13:18:51Z</time>
      </trkpt>
      <trkpt lat="48.16991" lon="6.81224">
        <ele>565.6</ele>
        <time>2024-11-18T13:18:57Z</time>
      </trkpt>
      <trkpt lat="48.16991" lon="6.81224">
        <ele>565.6</ele>
        <time>2024-11-18T13:18:58Z</time>
      </trkpt>
      <trkpt lat="48.16991" lon="6.81224">
        <ele>565.6</ele>
        <time>2024-11-18T13:19:01Z</time>
      </trkpt>
      <trkpt lat="48.1699" lon="6.81226">
        <ele>565.1</ele>
        <time>2024-11-18T13:19:02Z</time>
      </trkpt>
      <trkpt lat="48.1699" lon="6.81226">
        <ele>565.1</ele>
        <time>2024-11-18T13:19:03Z</time>
      </trkpt>
      <trkpt lat="48.16984" lon="6.81237">
        <ele>564.6</ele>
        <time>2024-11-18T13:19:13Z</time>
      </trkpt>
      <trkpt lat="48.16984" lon="6.81238">
        <ele>564.6</ele>
        <time>2024-11-18T13:19:18Z</time>
      </trkpt>
      <trkpt lat="48.16984" lon="6.81239">
        <ele>564.3</ele>
        <time>2024-11-18T13:19:19Z</time>
      </trkpt>
      <trkpt lat="48.16983" lon="6.81239">
        <ele>564.5</ele>
        <time>2024-11-18T13:19:20Z</time>
      </trkpt>
      <trkpt lat="48.16983" lon="6.81239">
        <ele>564.5</ele>
        <time>2024-11-18T13:19:21Z</time>
      </trkpt>
      <trkpt lat="48.16982" lon="6.8124">
        <ele>564.5</ele>
        <time>2024-11-18T13:19:22Z</time>
      </trkpt>
      <trkpt lat="48.16981" lon="6.81241">
        <ele>564.5</ele>
        <time>2024-11-18T13:19:23Z</time>
      </trkpt>
      <trkpt lat="48.16975" lon="6.81252">
        <ele>564.4</ele>
        <time>2024-11-18T13:19:33Z</time>
      </trkpt>
      <trkpt lat="48.1697" lon="6.81264">
        <ele>564.4</ele>
        <time>2024-11-18T13:19:43Z</time>
      </trkpt>
      <trkpt lat="48.16968" lon="6.81278">
        <ele>564</ele>
        <time>2024-11-18T13:19:51Z</time>
      </trkpt>
      <trkpt lat="48.16962" lon="6.8129">
        <ele>564</ele>
        <time>2024-11-18T13:19:59Z</time>
      </trkpt>
      <trkpt lat="48.16956" lon="6.81302">
        <ele>564.4</ele>
        <time>2024-11-18T13:20:07Z</time>
      </trkpt>
      <trkpt lat="48.16949" lon="6.81313">
        <ele>564.5</ele>
        <time>2024-11-18T13:20:15Z</time>
      </trkpt>
      <trkpt lat="48.16944" lon="6.81323">
        <ele>565.3</ele>
        <time>2024-11-18T13:20:24Z</time>
      </trkpt>
      <trkpt lat="48.16939" lon="6.81336">
        <ele>566.2</ele>
        <time>2024-11-18T13:20:33Z</time>
      </trkpt>
      <trkpt lat="48.16932" lon="6.81347">
        <ele>567</ele>
        <time>2024-11-18T13:20:41Z</time>
      </trkpt>
      <trkpt lat="48.16926" lon="6.81357">
        <ele>568.4</ele>
        <time>2024-11-18T13:20:47Z</time>
      </trkpt>
      <trkpt lat="48.16925" lon="6.8136">
        <ele>568.3</ele>
        <time>2024-11-18T13:20:53Z</time>
      </trkpt>
      <trkpt lat="48.16925" lon="6.81359">
        <ele>568.3</ele>
        <time>2024-11-18T13:20:54Z</time>
      </trkpt>
      <trkpt lat="48.16925" lon="6.81359">
        <ele>568.3</ele>
        <time>2024-11-18T13:20:55Z</time>
      </trkpt>
      <trkpt lat="48.16925" lon="6.81361">
        <ele>568.3</ele>
        <time>2024-11-18T13:21:04Z</time>
      </trkpt>
      <trkpt lat="48.16924" lon="6.81362">
        <ele>568.3</ele>
        <time>2024-11-18T13:21:05Z</time>
      </trkpt>
      <trkpt lat="48.16918" lon="6.81373">
        <ele>569</ele>
        <time>2024-11-18T13:21:15Z</time>
      </trkpt>
      <trkpt lat="48.16911" lon="6.81384">
        <ele>570.2</ele>
        <time>2024-11-18T13:21:23Z</time>
      </trkpt>
      <trkpt lat="48.16903" lon="6.81391">
        <ele>571</ele>
        <time>2024-11-18T13:21:30Z</time>
      </trkpt>
      <trkpt lat="48.16895" lon="6.81399">
        <ele>571.9</ele>
        <time>2024-11-18T13:21:39Z</time>
      </trkpt>
      <trkpt lat="48.16886" lon="6.81404">
        <ele>573</ele>
        <time>2024-11-18T13:21:48Z</time>
      </trkpt>
      <trkpt lat="48.16877" lon="6.81413">
        <ele>573.6</ele>
        <time>2024-11-18T13:21:57Z</time>
      </trkpt>
      <trkpt lat="48.16869" lon="6.81419">
        <ele>573.9</ele>
        <time>2024-11-18T13:22:05Z</time>
      </trkpt>
      <trkpt lat="48.1686" lon="6.81427">
        <ele>574.7</ele>
        <time>2024-11-18T13:22:12Z</time>
      </trkpt>
      <trkpt lat="48.16853" lon="6.81435">
        <ele>574.6</ele>
        <time>2024-11-18T13:22:21Z</time>
      </trkpt>
      <trkpt lat="48.16844" lon="6.81438">
        <ele>574.9</ele>
        <time>2024-11-18T13:22:32Z</time>
      </trkpt>
      <trkpt lat="48.16834" lon="6.81436">
        <ele>575.6</ele>
        <time>2024-11-18T13:22:40Z</time>
      </trkpt>
      <trkpt lat="48.16831" lon="6.81435">
        <ele>576.2</ele>
        <time>2024-11-18T13:22:51Z</time>
      </trkpt>
      <trkpt lat="48.16831" lon="6.81435">
        <ele>576.2</ele>
        <time>2024-11-18T13:22:52Z</time>
      </trkpt>
      <trkpt lat="48.16831" lon="6.81435">
        <ele>576.2</ele>
        <time>2024-11-18T13:22:53Z</time>
      </trkpt>
      <trkpt lat="48.16832" lon="6.81434">
        <ele>576.2</ele>
        <time>2024-11-18T13:23:02Z</time>
      </trkpt>
      <trkpt lat="48.16832" lon="6.81434">
        <ele>576.2</ele>
        <time>2024-11-18T13:23:03Z</time>
      </trkpt>
      <trkpt lat="48.16836" lon="6.81421">
        <ele>576.4</ele>
        <time>2024-11-18T13:23:14Z</time>
      </trkpt>
      <trkpt lat="48.16838" lon="6.81407">
        <ele>576.6</ele>
        <time>2024-11-18T13:23:24Z</time>
      </trkpt>
      <trkpt lat="48.16841" lon="6.81394">
        <ele>576.9</ele>
        <time>2024-11-18T13:23:35Z</time>
      </trkpt>
      <trkpt lat="48.16841" lon="6.81395">
        <ele>576.9</ele>
        <time>2024-11-18T13:23:39Z</time>
      </trkpt>
      <trkpt lat="48.16841" lon="6.81394">
        <ele>576.9</ele>
        <time>2024-11-18T13:23:40Z</time>
      </trkpt>
      <trkpt lat="48.16841" lon="6.81393">
        <ele>577</ele>
        <time>2024-11-18T13:23:43Z</time>
      </trkpt>
      <trkpt lat="48.16841" lon="6.81393">
        <ele>577</ele>
        <time>2024-11-18T13:23:44Z</time>
      </trkpt>
      <trkpt lat="48.16841" lon="6.81393">
        <ele>577</ele>
        <time>2024-11-18T13:23:45Z</time>
      </trkpt>
      <trkpt lat="48.16841" lon="6.81393">
        <ele>577</ele>
        <time>2024-11-18T13:23:46Z</time>
      </trkpt>
      <trkpt lat="48.16842" lon="6.81379">
        <ele>577.4</ele>
        <time>2024-11-18T13:24:04Z</time>
      </trkpt>
      <trkpt lat="48.16842" lon="6.81365">
        <ele>577.8</ele>
        <time>2024-11-18T13:24:13Z</time>
      </trkpt>
      <trkpt lat="48.16844" lon="6.81352">
        <ele>578.2</ele>
        <time>2024-11-18T13:24:22Z</time>
      </trkpt>
      <trkpt lat="48.16843" lon="6.81341">
        <ele>578.5</ele>
        <time>2024-11-18T13:24:34Z</time>
      </trkpt>
      <trkpt lat="48.16843" lon="6.81341">
        <ele>578.5</ele>
        <time>2024-11-18T13:24:35Z</time>
      </trkpt>
      <trkpt lat="48.16843" lon="6.81341">
        <ele>578.5</ele>
        <time>2024-11-18T13:24:36Z</time>
      </trkpt>
      <trkpt lat="48.16841" lon="6.81344">
        <ele>578.6</ele>
        <time>2024-11-18T13:24:43Z</time>
      </trkpt>
      <trkpt lat="48.1684" lon="6.81345">
        <ele>578.6</ele>
        <time>2024-11-18T13:24:44Z</time>
      </trkpt>
      <trkpt lat="48.1684" lon="6.81345">
        <ele>578.6</ele>
        <time>2024-11-18T13:24:45Z</time>
      </trkpt>
      <trkpt lat="48.16835" lon="6.81343">
        <ele>578.8</ele>
        <time>2024-11-18T13:24:59Z</time>
      </trkpt>
      <trkpt lat="48.16835" lon="6.81343">
        <ele>578.8</ele>
        <time>2024-11-18T13:25:00Z</time>
      </trkpt>
      <trkpt lat="48.16834" lon="6.81343">
        <ele>578.8</ele>
        <time>2024-11-18T13:25:01Z</time>
      </trkpt>
      <trkpt lat="48.16834" lon="6.81343">
        <ele>578.9</ele>
        <time>2024-11-18T13:25:02Z</time>
      </trkpt>
      <trkpt lat="48.16834" lon="6.81343">
        <ele>578.9</ele>
        <time>2024-11-18T13:25:03Z</time>
      </trkpt>
      <trkpt lat="48.16834" lon="6.81344">
        <ele>578.9</ele>
        <time>2024-11-18T13:25:04Z</time>
      </trkpt>
      <trkpt lat="48.16834" lon="6.81344">
        <ele>578.9</ele>
        <time>2024-11-18T13:25:05Z</time>
      </trkpt>
      <trkpt lat="48.16833" lon="6.81343">
        <ele>578.9</ele>
        <time>2024-11-18T13:25:14Z</time>
      </trkpt>
      <trkpt lat="48.16832" lon="6.81343">
        <ele>578.9</ele>
        <time>2024-11-18T13:25:15Z</time>
      </trkpt>
      <trkpt lat="48.16832" lon="6.81343">
        <ele>579</ele>
        <time>2024-11-18T13:25:16Z</time>
      </trkpt>
      <trkpt lat="48.16831" lon="6.81343">
        <ele>579</ele>
        <time>2024-11-18T13:25:19Z</time>
      </trkpt>
      <trkpt lat="48.16831" lon="6.81343">
        <ele>579</ele>
        <time>2024-11-18T13:25:20Z</time>
      </trkpt>
      <trkpt lat="48.16831" lon="6.81343">
        <ele>579</ele>
        <time>2024-11-18T13:25:21Z</time>
      </trkpt>
      <trkpt lat="48.16831" lon="6.81343">
        <ele>579</ele>
        <time>2024-11-18T13:25:26Z</time>
      </trkpt>
      <trkpt lat="48.16831" lon="6.81343">
        <ele>579</ele>
        <time>2024-11-18T13:25:27Z</time>
      </trkpt>
      <trkpt lat="48.16837" lon="6.81345">
        <ele>579.2</ele>
        <time>2024-11-18T13:25:39Z</time>
      </trkpt>
      <trkpt lat="48.16837" lon="6.81345">
        <ele>579.2</ele>
        <time>2024-11-18T13:25:40Z</time>
      </trkpt>
      <trkpt lat="48.16837" lon="6.81346">
        <ele>579.2</ele>
        <time>2024-11-18T13:25:43Z</time>
      </trkpt>
      <trkpt lat="48.16837" lon="6.81347">
        <ele>579.2</ele>
        <time>2024-11-18T13:25:44Z</time>
      </trkpt>
      <trkpt lat="48.16838" lon="6.81347">
        <ele>579.2</ele>
        <time>2024-11-18T13:25:45Z</time>
      </trkpt>
      <trkpt lat="48.16843" lon="6.81336">
        <ele>579.4</ele>
        <time>2024-11-18T13:25:57Z</time>
      </trkpt>
      <trkpt lat="48.16845" lon="6.81322">
        <ele>579.5</ele>
        <time>2024-11-18T13:26:08Z</time>
      </trkpt>
      <trkpt lat="48.16845" lon="6.81321">
        <ele>579.6</ele>
        <time>2024-11-18T13:26:13Z</time>
      </trkpt>
      <trkpt lat="48.16845" lon="6.81321">
        <ele>579.6</ele>
        <time>2024-11-18T13:26:14Z</time>
      </trkpt>
      <trkpt lat="48.16845" lon="6.81321">
        <ele>579.6</ele>
        <time>2024-11-18T13:26:15Z</time>
      </trkpt>
      <trkpt lat="48.16845" lon="6.8132">
        <ele>579.6</ele>
        <time>2024-11-18T13:26:16Z</time>
      </trkpt>
      <trkpt lat="48.16845" lon="6.81319">
        <ele>579.6</ele>
        <time>2024-11-18T13:26:17Z</time>
      </trkpt>
      <trkpt lat="48.16845" lon="6.81318">
        <ele>579.6</ele>
        <time>2024-11-18T13:26:18Z</time>
      </trkpt>
      <trkpt lat="48.16845" lon="6.81315">
        <ele>579.6</ele>
        <time>2024-11-18T13:26:26Z</time>
      </trkpt>
      <trkpt lat="48.16845" lon="6.81315">
        <ele>579.6</ele>
        <time>2024-11-18T13:26:27Z</time>
      </trkpt>
      <trkpt lat="48.16845" lon="6.81315">
        <ele>579.6</ele>
        <time>2024-11-18T13:26:28Z</time>
      </trkpt>
      <trkpt lat="48.16845" lon="6.81315">
        <ele>579.6</ele>
        <time>2024-11-18T13:26:29Z</time>
      </trkpt>
      <trkpt lat="48.16845" lon="6.81315">
        <ele>579.6</ele>
        <time>2024-11-18T13:26:30Z</time>
      </trkpt>
      <trkpt lat="48.16845" lon="6.81316">
        <ele>579.6</ele>
        <time>2024-11-18T13:26:39Z</time>
      </trkpt>
      <trkpt lat="48.16845" lon="6.81317">
        <ele>579.6</ele>
        <time>2024-11-18T13:26:40Z</time>
      </trkpt>
      <trkpt lat="48.16845" lon="6.81317">
        <ele>579.6</ele>
        <time>2024-11-18T13:26:49Z</time>
      </trkpt>
      <trkpt lat="48.16845" lon="6.81317">
        <ele>579.6</ele>
        <time>2024-11-18T13:26:50Z</time>
      </trkpt>
      <trkpt lat="48.16845" lon="6.81317">
        <ele>579.6</ele>
        <time>2024-11-18T13:26:51Z</time>
      </trkpt>
      <trkpt lat="48.16844" lon="6.81321">
        <ele>579.5</ele>
        <time>2024-11-18T13:27:04Z</time>
      </trkpt>
      <trkpt lat="48.16844" lon="6.81322">
        <ele>579.5</ele>
        <time>2024-11-18T13:27:05Z</time>
      </trkpt>
      <trkpt lat="48.16843" lon="6.81336">
        <ele>579.4</ele>
        <time>2024-11-18T13:27:14Z</time>
      </trkpt>
      <trkpt lat="48.16841" lon="6.8135">
        <ele>579</ele>
        <time>2024-11-18T13:27:23Z</time>
      </trkpt>
      <trkpt lat="48.16841" lon="6.81352">
        <ele>578.9</ele>
        <time>2024-11-18T13:27:32Z</time>
      </trkpt>
      <trkpt lat="48.16841" lon="6.81352">
        <ele>578.9</ele>
        <time>2024-11-18T13:27:33Z</time>
      </trkpt>
      <trkpt lat="48.16842" lon="6.81354">
        <ele>578.8</ele>
        <time>2024-11-18T13:27:41Z</time>
      </trkpt>
      <trkpt lat="48.16842" lon="6.81355">
        <ele>578.8</ele>
        <time>2024-11-18T13:27:42Z</time>
      </trkpt>
      <trkpt lat="48.16842" lon="6.81357">
        <ele>578.8</ele>
        <time>2024-11-18T13:27:43Z</time>
      </trkpt>
      <trkpt lat="48.16842" lon="6.81371">
        <ele>578.3</ele>
        <time>2024-11-18T13:27:53Z</time>
      </trkpt>
      <trkpt lat="48.16842" lon="6.81385">
        <ele>577.7</ele>
        <time>2024-11-18T13:28:03Z</time>
      </trkpt>
      <trkpt lat="48.16833" lon="6.81383">
        <ele>578.5</ele>
        <time>2024-11-18T13:28:13Z</time>
      </trkpt>
      <trkpt lat="48.16827" lon="6.81373">
        <ele>579.2</ele>
        <time>2024-11-18T13:28:20Z</time>
      </trkpt>
      <trkpt lat="48.1682" lon="6.81365">
        <ele>580.2</ele>
        <time>2024-11-18T13:28:27Z</time>
      </trkpt>
      <trkpt lat="48.16813" lon="6.81355">
        <ele>581.3</ele>
        <time>2024-11-18T13:28:35Z</time>
      </trkpt>
      <trkpt lat="48.16805" lon="6.81349">
        <ele>582.8</ele>
        <time>2024-11-18T13:28:43Z</time>
      </trkpt>
      <trkpt lat="48.16797" lon="6.81343">
        <ele>584.1</ele>
        <time>2024-11-18T13:28:51Z</time>
      </trkpt>
      <trkpt lat="48.16788" lon="6.8134">
        <ele>585.3</ele>
        <time>2024-11-18T13:28:59Z</time>
      </trkpt>
      <trkpt lat="48.16779" lon="6.81337">
        <ele>586.1</ele>
        <time>2024-11-18T13:29:08Z</time>
      </trkpt>
      <trkpt lat="48.1677" lon="6.81337">
        <ele>587.1</ele>
        <time>2024-11-18T13:29:16Z</time>
      </trkpt>
      <trkpt lat="48.1676" lon="6.81337">
        <ele>587.6</ele>
        <time>2024-11-18T13:29:25Z</time>
      </trkpt>
      <trkpt lat="48.1675" lon="6.81336">
        <ele>587.9</ele>
        <time>2024-11-18T13:29:34Z</time>
      </trkpt>
      <trkpt lat="48.16741" lon="6.81335">
        <ele>588.3</ele>
        <time>2024-11-18T13:29:43Z</time>
      </trkpt>
      <trkpt lat="48.16732" lon="6.81335">
        <ele>588.9</ele>
        <time>2024-11-18T13:29:51Z</time>
      </trkpt>
      <trkpt lat="48.16722" lon="6.81337">
        <ele>589.7</ele>
        <time>2024-11-18T13:29:59Z</time>
      </trkpt>
      <trkpt lat="48.16713" lon="6.81341">
        <ele>589.4</ele>
        <time>2024-11-18T13:30:08Z</time>
      </trkpt>
      <trkpt lat="48.16703" lon="6.81345">
        <ele>589.8</ele>
        <time>2024-11-18T13:30:17Z</time>
      </trkpt>
      <trkpt lat="48.16694" lon="6.81347">
        <ele>589.6</ele>
        <time>2024-11-18T13:30:25Z</time>
      </trkpt>
      <trkpt lat="48.16684" lon="6.81348">
        <ele>589.8</ele>
        <time>2024-11-18T13:30:33Z</time>
      </trkpt>
      <trkpt lat="48.16675" lon="6.81349">
        <ele>590</ele>
        <time>2024-11-18T13:30:42Z</time>
      </trkpt>
      <trkpt lat="48.16666" lon="6.8135">
        <ele>589.8</ele>
        <time>2024-11-18T13:30:50Z</time>
      </trkpt>
      <trkpt lat="48.16656" lon="6.81349">
        <ele>591.1</ele>
        <time>2024-11-18T13:30:58Z</time>
      </trkpt>
      <trkpt lat="48.16646" lon="6.81347">
        <ele>591.5</ele>
        <time>2024-11-18T13:31:07Z</time>
      </trkpt>
      <trkpt lat="48.16637" lon="6.81345">
        <ele>592.7</ele>
        <time>2024-11-18T13:31:13Z</time>
      </trkpt>
      <trkpt lat="48.16628" lon="6.8134">
        <ele>593.8</ele>
        <time>2024-11-18T13:31:20Z</time>
      </trkpt>
      <trkpt lat="48.16618" lon="6.81334">
        <ele>595</ele>
        <time>2024-11-18T13:31:31Z</time>
      </trkpt>
      <trkpt lat="48.16613" lon="6.81323">
        <ele>597</ele>
        <time>2024-11-18T13:31:39Z</time>
      </trkpt>
      <trkpt lat="48.16606" lon="6.81312">
        <ele>598.7</ele>
        <time>2024-11-18T13:31:47Z</time>
      </trkpt>
      <trkpt lat="48.16603" lon="6.81298">
        <ele>600.5</ele>
        <time>2024-11-18T13:31:58Z</time>
      </trkpt>
      <trkpt lat="48.16598" lon="6.81285">
        <ele>602.8</ele>
        <time>2024-11-18T13:32:07Z</time>
      </trkpt>
      <trkpt lat="48.16593" lon="6.81272">
        <ele>605.4</ele>
        <time>2024-11-18T13:32:16Z</time>
      </trkpt>
      <trkpt lat="48.16589" lon="6.81259">
        <ele>608.2</ele>
        <time>2024-11-18T13:32:25Z</time>
      </trkpt>
      <trkpt lat="48.16586" lon="6.81247">
        <ele>611.2</ele>
        <time>2024-11-18T13:32:33Z</time>
      </trkpt>
      <trkpt lat="48.16583" lon="6.81233">
        <ele>614.4</ele>
        <time>2024-11-18T13:32:42Z</time>
      </trkpt>
      <trkpt lat="48.16582" lon="6.81218">
        <ele>617.6</ele>
        <time>2024-11-18T13:32:51Z</time>
      </trkpt>
      <trkpt lat="48.16579" lon="6.81205">
        <ele>620.3</ele>
        <time>2024-11-18T13:33:00Z</time>
      </trkpt>
      <trkpt lat="48.16579" lon="6.81191">
        <ele>622.5</ele>
        <time>2024-11-18T13:33:10Z</time>
      </trkpt>
      <trkpt lat="48.16579" lon="6.81188">
        <ele>623.2</ele>
        <time>2024-11-18T13:33:17Z</time>
      </trkpt>
      <trkpt lat="48.16579" lon="6.81188">
        <ele>623.2</ele>
        <time>2024-11-18T13:33:18Z</time>
      </trkpt>
      <trkpt lat="48.16579" lon="6.81188">
        <ele>623.2</ele>
        <time>2024-11-18T13:33:19Z</time>
      </trkpt>
      <trkpt lat="48.16579" lon="6.81188">
        <ele>623.2</ele>
        <time>2024-11-18T13:33:20Z</time>
      </trkpt>
      <trkpt lat="48.16579" lon="6.81188">
        <ele>623.2</ele>
        <time>2024-11-18T13:33:21Z</time>
      </trkpt>
      <trkpt lat="48.16579" lon="6.81187">
        <ele>623.2</ele>
        <time>2024-11-18T13:33:22Z</time>
      </trkpt>
      <trkpt lat="48.16579" lon="6.81186">
        <ele>623.9</ele>
        <time>2024-11-18T13:33:23Z</time>
      </trkpt>
      <trkpt lat="48.16578" lon="6.81185">
        <ele>623.9</ele>
        <time>2024-11-18T13:33:24Z</time>
      </trkpt>
      <trkpt lat="48.16578" lon="6.81183">
        <ele>623.9</ele>
        <time>2024-11-18T13:33:25Z</time>
      </trkpt>
      <trkpt lat="48.16577" lon="6.81182">
        <ele>624.6</ele>
        <time>2024-11-18T13:33:26Z</time>
      </trkpt>
      <trkpt lat="48.16578" lon="6.81175">
        <ele>625.3</ele>
        <time>2024-11-18T13:33:39Z</time>
      </trkpt>
      <trkpt lat="48.16578" lon="6.81175">
        <ele>625.3</ele>
        <time>2024-11-18T13:33:40Z</time>
      </trkpt>
      <trkpt lat="48.16578" lon="6.81175">
        <ele>625.3</ele>
        <time>2024-11-18T13:33:41Z</time>
      </trkpt>
      <trkpt lat="48.16578" lon="6.81175">
        <ele>625.3</ele>
        <time>2024-11-18T13:33:49Z</time>
      </trkpt>
      <trkpt lat="48.16578" lon="6.81175">
        <ele>625.3</ele>
        <time>2024-11-18T13:33:50Z</time>
      </trkpt>
      <trkpt lat="48.16578" lon="6.81175">
        <ele>625.3</ele>
        <time>2024-11-18T13:33:51Z</time>
      </trkpt>
      <trkpt lat="48.16578" lon="6.81175">
        <ele>625.3</ele>
        <time>2024-11-18T13:33:54Z</time>
      </trkpt>
      <trkpt lat="48.16578" lon="6.81175">
        <ele>625.3</ele>
        <time>2024-11-18T13:33:55Z</time>
      </trkpt>
      <trkpt lat="48.16578" lon="6.81175">
        <ele>625.3</ele>
        <time>2024-11-18T13:34:16Z</time>
      </trkpt>
      <trkpt lat="48.16578" lon="6.81175">
        <ele>625.3</ele>
        <time>2024-11-18T13:34:17Z</time>
      </trkpt>
      <trkpt lat="48.16581" lon="6.81172">
        <ele>625.9</ele>
        <time>2024-11-18T13:34:29Z</time>
      </trkpt>
      <trkpt lat="48.16581" lon="6.81172">
        <ele>625.9</ele>
        <time>2024-11-18T13:34:30Z</time>
      </trkpt>
      <trkpt lat="48.16581" lon="6.81172">
        <ele>625.9</ele>
        <time>2024-11-18T13:34:31Z</time>
      </trkpt>
      <trkpt lat="48.16581" lon="6.81172">
        <ele>625.9</ele>
        <time>2024-11-18T13:34:34Z</time>
      </trkpt>
      <trkpt lat="48.16581" lon="6.81171">
        <ele>625.9</ele>
        <time>2024-11-18T13:34:35Z</time>
      </trkpt>
      <trkpt lat="48.16581" lon="6.81171">
        <ele>625.9</ele>
        <time>2024-11-18T13:34:36Z</time>
      </trkpt>
      <trkpt lat="48.16591" lon="6.81174">
        <ele>625.4</ele>
        <time>2024-11-18T13:34:52Z</time>
      </trkpt>
      <trkpt lat="48.16598" lon="6.81182">
        <ele>623.3</ele>
        <time>2024-11-18T13:35:00Z</time>
      </trkpt>
      <trkpt lat="48.16607" lon="6.8119">
        <ele>621.3</ele>
        <time>2024-11-18T13:35:09Z</time>
      </trkpt>
      <trkpt lat="48.16615" lon="6.81196">
        <ele>618.9</ele>
        <time>2024-11-18T13:35:17Z</time>
      </trkpt>
      <trkpt lat="48.16624" lon="6.81196">
        <ele>618.1</ele>
        <time>2024-11-18T13:35:24Z</time>
      </trkpt>
      <trkpt lat="48.16633" lon="6.81196">
        <ele>617.2</ele>
        <time>2024-11-18T13:35:34Z</time>
      </trkpt>
      <trkpt lat="48.16642" lon="6.81192">
        <ele>616.9</ele>
        <time>2024-11-18T13:35:45Z</time>
      </trkpt>
      <trkpt lat="48.16651" lon="6.81185">
        <ele>617.3</ele>
        <time>2024-11-18T13:35:55Z</time>
      </trkpt>
      <trkpt lat="48.1666" lon="6.81176">
        <ele>617.8</ele>
        <time>2024-11-18T13:36:02Z</time>
      </trkpt>
      <trkpt lat="48.16668" lon="6.8117">
        <ele>617.3</ele>
        <time>2024-11-18T13:36:08Z</time>
      </trkpt>
      <trkpt lat="48.16673" lon="6.81159">
        <ele>618.4</ele>
        <time>2024-11-18T13:36:14Z</time>
      </trkpt>
      <trkpt lat="48.1668" lon="6.81148">
        <ele>619.2</ele>
        <time>2024-11-18T13:36:22Z</time>
      </trkpt>
      <trkpt lat="48.16681" lon="6.81134">
        <ele>620</ele>
        <time>2024-11-18T13:36:30Z</time>
      </trkpt>
      <trkpt lat="48.16682" lon="6.8112">
        <ele>621.1</ele>
        <time>2024-11-18T13:36:38Z</time>
      </trkpt>
      <trkpt lat="48.16682" lon="6.81112">
        <ele>621.7</ele>
        <time>2024-11-18T13:36:44Z</time>
      </trkpt>
      <trkpt lat="48.16684" lon="6.81109">
        <ele>621.4</ele>
        <time>2024-11-18T13:36:45Z</time>
      </trkpt>
      <trkpt lat="48.16685" lon="6.81104">
        <ele>621.6</ele>
        <time>2024-11-18T13:37:07Z</time>
      </trkpt>
      <trkpt lat="48.16684" lon="6.81103">
        <ele>621.6</ele>
        <time>2024-11-18T13:37:08Z</time>
      </trkpt>
      <trkpt lat="48.16682" lon="6.81089">
        <ele>622.7</ele>
        <time>2024-11-18T13:37:22Z</time>
      </trkpt>
      <trkpt lat="48.16678" lon="6.81081">
        <ele>623.7</ele>
        <time>2024-11-18T13:37:32Z</time>
      </trkpt>
      <trkpt lat="48.16678" lon="6.81081">
        <ele>623.7</ele>
        <time>2024-11-18T13:37:33Z</time>
      </trkpt>
      <trkpt lat="48.16678" lon="6.81079">
        <ele>623.8</ele>
        <time>2024-11-18T13:37:51Z</time>
      </trkpt>
      <trkpt lat="48.16677" lon="6.81078">
        <ele>624.4</ele>
        <time>2024-11-18T13:37:52Z</time>
      </trkpt>
      <trkpt lat="48.16677" lon="6.81077">
        <ele>624.4</ele>
        <time>2024-11-18T13:37:53Z</time>
      </trkpt>
      <trkpt lat="48.16671" lon="6.81066">
        <ele>626</ele>
        <time>2024-11-18T13:38:01Z</time>
      </trkpt>
      <trkpt lat="48.16663" lon="6.81058">
        <ele>628.1</ele>
        <time>2024-11-18T13:38:11Z</time>
      </trkpt>
      <trkpt lat="48.16662" lon="6.81054">
        <ele>628.1</ele>
        <time>2024-11-18T13:38:23Z</time>
      </trkpt>
      <trkpt lat="48.16662" lon="6.81053">
        <ele>628</ele>
        <time>2024-11-18T13:38:24Z</time>
      </trkpt>
      <trkpt lat="48.16662" lon="6.81054">
        <ele>628.1</ele>
        <time>2024-11-18T13:38:25Z</time>
      </trkpt>
      <trkpt lat="48.16662" lon="6.81054">
        <ele>628.1</ele>
        <time>2024-11-18T13:38:26Z</time>
      </trkpt>
      <trkpt lat="48.16662" lon="6.81054">
        <ele>628.1</ele>
        <time>2024-11-18T13:38:27Z</time>
      </trkpt>
      <trkpt lat="48.16662" lon="6.81054">
        <ele>628.1</ele>
        <time>2024-11-18T13:38:28Z</time>
      </trkpt>
      <trkpt lat="48.16662" lon="6.81054">
        <ele>628</ele>
        <time>2024-11-18T13:38:29Z</time>
      </trkpt>
      <trkpt lat="48.16662" lon="6.81054">
        <ele>628</ele>
        <time>2024-11-18T13:38:30Z</time>
      </trkpt>
      <trkpt lat="48.16662" lon="6.81054">
        <ele>628</ele>
        <time>2024-11-18T13:38:31Z</time>
      </trkpt>
      <trkpt lat="48.16661" lon="6.81054">
        <ele>628</ele>
        <time>2024-11-18T13:39:09Z</time>
      </trkpt>
      <trkpt lat="48.1666" lon="6.81053">
        <ele>628</ele>
        <time>2024-11-18T13:39:10Z</time>
      </trkpt>
      <trkpt lat="48.16659" lon="6.81053">
        <ele>628.6</ele>
        <time>2024-11-18T13:39:11Z</time>
      </trkpt>
      <trkpt lat="48.1665" lon="6.81049">
        <ele>630.2</ele>
        <time>2024-11-18T13:39:19Z</time>
      </trkpt>
      <trkpt lat="48.16642" lon="6.8104">
        <ele>632.1</ele>
        <time>2024-11-18T13:39:28Z</time>
      </trkpt>
      <trkpt lat="48.16638" lon="6.81028">
        <ele>633.1</ele>
        <time>2024-11-18T13:39:38Z</time>
      </trkpt>
      <trkpt lat="48.16638" lon="6.81027">
        <ele>633.1</ele>
        <time>2024-11-18T13:39:41Z</time>
      </trkpt>
      <trkpt lat="48.16638" lon="6.81027">
        <ele>633.1</ele>
        <time>2024-11-18T13:39:42Z</time>
      </trkpt>
      <trkpt lat="48.16638" lon="6.81022">
        <ele>633.3</ele>
        <time>2024-11-18T13:40:04Z</time>
      </trkpt>
      <trkpt lat="48.16638" lon="6.81021">
        <ele>633.3</ele>
        <time>2024-11-18T13:40:05Z</time>
      </trkpt>
      <trkpt lat="48.16633" lon="6.81009">
        <ele>635.4</ele>
        <time>2024-11-18T13:40:17Z</time>
      </trkpt>
      <trkpt lat="48.16631" lon="6.80995">
        <ele>637</ele>
        <time>2024-11-18T13:40:26Z</time>
      </trkpt>
      <trkpt lat="48.16634" lon="6.80985">
        <ele>637.5</ele>
        <time>2024-11-18T13:40:42Z</time>
      </trkpt>
      <trkpt lat="48.16634" lon="6.80985">
        <ele>637.5</ele>
        <time>2024-11-18T13:40:43Z</time>
      </trkpt>
      <trkpt lat="48.16634" lon="6.80984">
        <ele>637.5</ele>
        <time>2024-11-18T13:40:46Z</time>
      </trkpt>
      <trkpt lat="48.16634" lon="6.80984">
        <ele>637.5</ele>
        <time>2024-11-18T13:40:47Z</time>
      </trkpt>
      <trkpt lat="48.16634" lon="6.80984">
        <ele>637.5</ele>
        <time>2024-11-18T13:40:48Z</time>
      </trkpt>
      <trkpt lat="48.16625" lon="6.80979">
        <ele>639.6</ele>
        <time>2024-11-18T13:40:59Z</time>
      </trkpt>
      <trkpt lat="48.16624" lon="6.8097">
        <ele>640.3</ele>
        <time>2024-11-18T13:41:11Z</time>
      </trkpt>
      <trkpt lat="48.16624" lon="6.8097">
        <ele>640.3</ele>
        <time>2024-11-18T13:41:12Z</time>
      </trkpt>
      <trkpt lat="48.16624" lon="6.8097">
        <ele>640.3</ele>
        <time>2024-11-18T13:41:13Z</time>
      </trkpt>
      <trkpt lat="48.16624" lon="6.80969">
        <ele>640.3</ele>
        <time>2024-11-18T13:41:14Z</time>
      </trkpt>
      <trkpt lat="48.16624" lon="6.80969">
        <ele>640.3</ele>
        <time>2024-11-18T13:41:15Z</time>
      </trkpt>
      <trkpt lat="48.16624" lon="6.80969">
        <ele>640.3</ele>
        <time>2024-11-18T13:41:16Z</time>
      </trkpt>
      <trkpt lat="48.16625" lon="6.80968">
        <ele>640.6</ele>
        <time>2024-11-18T13:41:17Z</time>
      </trkpt>
      <trkpt lat="48.16624" lon="6.80967">
        <ele>640.6</ele>
        <time>2024-11-18T13:41:18Z</time>
      </trkpt>
      <trkpt lat="48.16624" lon="6.80966">
        <ele>640.6</ele>
        <time>2024-11-18T13:41:19Z</time>
      </trkpt>
      <trkpt lat="48.16624" lon="6.80966">
        <ele>640.6</ele>
        <time>2024-11-18T13:41:20Z</time>
      </trkpt>
      <trkpt lat="48.16624" lon="6.80965">
        <ele>640.6</ele>
        <time>2024-11-18T13:41:21Z</time>
      </trkpt>
      <trkpt lat="48.16622" lon="6.80959">
        <ele>642.1</ele>
        <time>2024-11-18T13:41:29Z</time>
      </trkpt>
      <trkpt lat="48.16622" lon="6.80959">
        <ele>642.1</ele>
        <time>2024-11-18T13:41:30Z</time>
      </trkpt>
      <trkpt lat="48.16622" lon="6.80959">
        <ele>642.1</ele>
        <time>2024-11-18T13:41:31Z</time>
      </trkpt>
      <trkpt lat="48.16622" lon="6.80958">
        <ele>642.1</ele>
        <time>2024-11-18T13:41:34Z</time>
      </trkpt>
      <trkpt lat="48.16622" lon="6.80958">
        <ele>642.1</ele>
        <time>2024-11-18T13:41:35Z</time>
      </trkpt>
      <trkpt lat="48.16622" lon="6.80957">
        <ele>642.1</ele>
        <time>2024-11-18T13:41:36Z</time>
      </trkpt>
      <trkpt lat="48.16616" lon="6.80944">
        <ele>645.1</ele>
        <time>2024-11-18T13:41:49Z</time>
      </trkpt>
      <trkpt lat="48.16614" lon="6.8093">
        <ele>647.3</ele>
        <time>2024-11-18T13:42:01Z</time>
      </trkpt>
      <trkpt lat="48.16611" lon="6.80916">
        <ele>649.5</ele>
        <time>2024-11-18T13:42:10Z</time>
      </trkpt>
      <trkpt lat="48.16613" lon="6.80909">
        <ele>649.2</ele>
        <time>2024-11-18T13:42:21Z</time>
      </trkpt>
      <trkpt lat="48.16613" lon="6.80909">
        <ele>649.2</ele>
        <time>2024-11-18T13:42:22Z</time>
      </trkpt>
      <trkpt lat="48.16613" lon="6.80909">
        <ele>649.2</ele>
        <time>2024-11-18T13:42:23Z</time>
      </trkpt>
      <trkpt lat="48.16614" lon="6.80912">
        <ele>649.2</ele>
        <time>2024-11-18T13:42:34Z</time>
      </trkpt>
      <trkpt lat="48.16614" lon="6.80913">
        <ele>648.1</ele>
        <time>2024-11-18T13:42:35Z</time>
      </trkpt>
      <trkpt lat="48.16615" lon="6.80913">
        <ele>648.1</ele>
        <time>2024-11-18T13:42:36Z</time>
      </trkpt>
      <trkpt lat="48.16616" lon="6.80927">
        <ele>646.9</ele>
        <time>2024-11-18T13:42:44Z</time>
      </trkpt>
      <trkpt lat="48.16618" lon="6.80942">
        <ele>644.9</ele>
        <time>2024-11-18T13:42:51Z</time>
      </trkpt>
      <trkpt lat="48.16621" lon="6.80954">
        <ele>642.5</ele>
        <time>2024-11-18T13:42:58Z</time>
      </trkpt>
      <trkpt lat="48.16624" lon="6.80968">
        <ele>640.1</ele>
        <time>2024-11-18T13:43:09Z</time>
      </trkpt>
      <trkpt lat="48.1663" lon="6.80981">
        <ele>638.2</ele>
        <time>2024-11-18T13:43:16Z</time>
      </trkpt>
      <trkpt lat="48.16635" lon="6.80993">
        <ele>635.9</ele>
        <time>2024-11-18T13:43:24Z</time>
      </trkpt>
      <trkpt lat="48.1664" lon="6.81004">
        <ele>634.1</ele>
        <time>2024-11-18T13:43:31Z</time>
      </trkpt>
      <trkpt lat="48.16645" lon="6.81016">
        <ele>631.8</ele>
        <time>2024-11-18T13:43:39Z</time>
      </trkpt>
      <trkpt lat="48.16651" lon="6.81026">
        <ele>630.1</ele>
        <time>2024-11-18T13:43:47Z</time>
      </trkpt>
      <trkpt lat="48.16657" lon="6.81037">
        <ele>628.9</ele>
        <time>2024-11-18T13:43:55Z</time>
      </trkpt>
      <trkpt lat="48.16661" lon="6.81049">
        <ele>627.7</ele>
        <time>2024-11-18T13:44:03Z</time>
      </trkpt>
      <trkpt lat="48.16667" lon="6.81061">
        <ele>626.3</ele>
        <time>2024-11-18T13:44:12Z</time>
      </trkpt>
      <trkpt lat="48.16669" lon="6.8106">
        <ele>625.6</ele>
        <time>2024-11-18T13:44:22Z</time>
      </trkpt>
      <trkpt lat="48.16669" lon="6.8106">
        <ele>625.6</ele>
        <time>2024-11-18T13:44:23Z</time>
      </trkpt>
      <trkpt lat="48.16668" lon="6.8106">
        <ele>626.3</ele>
        <time>2024-11-18T13:44:27Z</time>
      </trkpt>
      <trkpt lat="48.16668" lon="6.8106">
        <ele>626.3</ele>
        <time>2024-11-18T13:44:28Z</time>
      </trkpt>
      <trkpt lat="48.16668" lon="6.81059">
        <ele>626.3</ele>
        <time>2024-11-18T13:44:29Z</time>
      </trkpt>
      <trkpt lat="48.16673" lon="6.81047">
        <ele>624.8</ele>
        <time>2024-11-18T13:44:38Z</time>
      </trkpt>
      <trkpt lat="48.16674" lon="6.81033">
        <ele>624.8</ele>
        <time>2024-11-18T13:44:47Z</time>
      </trkpt>
      <trkpt lat="48.16674" lon="6.81018">
        <ele>624.9</ele>
        <time>2024-11-18T13:44:54Z</time>
      </trkpt>
      <trkpt lat="48.16676" lon="6.81004">
        <ele>624.8</ele>
        <time>2024-11-18T13:45:00Z</time>
      </trkpt>
      <trkpt lat="48.16677" lon="6.80989">
        <ele>625.9</ele>
        <time>2024-11-18T13:45:08Z</time>
      </trkpt>
      <trkpt lat="48.1668" lon="6.80976">
        <ele>626.2</ele>
        <time>2024-11-18T13:45:14Z</time>
      </trkpt>
      <trkpt lat="48.16685" lon="6.80963">
        <ele>625.8</ele>
        <time>2024-11-18T13:45:22Z</time>
      </trkpt>
      <trkpt lat="48.1669" lon="6.80951">
        <ele>625</ele>
        <time>2024-11-18T13:45:33Z</time>
      </trkpt>
      <trkpt lat="48.16695" lon="6.80938">
        <ele>624.9</ele>
        <time>2024-11-18T13:45:40Z</time>
      </trkpt>
      <trkpt lat="48.16701" lon="6.80926">
        <ele>624</ele>
        <time>2024-11-18T13:45:47Z</time>
      </trkpt>
      <trkpt lat="48.16709" lon="6.80916">
        <ele>623.6</ele>
        <time>2024-11-18T13:45:55Z</time>
      </trkpt>
      <trkpt lat="48.16712" lon="6.80903">
        <ele>623.3</ele>
        <time>2024-11-18T13:46:01Z</time>
      </trkpt>
      <trkpt lat="48.16717" lon="6.8089">
        <ele>623.7</ele>
        <time>2024-11-18T13:46:08Z</time>
      </trkpt>
      <trkpt lat="48.16721" lon="6.80876">
        <ele>623.4</ele>
        <time>2024-11-18T13:46:17Z</time>
      </trkpt>
      <trkpt lat="48.16725" lon="6.80864">
        <ele>624.6</ele>
        <time>2024-11-18T13:46:24Z</time>
      </trkpt>
      <trkpt lat="48.16729" lon="6.80851">
        <ele>626</ele>
        <time>2024-11-18T13:46:31Z</time>
      </trkpt>
      <trkpt lat="48.16732" lon="6.80838">
        <ele>626.2</ele>
        <time>2024-11-18T13:46:40Z</time>
      </trkpt>
      <trkpt lat="48.16736" lon="6.80824">
        <ele>627</ele>
        <time>2024-11-18T13:46:50Z</time>
      </trkpt>
      <trkpt lat="48.16739" lon="6.8081">
        <ele>628</ele>
        <time>2024-11-18T13:46:57Z</time>
      </trkpt>
      <trkpt lat="48.16741" lon="6.80796">
        <ele>628.9</ele>
        <time>2024-11-18T13:47:05Z</time>
      </trkpt>
      <trkpt lat="48.16743" lon="6.80782">
        <ele>631.1</ele>
        <time>2024-11-18T13:47:14Z</time>
      </trkpt>
      <trkpt lat="48.16744" lon="6.80768">
        <ele>632.5</ele>
        <time>2024-11-18T13:47:23Z</time>
      </trkpt>
      <trkpt lat="48.16744" lon="6.80754">
        <ele>634.5</ele>
        <time>2024-11-18T13:47:30Z</time>
      </trkpt>
      <trkpt lat="48.16749" lon="6.80742">
        <ele>635.2</ele>
        <time>2024-11-18T13:47:40Z</time>
      </trkpt>
      <trkpt lat="48.16756" lon="6.80731">
        <ele>636.4</ele>
        <time>2024-11-18T13:47:48Z</time>
      </trkpt>
      <trkpt lat="48.16758" lon="6.80717">
        <ele>638.4</ele>
        <time>2024-11-18T13:47:56Z</time>
      </trkpt>
      <trkpt lat="48.16762" lon="6.80704">
        <ele>640.1</ele>
        <time>2024-11-18T13:48:06Z</time>
      </trkpt>
      <trkpt lat="48.16767" lon="6.80693">
        <ele>640.3</ele>
        <time>2024-11-18T13:48:13Z</time>
      </trkpt>
      <trkpt lat="48.16771" lon="6.80681">
        <ele>641.5</ele>
        <time>2024-11-18T13:48:21Z</time>
      </trkpt>
      <trkpt lat="48.16774" lon="6.80668">
        <ele>642.3</ele>
        <time>2024-11-18T13:48:29Z</time>
      </trkpt>
      <trkpt lat="48.16778" lon="6.80655">
        <ele>642.4</ele>
        <time>2024-11-18T13:48:38Z</time>
      </trkpt>
      <trkpt lat="48.16784" lon="6.80644">
        <ele>642.1</ele>
        <time>2024-11-18T13:48:45Z</time>
      </trkpt>
      <trkpt lat="48.1679" lon="6.80633">
        <ele>642.3</ele>
        <time>2024-11-18T13:48:53Z</time>
      </trkpt>
      <trkpt lat="48.16794" lon="6.8062">
        <ele>643.6</ele>
        <time>2024-11-18T13:49:03Z</time>
      </trkpt>
      <trkpt lat="48.16799" lon="6.80607">
        <ele>643.7</ele>
        <time>2024-11-18T13:49:11Z</time>
      </trkpt>
      <trkpt lat="48.16803" lon="6.80595">
        <ele>643.3</ele>
        <time>2024-11-18T13:49:21Z</time>
      </trkpt>
      <trkpt lat="48.16813" lon="6.80589">
        <ele>642.6</ele>
        <time>2024-11-18T13:49:31Z</time>
      </trkpt>
      <trkpt lat="48.16819" lon="6.80578">
        <ele>642.4</ele>
        <time>2024-11-18T13:49:36Z</time>
      </trkpt>
      <trkpt lat="48.16825" lon="6.80567">
        <ele>642.4</ele>
        <time>2024-11-18T13:49:43Z</time>
      </trkpt>
      <trkpt lat="48.16832" lon="6.80557">
        <ele>641.7</ele>
        <time>2024-11-18T13:49:51Z</time>
      </trkpt>
      <trkpt lat="48.16838" lon="6.80544">
        <ele>641.7</ele>
        <time>2024-11-18T13:49:58Z</time>
      </trkpt>
      <trkpt lat="48.16841" lon="6.80531">
        <ele>642.1</ele>
        <time>2024-11-18T13:50:06Z</time>
      </trkpt>
      <trkpt lat="48.16843" lon="6.80516">
        <ele>642.9</ele>
        <time>2024-11-18T13:50:13Z</time>
      </trkpt>
      <trkpt lat="48.16843" lon="6.80501">
        <ele>643.3</ele>
        <time>2024-11-18T13:50:21Z</time>
      </trkpt>
      <trkpt lat="48.16842" lon="6.80487">
        <ele>643.6</ele>
        <time>2024-11-18T13:50:28Z</time>
      </trkpt>
      <trkpt lat="48.16838" lon="6.80474">
        <ele>644.3</ele>
        <time>2024-11-18T13:50:35Z</time>
      </trkpt>
      <trkpt lat="48.16838" lon="6.80459">
        <ele>644.6</ele>
        <time>2024-11-18T13:50:45Z</time>
      </trkpt>
      <trkpt lat="48.1684" lon="6.80445">
        <ele>644.8</ele>
        <time>2024-11-18T13:50:52Z</time>
      </trkpt>
      <trkpt lat="48.16841" lon="6.8043">
        <ele>644.6</ele>
        <time>2024-11-18T13:51:00Z</time>
      </trkpt>
      <trkpt lat="48.16842" lon="6.80416">
        <ele>644.5</ele>
        <time>2024-11-18T13:51:07Z</time>
      </trkpt>
      <trkpt lat="48.1684" lon="6.80402">
        <ele>644.7</ele>
        <time>2024-11-18T13:51:15Z</time>
      </trkpt>
      <trkpt lat="48.16838" lon="6.80389">
        <ele>644.4</ele>
        <time>2024-11-18T13:51:22Z</time>
      </trkpt>
      <trkpt lat="48.16835" lon="6.80375">
        <ele>644.9</ele>
        <time>2024-11-18T13:51:30Z</time>
      </trkpt>
      <trkpt lat="48.16831" lon="6.80362">
        <ele>645.1</ele>
        <time>2024-11-18T13:51:38Z</time>
      </trkpt>
      <trkpt lat="48.16828" lon="6.80356">
        <ele>645.4</ele>
        <time>2024-11-18T13:51:48Z</time>
      </trkpt>
      <trkpt lat="48.16828" lon="6.80356">
        <ele>645.4</ele>
        <time>2024-11-18T13:51:49Z</time>
      </trkpt>
      <trkpt lat="48.16828" lon="6.80356">
        <ele>645.3</ele>
        <time>2024-11-18T13:51:50Z</time>
      </trkpt>
      <trkpt lat="48.16827" lon="6.80356">
        <ele>645.3</ele>
        <time>2024-11-18T13:51:53Z</time>
      </trkpt>
      <trkpt lat="48.16827" lon="6.80355">
        <ele>645.3</ele>
        <time>2024-11-18T13:51:54Z</time>
      </trkpt>
      <trkpt lat="48.16827" lon="6.80353">
        <ele>645.2</ele>
        <time>2024-11-18T13:51:55Z</time>
      </trkpt>
      <trkpt lat="48.16822" lon="6.8034">
        <ele>645.5</ele>
        <time>2024-11-18T13:52:03Z</time>
      </trkpt>
      <trkpt lat="48.16817" lon="6.80329">
        <ele>645.8</ele>
        <time>2024-11-18T13:52:10Z</time>
      </trkpt>
      <trkpt lat="48.16812" lon="6.80318">
        <ele>645.9</ele>
        <time>2024-11-18T13:52:17Z</time>
      </trkpt>
      <trkpt lat="48.16804" lon="6.80309">
        <ele>646.5</ele>
        <time>2024-11-18T13:52:25Z</time>
      </trkpt>
      <trkpt lat="48.16798" lon="6.80297">
        <ele>646.8</ele>
        <time>2024-11-18T13:52:38Z</time>
      </trkpt>
      <trkpt lat="48.16792" lon="6.80285">
        <ele>647.1</ele>
        <time>2024-11-18T13:52:48Z</time>
      </trkpt>
      <trkpt lat="48.16788" lon="6.80271">
        <ele>647.5</ele>
        <time>2024-11-18T13:52:54Z</time>
      </trkpt>
      <trkpt lat="48.16782" lon="6.80258">
        <ele>648.1</ele>
        <time>2024-11-18T13:53:01Z</time>
      </trkpt>
      <trkpt lat="48.16777" lon="6.80247">
        <ele>648.9</ele>
        <time>2024-11-18T13:53:07Z</time>
      </trkpt>
      <trkpt lat="48.16771" lon="6.80236">
        <ele>649.4</ele>
        <time>2024-11-18T13:53:13Z</time>
      </trkpt>
      <trkpt lat="48.16764" lon="6.80224">
        <ele>649.9</ele>
        <time>2024-11-18T13:53:20Z</time>
      </trkpt>
      <trkpt lat="48.16759" lon="6.80213">
        <ele>650.9</ele>
        <time>2024-11-18T13:53:26Z</time>
      </trkpt>
      <trkpt lat="48.16752" lon="6.80203">
        <ele>651.7</ele>
        <time>2024-11-18T13:53:34Z</time>
      </trkpt>
      <trkpt lat="48.16745" lon="6.80194">
        <ele>653.6</ele>
        <time>2024-11-18T13:53:42Z</time>
      </trkpt>
      <trkpt lat="48.16737" lon="6.80185">
        <ele>655.4</ele>
        <time>2024-11-18T13:53:49Z</time>
      </trkpt>
      <trkpt lat="48.1673" lon="6.80177">
        <ele>656.1</ele>
        <time>2024-11-18T13:53:56Z</time>
      </trkpt>
      <trkpt lat="48.16722" lon="6.80169">
        <ele>657.7</ele>
        <time>2024-11-18T13:54:04Z</time>
      </trkpt>
      <trkpt lat="48.16715" lon="6.8016">
        <ele>658.3</ele>
        <time>2024-11-18T13:54:12Z</time>
      </trkpt>
      <trkpt lat="48.16708" lon="6.80152">
        <ele>659.2</ele>
        <time>2024-11-18T13:54:21Z</time>
      </trkpt>
      <trkpt lat="48.167" lon="6.80146">
        <ele>660.6</ele>
        <time>2024-11-18T13:54:29Z</time>
      </trkpt>
      <trkpt lat="48.16692" lon="6.80137">
        <ele>661.2</ele>
        <time>2024-11-18T13:54:37Z</time>
      </trkpt>
      <trkpt lat="48.16684" lon="6.80129">
        <ele>662</ele>
        <time>2024-11-18T13:54:45Z</time>
      </trkpt>
      <trkpt lat="48.16676" lon="6.80121">
        <ele>662.5</ele>
        <time>2024-11-18T13:54:55Z</time>
      </trkpt>
      <trkpt lat="48.16668" lon="6.80112">
        <ele>663.1</ele>
        <time>2024-11-18T13:55:03Z</time>
      </trkpt>
      <trkpt lat="48.1666" lon="6.80105">
        <ele>663.2</ele>
        <time>2024-11-18T13:55:13Z</time>
      </trkpt>
      <trkpt lat="48.16653" lon="6.80095">
        <ele>663.3</ele>
        <time>2024-11-18T13:55:20Z</time>
      </trkpt>
      <trkpt lat="48.16646" lon="6.80085">
        <ele>662.7</ele>
        <time>2024-11-18T13:55:28Z</time>
      </trkpt>
      <trkpt lat="48.16639" lon="6.80076">
        <ele>662.3</ele>
        <time>2024-11-18T13:55:36Z</time>
      </trkpt>
      <trkpt lat="48.16631" lon="6.80067">
        <ele>661.9</ele>
        <time>2024-11-18T13:55:46Z</time>
      </trkpt>
      <trkpt lat="48.16622" lon="6.80059">
        <ele>661.2</ele>
        <time>2024-11-18T13:55:53Z</time>
      </trkpt>
      <trkpt lat="48.16614" lon="6.80052">
        <ele>659.8</ele>
        <time>2024-11-18T13:56:02Z</time>
      </trkpt>
      <trkpt lat="48.16605" lon="6.80048">
        <ele>659.2</ele>
        <time>2024-11-18T13:56:08Z</time>
      </trkpt>
      <trkpt lat="48.16597" lon="6.80043">
        <ele>658.4</ele>
        <time>2024-11-18T13:56:14Z</time>
      </trkpt>
      <trkpt lat="48.16595" lon="6.80042">
        <ele>658.4</ele>
        <time>2024-11-18T13:56:18Z</time>
      </trkpt>
      <trkpt lat="48.16595" lon="6.80042">
        <ele>658.4</ele>
        <time>2024-11-18T13:56:19Z</time>
      </trkpt>
      <trkpt lat="48.16595" lon="6.80042">
        <ele>658.4</ele>
        <time>2024-11-18T13:56:20Z</time>
      </trkpt>
      <trkpt lat="48.16594" lon="6.80043">
        <ele>658.2</ele>
        <time>2024-11-18T13:56:24Z</time>
      </trkpt>
      <trkpt lat="48.16593" lon="6.80044">
        <ele>658.2</ele>
        <time>2024-11-18T13:56:25Z</time>
      </trkpt>
      <trkpt lat="48.16592" lon="6.80047">
        <ele>658.7</ele>
        <time>2024-11-18T13:56:32Z</time>
      </trkpt>
      <trkpt lat="48.16592" lon="6.80047">
        <ele>658.7</ele>
        <time>2024-11-18T13:56:33Z</time>
      </trkpt>
      <trkpt lat="48.1659" lon="6.80051">
        <ele>659</ele>
        <time>2024-11-18T13:56:37Z</time>
      </trkpt>
      <trkpt lat="48.16589" lon="6.80052">
        <ele>659</ele>
        <time>2024-11-18T13:56:38Z</time>
      </trkpt>
      <trkpt lat="48.16581" lon="6.8006">
        <ele>660</ele>
        <time>2024-11-18T13:56:47Z</time>
      </trkpt>
      <trkpt lat="48.16574" lon="6.80069">
        <ele>660.7</ele>
        <time>2024-11-18T13:56:56Z</time>
      </trkpt>
      <trkpt lat="48.16565" lon="6.80074">
        <ele>660.6</ele>
        <time>2024-11-18T13:57:06Z</time>
      </trkpt>
      <trkpt lat="48.16556" lon="6.80076">
        <ele>660.4</ele>
        <time>2024-11-18T13:57:14Z</time>
      </trkpt>
      <trkpt lat="48.16552" lon="6.80078">
        <ele>660.2</ele>
        <time>2024-11-18T13:57:29Z</time>
      </trkpt>
      <trkpt lat="48.16552" lon="6.80078">
        <ele>660.2</ele>
        <time>2024-11-18T13:57:32Z</time>
      </trkpt>
      <trkpt lat="48.16552" lon="6.80078">
        <ele>660.2</ele>
        <time>2024-11-18T13:57:33Z</time>
      </trkpt>
      <trkpt lat="48.16552" lon="6.80078">
        <ele>660.2</ele>
        <time>2024-11-18T13:57:34Z</time>
      </trkpt>
      <trkpt lat="48.16551" lon="6.80078">
        <ele>660.1</ele>
        <time>2024-11-18T13:57:35Z</time>
      </trkpt>
      <trkpt lat="48.1655" lon="6.80078">
        <ele>660.1</ele>
        <time>2024-11-18T13:57:36Z</time>
      </trkpt>
      <trkpt lat="48.16549" lon="6.80078">
        <ele>660.1</ele>
        <time>2024-11-18T13:57:37Z</time>
      </trkpt>
      <trkpt lat="48.16548" lon="6.80079">
        <ele>660</ele>
        <time>2024-11-18T13:57:38Z</time>
      </trkpt>
      <trkpt lat="48.16539" lon="6.8008">
        <ele>660.4</ele>
        <time>2024-11-18T13:57:47Z</time>
      </trkpt>
      <trkpt lat="48.1653" lon="6.80081">
        <ele>660.8</ele>
        <time>2024-11-18T13:57:55Z</time>
      </trkpt>
      <trkpt lat="48.16521" lon="6.80085">
        <ele>662.1</ele>
        <time>2024-11-18T13:58:03Z</time>
      </trkpt>
      <trkpt lat="48.16511" lon="6.80089">
        <ele>663.3</ele>
        <time>2024-11-18T13:58:13Z</time>
      </trkpt>
      <trkpt lat="48.16503" lon="6.80093">
        <ele>664.7</ele>
        <time>2024-11-18T13:58:22Z</time>
      </trkpt>
      <trkpt lat="48.16494" lon="6.80098">
        <ele>666.7</ele>
        <time>2024-11-18T13:58:30Z</time>
      </trkpt>
      <trkpt lat="48.16485" lon="6.80103">
        <ele>668.2</ele>
        <time>2024-11-18T13:58:38Z</time>
      </trkpt>
      <trkpt lat="48.16476" lon="6.80109">
        <ele>669.7</ele>
        <time>2024-11-18T13:58:46Z</time>
      </trkpt>
      <trkpt lat="48.16467" lon="6.80114">
        <ele>672</ele>
        <time>2024-11-18T13:58:55Z</time>
      </trkpt>
      <trkpt lat="48.16458" lon="6.8012">
        <ele>673.5</ele>
        <time>2024-11-18T13:59:03Z</time>
      </trkpt>
      <trkpt lat="48.1645" lon="6.80127">
        <ele>675.3</ele>
        <time>2024-11-18T13:59:11Z</time>
      </trkpt>
      <trkpt lat="48.16443" lon="6.80137">
        <ele>677.9</ele>
        <time>2024-11-18T13:59:19Z</time>
      </trkpt>
      <trkpt lat="48.16436" lon="6.80144">
        <ele>679.7</ele>
        <time>2024-11-18T13:59:27Z</time>
      </trkpt>
      <trkpt lat="48.16429" lon="6.80148">
        <ele>681.5</ele>
        <time>2024-11-18T13:59:41Z</time>
      </trkpt>
      <trkpt lat="48.16429" lon="6.80148">
        <ele>681.5</ele>
        <time>2024-11-18T13:59:42Z</time>
      </trkpt>
      <trkpt lat="48.16429" lon="6.80148">
        <ele>681</ele>
        <time>2024-11-18T13:59:46Z</time>
      </trkpt>
      <trkpt lat="48.16428" lon="6.80148">
        <ele>681</ele>
        <time>2024-11-18T13:59:47Z</time>
      </trkpt>
      <trkpt lat="48.16419" lon="6.80145">
        <ele>682.6</ele>
        <time>2024-11-18T13:59:56Z</time>
      </trkpt>
      <trkpt lat="48.16409" lon="6.80146">
        <ele>684</ele>
        <time>2024-11-18T14:00:03Z</time>
      </trkpt>
      <trkpt lat="48.16399" lon="6.80146">
        <ele>685.6</ele>
        <time>2024-11-18T14:00:11Z</time>
      </trkpt>
      <trkpt lat="48.16389" lon="6.80146">
        <ele>687.1</ele>
        <time>2024-11-18T14:00:18Z</time>
      </trkpt>
      <trkpt lat="48.16384" lon="6.80145">
        <ele>688.2</ele>
        <time>2024-11-18T14:00:27Z</time>
      </trkpt>
      <trkpt lat="48.16385" lon="6.80145">
        <ele>688.1</ele>
        <time>2024-11-18T14:00:28Z</time>
      </trkpt>
      <trkpt lat="48.16383" lon="6.80144">
        <ele>688.1</ele>
        <time>2024-11-18T14:00:31Z</time>
      </trkpt>
      <trkpt lat="48.16382" lon="6.80144">
        <ele>688.4</ele>
        <time>2024-11-18T14:00:32Z</time>
      </trkpt>
      <trkpt lat="48.16372" lon="6.80144">
        <ele>689.8</ele>
        <time>2024-11-18T14:00:40Z</time>
      </trkpt>
      <trkpt lat="48.16363" lon="6.80147">
        <ele>691.5</ele>
        <time>2024-11-18T14:00:48Z</time>
      </trkpt>
      <trkpt lat="48.16354" lon="6.80147">
        <ele>693.1</ele>
        <time>2024-11-18T14:00:57Z</time>
      </trkpt>
      <trkpt lat="48.16344" lon="6.80149">
        <ele>695.4</ele>
        <time>2024-11-18T14:01:06Z</time>
      </trkpt>
      <trkpt lat="48.16335" lon="6.80145">
        <ele>697</ele>
        <time>2024-11-18T14:01:14Z</time>
      </trkpt>
      <trkpt lat="48.16324" lon="6.80144">
        <ele>699.4</ele>
        <time>2024-11-18T14:01:25Z</time>
      </trkpt>
      <trkpt lat="48.16315" lon="6.80147">
        <ele>700.8</ele>
        <time>2024-11-18T14:01:33Z</time>
      </trkpt>
      <trkpt lat="48.16305" lon="6.80151">
        <ele>702.3</ele>
        <time>2024-11-18T14:01:42Z</time>
      </trkpt>
      <trkpt lat="48.16295" lon="6.80151">
        <ele>703.5</ele>
        <time>2024-11-18T14:01:52Z</time>
      </trkpt>
      <trkpt lat="48.16286" lon="6.80154">
        <ele>704.3</ele>
        <time>2024-11-18T14:01:59Z</time>
      </trkpt>
      <trkpt lat="48.16277" lon="6.80152">
        <ele>706.1</ele>
        <time>2024-11-18T14:02:08Z</time>
      </trkpt>
      <trkpt lat="48.16267" lon="6.80151">
        <ele>707.4</ele>
        <time>2024-11-18T14:02:14Z</time>
      </trkpt>
      <trkpt lat="48.16257" lon="6.80151">
        <ele>707.7</ele>
        <time>2024-11-18T14:02:21Z</time>
      </trkpt>
      <trkpt lat="48.16247" lon="6.80152">
        <ele>707.6</ele>
        <time>2024-11-18T14:02:28Z</time>
      </trkpt>
      <trkpt lat="48.16237" lon="6.80155">
        <ele>706.7</ele>
        <time>2024-11-18T14:02:35Z</time>
      </trkpt>
      <trkpt lat="48.16228" lon="6.80154">
        <ele>706.6</ele>
        <time>2024-11-18T14:02:42Z</time>
      </trkpt>
      <trkpt lat="48.16218" lon="6.80153">
        <ele>706.5</ele>
        <time>2024-11-18T14:02:52Z</time>
      </trkpt>
      <trkpt lat="48.16208" lon="6.80153">
        <ele>706.2</ele>
        <time>2024-11-18T14:03:01Z</time>
      </trkpt>
      <trkpt lat="48.16198" lon="6.80155">
        <ele>705.4</ele>
        <time>2024-11-18T14:03:08Z</time>
      </trkpt>
      <trkpt lat="48.16189" lon="6.80153">
        <ele>704.6</ele>
        <time>2024-11-18T14:03:15Z</time>
      </trkpt>
      <trkpt lat="48.1618" lon="6.80151">
        <ele>704.5</ele>
        <time>2024-11-18T14:03:21Z</time>
      </trkpt>
      <trkpt lat="48.1617" lon="6.80149">
        <ele>704</ele>
        <time>2024-11-18T14:03:30Z</time>
      </trkpt>
      <trkpt lat="48.16159" lon="6.80153">
        <ele>703.4</ele>
        <time>2024-11-18T14:03:38Z</time>
      </trkpt>
      <trkpt lat="48.16149" lon="6.80154">
        <ele>703.7</ele>
        <time>2024-11-18T14:03:45Z</time>
      </trkpt>
      <trkpt lat="48.1614" lon="6.80157">
        <ele>703.5</ele>
        <time>2024-11-18T14:03:53Z</time>
      </trkpt>
      <trkpt lat="48.16131" lon="6.80158">
        <ele>703.9</ele>
        <time>2024-11-18T14:03:59Z</time>
      </trkpt>
      <trkpt lat="48.16122" lon="6.80163">
        <ele>704.1</ele>
        <time>2024-11-18T14:04:08Z</time>
      </trkpt>
      <trkpt lat="48.16119" lon="6.80165">
        <ele>704.1</ele>
        <time>2024-11-18T14:04:14Z</time>
      </trkpt>
      <trkpt lat="48.16119" lon="6.80165">
        <ele>704.1</ele>
        <time>2024-11-18T14:04:15Z</time>
      </trkpt>
      <trkpt lat="48.16119" lon="6.80166">
        <ele>703.7</ele>
        <time>2024-11-18T14:04:16Z</time>
      </trkpt>
      <trkpt lat="48.16119" lon="6.80166">
        <ele>703.7</ele>
        <time>2024-11-18T14:04:17Z</time>
      </trkpt>
      <trkpt lat="48.16119" lon="6.80167">
        <ele>703.7</ele>
        <time>2024-11-18T14:04:18Z</time>
      </trkpt>
      <trkpt lat="48.16118" lon="6.80169">
        <ele>703.7</ele>
        <time>2024-11-18T14:04:22Z</time>
      </trkpt>
      <trkpt lat="48.16118" lon="6.80169">
        <ele>703.7</ele>
        <time>2024-11-18T14:04:23Z</time>
      </trkpt>
      <trkpt lat="48.16118" lon="6.80169">
        <ele>703.7</ele>
        <time>2024-11-18T14:04:24Z</time>
      </trkpt>
      <trkpt lat="48.16117" lon="6.80169">
        <ele>703.7</ele>
        <time>2024-11-18T14:04:37Z</time>
      </trkpt>
      <trkpt lat="48.16116" lon="6.80168">
        <ele>703.7</ele>
        <time>2024-11-18T14:04:38Z</time>
      </trkpt>
      <trkpt lat="48.16116" lon="6.80169">
        <ele>703.9</ele>
        <time>2024-11-18T14:04:39Z</time>
      </trkpt>
      <trkpt lat="48.16116" lon="6.8017">
        <ele>703.3</ele>
        <time>2024-11-18T14:04:40Z</time>
      </trkpt>
      <trkpt lat="48.16109" lon="6.8018">
        <ele>702.4</ele>
        <time>2024-11-18T14:04:50Z</time>
      </trkpt>
      <trkpt lat="48.16101" lon="6.80187">
        <ele>701.5</ele>
        <time>2024-11-18T14:04:57Z</time>
      </trkpt>
      <trkpt lat="48.16093" lon="6.80196">
        <ele>700.5</ele>
        <time>2024-11-18T14:05:04Z</time>
      </trkpt>
      <trkpt lat="48.16087" lon="6.80206">
        <ele>699.7</ele>
        <time>2024-11-18T14:05:12Z</time>
      </trkpt>
      <trkpt lat="48.1608" lon="6.80217">
        <ele>699.2</ele>
        <time>2024-11-18T14:05:20Z</time>
      </trkpt>
      <trkpt lat="48.1607" lon="6.8022">
        <ele>699.6</ele>
        <time>2024-11-18T14:05:28Z</time>
      </trkpt>
      <trkpt lat="48.16062" lon="6.80227">
        <ele>699.5</ele>
        <time>2024-11-18T14:05:35Z</time>
      </trkpt>
      <trkpt lat="48.16056" lon="6.80237">
        <ele>699.2</ele>
        <time>2024-11-18T14:05:41Z</time>
      </trkpt>
      <trkpt lat="48.16051" lon="6.80249">
        <ele>698.3</ele>
        <time>2024-11-18T14:05:48Z</time>
      </trkpt>
      <trkpt lat="48.16053" lon="6.80265">
        <ele>697.1</ele>
        <time>2024-11-18T14:05:57Z</time>
      </trkpt>
      <trkpt lat="48.16055" lon="6.80278">
        <ele>696.2</ele>
        <time>2024-11-18T14:06:03Z</time>
      </trkpt>
      <trkpt lat="48.16059" lon="6.80292">
        <ele>695.6</ele>
        <time>2024-11-18T14:06:11Z</time>
      </trkpt>
      <trkpt lat="48.16064" lon="6.80305">
        <ele>694.7</ele>
        <time>2024-11-18T14:06:19Z</time>
      </trkpt>
      <trkpt lat="48.16067" lon="6.80318">
        <ele>694</ele>
        <time>2024-11-18T14:06:26Z</time>
      </trkpt>
      <trkpt lat="48.16068" lon="6.80334">
        <ele>693.6</ele>
        <time>2024-11-18T14:06:34Z</time>
      </trkpt>
      <trkpt lat="48.16072" lon="6.80347">
        <ele>693.2</ele>
        <time>2024-11-18T14:06:42Z</time>
      </trkpt>
      <trkpt lat="48.16072" lon="6.80362">
        <ele>692.8</ele>
        <time>2024-11-18T14:06:51Z</time>
      </trkpt>
      <trkpt lat="48.16073" lon="6.80377">
        <ele>692.2</ele>
        <time>2024-11-18T14:07:00Z</time>
      </trkpt>
      <trkpt lat="48.16074" lon="6.80392">
        <ele>691.8</ele>
        <time>2024-11-18T14:07:06Z</time>
      </trkpt>
      <trkpt lat="48.16078" lon="6.80407">
        <ele>691.2</ele>
        <time>2024-11-18T14:07:11Z</time>
      </trkpt>
      <trkpt lat="48.16087" lon="6.80415">
        <ele>689.6</ele>
        <time>2024-11-18T14:07:16Z</time>
      </trkpt>
      <trkpt lat="48.1609" lon="6.80427">
        <ele>688.7</ele>
        <time>2024-11-18T14:07:22Z</time>
      </trkpt>
      <trkpt lat="48.16093" lon="6.80442">
        <ele>687.8</ele>
        <time>2024-11-18T14:07:30Z</time>
      </trkpt>
      <trkpt lat="48.16092" lon="6.80451">
        <ele>687.5</ele>
        <time>2024-11-18T14:07:41Z</time>
      </trkpt>
      <trkpt lat="48.16092" lon="6.80451">
        <ele>687.5</ele>
        <time>2024-11-18T14:07:42Z</time>
      </trkpt>
      <trkpt lat="48.16092" lon="6.80451">
        <ele>687.5</ele>
        <time>2024-11-18T14:07:46Z</time>
      </trkpt>
      <trkpt lat="48.16092" lon="6.80451">
        <ele>687.5</ele>
        <time>2024-11-18T14:07:47Z</time>
      </trkpt>
      <trkpt lat="48.16099" lon="6.80461">
        <ele>686.1</ele>
        <time>2024-11-18T14:07:58Z</time>
      </trkpt>
      <trkpt lat="48.16106" lon="6.80472">
        <ele>684.7</ele>
        <time>2024-11-18T14:08:07Z</time>
      </trkpt>
      <trkpt lat="48.16109" lon="6.80485">
        <ele>683.4</ele>
        <time>2024-11-18T14:08:16Z</time>
      </trkpt>
      <trkpt lat="48.16113" lon="6.80498">
        <ele>681.9</ele>
        <time>2024-11-18T14:08:23Z</time>
      </trkpt>
      <trkpt lat="48.16118" lon="6.8051">
        <ele>679.6</ele>
        <time>2024-11-18T14:08:30Z</time>
      </trkpt>
      <trkpt lat="48.16122" lon="6.80522">
        <ele>677.6</ele>
        <time>2024-11-18T14:08:38Z</time>
      </trkpt>
      <trkpt lat="48.16129" lon="6.80531">
        <ele>676.3</ele>
        <time>2024-11-18T14:08:44Z</time>
      </trkpt>
      <trkpt lat="48.16133" lon="6.80544">
        <ele>674.9</ele>
        <time>2024-11-18T14:08:52Z</time>
      </trkpt>
      <trkpt lat="48.16136" lon="6.80556">
        <ele>673</ele>
        <time>2024-11-18T14:08:58Z</time>
      </trkpt>
      <trkpt lat="48.16141" lon="6.8057">
        <ele>670.5</ele>
        <time>2024-11-18T14:09:06Z</time>
      </trkpt>
      <trkpt lat="48.16143" lon="6.80584">
        <ele>668.6</ele>
        <time>2024-11-18T14:09:13Z</time>
      </trkpt>
      <trkpt lat="48.16146" lon="6.80597">
        <ele>666.7</ele>
        <time>2024-11-18T14:09:22Z</time>
      </trkpt>
      <trkpt lat="48.16151" lon="6.80612">
        <ele>664.7</ele>
        <time>2024-11-18T14:09:30Z</time>
      </trkpt>
      <trkpt lat="48.16154" lon="6.80625">
        <ele>661.7</ele>
        <time>2024-11-18T14:09:38Z</time>
      </trkpt>
      <trkpt lat="48.16157" lon="6.80639">
        <ele>659.3</ele>
        <time>2024-11-18T14:09:45Z</time>
      </trkpt>
      <trkpt lat="48.16159" lon="6.80653">
        <ele>657.6</ele>
        <time>2024-11-18T14:09:52Z</time>
      </trkpt>
      <trkpt lat="48.16159" lon="6.80668">
        <ele>655.8</ele>
        <time>2024-11-18T14:10:00Z</time>
      </trkpt>
      <trkpt lat="48.16159" lon="6.8068">
        <ele>654.9</ele>
        <time>2024-11-18T14:10:09Z</time>
      </trkpt>
      <trkpt lat="48.16159" lon="6.8068">
        <ele>654.9</ele>
        <time>2024-11-18T14:10:10Z</time>
      </trkpt>
      <trkpt lat="48.16159" lon="6.8068">
        <ele>654.4</ele>
        <time>2024-11-18T14:10:14Z</time>
      </trkpt>
      <trkpt lat="48.1616" lon="6.8068">
        <ele>654.4</ele>
        <time>2024-11-18T14:10:15Z</time>
      </trkpt>
      <trkpt lat="48.1616" lon="6.80679">
        <ele>654.4</ele>
        <time>2024-11-18T14:10:16Z</time>
      </trkpt>
      <trkpt lat="48.1616" lon="6.80679">
        <ele>654.4</ele>
        <time>2024-11-18T14:10:17Z</time>
      </trkpt>
      <trkpt lat="48.16161" lon="6.80679">
        <ele>654.4</ele>
        <time>2024-11-18T14:12:08Z</time>
      </trkpt>
      <trkpt lat="48.16161" lon="6.80679">
        <ele>654.4</ele>
        <time>2024-11-18T14:12:09Z</time>
      </trkpt>
      <trkpt lat="48.16161" lon="6.80679">
        <ele>654.3</ele>
        <time>2024-11-18T14:12:10Z</time>
      </trkpt>
      <trkpt lat="48.16161" lon="6.8068">
        <ele>654.3</ele>
        <time>2024-11-18T14:12:19Z</time>
      </trkpt>
      <trkpt lat="48.16161" lon="6.8068">
        <ele>654.3</ele>
        <time>2024-11-18T14:12:20Z</time>
      </trkpt>
      <trkpt lat="48.16161" lon="6.8068">
        <ele>654.3</ele>
        <time>2024-11-18T14:12:21Z</time>
      </trkpt>
      <trkpt lat="48.1616" lon="6.8068">
        <ele>653.8</ele>
        <time>2024-11-18T14:13:06Z</time>
      </trkpt>
      <trkpt lat="48.1616" lon="6.8068">
        <ele>653.8</ele>
        <time>2024-11-18T14:13:07Z</time>
      </trkpt>
      <trkpt lat="48.1616" lon="6.8068">
        <ele>653.8</ele>
        <time>2024-11-18T14:13:08Z</time>
      </trkpt>
      <trkpt lat="48.1616" lon="6.8068">
        <ele>653.8</ele>
        <time>2024-11-18T14:13:09Z</time>
      </trkpt>
      <trkpt lat="48.1616" lon="6.8068">
        <ele>653.8</ele>
        <time>2024-11-18T14:13:10Z</time>
      </trkpt>
      <trkpt lat="48.1616" lon="6.8068">
        <ele>653.8</ele>
        <time>2024-11-18T14:13:14Z</time>
      </trkpt>
      <trkpt lat="48.1616" lon="6.80681">
        <ele>653.8</ele>
        <time>2024-11-18T14:13:15Z</time>
      </trkpt>
      <trkpt lat="48.1616" lon="6.80681">
        <ele>653.8</ele>
        <time>2024-11-18T14:13:16Z</time>
      </trkpt>
      <trkpt lat="48.1616" lon="6.80681">
        <ele>653.8</ele>
        <time>2024-11-18T14:13:18Z</time>
      </trkpt>
      <trkpt lat="48.1616" lon="6.80681">
        <ele>653.8</ele>
        <time>2024-11-18T14:13:19Z</time>
      </trkpt>
      <trkpt lat="48.1616" lon="6.80681">
        <ele>653.8</ele>
        <time>2024-11-18T14:13:20Z</time>
      </trkpt>
      <trkpt lat="48.1616" lon="6.80681">
        <ele>653.8</ele>
        <time>2024-11-18T14:13:21Z</time>
      </trkpt>
      <trkpt lat="48.1616" lon="6.80681">
        <ele>653.8</ele>
        <time>2024-11-18T14:13:22Z</time>
      </trkpt>
      <trkpt lat="48.16155" lon="6.80693">
        <ele>653</ele>
        <time>2024-11-18T14:13:32Z</time>
      </trkpt>
      <trkpt lat="48.16152" lon="6.80708">
        <ele>651.8</ele>
        <time>2024-11-18T14:13:43Z</time>
      </trkpt>
      <trkpt lat="48.16146" lon="6.80719">
        <ele>651.3</ele>
        <time>2024-11-18T14:13:51Z</time>
      </trkpt>
      <trkpt lat="48.16143" lon="6.80732">
        <ele>650.5</ele>
        <time>2024-11-18T14:14:01Z</time>
      </trkpt>
      <trkpt lat="48.1614" lon="6.80745">
        <ele>650.1</ele>
        <time>2024-11-18T14:14:09Z</time>
      </trkpt>
      <trkpt lat="48.16136" lon="6.80758">
        <ele>650.3</ele>
        <time>2024-11-18T14:14:16Z</time>
      </trkpt>
      <trkpt lat="48.16136" lon="6.8077">
        <ele>649.6</ele>
        <time>2024-11-18T14:14:29Z</time>
      </trkpt>
      <trkpt lat="48.16136" lon="6.8077">
        <ele>649.6</ele>
        <time>2024-11-18T14:14:30Z</time>
      </trkpt>
      <trkpt lat="48.16136" lon="6.8077">
        <ele>649.6</ele>
        <time>2024-11-18T14:14:31Z</time>
      </trkpt>
      <trkpt lat="48.16137" lon="6.8077">
        <ele>649</ele>
        <time>2024-11-18T14:14:47Z</time>
      </trkpt>
      <trkpt lat="48.16137" lon="6.8077">
        <ele>649</ele>
        <time>2024-11-18T14:14:48Z</time>
      </trkpt>
      <trkpt lat="48.16137" lon="6.8077">
        <ele>649</ele>
        <time>2024-11-18T14:14:49Z</time>
      </trkpt>
      <trkpt lat="48.16137" lon="6.8077">
        <ele>649</ele>
        <time>2024-11-18T14:14:50Z</time>
      </trkpt>
      <trkpt lat="48.16137" lon="6.8077">
        <ele>649</ele>
        <time>2024-11-18T14:15:18Z</time>
      </trkpt>
      <trkpt lat="48.16137" lon="6.8077">
        <ele>649</ele>
        <time>2024-11-18T14:15:19Z</time>
      </trkpt>
      <trkpt lat="48.16137" lon="6.8077">
        <ele>649</ele>
        <time>2024-11-18T14:15:20Z</time>
      </trkpt>
      <trkpt lat="48.16138" lon="6.8077">
        <ele>649</ele>
        <time>2024-11-18T14:15:24Z</time>
      </trkpt>
      <trkpt lat="48.16138" lon="6.8077">
        <ele>649</ele>
        <time>2024-11-18T14:15:25Z</time>
      </trkpt>
      <trkpt lat="48.16138" lon="6.8077">
        <ele>649</ele>
        <time>2024-11-18T14:15:26Z</time>
      </trkpt>
      <trkpt lat="48.16138" lon="6.8077">
        <ele>649</ele>
        <time>2024-11-18T14:15:51Z</time>
      </trkpt>
      <trkpt lat="48.16138" lon="6.8077">
        <ele>649</ele>
        <time>2024-11-18T14:15:52Z</time>
      </trkpt>
      <trkpt lat="48.16138" lon="6.8077">
        <ele>649</ele>
        <time>2024-11-18T14:15:53Z</time>
      </trkpt>
      <trkpt lat="48.16138" lon="6.8077">
        <ele>649</ele>
        <time>2024-11-18T14:15:54Z</time>
      </trkpt>
      <trkpt lat="48.16138" lon="6.8077">
        <ele>649</ele>
        <time>2024-11-18T14:15:55Z</time>
      </trkpt>
      <trkpt lat="48.16139" lon="6.80767">
        <ele>649</ele>
        <time>2024-11-18T14:16:12Z</time>
      </trkpt>
      <trkpt lat="48.16139" lon="6.80766">
        <ele>649.3</ele>
        <time>2024-11-18T14:16:13Z</time>
      </trkpt>
      <trkpt lat="48.16139" lon="6.80764">
        <ele>649.3</ele>
        <time>2024-11-18T14:16:19Z</time>
      </trkpt>
      <trkpt lat="48.16139" lon="6.80764">
        <ele>649.3</ele>
        <time>2024-11-18T14:16:20Z</time>
      </trkpt>
      <trkpt lat="48.16139" lon="6.8076">
        <ele>649</ele>
        <time>2024-11-18T14:17:28Z</time>
      </trkpt>
      <trkpt lat="48.16139" lon="6.80759">
        <ele>649</ele>
        <time>2024-11-18T14:17:29Z</time>
      </trkpt>
      <trkpt lat="48.16139" lon="6.80758">
        <ele>649</ele>
        <time>2024-11-18T14:17:30Z</time>
      </trkpt>
      <trkpt lat="48.16141" lon="6.80744">
        <ele>650.3</ele>
        <time>2024-11-18T14:17:40Z</time>
      </trkpt>
      <trkpt lat="48.16144" lon="6.80731">
        <ele>650.8</ele>
        <time>2024-11-18T14:17:48Z</time>
      </trkpt>
      <trkpt lat="48.16149" lon="6.80718">
        <ele>651.1</ele>
        <time>2024-11-18T14:17:54Z</time>
      </trkpt>
      <trkpt lat="48.16153" lon="6.80706">
        <ele>652.2</ele>
        <time>2024-11-18T14:18:05Z</time>
      </trkpt>
      <trkpt lat="48.16158" lon="6.80692">
        <ele>652.9</ele>
        <time>2024-11-18T14:18:14Z</time>
      </trkpt>
      <trkpt lat="48.16162" lon="6.8068">
        <ele>653.6</ele>
        <time>2024-11-18T14:18:22Z</time>
      </trkpt>
      <trkpt lat="48.16164" lon="6.80665">
        <ele>655.1</ele>
        <time>2024-11-18T14:18:32Z</time>
      </trkpt>
      <trkpt lat="48.16165" lon="6.80651">
        <ele>656.5</ele>
        <time>2024-11-18T14:18:39Z</time>
      </trkpt>
      <trkpt lat="48.16163" lon="6.80642">
        <ele>657.6</ele>
        <time>2024-11-18T14:18:48Z</time>
      </trkpt>
      <trkpt lat="48.16163" lon="6.80642">
        <ele>657.6</ele>
        <time>2024-11-18T14:18:49Z</time>
      </trkpt>
      <trkpt lat="48.16163" lon="6.80642">
        <ele>657.6</ele>
        <time>2024-11-18T14:18:50Z</time>
      </trkpt>
      <trkpt lat="48.16162" lon="6.80641">
        <ele>658.2</ele>
        <time>2024-11-18T14:18:59Z</time>
      </trkpt>
      <trkpt lat="48.16163" lon="6.8064">
        <ele>658.2</ele>
        <time>2024-11-18T14:19:00Z</time>
      </trkpt>
      <trkpt lat="48.16161" lon="6.80626">
        <ele>660.6</ele>
        <time>2024-11-18T14:19:12Z</time>
      </trkpt>
      <trkpt lat="48.16156" lon="6.80614">
        <ele>663</ele>
        <time>2024-11-18T14:19:21Z</time>
      </trkpt>
      <trkpt lat="48.16154" lon="6.80601">
        <ele>664.6</ele>
        <time>2024-11-18T14:19:30Z</time>
      </trkpt>
      <trkpt lat="48.16148" lon="6.80588">
        <ele>666.8</ele>
        <time>2024-11-18T14:19:39Z</time>
      </trkpt>
      <trkpt lat="48.16147" lon="6.80573">
        <ele>668.6</ele>
        <time>2024-11-18T14:19:47Z</time>
      </trkpt>
      <trkpt lat="48.16144" lon="6.8056">
        <ele>671.1</ele>
        <time>2024-11-18T14:19:56Z</time>
      </trkpt>
      <trkpt lat="48.16139" lon="6.80548">
        <ele>673.1</ele>
        <time>2024-11-18T14:20:04Z</time>
      </trkpt>
      <trkpt lat="48.16137" lon="6.80535">
        <ele>674.4</ele>
        <time>2024-11-18T14:20:12Z</time>
      </trkpt>
      <trkpt lat="48.16132" lon="6.80522">
        <ele>676</ele>
        <time>2024-11-18T14:20:20Z</time>
      </trkpt>
      <trkpt lat="48.16126" lon="6.80511">
        <ele>677.7</ele>
        <time>2024-11-18T14:20:29Z</time>
      </trkpt>
      <trkpt lat="48.16124" lon="6.80508">
        <ele>678.5</ele>
        <time>2024-11-18T14:20:37Z</time>
      </trkpt>
      <trkpt lat="48.16124" lon="6.80508">
        <ele>678.5</ele>
        <time>2024-11-18T14:20:38Z</time>
      </trkpt>
      <trkpt lat="48.16122" lon="6.80506">
        <ele>678.5</ele>
        <time>2024-11-18T14:20:42Z</time>
      </trkpt>
      <trkpt lat="48.16122" lon="6.80506">
        <ele>678.5</ele>
        <time>2024-11-18T14:20:43Z</time>
      </trkpt>
      <trkpt lat="48.16119" lon="6.805">
        <ele>679.5</ele>
        <time>2024-11-18T14:20:51Z</time>
      </trkpt>
      <trkpt lat="48.16119" lon="6.805">
        <ele>679.4</ele>
        <time>2024-11-18T14:20:52Z</time>
      </trkpt>
      <trkpt lat="48.16119" lon="6.805">
        <ele>679.4</ele>
        <time>2024-11-18T14:20:53Z</time>
      </trkpt>
      <trkpt lat="48.16119" lon="6.805">
        <ele>680.4</ele>
        <time>2024-11-18T14:21:01Z</time>
      </trkpt>
      <trkpt lat="48.16118" lon="6.80499">
        <ele>680.4</ele>
        <time>2024-11-18T14:21:02Z</time>
      </trkpt>
      <trkpt lat="48.16117" lon="6.80498">
        <ele>680.4</ele>
        <time>2024-11-18T14:21:03Z</time>
      </trkpt>
      <trkpt lat="48.16113" lon="6.80485">
        <ele>682.4</ele>
        <time>2024-11-18T14:21:12Z</time>
      </trkpt>
      <trkpt lat="48.16109" lon="6.80472">
        <ele>683.7</ele>
        <time>2024-11-18T14:21:21Z</time>
      </trkpt>
      <trkpt lat="48.16106" lon="6.80459">
        <ele>684.8</ele>
        <time>2024-11-18T14:21:30Z</time>
      </trkpt>
      <trkpt lat="48.16099" lon="6.8045">
        <ele>685.9</ele>
        <time>2024-11-18T14:21:37Z</time>
      </trkpt>
      <trkpt lat="48.16094" lon="6.80438">
        <ele>687</ele>
        <time>2024-11-18T14:21:45Z</time>
      </trkpt>
      <trkpt lat="48.16089" lon="6.80425">
        <ele>688.2</ele>
        <time>2024-11-18T14:21:53Z</time>
      </trkpt>
      <trkpt lat="48.16083" lon="6.80413">
        <ele>689.6</ele>
        <time>2024-11-18T14:22:01Z</time>
      </trkpt>
      <trkpt lat="48.1608" lon="6.80399">
        <ele>690.3</ele>
        <time>2024-11-18T14:22:10Z</time>
      </trkpt>
      <trkpt lat="48.16079" lon="6.80386">
        <ele>690.6</ele>
        <time>2024-11-18T14:22:19Z</time>
      </trkpt>
      <trkpt lat="48.16078" lon="6.80372">
        <ele>691.1</ele>
        <time>2024-11-18T14:22:29Z</time>
      </trkpt>
      <trkpt lat="48.16079" lon="6.80358">
        <ele>691.3</ele>
        <time>2024-11-18T14:22:38Z</time>
      </trkpt>
      <trkpt lat="48.16078" lon="6.80343">
        <ele>691.9</ele>
        <time>2024-11-18T14:22:45Z</time>
      </trkpt>
      <trkpt lat="48.16077" lon="6.80329">
        <ele>692</ele>
        <time>2024-11-18T14:22:51Z</time>
      </trkpt>
      <trkpt lat="48.16073" lon="6.80316">
        <ele>692.8</ele>
        <time>2024-11-18T14:23:00Z</time>
      </trkpt>
      <trkpt lat="48.16073" lon="6.80301">
        <ele>693.5</ele>
        <time>2024-11-18T14:23:08Z</time>
      </trkpt>
      <trkpt lat="48.1607" lon="6.80287">
        <ele>694.3</ele>
        <time>2024-11-18T14:23:17Z</time>
      </trkpt>
      <trkpt lat="48.16066" lon="6.80274">
        <ele>695</ele>
        <time>2024-11-18T14:23:27Z</time>
      </trkpt>
      <trkpt lat="48.16063" lon="6.8026">
        <ele>695.8</ele>
        <time>2024-11-18T14:23:36Z</time>
      </trkpt>
      <trkpt lat="48.16062" lon="6.80247">
        <ele>697.1</ele>
        <time>2024-11-18T14:23:44Z</time>
      </trkpt>
      <trkpt lat="48.16066" lon="6.80233">
        <ele>698</ele>
        <time>2024-11-18T14:23:56Z</time>
      </trkpt>
      <trkpt lat="48.16074" lon="6.80226">
        <ele>697.8</ele>
        <time>2024-11-18T14:24:08Z</time>
      </trkpt>
      <trkpt lat="48.16082" lon="6.80219">
        <ele>697.9</ele>
        <time>2024-11-18T14:24:19Z</time>
      </trkpt>
      <trkpt lat="48.1609" lon="6.8021">
        <ele>698.3</ele>
        <time>2024-11-18T14:24:27Z</time>
      </trkpt>
      <trkpt lat="48.16097" lon="6.80199">
        <ele>699.5</ele>
        <time>2024-11-18T14:24:36Z</time>
      </trkpt>
      <trkpt lat="48.16104" lon="6.8019">
        <ele>700.5</ele>
        <time>2024-11-18T14:24:45Z</time>
      </trkpt>
      <trkpt lat="48.16112" lon="6.80183">
        <ele>700.7</ele>
        <time>2024-11-18T14:24:56Z</time>
      </trkpt>
      <trkpt lat="48.16118" lon="6.80178">
        <ele>701.6</ele>
        <time>2024-11-18T14:25:14Z</time>
      </trkpt>
      <trkpt lat="48.16117" lon="6.80177">
        <ele>701.6</ele>
        <time>2024-11-18T14:25:15Z</time>
      </trkpt>
      <trkpt lat="48.16117" lon="6.80178">
        <ele>701.6</ele>
        <time>2024-11-18T14:25:16Z</time>
      </trkpt>
      <trkpt lat="48.16118" lon="6.80178">
        <ele>701.6</ele>
        <time>2024-11-18T14:25:17Z</time>
      </trkpt>
      <trkpt lat="48.16118" lon="6.80178">
        <ele>700.9</ele>
        <time>2024-11-18T14:25:18Z</time>
      </trkpt>
      <trkpt lat="48.16118" lon="6.8018">
        <ele>700.9</ele>
        <time>2024-11-18T14:25:22Z</time>
      </trkpt>
      <trkpt lat="48.16117" lon="6.8018">
        <ele>700.9</ele>
        <time>2024-11-18T14:25:23Z</time>
      </trkpt>
      <trkpt lat="48.16118" lon="6.80178">
        <ele>701.5</ele>
        <time>2024-11-18T14:26:17Z</time>
      </trkpt>
      <trkpt lat="48.16118" lon="6.80177">
        <ele>701.5</ele>
        <time>2024-11-18T14:26:18Z</time>
      </trkpt>
      <trkpt lat="48.16116" lon="6.80169">
        <ele>702.8</ele>
        <time>2024-11-18T14:26:29Z</time>
      </trkpt>
      <trkpt lat="48.16116" lon="6.80169">
        <ele>703</ele>
        <time>2024-11-18T14:26:30Z</time>
      </trkpt>
      <trkpt lat="48.16115" lon="6.80167">
        <ele>703</ele>
        <time>2024-11-18T14:26:56Z</time>
      </trkpt>
      <trkpt lat="48.16114" lon="6.80167">
        <ele>703</ele>
        <time>2024-11-18T14:26:57Z</time>
      </trkpt>
      <trkpt lat="48.16112" lon="6.80167">
        <ele>703.2</ele>
        <time>2024-11-18T14:27:04Z</time>
      </trkpt>
      <trkpt lat="48.16112" lon="6.80167">
        <ele>703.2</ele>
        <time>2024-11-18T14:27:05Z</time>
      </trkpt>
      <trkpt lat="48.16111" lon="6.80166">
        <ele>703.2</ele>
        <time>2024-11-18T14:27:11Z</time>
      </trkpt>
      <trkpt lat="48.1611" lon="6.80166">
        <ele>703.4</ele>
        <time>2024-11-18T14:27:12Z</time>
      </trkpt>
      <trkpt lat="48.1611" lon="6.80167">
        <ele>703.4</ele>
        <time>2024-11-18T14:27:13Z</time>
      </trkpt>
      <trkpt lat="48.16109" lon="6.80167">
        <ele>703.4</ele>
        <time>2024-11-18T14:27:16Z</time>
      </trkpt>
      <trkpt lat="48.16109" lon="6.80167">
        <ele>703.3</ele>
        <time>2024-11-18T14:27:17Z</time>
      </trkpt>
      <trkpt lat="48.16109" lon="6.80167">
        <ele>703.3</ele>
        <time>2024-11-18T14:27:18Z</time>
      </trkpt>
      <trkpt lat="48.16108" lon="6.80166">
        <ele>703.3</ele>
        <time>2024-11-18T14:28:29Z</time>
      </trkpt>
      <trkpt lat="48.16108" lon="6.80166">
        <ele>703.3</ele>
        <time>2024-11-18T14:28:30Z</time>
      </trkpt>
      <trkpt lat="48.16108" lon="6.80166">
        <ele>703.3</ele>
        <time>2024-11-18T14:28:31Z</time>
      </trkpt>
      <trkpt lat="48.16108" lon="6.80166">
        <ele>703.3</ele>
        <time>2024-11-18T14:28:32Z</time>
      </trkpt>
      <trkpt lat="48.16108" lon="6.80166">
        <ele>703.3</ele>
        <time>2024-11-18T14:28:33Z</time>
      </trkpt>
      <trkpt lat="48.16108" lon="6.80165">
        <ele>703.9</ele>
        <time>2024-11-18T14:28:56Z</time>
      </trkpt>
      <trkpt lat="48.16107" lon="6.80165">
        <ele>704.1</ele>
        <time>2024-11-18T14:28:57Z</time>
      </trkpt>
      <trkpt lat="48.16102" lon="6.80166">
        <ele>703.7</ele>
        <time>2024-11-18T14:29:09Z</time>
      </trkpt>
      <trkpt lat="48.16102" lon="6.80166">
        <ele>703.7</ele>
        <time>2024-11-18T14:29:10Z</time>
      </trkpt>
      <trkpt lat="48.16101" lon="6.80165">
        <ele>703.8</ele>
        <time>2024-11-18T14:29:14Z</time>
      </trkpt>
      <trkpt lat="48.161" lon="6.80166">
        <ele>703.8</ele>
        <time>2024-11-18T14:29:15Z</time>
      </trkpt>
      <trkpt lat="48.16097" lon="6.80166">
        <ele>704</ele>
        <time>2024-11-18T14:29:24Z</time>
      </trkpt>
      <trkpt lat="48.16097" lon="6.80166">
        <ele>704</ele>
        <time>2024-11-18T14:29:25Z</time>
      </trkpt>
      <trkpt lat="48.16097" lon="6.80166">
        <ele>703.9</ele>
        <time>2024-11-18T14:29:26Z</time>
      </trkpt>
      <trkpt lat="48.16097" lon="6.80166">
        <ele>703.9</ele>
        <time>2024-11-18T14:29:38Z</time>
      </trkpt>
      <trkpt lat="48.16097" lon="6.80166">
        <ele>703.9</ele>
        <time>2024-11-18T14:29:39Z</time>
      </trkpt>
      <trkpt lat="48.16096" lon="6.80166">
        <ele>703.9</ele>
        <time>2024-11-18T14:29:40Z</time>
      </trkpt>
      <trkpt lat="48.16095" lon="6.80167">
        <ele>704.1</ele>
        <time>2024-11-18T14:29:46Z</time>
      </trkpt>
      <trkpt lat="48.16095" lon="6.80167">
        <ele>704.1</ele>
        <time>2024-11-18T14:29:47Z</time>
      </trkpt>
      <trkpt lat="48.16095" lon="6.80167">
        <ele>704</ele>
        <time>2024-11-18T14:29:48Z</time>
      </trkpt>
      <trkpt lat="48.16095" lon="6.80167">
        <ele>704</ele>
        <time>2024-11-18T14:29:49Z</time>
      </trkpt>
      <trkpt lat="48.16095" lon="6.80167">
        <ele>704</ele>
        <time>2024-11-18T14:29:50Z</time>
      </trkpt>
      <trkpt lat="48.16095" lon="6.80167">
        <ele>704</ele>
        <time>2024-11-18T14:29:51Z</time>
      </trkpt>
      <trkpt lat="48.16095" lon="6.80167">
        <ele>704</ele>
        <time>2024-11-18T14:29:52Z</time>
      </trkpt>
      <trkpt lat="48.16095" lon="6.80167">
        <ele>704</ele>
        <time>2024-11-18T14:29:53Z</time>
      </trkpt>
      <trkpt lat="48.16092" lon="6.80168">
        <ele>704.1</ele>
        <time>2024-11-18T14:29:59Z</time>
      </trkpt>
      <trkpt lat="48.16091" lon="6.80168">
        <ele>704.1</ele>
        <time>2024-11-18T14:30:00Z</time>
      </trkpt>
      <trkpt lat="48.16081" lon="6.80168">
        <ele>704.4</ele>
        <time>2024-11-18T14:30:09Z</time>
      </trkpt>
      <trkpt lat="48.16071" lon="6.80167">
        <ele>704.5</ele>
        <time>2024-11-18T14:30:17Z</time>
      </trkpt>
      <trkpt lat="48.16063" lon="6.80159">
        <ele>705.6</ele>
        <time>2024-11-18T14:30:25Z</time>
      </trkpt>
      <trkpt lat="48.16054" lon="6.80157">
        <ele>706.2</ele>
        <time>2024-11-18T14:30:33Z</time>
      </trkpt>
      <trkpt lat="48.16044" lon="6.80153">
        <ele>706</ele>
        <time>2024-11-18T14:30:42Z</time>
      </trkpt>
      <trkpt lat="48.16035" lon="6.8015">
        <ele>706.5</ele>
        <time>2024-11-18T14:30:50Z</time>
      </trkpt>
      <trkpt lat="48.16026" lon="6.80146">
        <ele>706.9</ele>
        <time>2024-11-18T14:30:58Z</time>
      </trkpt>
      <trkpt lat="48.16021" lon="6.80135">
        <ele>708.8</ele>
        <time>2024-11-18T14:31:08Z</time>
      </trkpt>
      <trkpt lat="48.16011" lon="6.80134">
        <ele>708.6</ele>
        <time>2024-11-18T14:31:14Z</time>
      </trkpt>
      <trkpt lat="48.16002" lon="6.80135">
        <ele>707.8</ele>
        <time>2024-11-18T14:31:19Z</time>
      </trkpt>
      <trkpt lat="48.15994" lon="6.80127">
        <ele>709</ele>
        <time>2024-11-18T14:31:26Z</time>
      </trkpt>
      <trkpt lat="48.15989" lon="6.80114">
        <ele>709.7</ele>
        <time>2024-11-18T14:31:33Z</time>
      </trkpt>
      <trkpt lat="48.15983" lon="6.80103">
        <ele>711</ele>
        <time>2024-11-18T14:31:42Z</time>
      </trkpt>
      <trkpt lat="48.15975" lon="6.80095">
        <ele>711.3</ele>
        <time>2024-11-18T14:31:51Z</time>
      </trkpt>
      <trkpt lat="48.15966" lon="6.80093">
        <ele>710.5</ele>
        <time>2024-11-18T14:31:57Z</time>
      </trkpt>
      <trkpt lat="48.15956" lon="6.80088">
        <ele>710.6</ele>
        <time>2024-11-18T14:32:05Z</time>
      </trkpt>
      <trkpt lat="48.15948" lon="6.80081">
        <ele>710.4</ele>
        <time>2024-11-18T14:32:14Z</time>
      </trkpt>
      <trkpt lat="48.15942" lon="6.80071">
        <ele>711</ele>
        <time>2024-11-18T14:32:22Z</time>
      </trkpt>
      <trkpt lat="48.15936" lon="6.8006">
        <ele>711</ele>
        <time>2024-11-18T14:32:32Z</time>
      </trkpt>
      <trkpt lat="48.15932" lon="6.80046">
        <ele>712.3</ele>
        <time>2024-11-18T14:32:39Z</time>
      </trkpt>
      <trkpt lat="48.15924" lon="6.80036">
        <ele>712.6</ele>
        <time>2024-11-18T14:32:46Z</time>
      </trkpt>
      <trkpt lat="48.15917" lon="6.80031">
        <ele>712.3</ele>
        <time>2024-11-18T14:33:02Z</time>
      </trkpt>
      <trkpt lat="48.15917" lon="6.80031">
        <ele>712.3</ele>
        <time>2024-11-18T14:33:03Z</time>
      </trkpt>
      <trkpt lat="48.15917" lon="6.8003">
        <ele>712.3</ele>
        <time>2024-11-18T14:33:04Z</time>
      </trkpt>
      <trkpt lat="48.15917" lon="6.80029">
        <ele>712.3</ele>
        <time>2024-11-18T14:33:05Z</time>
      </trkpt>
      <trkpt lat="48.15914" lon="6.80025">
        <ele>712.3</ele>
        <time>2024-11-18T14:33:21Z</time>
      </trkpt>
      <trkpt lat="48.15914" lon="6.80025">
        <ele>712.3</ele>
        <time>2024-11-18T14:33:22Z</time>
      </trkpt>
      <trkpt lat="48.15914" lon="6.80025">
        <ele>712.3</ele>
        <time>2024-11-18T14:33:23Z</time>
      </trkpt>
      <trkpt lat="48.15914" lon="6.80025">
        <ele>712.3</ele>
        <time>2024-11-18T14:33:54Z</time>
      </trkpt>
      <trkpt lat="48.15914" lon="6.80024">
        <ele>712.3</ele>
        <time>2024-11-18T14:33:55Z</time>
      </trkpt>
      <trkpt lat="48.15917" lon="6.80016">
        <ele>713.2</ele>
        <time>2024-11-18T14:34:06Z</time>
      </trkpt>
      <trkpt lat="48.15917" lon="6.80016">
        <ele>713.2</ele>
        <time>2024-11-18T14:34:07Z</time>
      </trkpt>
      <trkpt lat="48.15918" lon="6.80011">
        <ele>713.5</ele>
        <time>2024-11-18T14:34:11Z</time>
      </trkpt>
      <trkpt lat="48.15918" lon="6.8001">
        <ele>713.6</ele>
        <time>2024-11-18T14:34:12Z</time>
      </trkpt>
      <trkpt lat="48.15918" lon="6.80008">
        <ele>713.6</ele>
        <time>2024-11-18T14:34:13Z</time>
      </trkpt>
      <trkpt lat="48.1592" lon="6.79994">
        <ele>714.4</ele>
        <time>2024-11-18T14:34:22Z</time>
      </trkpt>
      <trkpt lat="48.15921" lon="6.79979">
        <ele>714.9</ele>
        <time>2024-11-18T14:34:30Z</time>
      </trkpt>
      <trkpt lat="48.15923" lon="6.79964">
        <ele>716</ele>
        <time>2024-11-18T14:34:37Z</time>
      </trkpt>
      <trkpt lat="48.15921" lon="6.79949">
        <ele>715.5</ele>
        <time>2024-11-18T14:34:45Z</time>
      </trkpt>
      <trkpt lat="48.15923" lon="6.79934">
        <ele>716.3</ele>
        <time>2024-11-18T14:34:53Z</time>
      </trkpt>
      <trkpt lat="48.15924" lon="6.79919">
        <ele>716.5</ele>
        <time>2024-11-18T14:35:01Z</time>
      </trkpt>
      <trkpt lat="48.15925" lon="6.79904">
        <ele>717.8</ele>
        <time>2024-11-18T14:35:09Z</time>
      </trkpt>
      <trkpt lat="48.15925" lon="6.79889">
        <ele>718.7</ele>
        <time>2024-11-18T14:35:17Z</time>
      </trkpt>
      <trkpt lat="48.15926" lon="6.79876">
        <ele>719.4</ele>
        <time>2024-11-18T14:35:25Z</time>
      </trkpt>
      <trkpt lat="48.1593" lon="6.79863">
        <ele>720.6</ele>
        <time>2024-11-18T14:35:33Z</time>
      </trkpt>
      <trkpt lat="48.1593" lon="6.79862">
        <ele>720.5</ele>
        <time>2024-11-18T14:35:36Z</time>
      </trkpt>
      <trkpt lat="48.1593" lon="6.79861">
        <ele>720.5</ele>
        <time>2024-11-18T14:35:37Z</time>
      </trkpt>
      <trkpt lat="48.1593" lon="6.7986">
        <ele>721.4</ele>
        <time>2024-11-18T14:35:38Z</time>
      </trkpt>
      <trkpt lat="48.15931" lon="6.79859">
        <ele>721.4</ele>
        <time>2024-11-18T14:35:39Z</time>
      </trkpt>
      <trkpt lat="48.15931" lon="6.79858">
        <ele>721.4</ele>
        <time>2024-11-18T14:35:40Z</time>
      </trkpt>
      <trkpt lat="48.15931" lon="6.79843">
        <ele>721.4</ele>
        <time>2024-11-18T14:35:49Z</time>
      </trkpt>
      <trkpt lat="48.15934" lon="6.7983">
        <ele>721.9</ele>
        <time>2024-11-18T14:35:55Z</time>
      </trkpt>
      <trkpt lat="48.15935" lon="6.79815">
        <ele>721.4</ele>
        <time>2024-11-18T14:36:03Z</time>
      </trkpt>
      <trkpt lat="48.15936" lon="6.79802">
        <ele>721.4</ele>
        <time>2024-11-18T14:36:13Z</time>
      </trkpt>
      <trkpt lat="48.15937" lon="6.79788">
        <ele>720.9</ele>
        <time>2024-11-18T14:36:21Z</time>
      </trkpt>
      <trkpt lat="48.15937" lon="6.79774">
        <ele>720.2</ele>
        <time>2024-11-18T14:36:28Z</time>
      </trkpt>
      <trkpt lat="48.15939" lon="6.79761">
        <ele>720.2</ele>
        <time>2024-11-18T14:36:34Z</time>
      </trkpt>
      <trkpt lat="48.15942" lon="6.79746">
        <ele>719.9</ele>
        <time>2024-11-18T14:36:42Z</time>
      </trkpt>
      <trkpt lat="48.15946" lon="6.79732">
        <ele>719.1</ele>
        <time>2024-11-18T14:36:49Z</time>
      </trkpt>
      <trkpt lat="48.15951" lon="6.79721">
        <ele>717.9</ele>
        <time>2024-11-18T14:36:56Z</time>
      </trkpt>
      <trkpt lat="48.15954" lon="6.79707">
        <ele>716.5</ele>
        <time>2024-11-18T14:37:04Z</time>
      </trkpt>
      <trkpt lat="48.1596" lon="6.79697">
        <ele>715.5</ele>
        <time>2024-11-18T14:37:12Z</time>
      </trkpt>
      <trkpt lat="48.15962" lon="6.79684">
        <ele>714.5</ele>
        <time>2024-11-18T14:37:22Z</time>
      </trkpt>
      <trkpt lat="48.15965" lon="6.7967">
        <ele>713.5</ele>
        <time>2024-11-18T14:37:31Z</time>
      </trkpt>
      <trkpt lat="48.15971" lon="6.7966">
        <ele>712.8</ele>
        <time>2024-11-18T14:37:39Z</time>
      </trkpt>
      <trkpt lat="48.15972" lon="6.7966">
        <ele>712.8</ele>
        <time>2024-11-18T14:37:41Z</time>
      </trkpt>
      <trkpt lat="48.15972" lon="6.7966">
        <ele>712.8</ele>
        <time>2024-11-18T14:37:42Z</time>
      </trkpt>
      <trkpt lat="48.15972" lon="6.7966">
        <ele>712.8</ele>
        <time>2024-11-18T14:37:43Z</time>
      </trkpt>
      <trkpt lat="48.15974" lon="6.79662">
        <ele>712.7</ele>
        <time>2024-11-18T14:37:48Z</time>
      </trkpt>
      <trkpt lat="48.15974" lon="6.79662">
        <ele>712.7</ele>
        <time>2024-11-18T14:37:49Z</time>
      </trkpt>
      <trkpt lat="48.15974" lon="6.79662">
        <ele>712.7</ele>
        <time>2024-11-18T14:37:50Z</time>
      </trkpt>
      <trkpt lat="48.15976" lon="6.79662">
        <ele>712.6</ele>
        <time>2024-11-18T14:37:57Z</time>
      </trkpt>
      <trkpt lat="48.15976" lon="6.79662">
        <ele>712.6</ele>
        <time>2024-11-18T14:37:58Z</time>
      </trkpt>
      <trkpt lat="48.15978" lon="6.79661">
        <ele>712.6</ele>
        <time>2024-11-18T14:38:02Z</time>
      </trkpt>
      <trkpt lat="48.15977" lon="6.7966">
        <ele>712.6</ele>
        <time>2024-11-18T14:38:03Z</time>
      </trkpt>
      <trkpt lat="48.15981" lon="6.79647">
        <ele>711.4</ele>
        <time>2024-11-18T14:38:28Z</time>
      </trkpt>
      <trkpt lat="48.15986" lon="6.79635">
        <ele>709.6</ele>
        <time>2024-11-18T14:38:37Z</time>
      </trkpt>
      <trkpt lat="48.1599" lon="6.79621">
        <ele>707.8</ele>
        <time>2024-11-18T14:38:50Z</time>
      </trkpt>
      <trkpt lat="48.15994" lon="6.79608">
        <ele>706</ele>
        <time>2024-11-18T14:39:01Z</time>
      </trkpt>
      <trkpt lat="48.15995" lon="6.79605">
        <ele>705.5</ele>
        <time>2024-11-18T14:39:06Z</time>
      </trkpt>
      <trkpt lat="48.15995" lon="6.79605">
        <ele>705.5</ele>
        <time>2024-11-18T14:39:07Z</time>
      </trkpt>
      <trkpt lat="48.15995" lon="6.79605">
        <ele>705.5</ele>
        <time>2024-11-18T14:39:08Z</time>
      </trkpt>
      <trkpt lat="48.15996" lon="6.79603">
        <ele>704.6</ele>
        <time>2024-11-18T14:39:16Z</time>
      </trkpt>
      <trkpt lat="48.15997" lon="6.79603">
        <ele>704.6</ele>
        <time>2024-11-18T14:39:17Z</time>
      </trkpt>
      <trkpt lat="48.16004" lon="6.79591">
        <ele>702.6</ele>
        <time>2024-11-18T14:39:27Z</time>
      </trkpt>
      <trkpt lat="48.16007" lon="6.79579">
        <ele>700.8</ele>
        <time>2024-11-18T14:39:36Z</time>
      </trkpt>
      <trkpt lat="48.16007" lon="6.79565">
        <ele>699.7</ele>
        <time>2024-11-18T14:39:45Z</time>
      </trkpt>
      <trkpt lat="48.16006" lon="6.79551">
        <ele>697.9</ele>
        <time>2024-11-18T14:39:55Z</time>
      </trkpt>
      <trkpt lat="48.16011" lon="6.79537">
        <ele>695.9</ele>
        <time>2024-11-18T14:40:02Z</time>
      </trkpt>
      <trkpt lat="48.16011" lon="6.79523">
        <ele>694.8</ele>
        <time>2024-11-18T14:40:11Z</time>
      </trkpt>
      <trkpt lat="48.16011" lon="6.79509">
        <ele>693.3</ele>
        <time>2024-11-18T14:40:20Z</time>
      </trkpt>
      <trkpt lat="48.16011" lon="6.79494">
        <ele>691</ele>
        <time>2024-11-18T14:40:29Z</time>
      </trkpt>
      <trkpt lat="48.16013" lon="6.79481">
        <ele>688.9</ele>
        <time>2024-11-18T14:40:38Z</time>
      </trkpt>
      <trkpt lat="48.16011" lon="6.79466">
        <ele>686.3</ele>
        <time>2024-11-18T14:40:48Z</time>
      </trkpt>
      <trkpt lat="48.16008" lon="6.79453">
        <ele>683.4</ele>
        <time>2024-11-18T14:40:57Z</time>
      </trkpt>
      <trkpt lat="48.16005" lon="6.7944">
        <ele>682</ele>
        <time>2024-11-18T14:41:08Z</time>
      </trkpt>
      <trkpt lat="48.16004" lon="6.79426">
        <ele>679.8</ele>
        <time>2024-11-18T14:41:18Z</time>
      </trkpt>
      <trkpt lat="48.16004" lon="6.79412">
        <ele>677.3</ele>
        <time>2024-11-18T14:41:25Z</time>
      </trkpt>
      <trkpt lat="48.16004" lon="6.79397">
        <ele>675</ele>
        <time>2024-11-18T14:41:35Z</time>
      </trkpt>
      <trkpt lat="48.16" lon="6.79385">
        <ele>674.6</ele>
        <time>2024-11-18T14:41:42Z</time>
      </trkpt>
      <trkpt lat="48.16002" lon="6.79371">
        <ele>672</ele>
        <time>2024-11-18T14:41:50Z</time>
      </trkpt>
      <trkpt lat="48.16" lon="6.79357">
        <ele>670.7</ele>
        <time>2024-11-18T14:41:59Z</time>
      </trkpt>
      <trkpt lat="48.16001" lon="6.79343">
        <ele>669</ele>
        <time>2024-11-18T14:42:13Z</time>
      </trkpt>
      <trkpt lat="48.16005" lon="6.79328">
        <ele>666.5</ele>
        <time>2024-11-18T14:42:22Z</time>
      </trkpt>
      <trkpt lat="48.16008" lon="6.79312">
        <ele>663.9</ele>
        <time>2024-11-18T14:42:29Z</time>
      </trkpt>
      <trkpt lat="48.16012" lon="6.793">
        <ele>661.7</ele>
        <time>2024-11-18T14:42:37Z</time>
      </trkpt>
      <trkpt lat="48.16014" lon="6.79285">
        <ele>658.8</ele>
        <time>2024-11-18T14:42:46Z</time>
      </trkpt>
      <trkpt lat="48.16015" lon="6.79271">
        <ele>657.2</ele>
        <time>2024-11-18T14:42:56Z</time>
      </trkpt>
      <trkpt lat="48.16022" lon="6.7926">
        <ele>655.4</ele>
        <time>2024-11-18T14:43:14Z</time>
      </trkpt>
      <trkpt lat="48.16026" lon="6.79247">
        <ele>652.8</ele>
        <time>2024-11-18T14:43:22Z</time>
      </trkpt>
      <trkpt lat="48.1603" lon="6.79235">
        <ele>650.8</ele>
        <time>2024-11-18T14:43:31Z</time>
      </trkpt>
      <trkpt lat="48.16037" lon="6.79222">
        <ele>648.4</ele>
        <time>2024-11-18T14:43:39Z</time>
      </trkpt>
      <trkpt lat="48.16041" lon="6.79209">
        <ele>647.1</ele>
        <time>2024-11-18T14:43:46Z</time>
      </trkpt>
      <trkpt lat="48.16049" lon="6.79201">
        <ele>644.9</ele>
        <time>2024-11-18T14:43:53Z</time>
      </trkpt>
      <trkpt lat="48.16053" lon="6.79187">
        <ele>643.2</ele>
        <time>2024-11-18T14:44:02Z</time>
      </trkpt>
      <trkpt lat="48.16057" lon="6.79175">
        <ele>642.4</ele>
        <time>2024-11-18T14:44:09Z</time>
      </trkpt>
      <trkpt lat="48.16063" lon="6.79164">
        <ele>641.4</ele>
        <time>2024-11-18T14:44:18Z</time>
      </trkpt>
      <trkpt lat="48.16071" lon="6.79157">
        <ele>640.4</ele>
        <time>2024-11-18T14:44:26Z</time>
      </trkpt>
      <trkpt lat="48.16076" lon="6.79144">
        <ele>639.6</ele>
        <time>2024-11-18T14:44:37Z</time>
      </trkpt>
      <trkpt lat="48.16082" lon="6.79131">
        <ele>638.8</ele>
        <time>2024-11-18T14:44:45Z</time>
      </trkpt>
      <trkpt lat="48.16083" lon="6.79116">
        <ele>637.8</ele>
        <time>2024-11-18T14:44:54Z</time>
      </trkpt>
      <trkpt lat="48.16089" lon="6.79105">
        <ele>636.6</ele>
        <time>2024-11-18T14:45:06Z</time>
      </trkpt>
      <trkpt lat="48.16098" lon="6.79098">
        <ele>635.2</ele>
        <time>2024-11-18T14:45:11Z</time>
      </trkpt>
      <trkpt lat="48.16104" lon="6.79087">
        <ele>634</ele>
        <time>2024-11-18T14:45:17Z</time>
      </trkpt>
      <trkpt lat="48.16109" lon="6.79072">
        <ele>632.7</ele>
        <time>2024-11-18T14:45:25Z</time>
      </trkpt>
      <trkpt lat="48.16116" lon="6.79063">
        <ele>631.3</ele>
        <time>2024-11-18T14:45:30Z</time>
      </trkpt>
      <trkpt lat="48.16121" lon="6.79051">
        <ele>629.5</ele>
        <time>2024-11-18T14:45:39Z</time>
      </trkpt>
      <trkpt lat="48.16129" lon="6.79042">
        <ele>627.4</ele>
        <time>2024-11-18T14:45:47Z</time>
      </trkpt>
      <trkpt lat="48.16136" lon="6.79035">
        <ele>625.8</ele>
        <time>2024-11-18T14:45:54Z</time>
      </trkpt>
      <trkpt lat="48.16143" lon="6.79025">
        <ele>623.6</ele>
        <time>2024-11-18T14:46:02Z</time>
      </trkpt>
      <trkpt lat="48.1614" lon="6.79038">
        <ele>623.2</ele>
        <time>2024-11-18T14:46:16Z</time>
      </trkpt>
      <trkpt lat="48.16138" lon="6.79051">
        <ele>622.6</ele>
        <time>2024-11-18T14:46:22Z</time>
      </trkpt>
      <trkpt lat="48.16135" lon="6.79064">
        <ele>622.1</ele>
        <time>2024-11-18T14:46:28Z</time>
      </trkpt>
      <trkpt lat="48.16134" lon="6.79079">
        <ele>621.5</ele>
        <time>2024-11-18T14:46:35Z</time>
      </trkpt>
      <trkpt lat="48.16137" lon="6.79093">
        <ele>620.9</ele>
        <time>2024-11-18T14:46:42Z</time>
      </trkpt>
      <trkpt lat="48.16141" lon="6.79105">
        <ele>620.3</ele>
        <time>2024-11-18T14:46:51Z</time>
      </trkpt>
      <trkpt lat="48.16146" lon="6.79117">
        <ele>619.8</ele>
        <time>2024-11-18T14:46:59Z</time>
      </trkpt>
      <trkpt lat="48.1615" lon="6.79129">
        <ele>619.3</ele>
        <time>2024-11-18T14:47:07Z</time>
      </trkpt>
      <trkpt lat="48.16153" lon="6.79139">
        <ele>618.9</ele>
        <time>2024-11-18T14:47:19Z</time>
      </trkpt>
      <trkpt lat="48.16153" lon="6.79139">
        <ele>618.9</ele>
        <time>2024-11-18T14:47:20Z</time>
      </trkpt>
      <trkpt lat="48.16154" lon="6.79139">
        <ele>618.8</ele>
        <time>2024-11-18T14:47:39Z</time>
      </trkpt>
      <trkpt lat="48.16154" lon="6.79141">
        <ele>618.8</ele>
        <time>2024-11-18T14:47:40Z</time>
      </trkpt>
      <trkpt lat="48.16157" lon="6.79154">
        <ele>618.3</ele>
        <time>2024-11-18T14:47:49Z</time>
      </trkpt>
      <trkpt lat="48.16159" lon="6.79169">
        <ele>617.9</ele>
        <time>2024-11-18T14:48:02Z</time>
      </trkpt>
      <trkpt lat="48.16163" lon="6.79181">
        <ele>618.1</ele>
        <time>2024-11-18T14:48:11Z</time>
      </trkpt>
      <trkpt lat="48.16172" lon="6.79184">
        <ele>618.6</ele>
        <time>2024-11-18T14:48:17Z</time>
      </trkpt>
      <trkpt lat="48.16182" lon="6.79186">
        <ele>619.1</ele>
        <time>2024-11-18T14:48:24Z</time>
      </trkpt>
      <trkpt lat="48.16192" lon="6.79183">
        <ele>619.6</ele>
        <time>2024-11-18T14:48:32Z</time>
      </trkpt>
      <trkpt lat="48.16201" lon="6.79188">
        <ele>619.9</ele>
        <time>2024-11-18T14:48:47Z</time>
      </trkpt>
      <trkpt lat="48.16211" lon="6.7919">
        <ele>620.3</ele>
        <time>2024-11-18T14:48:55Z</time>
      </trkpt>
      <trkpt lat="48.1622" lon="6.79189">
        <ele>620.6</ele>
        <time>2024-11-18T14:49:07Z</time>
      </trkpt>
      <trkpt lat="48.16229" lon="6.79189">
        <ele>620.9</ele>
        <time>2024-11-18T14:49:15Z</time>
      </trkpt>
      <trkpt lat="48.1623" lon="6.7919">
        <ele>620.9</ele>
        <time>2024-11-18T14:49:21Z</time>
      </trkpt>
      <trkpt lat="48.1623" lon="6.7919">
        <ele>620.9</ele>
        <time>2024-11-18T14:49:22Z</time>
      </trkpt>
      <trkpt lat="48.1623" lon="6.7919">
        <ele>620.9</ele>
        <time>2024-11-18T14:49:23Z</time>
      </trkpt>
      <trkpt lat="48.16232" lon="6.79189">
        <ele>621</ele>
        <time>2024-11-18T14:51:24Z</time>
      </trkpt>
      <trkpt lat="48.16233" lon="6.79189">
        <ele>621</ele>
        <time>2024-11-18T14:51:25Z</time>
      </trkpt>
      <trkpt lat="48.16242" lon="6.7919">
        <ele>621.3</ele>
        <time>2024-11-18T14:51:34Z</time>
      </trkpt>
      <trkpt lat="48.16251" lon="6.79194">
        <ele>621.5</ele>
        <time>2024-11-18T14:51:43Z</time>
      </trkpt>
      <trkpt lat="48.16262" lon="6.79192">
        <ele>621.8</ele>
        <time>2024-11-18T14:51:51Z</time>
      </trkpt>
      <trkpt lat="48.16272" lon="6.79194">
        <ele>622.2</ele>
        <time>2024-11-18T14:51:59Z</time>
      </trkpt>
      <trkpt lat="48.1628" lon="6.79199">
        <ele>622.5</ele>
        <time>2024-11-18T14:52:08Z</time>
      </trkpt>
      <trkpt lat="48.1629" lon="6.79202">
        <ele>622.8</ele>
        <time>2024-11-18T14:52:17Z</time>
      </trkpt>
      <trkpt lat="48.16299" lon="6.79202">
        <ele>623.2</ele>
        <time>2024-11-18T14:52:24Z</time>
      </trkpt>
      <trkpt lat="48.16311" lon="6.79202">
        <ele>623.5</ele>
        <time>2024-11-18T14:52:31Z</time>
      </trkpt>
      <trkpt lat="48.1632" lon="6.79202">
        <ele>623.8</ele>
        <time>2024-11-18T14:52:38Z</time>
      </trkpt>
      <trkpt lat="48.1633" lon="6.79202">
        <ele>624</ele>
        <time>2024-11-18T14:52:49Z</time>
      </trkpt>
      <trkpt lat="48.1634" lon="6.792">
        <ele>624.2</ele>
        <time>2024-11-18T14:52:56Z</time>
      </trkpt>
      <trkpt lat="48.16349" lon="6.79199">
        <ele>624.4</ele>
        <time>2024-11-18T14:53:02Z</time>
      </trkpt>
      <trkpt lat="48.16358" lon="6.79198">
        <ele>624.6</ele>
        <time>2024-11-18T14:53:10Z</time>
      </trkpt>
      <trkpt lat="48.16367" lon="6.79192">
        <ele>624.8</ele>
        <time>2024-11-18T14:53:16Z</time>
      </trkpt>
      <trkpt lat="48.16376" lon="6.79191">
        <ele>625</ele>
        <time>2024-11-18T14:53:23Z</time>
      </trkpt>
      <trkpt lat="48.16386" lon="6.79189">
        <ele>625.2</ele>
        <time>2024-11-18T14:53:33Z</time>
      </trkpt>
      <trkpt lat="48.16397" lon="6.79187">
        <ele>625.4</ele>
        <time>2024-11-18T14:53:39Z</time>
      </trkpt>
      <trkpt lat="48.16406" lon="6.79184">
        <ele>625.6</ele>
        <time>2024-11-18T14:53:48Z</time>
      </trkpt>
      <trkpt lat="48.16416" lon="6.79182">
        <ele>625.7</ele>
        <time>2024-11-18T14:53:57Z</time>
      </trkpt>
      <trkpt lat="48.16425" lon="6.79179">
        <ele>625.9</ele>
        <time>2024-11-18T14:54:03Z</time>
      </trkpt>
      <trkpt lat="48.16434" lon="6.79178">
        <ele>626</ele>
        <time>2024-11-18T14:54:12Z</time>
      </trkpt>
      <trkpt lat="48.16444" lon="6.79177">
        <ele>626.1</ele>
        <time>2024-11-18T14:54:19Z</time>
      </trkpt>
      <trkpt lat="48.16453" lon="6.79175">
        <ele>626.3</ele>
        <time>2024-11-18T14:54:27Z</time>
      </trkpt>
      <trkpt lat="48.16462" lon="6.79172">
        <ele>626.4</ele>
        <time>2024-11-18T14:54:36Z</time>
      </trkpt>
      <trkpt lat="48.16472" lon="6.79173">
        <ele>626.6</ele>
        <time>2024-11-18T14:54:48Z</time>
      </trkpt>
      <trkpt lat="48.16481" lon="6.79166">
        <ele>626.7</ele>
        <time>2024-11-18T14:54:55Z</time>
      </trkpt>
      <trkpt lat="48.16489" lon="6.79161">
        <ele>626.8</ele>
        <time>2024-11-18T14:55:02Z</time>
      </trkpt>
      <trkpt lat="48.16499" lon="6.7916">
        <ele>626.8</ele>
        <time>2024-11-18T14:55:07Z</time>
      </trkpt>
      <trkpt lat="48.16509" lon="6.79158">
        <ele>626.9</ele>
        <time>2024-11-18T14:55:15Z</time>
      </trkpt>
      <trkpt lat="48.16518" lon="6.79152">
        <ele>627</ele>
        <time>2024-11-18T14:55:22Z</time>
      </trkpt>
      <trkpt lat="48.16527" lon="6.79148">
        <ele>627.1</ele>
        <time>2024-11-18T14:55:28Z</time>
      </trkpt>
      <trkpt lat="48.16537" lon="6.79144">
        <ele>627.3</ele>
        <time>2024-11-18T14:55:34Z</time>
      </trkpt>
      <trkpt lat="48.16546" lon="6.79138">
        <ele>627.4</ele>
        <time>2024-11-18T14:55:44Z</time>
      </trkpt>
      <trkpt lat="48.16555" lon="6.79131">
        <ele>627.4</ele>
        <time>2024-11-18T14:55:50Z</time>
      </trkpt>
      <trkpt lat="48.16563" lon="6.79125">
        <ele>627.5</ele>
        <time>2024-11-18T14:55:56Z</time>
      </trkpt>
      <trkpt lat="48.16571" lon="6.79119">
        <ele>627.6</ele>
        <time>2024-11-18T14:56:03Z</time>
      </trkpt>
      <trkpt lat="48.16579" lon="6.79113">
        <ele>627.7</ele>
        <time>2024-11-18T14:56:10Z</time>
      </trkpt>
      <trkpt lat="48.16587" lon="6.79105">
        <ele>627.8</ele>
        <time>2024-11-18T14:56:18Z</time>
      </trkpt>
      <trkpt lat="48.16595" lon="6.79098">
        <ele>628</ele>
        <time>2024-11-18T14:56:28Z</time>
      </trkpt>
      <trkpt lat="48.16604" lon="6.79091">
        <ele>628.2</ele>
        <time>2024-11-18T14:56:37Z</time>
      </trkpt>
      <trkpt lat="48.16613" lon="6.79086">
        <ele>628.3</ele>
        <time>2024-11-18T14:56:47Z</time>
      </trkpt>
      <trkpt lat="48.16621" lon="6.79077">
        <ele>628.3</ele>
        <time>2024-11-18T14:56:55Z</time>
      </trkpt>
      <trkpt lat="48.1663" lon="6.79072">
        <ele>628.3</ele>
        <time>2024-11-18T14:57:01Z</time>
      </trkpt>
      <trkpt lat="48.16637" lon="6.79064">
        <ele>628.3</ele>
        <time>2024-11-18T14:57:09Z</time>
      </trkpt>
      <trkpt lat="48.16646" lon="6.79059">
        <ele>628.4</ele>
        <time>2024-11-18T14:57:19Z</time>
      </trkpt>
      <trkpt lat="48.16656" lon="6.79054">
        <ele>628.4</ele>
        <time>2024-11-18T14:57:28Z</time>
      </trkpt>
      <trkpt lat="48.16664" lon="6.79049">
        <ele>628.5</ele>
        <time>2024-11-18T14:57:34Z</time>
      </trkpt>
      <trkpt lat="48.16673" lon="6.79042">
        <ele>628.6</ele>
        <time>2024-11-18T14:57:41Z</time>
      </trkpt>
      <trkpt lat="48.16682" lon="6.79036">
        <ele>628.6</ele>
        <time>2024-11-18T14:57:48Z</time>
      </trkpt>
      <trkpt lat="48.16691" lon="6.7903">
        <ele>628.6</ele>
        <time>2024-11-18T14:57:56Z</time>
      </trkpt>
      <trkpt lat="48.167" lon="6.79023">
        <ele>628.6</ele>
        <time>2024-11-18T14:58:02Z</time>
      </trkpt>
      <trkpt lat="48.16708" lon="6.79015">
        <ele>628.7</ele>
        <time>2024-11-18T14:58:10Z</time>
      </trkpt>
      <trkpt lat="48.16717" lon="6.79008">
        <ele>628.7</ele>
        <time>2024-11-18T14:58:19Z</time>
      </trkpt>
      <trkpt lat="48.16726" lon="6.79002">
        <ele>628.8</ele>
        <time>2024-11-18T14:58:28Z</time>
      </trkpt>
      <trkpt lat="48.16735" lon="6.78997">
        <ele>628.8</ele>
        <time>2024-11-18T14:58:33Z</time>
      </trkpt>
      <trkpt lat="48.16743" lon="6.7899">
        <ele>628.9</ele>
        <time>2024-11-18T14:58:41Z</time>
      </trkpt>
      <trkpt lat="48.16751" lon="6.78982">
        <ele>629</ele>
        <time>2024-11-18T14:58:51Z</time>
      </trkpt>
      <trkpt lat="48.1676" lon="6.78977">
        <ele>629.1</ele>
        <time>2024-11-18T14:59:02Z</time>
      </trkpt>
      <trkpt lat="48.16768" lon="6.7897">
        <ele>629.1</ele>
        <time>2024-11-18T14:59:09Z</time>
      </trkpt>
      <trkpt lat="48.16777" lon="6.78965">
        <ele>629.2</ele>
        <time>2024-11-18T14:59:17Z</time>
      </trkpt>
      <trkpt lat="48.16786" lon="6.7896">
        <ele>629.3</ele>
        <time>2024-11-18T14:59:27Z</time>
      </trkpt>
      <trkpt lat="48.16796" lon="6.78955">
        <ele>629.3</ele>
        <time>2024-11-18T14:59:33Z</time>
      </trkpt>
      <trkpt lat="48.16806" lon="6.78951">
        <ele>629.3</ele>
        <time>2024-11-18T14:59:40Z</time>
      </trkpt>
      <trkpt lat="48.16816" lon="6.78949">
        <ele>629.3</ele>
        <time>2024-11-18T14:59:48Z</time>
      </trkpt>
      <trkpt lat="48.16826" lon="6.78948">
        <ele>629.2</ele>
        <time>2024-11-18T14:59:57Z</time>
      </trkpt>
      <trkpt lat="48.16836" lon="6.78948">
        <ele>629.3</ele>
        <time>2024-11-18T15:00:08Z</time>
      </trkpt>
      <trkpt lat="48.16846" lon="6.78948">
        <ele>629.3</ele>
        <time>2024-11-18T15:00:15Z</time>
      </trkpt>
      <trkpt lat="48.16855" lon="6.78947">
        <ele>629.3</ele>
        <time>2024-11-18T15:00:21Z</time>
      </trkpt>
      <trkpt lat="48.16865" lon="6.78946">
        <ele>629.3</ele>
        <time>2024-11-18T15:00:28Z</time>
      </trkpt>
      <trkpt lat="48.16874" lon="6.78948">
        <ele>629.4</ele>
        <time>2024-11-18T15:00:35Z</time>
      </trkpt>
      <trkpt lat="48.16883" lon="6.78949">
        <ele>629.4</ele>
        <time>2024-11-18T15:00:42Z</time>
      </trkpt>
      <trkpt lat="48.16893" lon="6.7895">
        <ele>629.4</ele>
        <time>2024-11-18T15:00:49Z</time>
      </trkpt>
      <trkpt lat="48.16903" lon="6.7895">
        <ele>629.5</ele>
        <time>2024-11-18T15:00:56Z</time>
      </trkpt>
      <trkpt lat="48.16912" lon="6.7895">
        <ele>629.5</ele>
        <time>2024-11-18T15:01:03Z</time>
      </trkpt>
      <trkpt lat="48.16921" lon="6.78952">
        <ele>629.6</ele>
        <time>2024-11-18T15:01:10Z</time>
      </trkpt>
      <trkpt lat="48.16931" lon="6.78953">
        <ele>629.6</ele>
        <time>2024-11-18T15:01:18Z</time>
      </trkpt>
      <trkpt lat="48.1694" lon="6.78952">
        <ele>629.7</ele>
        <time>2024-11-18T15:01:30Z</time>
      </trkpt>
      <trkpt lat="48.16949" lon="6.78951">
        <ele>629.7</ele>
        <time>2024-11-18T15:01:37Z</time>
      </trkpt>
      <trkpt lat="48.16958" lon="6.7895">
        <ele>629.8</ele>
        <time>2024-11-18T15:01:45Z</time>
      </trkpt>
      <trkpt lat="48.16968" lon="6.78949">
        <ele>629.8</ele>
        <time>2024-11-18T15:01:53Z</time>
      </trkpt>
      <trkpt lat="48.16977" lon="6.78949">
        <ele>629.8</ele>
        <time>2024-11-18T15:02:01Z</time>
      </trkpt>
      <trkpt lat="48.16986" lon="6.78949">
        <ele>629.8</ele>
        <time>2024-11-18T15:02:09Z</time>
      </trkpt>
      <trkpt lat="48.16996" lon="6.78951">
        <ele>629.7</ele>
        <time>2024-11-18T15:02:17Z</time>
      </trkpt>
      <trkpt lat="48.17006" lon="6.78952">
        <ele>629.7</ele>
        <time>2024-11-18T15:02:25Z</time>
      </trkpt>
      <trkpt lat="48.17016" lon="6.78954">
        <ele>629.7</ele>
        <time>2024-11-18T15:02:33Z</time>
      </trkpt>
      <trkpt lat="48.17025" lon="6.78954">
        <ele>629.7</ele>
        <time>2024-11-18T15:02:40Z</time>
      </trkpt>
      <trkpt lat="48.17035" lon="6.78954">
        <ele>629.7</ele>
        <time>2024-11-18T15:02:48Z</time>
      </trkpt>
      <trkpt lat="48.17044" lon="6.78954">
        <ele>629.7</ele>
        <time>2024-11-18T15:02:56Z</time>
      </trkpt>
      <trkpt lat="48.17054" lon="6.78954">
        <ele>629.7</ele>
        <time>2024-11-18T15:03:04Z</time>
      </trkpt>
      <trkpt lat="48.17063" lon="6.78952">
        <ele>629.6</ele>
        <time>2024-11-18T15:03:11Z</time>
      </trkpt>
      <trkpt lat="48.17073" lon="6.78951">
        <ele>629.6</ele>
        <time>2024-11-18T15:03:21Z</time>
      </trkpt>
      <trkpt lat="48.17082" lon="6.78949">
        <ele>629.6</ele>
        <time>2024-11-18T15:03:28Z</time>
      </trkpt>
      <trkpt lat="48.17091" lon="6.78945">
        <ele>629.6</ele>
        <time>2024-11-18T15:03:34Z</time>
      </trkpt>
      <trkpt lat="48.17101" lon="6.78942">
        <ele>629.6</ele>
        <time>2024-11-18T15:03:41Z</time>
      </trkpt>
      <trkpt lat="48.1711" lon="6.78938">
        <ele>629.6</ele>
        <time>2024-11-18T15:03:49Z</time>
      </trkpt>
      <trkpt lat="48.17113" lon="6.78937">
        <ele>629.6</ele>
        <time>2024-11-18T15:03:57Z</time>
      </trkpt>
      <trkpt lat="48.17113" lon="6.78937">
        <ele>629.6</ele>
        <time>2024-11-18T15:03:58Z</time>
      </trkpt>
      <trkpt lat="48.17113" lon="6.78937">
        <ele>629.6</ele>
        <time>2024-11-18T15:04:06Z</time>
      </trkpt>
      <trkpt lat="48.17113" lon="6.78936">
        <ele>629.6</ele>
        <time>2024-11-18T15:04:07Z</time>
      </trkpt>
      <trkpt lat="48.17114" lon="6.78936">
        <ele>629.6</ele>
        <time>2024-11-18T15:04:08Z</time>
      </trkpt>
      <trkpt lat="48.17114" lon="6.78936">
        <ele>629.6</ele>
        <time>2024-11-18T15:04:09Z</time>
      </trkpt>
      <trkpt lat="48.17124" lon="6.78934">
        <ele>629.5</ele>
        <time>2024-11-18T15:04:18Z</time>
      </trkpt>
      <trkpt lat="48.17132" lon="6.78927">
        <ele>629.3</ele>
        <time>2024-11-18T15:04:26Z</time>
      </trkpt>
      <trkpt lat="48.17141" lon="6.78924">
        <ele>629</ele>
        <time>2024-11-18T15:04:34Z</time>
      </trkpt>
      <trkpt lat="48.1715" lon="6.78919">
        <ele>628.7</ele>
        <time>2024-11-18T15:04:42Z</time>
      </trkpt>
      <trkpt lat="48.1716" lon="6.78914">
        <ele>628.3</ele>
        <time>2024-11-18T15:04:50Z</time>
      </trkpt>
      <trkpt lat="48.17168" lon="6.78906">
        <ele>627.8</ele>
        <time>2024-11-18T15:04:58Z</time>
      </trkpt>
      <trkpt lat="48.17176" lon="6.78901">
        <ele>627.3</ele>
        <time>2024-11-18T15:05:06Z</time>
      </trkpt>
      <trkpt lat="48.17185" lon="6.78894">
        <ele>626.9</ele>
        <time>2024-11-18T15:05:14Z</time>
      </trkpt>
      <trkpt lat="48.17194" lon="6.78889">
        <ele>626.4</ele>
        <time>2024-11-18T15:05:22Z</time>
      </trkpt>
      <trkpt lat="48.17203" lon="6.78882">
        <ele>626</ele>
        <time>2024-11-18T15:05:30Z</time>
      </trkpt>
      <trkpt lat="48.17211" lon="6.78877">
        <ele>625.6</ele>
        <time>2024-11-18T15:05:38Z</time>
      </trkpt>
      <trkpt lat="48.17221" lon="6.78872">
        <ele>625.2</ele>
        <time>2024-11-18T15:05:46Z</time>
      </trkpt>
      <trkpt lat="48.17229" lon="6.78865">
        <ele>625</ele>
        <time>2024-11-18T15:05:54Z</time>
      </trkpt>
      <trkpt lat="48.17235" lon="6.78854">
        <ele>624.7</ele>
        <time>2024-11-18T15:06:01Z</time>
      </trkpt>
      <trkpt lat="48.17242" lon="6.78845">
        <ele>624.6</ele>
        <time>2024-11-18T15:06:08Z</time>
      </trkpt>
      <trkpt lat="48.17251" lon="6.78839">
        <ele>624.8</ele>
        <time>2024-11-18T15:06:16Z</time>
      </trkpt>
      <trkpt lat="48.1726" lon="6.78831">
        <ele>625.6</ele>
        <time>2024-11-18T15:06:24Z</time>
      </trkpt>
      <trkpt lat="48.17268" lon="6.78825">
        <ele>626.5</ele>
        <time>2024-11-18T15:06:31Z</time>
      </trkpt>
      <trkpt lat="48.17277" lon="6.78818">
        <ele>627.9</ele>
        <time>2024-11-18T15:06:39Z</time>
      </trkpt>
      <trkpt lat="48.17285" lon="6.78811">
        <ele>629.3</ele>
        <time>2024-11-18T15:06:46Z</time>
      </trkpt>
      <trkpt lat="48.17293" lon="6.78805">
        <ele>630.7</ele>
        <time>2024-11-18T15:06:53Z</time>
      </trkpt>
      <trkpt lat="48.17301" lon="6.78799">
        <ele>632.1</ele>
        <time>2024-11-18T15:07:00Z</time>
      </trkpt>
      <trkpt lat="48.1731" lon="6.78792">
        <ele>634.3</ele>
        <time>2024-11-18T15:07:08Z</time>
      </trkpt>
      <trkpt lat="48.17319" lon="6.78785">
        <ele>636.3</ele>
        <time>2024-11-18T15:07:16Z</time>
      </trkpt>
      <trkpt lat="48.17326" lon="6.78777">
        <ele>637.3</ele>
        <time>2024-11-18T15:07:23Z</time>
      </trkpt>
      <trkpt lat="48.17335" lon="6.78768">
        <ele>639.5</ele>
        <time>2024-11-18T15:07:31Z</time>
      </trkpt>
      <trkpt lat="48.17341" lon="6.78758">
        <ele>641.1</ele>
        <time>2024-11-18T15:07:38Z</time>
      </trkpt>
      <trkpt lat="48.17347" lon="6.78747">
        <ele>644.4</ele>
        <time>2024-11-18T15:07:45Z</time>
      </trkpt>
      <trkpt lat="48.17354" lon="6.78736">
        <ele>646.4</ele>
        <time>2024-11-18T15:07:50Z</time>
      </trkpt>
      <trkpt lat="48.17362" lon="6.78728">
        <ele>649.9</ele>
        <time>2024-11-18T15:07:57Z</time>
      </trkpt>
      <trkpt lat="48.17368" lon="6.78717">
        <ele>652.1</ele>
        <time>2024-11-18T15:08:06Z</time>
      </trkpt>
      <trkpt lat="48.17372" lon="6.78704">
        <ele>652.9</ele>
        <time>2024-11-18T15:08:18Z</time>
      </trkpt>
      <trkpt lat="48.17377" lon="6.78692">
        <ele>654.5</ele>
        <time>2024-11-18T15:08:27Z</time>
      </trkpt>
      <trkpt lat="48.17382" lon="6.78679">
        <ele>656.2</ele>
        <time>2024-11-18T15:08:36Z</time>
      </trkpt>
      <trkpt lat="48.17385" lon="6.78666">
        <ele>656.9</ele>
        <time>2024-11-18T15:08:45Z</time>
      </trkpt>
      <trkpt lat="48.17391" lon="6.78653">
        <ele>658.7</ele>
        <time>2024-11-18T15:08:53Z</time>
      </trkpt>
      <trkpt lat="48.17398" lon="6.78643">
        <ele>660.3</ele>
        <time>2024-11-18T15:09:01Z</time>
      </trkpt>
      <trkpt lat="48.17405" lon="6.78634">
        <ele>662.7</ele>
        <time>2024-11-18T15:09:10Z</time>
      </trkpt>
      <trkpt lat="48.17407" lon="6.78627">
        <ele>662.8</ele>
        <time>2024-11-18T15:09:23Z</time>
      </trkpt>
      <trkpt lat="48.17407" lon="6.78627">
        <ele>662.8</ele>
        <time>2024-11-18T15:09:24Z</time>
      </trkpt>
      <trkpt lat="48.17407" lon="6.78627">
        <ele>662.8</ele>
        <time>2024-11-18T15:09:25Z</time>
      </trkpt>
      <trkpt lat="48.17407" lon="6.78622">
        <ele>661.3</ele>
        <time>2024-11-18T15:09:34Z</time>
      </trkpt>
      <trkpt lat="48.17407" lon="6.78621">
        <ele>661.3</ele>
        <time>2024-11-18T15:09:35Z</time>
      </trkpt>
      <trkpt lat="48.17414" lon="6.78611">
        <ele>662.8</ele>
        <time>2024-11-18T15:09:44Z</time>
      </trkpt>
      <trkpt lat="48.17422" lon="6.78603">
        <ele>665.2</ele>
        <time>2024-11-18T15:09:51Z</time>
      </trkpt>
      <trkpt lat="48.17428" lon="6.78593">
        <ele>665.2</ele>
        <time>2024-11-18T15:09:59Z</time>
      </trkpt>
      <trkpt lat="48.17436" lon="6.78584">
        <ele>665.8</ele>
        <time>2024-11-18T15:10:08Z</time>
      </trkpt>
      <trkpt lat="48.17443" lon="6.78574">
        <ele>665.5</ele>
        <time>2024-11-18T15:10:18Z</time>
      </trkpt>
      <trkpt lat="48.17452" lon="6.78568">
        <ele>665.6</ele>
        <time>2024-11-18T15:10:28Z</time>
      </trkpt>
      <trkpt lat="48.17461" lon="6.78563">
        <ele>666.2</ele>
        <time>2024-11-18T15:10:35Z</time>
      </trkpt>
      <trkpt lat="48.1747" lon="6.78556">
        <ele>667.1</ele>
        <time>2024-11-18T15:10:43Z</time>
      </trkpt>
      <trkpt lat="48.17479" lon="6.78551">
        <ele>668</ele>
        <time>2024-11-18T15:10:51Z</time>
      </trkpt>
      <trkpt lat="48.17487" lon="6.78545">
        <ele>668.4</ele>
        <time>2024-11-18T15:10:58Z</time>
      </trkpt>
      <trkpt lat="48.17495" lon="6.78538">
        <ele>668.7</ele>
        <time>2024-11-18T15:11:06Z</time>
      </trkpt>
      <trkpt lat="48.17504" lon="6.78532">
        <ele>670</ele>
        <time>2024-11-18T15:11:14Z</time>
      </trkpt>
      <trkpt lat="48.17513" lon="6.78527">
        <ele>671.5</ele>
        <time>2024-11-18T15:11:23Z</time>
      </trkpt>
      <trkpt lat="48.17522" lon="6.78523">
        <ele>672.3</ele>
        <time>2024-11-18T15:11:33Z</time>
      </trkpt>
      <trkpt lat="48.17531" lon="6.78525">
        <ele>673.9</ele>
        <time>2024-11-18T15:11:44Z</time>
      </trkpt>
      <trkpt lat="48.17541" lon="6.78527">
        <ele>676.3</ele>
        <time>2024-11-18T15:11:56Z</time>
      </trkpt>
      <trkpt lat="48.1755" lon="6.78531">
        <ele>678.8</ele>
        <time>2024-11-18T15:12:06Z</time>
      </trkpt>
      <trkpt lat="48.17558" lon="6.78538">
        <ele>681.1</ele>
        <time>2024-11-18T15:12:15Z</time>
      </trkpt>
      <trkpt lat="48.17567" lon="6.78542">
        <ele>683.3</ele>
        <time>2024-11-18T15:12:26Z</time>
      </trkpt>
      <trkpt lat="48.17575" lon="6.78549">
        <ele>686</ele>
        <time>2024-11-18T15:12:36Z</time>
      </trkpt>
      <trkpt lat="48.17584" lon="6.78555">
        <ele>687.8</ele>
        <time>2024-11-18T15:12:44Z</time>
      </trkpt>
      <trkpt lat="48.17592" lon="6.78563">
        <ele>689.9</ele>
        <time>2024-11-18T15:12:54Z</time>
      </trkpt>
      <trkpt lat="48.17598" lon="6.78572">
        <ele>691.5</ele>
        <time>2024-11-18T15:13:03Z</time>
      </trkpt>
      <trkpt lat="48.17604" lon="6.78584">
        <ele>693.3</ele>
        <time>2024-11-18T15:13:12Z</time>
      </trkpt>
      <trkpt lat="48.17611" lon="6.78593">
        <ele>693.9</ele>
        <time>2024-11-18T15:13:21Z</time>
      </trkpt>
      <trkpt lat="48.17618" lon="6.78603">
        <ele>694.2</ele>
        <time>2024-11-18T15:13:29Z</time>
      </trkpt>
      <trkpt lat="48.1762" lon="6.78618">
        <ele>695.5</ele>
        <time>2024-11-18T15:13:39Z</time>
      </trkpt>
      <trkpt lat="48.17621" lon="6.78632">
        <ele>696</ele>
        <time>2024-11-18T15:13:49Z</time>
      </trkpt>
      <trkpt lat="48.17621" lon="6.78638">
        <ele>696</ele>
        <time>2024-11-18T15:13:59Z</time>
      </trkpt>
      <trkpt lat="48.17621" lon="6.78638">
        <ele>696</ele>
        <time>2024-11-18T15:14:00Z</time>
      </trkpt>
      <trkpt lat="48.17621" lon="6.78638">
        <ele>696</ele>
        <time>2024-11-18T15:14:01Z</time>
      </trkpt>
      <trkpt lat="48.1762" lon="6.78638">
        <ele>695.9</ele>
        <time>2024-11-18T15:14:07Z</time>
      </trkpt>
      <trkpt lat="48.1762" lon="6.78638">
        <ele>695.9</ele>
        <time>2024-11-18T15:14:08Z</time>
      </trkpt>
      <trkpt lat="48.1762" lon="6.78638">
        <ele>695.9</ele>
        <time>2024-11-18T15:14:12Z</time>
      </trkpt>
      <trkpt lat="48.1762" lon="6.78638">
        <ele>696</ele>
        <time>2024-11-18T15:14:13Z</time>
      </trkpt>
      <trkpt lat="48.1762" lon="6.78638">
        <ele>695.9</ele>
        <time>2024-11-18T15:14:23Z</time>
      </trkpt>
      <trkpt lat="48.1762" lon="6.78639">
        <ele>695.9</ele>
        <time>2024-11-18T15:14:24Z</time>
      </trkpt>
      <trkpt lat="48.1762" lon="6.78639">
        <ele>695.9</ele>
        <time>2024-11-18T15:14:25Z</time>
      </trkpt>
      <trkpt lat="48.17621" lon="6.78639">
        <ele>695.9</ele>
        <time>2024-11-18T15:14:28Z</time>
      </trkpt>
      <trkpt lat="48.17621" lon="6.78639">
        <ele>695.9</ele>
        <time>2024-11-18T15:14:29Z</time>
      </trkpt>
      <trkpt lat="48.17621" lon="6.78639">
        <ele>695.9</ele>
        <time>2024-11-18T15:14:30Z</time>
      </trkpt>
      <trkpt lat="48.17621" lon="6.7864">
        <ele>695.9</ele>
        <time>2024-11-18T15:14:34Z</time>
      </trkpt>
      <trkpt lat="48.17621" lon="6.78641">
        <ele>695.9</ele>
        <time>2024-11-18T15:14:35Z</time>
      </trkpt>
      <trkpt lat="48.17621" lon="6.78642">
        <ele>695.8</ele>
        <time>2024-11-18T15:14:36Z</time>
      </trkpt>
      <trkpt lat="48.17623" lon="6.78656">
        <ele>694.8</ele>
        <time>2024-11-18T15:14:45Z</time>
      </trkpt>
      <trkpt lat="48.17614" lon="6.78661">
        <ele>695.7</ele>
        <time>2024-11-18T15:14:59Z</time>
      </trkpt>
      <trkpt lat="48.17605" lon="6.7866">
        <ele>696.4</ele>
        <time>2024-11-18T15:15:12Z</time>
      </trkpt>
      <trkpt lat="48.17596" lon="6.78658">
        <ele>696.6</ele>
        <time>2024-11-18T15:15:24Z</time>
      </trkpt>
      <trkpt lat="48.17587" lon="6.78664">
        <ele>695.4</ele>
        <time>2024-11-18T15:15:33Z</time>
      </trkpt>
      <trkpt lat="48.17579" lon="6.78672">
        <ele>694.6</ele>
        <time>2024-11-18T15:15:44Z</time>
      </trkpt>
      <trkpt lat="48.1757" lon="6.78675">
        <ele>693.5</ele>
        <time>2024-11-18T15:16:06Z</time>
      </trkpt>
      <trkpt lat="48.17562" lon="6.78672">
        <ele>692.4</ele>
        <time>2024-11-18T15:16:24Z</time>
      </trkpt>
      <trkpt lat="48.17556" lon="6.78673">
        <ele>692.1</ele>
        <time>2024-11-18T15:16:34Z</time>
      </trkpt>
      <trkpt lat="48.17556" lon="6.78673">
        <ele>692.1</ele>
        <time>2024-11-18T15:16:35Z</time>
      </trkpt>
      <trkpt lat="48.17556" lon="6.78673">
        <ele>692.1</ele>
        <time>2024-11-18T15:16:36Z</time>
      </trkpt>
      <trkpt lat="48.17556" lon="6.78673">
        <ele>692.1</ele>
        <time>2024-11-18T15:16:39Z</time>
      </trkpt>
      <trkpt lat="48.17556" lon="6.78673">
        <ele>691.8</ele>
        <time>2024-11-18T15:16:40Z</time>
      </trkpt>
      <trkpt lat="48.17565" lon="6.78672">
        <ele>693</ele>
        <time>2024-11-18T15:16:53Z</time>
      </trkpt>
      <trkpt lat="48.17574" lon="6.78672">
        <ele>694.1</ele>
        <time>2024-11-18T15:17:04Z</time>
      </trkpt>
      <trkpt lat="48.17583" lon="6.78669">
        <ele>694.9</ele>
        <time>2024-11-18T15:17:14Z</time>
      </trkpt>
      <trkpt lat="48.1759" lon="6.7866">
        <ele>696.1</ele>
        <time>2024-11-18T15:17:22Z</time>
      </trkpt>
      <trkpt lat="48.176" lon="6.78656">
        <ele>696.8</ele>
        <time>2024-11-18T15:17:30Z</time>
      </trkpt>
      <trkpt lat="48.17602" lon="6.78656">
        <ele>696.8</ele>
        <time>2024-11-18T15:17:38Z</time>
      </trkpt>
      <trkpt lat="48.17602" lon="6.78656">
        <ele>696.8</ele>
        <time>2024-11-18T15:17:39Z</time>
      </trkpt>
      <trkpt lat="48.17602" lon="6.78656">
        <ele>696.8</ele>
        <time>2024-11-18T15:17:40Z</time>
      </trkpt>
      <trkpt lat="48.17598" lon="6.78656">
        <ele>696.7</ele>
        <time>2024-11-18T15:19:28Z</time>
      </trkpt>
      <trkpt lat="48.17598" lon="6.78657">
        <ele>696.7</ele>
        <time>2024-11-18T15:19:29Z</time>
      </trkpt>
      <trkpt lat="48.17598" lon="6.78657">
        <ele>696.7</ele>
        <time>2024-11-18T15:19:30Z</time>
      </trkpt>
      <trkpt lat="48.17607" lon="6.78662">
        <ele>696.4</ele>
        <time>2024-11-18T15:19:40Z</time>
      </trkpt>
      <trkpt lat="48.17616" lon="6.78665">
        <ele>695.4</ele>
        <time>2024-11-18T15:19:52Z</time>
      </trkpt>
      <trkpt lat="48.17625" lon="6.7866">
        <ele>694.2</ele>
        <time>2024-11-18T15:19:58Z</time>
      </trkpt>
      <trkpt lat="48.1763" lon="6.78648">
        <ele>694.3</ele>
        <time>2024-11-18T15:20:04Z</time>
      </trkpt>
      <trkpt lat="48.17631" lon="6.78634">
        <ele>694</ele>
        <time>2024-11-18T15:20:12Z</time>
      </trkpt>
      <trkpt lat="48.17627" lon="6.7862">
        <ele>694.7</ele>
        <time>2024-11-18T15:20:21Z</time>
      </trkpt>
      <trkpt lat="48.17623" lon="6.78607">
        <ele>694</ele>
        <time>2024-11-18T15:20:30Z</time>
      </trkpt>
      <trkpt lat="48.17619" lon="6.78594">
        <ele>693.5</ele>
        <time>2024-11-18T15:20:39Z</time>
      </trkpt>
      <trkpt lat="48.17615" lon="6.78581">
        <ele>692.4</ele>
        <time>2024-11-18T15:20:48Z</time>
      </trkpt>
      <trkpt lat="48.17609" lon="6.7857">
        <ele>691.6</ele>
        <time>2024-11-18T15:20:57Z</time>
      </trkpt>
      <trkpt lat="48.17602" lon="6.78559">
        <ele>689.5</ele>
        <time>2024-11-18T15:21:06Z</time>
      </trkpt>
      <trkpt lat="48.17594" lon="6.78552">
        <ele>687.8</ele>
        <time>2024-11-18T15:21:14Z</time>
      </trkpt>
      <trkpt lat="48.17586" lon="6.78543">
        <ele>685.7</ele>
        <time>2024-11-18T15:21:23Z</time>
      </trkpt>
      <trkpt lat="48.17578" lon="6.78535">
        <ele>684</ele>
        <time>2024-11-18T15:21:32Z</time>
      </trkpt>
      <trkpt lat="48.17569" lon="6.78528">
        <ele>681.1</ele>
        <time>2024-11-18T15:21:42Z</time>
      </trkpt>
      <trkpt lat="48.17561" lon="6.78522">
        <ele>678.9</ele>
        <time>2024-11-18T15:21:52Z</time>
      </trkpt>
      <trkpt lat="48.17552" lon="6.78516">
        <ele>675.6</ele>
        <time>2024-11-18T15:22:01Z</time>
      </trkpt>
      <trkpt lat="48.17543" lon="6.78511">
        <ele>673.3</ele>
        <time>2024-11-18T15:22:09Z</time>
      </trkpt>
      <trkpt lat="48.17533" lon="6.78509">
        <ele>671.4</ele>
        <time>2024-11-18T15:22:17Z</time>
      </trkpt>
      <trkpt lat="48.17523" lon="6.78508">
        <ele>669.1</ele>
        <time>2024-11-18T15:22:26Z</time>
      </trkpt>
      <trkpt lat="48.17514" lon="6.78512">
        <ele>668.5</ele>
        <time>2024-11-18T15:22:35Z</time>
      </trkpt>
      <trkpt lat="48.17505" lon="6.78515">
        <ele>667.8</ele>
        <time>2024-11-18T15:22:43Z</time>
      </trkpt>
      <trkpt lat="48.17496" lon="6.78521">
        <ele>666.6</ele>
        <time>2024-11-18T15:22:55Z</time>
      </trkpt>
      <trkpt lat="48.17487" lon="6.78528">
        <ele>666.3</ele>
        <time>2024-11-18T15:23:02Z</time>
      </trkpt>
      <trkpt lat="48.17479" lon="6.78535">
        <ele>665.2</ele>
        <time>2024-11-18T15:23:09Z</time>
      </trkpt>
      <trkpt lat="48.17471" lon="6.78542">
        <ele>664.7</ele>
        <time>2024-11-18T15:23:17Z</time>
      </trkpt>
      <trkpt lat="48.17462" lon="6.78547">
        <ele>663.5</ele>
        <time>2024-11-18T15:23:25Z</time>
      </trkpt>
      <trkpt lat="48.17454" lon="6.78557">
        <ele>664.3</ele>
        <time>2024-11-18T15:23:34Z</time>
      </trkpt>
      <trkpt lat="48.17445" lon="6.78563">
        <ele>663.5</ele>
        <time>2024-11-18T15:23:43Z</time>
      </trkpt>
      <trkpt lat="48.17437" lon="6.78573">
        <ele>663.4</ele>
        <time>2024-11-18T15:23:52Z</time>
      </trkpt>
      <trkpt lat="48.17429" lon="6.78581">
        <ele>663.2</ele>
        <time>2024-11-18T15:24:00Z</time>
      </trkpt>
      <trkpt lat="48.17422" lon="6.78591">
        <ele>663.6</ele>
        <time>2024-11-18T15:24:09Z</time>
      </trkpt>
      <trkpt lat="48.17415" lon="6.786">
        <ele>661.6</ele>
        <time>2024-11-18T15:24:17Z</time>
      </trkpt>
      <trkpt lat="48.17409" lon="6.78611">
        <ele>660.7</ele>
        <time>2024-11-18T15:24:25Z</time>
      </trkpt>
      <trkpt lat="48.17401" lon="6.78619">
        <ele>658.8</ele>
        <time>2024-11-18T15:24:34Z</time>
      </trkpt>
      <trkpt lat="48.17395" lon="6.7863">
        <ele>658</ele>
        <time>2024-11-18T15:24:43Z</time>
      </trkpt>
      <trkpt lat="48.17387" lon="6.78639">
        <ele>656.4</ele>
        <time>2024-11-18T15:24:50Z</time>
      </trkpt>
      <trkpt lat="48.17382" lon="6.78651">
        <ele>654.8</ele>
        <time>2024-11-18T15:25:00Z</time>
      </trkpt>
      <trkpt lat="48.17377" lon="6.78665">
        <ele>653.2</ele>
        <time>2024-11-18T15:25:09Z</time>
      </trkpt>
      <trkpt lat="48.17375" lon="6.78679">
        <ele>652.8</ele>
        <time>2024-11-18T15:25:17Z</time>
      </trkpt>
      <trkpt lat="48.17368" lon="6.78689">
        <ele>650.9</ele>
        <time>2024-11-18T15:25:28Z</time>
      </trkpt>
      <trkpt lat="48.17362" lon="6.78699">
        <ele>648.9</ele>
        <time>2024-11-18T15:25:35Z</time>
      </trkpt>
      <trkpt lat="48.17357" lon="6.78711">
        <ele>646.8</ele>
        <time>2024-11-18T15:25:44Z</time>
      </trkpt>
      <trkpt lat="48.17352" lon="6.78722">
        <ele>644.8</ele>
        <time>2024-11-18T15:25:51Z</time>
      </trkpt>
      <trkpt lat="48.17347" lon="6.78735">
        <ele>643.1</ele>
        <time>2024-11-18T15:25:59Z</time>
      </trkpt>
      <trkpt lat="48.17342" lon="6.78747">
        <ele>642.4</ele>
        <time>2024-11-18T15:26:06Z</time>
      </trkpt>
      <trkpt lat="48.17338" lon="6.78759">
        <ele>640.2</ele>
        <time>2024-11-18T15:26:14Z</time>
      </trkpt>
      <trkpt lat="48.17331" lon="6.7877">
        <ele>638.6</ele>
        <time>2024-11-18T15:26:23Z</time>
      </trkpt>
      <trkpt lat="48.17324" lon="6.78779">
        <ele>636.6</ele>
        <time>2024-11-18T15:26:33Z</time>
      </trkpt>
      <trkpt lat="48.17316" lon="6.78786">
        <ele>635.6</ele>
        <time>2024-11-18T15:26:42Z</time>
      </trkpt>
      <trkpt lat="48.17308" lon="6.78793">
        <ele>633.5</ele>
        <time>2024-11-18T15:26:51Z</time>
      </trkpt>
      <trkpt lat="48.17299" lon="6.78798">
        <ele>631.4</ele>
        <time>2024-11-18T15:27:00Z</time>
      </trkpt>
      <trkpt lat="48.1729" lon="6.78805">
        <ele>629.9</ele>
        <time>2024-11-18T15:27:08Z</time>
      </trkpt>
      <trkpt lat="48.17281" lon="6.78811">
        <ele>628.1</ele>
        <time>2024-11-18T15:27:17Z</time>
      </trkpt>
      <trkpt lat="48.17273" lon="6.78818">
        <ele>627.1</ele>
        <time>2024-11-18T15:27:24Z</time>
      </trkpt>
      <trkpt lat="48.17265" lon="6.78825">
        <ele>626</ele>
        <time>2024-11-18T15:27:31Z</time>
      </trkpt>
      <trkpt lat="48.17256" lon="6.78832">
        <ele>625.3</ele>
        <time>2024-11-18T15:27:40Z</time>
      </trkpt>
      <trkpt lat="48.17247" lon="6.78838">
        <ele>624.5</ele>
        <time>2024-11-18T15:27:47Z</time>
      </trkpt>
      <trkpt lat="48.17239" lon="6.78845">
        <ele>624.3</ele>
        <time>2024-11-18T15:27:55Z</time>
      </trkpt>
      <trkpt lat="48.17233" lon="6.78856">
        <ele>624.7</ele>
        <time>2024-11-18T15:28:06Z</time>
      </trkpt>
      <trkpt lat="48.17226" lon="6.78864">
        <ele>624.8</ele>
        <time>2024-11-18T15:28:13Z</time>
      </trkpt>
      <trkpt lat="48.17217" lon="6.78866">
        <ele>625.2</ele>
        <time>2024-11-18T15:28:18Z</time>
      </trkpt>
      <trkpt lat="48.17207" lon="6.78864">
        <ele>624.4</ele>
        <time>2024-11-18T15:28:25Z</time>
      </trkpt>
      <trkpt lat="48.172" lon="6.78854">
        <ele>623</ele>
        <time>2024-11-18T15:28:34Z</time>
      </trkpt>
      <trkpt lat="48.17199" lon="6.7884">
        <ele>621.5</ele>
        <time>2024-11-18T15:28:41Z</time>
      </trkpt>
      <trkpt lat="48.17199" lon="6.78825">
        <ele>620</ele>
        <time>2024-11-18T15:28:48Z</time>
      </trkpt>
      <trkpt lat="48.17205" lon="6.78815">
        <ele>619</ele>
        <time>2024-11-18T15:28:55Z</time>
      </trkpt>
      <trkpt lat="48.17207" lon="6.788">
        <ele>618</ele>
        <time>2024-11-18T15:29:04Z</time>
      </trkpt>
      <trkpt lat="48.17212" lon="6.78789">
        <ele>617.1</ele>
        <time>2024-11-18T15:29:12Z</time>
      </trkpt>
      <trkpt lat="48.17218" lon="6.78777">
        <ele>616</ele>
        <time>2024-11-18T15:29:19Z</time>
      </trkpt>
      <trkpt lat="48.17222" lon="6.78765">
        <ele>614.8</ele>
        <time>2024-11-18T15:29:27Z</time>
      </trkpt>
      <trkpt lat="48.17225" lon="6.78752">
        <ele>613.2</ele>
        <time>2024-11-18T15:29:35Z</time>
      </trkpt>
      <trkpt lat="48.17229" lon="6.78739">
        <ele>611.7</ele>
        <time>2024-11-18T15:29:43Z</time>
      </trkpt>
      <trkpt lat="48.17231" lon="6.78725">
        <ele>610.1</ele>
        <time>2024-11-18T15:29:51Z</time>
      </trkpt>
      <trkpt lat="48.17233" lon="6.78711">
        <ele>608.7</ele>
        <time>2024-11-18T15:29:59Z</time>
      </trkpt>
      <trkpt lat="48.17234" lon="6.78697">
        <ele>607.4</ele>
        <time>2024-11-18T15:30:07Z</time>
      </trkpt>
      <trkpt lat="48.17235" lon="6.78682">
        <ele>606.2</ele>
        <time>2024-11-18T15:30:15Z</time>
      </trkpt>
      <trkpt lat="48.17236" lon="6.78668">
        <ele>605.1</ele>
        <time>2024-11-18T15:30:22Z</time>
      </trkpt>
      <trkpt lat="48.17238" lon="6.78655">
        <ele>604</ele>
        <time>2024-11-18T15:30:29Z</time>
      </trkpt>
      <trkpt lat="48.17239" lon="6.78641">
        <ele>603</ele>
        <time>2024-11-18T15:30:36Z</time>
      </trkpt>
      <trkpt lat="48.17242" lon="6.78629">
        <ele>602.9</ele>
        <time>2024-11-18T15:30:43Z</time>
      </trkpt>
      <trkpt lat="48.17243" lon="6.78613">
        <ele>602.2</ele>
        <time>2024-11-18T15:30:51Z</time>
      </trkpt>
      <trkpt lat="48.17246" lon="6.78599">
        <ele>602.2</ele>
        <time>2024-11-18T15:31:00Z</time>
      </trkpt>
      <trkpt lat="48.17249" lon="6.78585">
        <ele>602</ele>
        <time>2024-11-18T15:31:08Z</time>
      </trkpt>
      <trkpt lat="48.17248" lon="6.78571">
        <ele>601.1</ele>
        <time>2024-11-18T15:31:17Z</time>
      </trkpt>
      <trkpt lat="48.17253" lon="6.78558">
        <ele>602.1</ele>
        <time>2024-11-18T15:31:23Z</time>
      </trkpt>
      <trkpt lat="48.1725" lon="6.78544">
        <ele>600.7</ele>
        <time>2024-11-18T15:31:31Z</time>
      </trkpt>
      <trkpt lat="48.17252" lon="6.78529">
        <ele>600.4</ele>
        <time>2024-11-18T15:31:38Z</time>
      </trkpt>
      <trkpt lat="48.17254" lon="6.78514">
        <ele>601</ele>
        <time>2024-11-18T15:31:45Z</time>
      </trkpt>
      <trkpt lat="48.17257" lon="6.78501">
        <ele>601.3</ele>
        <time>2024-11-18T15:31:52Z</time>
      </trkpt>
      <trkpt lat="48.17262" lon="6.78489">
        <ele>601.9</ele>
        <time>2024-11-18T15:31:59Z</time>
      </trkpt>
      <trkpt lat="48.17269" lon="6.78479">
        <ele>602.6</ele>
        <time>2024-11-18T15:32:06Z</time>
      </trkpt>
      <trkpt lat="48.17276" lon="6.78469">
        <ele>603.7</ele>
        <time>2024-11-18T15:32:14Z</time>
      </trkpt>
      <trkpt lat="48.17282" lon="6.78457">
        <ele>604</ele>
        <time>2024-11-18T15:32:22Z</time>
      </trkpt>
      <trkpt lat="48.17289" lon="6.78448">
        <ele>604.6</ele>
        <time>2024-11-18T15:32:30Z</time>
      </trkpt>
      <trkpt lat="48.17294" lon="6.78436">
        <ele>604.4</ele>
        <time>2024-11-18T15:32:39Z</time>
      </trkpt>
      <trkpt lat="48.17299" lon="6.78424">
        <ele>604.5</ele>
        <time>2024-11-18T15:32:46Z</time>
      </trkpt>
      <trkpt lat="48.17304" lon="6.78411">
        <ele>603.3</ele>
        <time>2024-11-18T15:32:54Z</time>
      </trkpt>
      <trkpt lat="48.1731" lon="6.784">
        <ele>604</ele>
        <time>2024-11-18T15:33:01Z</time>
      </trkpt>
      <trkpt lat="48.17314" lon="6.78386">
        <ele>603.2</ele>
        <time>2024-11-18T15:33:08Z</time>
      </trkpt>
      <trkpt lat="48.17321" lon="6.78376">
        <ele>602.8</ele>
        <time>2024-11-18T15:33:14Z</time>
      </trkpt>
      <trkpt lat="48.17327" lon="6.78363">
        <ele>602.7</ele>
        <time>2024-11-18T15:33:22Z</time>
      </trkpt>
      <trkpt lat="48.1733" lon="6.7835">
        <ele>601.5</ele>
        <time>2024-11-18T15:33:29Z</time>
      </trkpt>
      <trkpt lat="48.17336" lon="6.78339">
        <ele>601.4</ele>
        <time>2024-11-18T15:33:37Z</time>
      </trkpt>
      <trkpt lat="48.17341" lon="6.78327">
        <ele>600.1</ele>
        <time>2024-11-18T15:33:44Z</time>
      </trkpt>
      <trkpt lat="48.17346" lon="6.78314">
        <ele>599.8</ele>
        <time>2024-11-18T15:33:51Z</time>
      </trkpt>
      <trkpt lat="48.17354" lon="6.78307">
        <ele>600.3</ele>
        <time>2024-11-18T15:34:00Z</time>
      </trkpt>
      <trkpt lat="48.17356" lon="6.783">
        <ele>599.7</ele>
        <time>2024-11-18T15:34:11Z</time>
      </trkpt>
      <trkpt lat="48.17356" lon="6.783">
        <ele>599.7</ele>
        <time>2024-11-18T15:34:12Z</time>
      </trkpt>
      <trkpt lat="48.17356" lon="6.783">
        <ele>599.7</ele>
        <time>2024-11-18T15:34:13Z</time>
      </trkpt>
      <trkpt lat="48.17355" lon="6.783">
        <ele>599.7</ele>
        <time>2024-11-18T15:34:14Z</time>
      </trkpt>
      <trkpt lat="48.17354" lon="6.783">
        <ele>599.7</ele>
        <time>2024-11-18T15:34:22Z</time>
      </trkpt>
      <trkpt lat="48.17354" lon="6.783">
        <ele>599.7</ele>
        <time>2024-11-18T15:34:23Z</time>
      </trkpt>
      <trkpt lat="48.17354" lon="6.783">
        <ele>599.7</ele>
        <time>2024-11-18T15:34:24Z</time>
      </trkpt>
      <trkpt lat="48.17354" lon="6.78301">
        <ele>599.7</ele>
        <time>2024-11-18T15:34:25Z</time>
      </trkpt>
      <trkpt lat="48.17353" lon="6.78301">
        <ele>599.7</ele>
        <time>2024-11-18T15:34:26Z</time>
      </trkpt>
      <trkpt lat="48.1735" lon="6.78301">
        <ele>599.1</ele>
        <time>2024-11-18T15:35:18Z</time>
      </trkpt>
      <trkpt lat="48.1735" lon="6.78301">
        <ele>599.1</ele>
        <time>2024-11-18T15:35:19Z</time>
      </trkpt>
      <trkpt lat="48.1735" lon="6.78301">
        <ele>599.1</ele>
        <time>2024-11-18T15:35:20Z</time>
      </trkpt>
      <trkpt lat="48.1735" lon="6.78301">
        <ele>599.1</ele>
        <time>2024-11-18T15:35:21Z</time>
      </trkpt>
      <trkpt lat="48.1735" lon="6.78301">
        <ele>599.1</ele>
        <time>2024-11-18T15:35:22Z</time>
      </trkpt>
      <trkpt lat="48.17351" lon="6.783">
        <ele>599.1</ele>
        <time>2024-11-18T15:35:40Z</time>
      </trkpt>
      <trkpt lat="48.17351" lon="6.78299">
        <ele>599.1</ele>
        <time>2024-11-18T15:35:41Z</time>
      </trkpt>
      <trkpt lat="48.17356" lon="6.78288">
        <ele>598.2</ele>
        <time>2024-11-18T15:35:57Z</time>
      </trkpt>
      <trkpt lat="48.17361" lon="6.78276">
        <ele>596.6</ele>
        <time>2024-11-18T15:36:06Z</time>
      </trkpt>
      <trkpt lat="48.17366" lon="6.78264">
        <ele>595.6</ele>
        <time>2024-11-18T15:36:17Z</time>
      </trkpt>
      <trkpt lat="48.17367" lon="6.78263">
        <ele>595.6</ele>
        <time>2024-11-18T15:36:19Z</time>
      </trkpt>
      <trkpt lat="48.17367" lon="6.78262">
        <ele>595.6</ele>
        <time>2024-11-18T15:36:20Z</time>
      </trkpt>
      <trkpt lat="48.17367" lon="6.78262">
        <ele>596.2</ele>
        <time>2024-11-18T15:36:21Z</time>
      </trkpt>
      <trkpt lat="48.17369" lon="6.78261">
        <ele>596.2</ele>
        <time>2024-11-18T15:36:27Z</time>
      </trkpt>
      <trkpt lat="48.1737" lon="6.7826">
        <ele>595.4</ele>
        <time>2024-11-18T15:36:28Z</time>
      </trkpt>
      <trkpt lat="48.17374" lon="6.78248">
        <ele>594.9</ele>
        <time>2024-11-18T15:36:38Z</time>
      </trkpt>
      <trkpt lat="48.17381" lon="6.78238">
        <ele>593.6</ele>
        <time>2024-11-18T15:36:45Z</time>
      </trkpt>
      <trkpt lat="48.17389" lon="6.78231">
        <ele>594.5</ele>
        <time>2024-11-18T15:36:54Z</time>
      </trkpt>
      <trkpt lat="48.17398" lon="6.78224">
        <ele>594.4</ele>
        <time>2024-11-18T15:37:02Z</time>
      </trkpt>
      <trkpt lat="48.17407" lon="6.78218">
        <ele>595</ele>
        <time>2024-11-18T15:37:08Z</time>
      </trkpt>
      <trkpt lat="48.17416" lon="6.78211">
        <ele>594.1</ele>
        <time>2024-11-18T15:37:15Z</time>
      </trkpt>
      <trkpt lat="48.17424" lon="6.78202">
        <ele>593.1</ele>
        <time>2024-11-18T15:37:24Z</time>
      </trkpt>
      <trkpt lat="48.17431" lon="6.78201">
        <ele>593.6</ele>
        <time>2024-11-18T15:37:39Z</time>
      </trkpt>
      <trkpt lat="48.17431" lon="6.78201">
        <ele>593.6</ele>
        <time>2024-11-18T15:37:40Z</time>
      </trkpt>
      <trkpt lat="48.17433" lon="6.78199">
        <ele>592.8</ele>
        <time>2024-11-18T15:37:48Z</time>
      </trkpt>
      <trkpt lat="48.17435" lon="6.78199">
        <ele>592.8</ele>
        <time>2024-11-18T15:37:49Z</time>
      </trkpt>
      <trkpt lat="48.17436" lon="6.78198">
        <ele>592.9</ele>
        <time>2024-11-18T15:37:50Z</time>
      </trkpt>
      <trkpt lat="48.17445" lon="6.78197">
        <ele>593.2</ele>
        <time>2024-11-18T15:37:57Z</time>
      </trkpt>
      <trkpt lat="48.17455" lon="6.78194">
        <ele>592.4</ele>
        <time>2024-11-18T15:38:06Z</time>
      </trkpt>
      <trkpt lat="48.17464" lon="6.7819">
        <ele>591.6</ele>
        <time>2024-11-18T15:38:14Z</time>
      </trkpt>
      <trkpt lat="48.17473" lon="6.7819">
        <ele>591.7</ele>
        <time>2024-11-18T15:38:23Z</time>
      </trkpt>
      <trkpt lat="48.17482" lon="6.78187">
        <ele>591.9</ele>
        <time>2024-11-18T15:38:32Z</time>
      </trkpt>
      <trkpt lat="48.17491" lon="6.78186">
        <ele>590.9</ele>
        <time>2024-11-18T15:38:44Z</time>
      </trkpt>
      <trkpt lat="48.175" lon="6.78184">
        <ele>590.8</ele>
        <time>2024-11-18T15:38:54Z</time>
      </trkpt>
      <trkpt lat="48.1751" lon="6.78181">
        <ele>589.5</ele>
        <time>2024-11-18T15:39:03Z</time>
      </trkpt>
      <trkpt lat="48.17512" lon="6.78181">
        <ele>589.4</ele>
        <time>2024-11-18T15:39:07Z</time>
      </trkpt>
      <trkpt lat="48.17512" lon="6.78181">
        <ele>589.4</ele>
        <time>2024-11-18T15:39:08Z</time>
      </trkpt>
      <trkpt lat="48.17514" lon="6.78182">
        <ele>589.3</ele>
        <time>2024-11-18T15:39:12Z</time>
      </trkpt>
      <trkpt lat="48.17515" lon="6.78181">
        <ele>589.3</ele>
        <time>2024-11-18T15:39:13Z</time>
      </trkpt>
      <trkpt lat="48.17525" lon="6.78183">
        <ele>589.6</ele>
        <time>2024-11-18T15:39:21Z</time>
      </trkpt>
      <trkpt lat="48.17528" lon="6.78182">
        <ele>588.5</ele>
        <time>2024-11-18T15:39:24Z</time>
      </trkpt>
      <trkpt lat="48.17528" lon="6.78183">
        <ele>588.5</ele>
        <time>2024-11-18T15:39:25Z</time>
      </trkpt>
      <trkpt lat="48.17533" lon="6.7818">
        <ele>588.4</ele>
        <time>2024-11-18T15:40:16Z</time>
      </trkpt>
      <trkpt lat="48.17533" lon="6.78179">
        <ele>588.2</ele>
        <time>2024-11-18T15:40:17Z</time>
      </trkpt>
      <trkpt lat="48.17533" lon="6.78179">
        <ele>588.2</ele>
        <time>2024-11-18T15:40:21Z</time>
      </trkpt>
      <trkpt lat="48.17533" lon="6.78179">
        <ele>588.2</ele>
        <time>2024-11-18T15:40:22Z</time>
      </trkpt>
      <trkpt lat="48.17533" lon="6.78179">
        <ele>588.2</ele>
        <time>2024-11-18T15:40:28Z</time>
      </trkpt>
      <trkpt lat="48.17534" lon="6.78179">
        <ele>588.2</ele>
        <time>2024-11-18T15:40:29Z</time>
      </trkpt>
      <trkpt lat="48.17535" lon="6.78179">
        <ele>588.2</ele>
        <time>2024-11-18T15:40:30Z</time>
      </trkpt>
      <trkpt lat="48.17544" lon="6.78184">
        <ele>588.6</ele>
        <time>2024-11-18T15:40:43Z</time>
      </trkpt>
      <trkpt lat="48.17552" lon="6.78191">
        <ele>590</ele>
        <time>2024-11-18T15:40:51Z</time>
      </trkpt>
      <trkpt lat="48.17559" lon="6.78196">
        <ele>590.5</ele>
        <time>2024-11-18T15:41:01Z</time>
      </trkpt>
      <trkpt lat="48.17559" lon="6.78196">
        <ele>590.5</ele>
        <time>2024-11-18T15:41:02Z</time>
      </trkpt>
      <trkpt lat="48.17559" lon="6.78196">
        <ele>590.5</ele>
        <time>2024-11-18T15:41:03Z</time>
      </trkpt>
      <trkpt lat="48.1756" lon="6.78195">
        <ele>589.5</ele>
        <time>2024-11-18T15:41:33Z</time>
      </trkpt>
      <trkpt lat="48.1756" lon="6.78195">
        <ele>589.5</ele>
        <time>2024-11-18T15:41:34Z</time>
      </trkpt>
      <trkpt lat="48.17561" lon="6.78195">
        <ele>589.5</ele>
        <time>2024-11-18T15:41:35Z</time>
      </trkpt>
      <trkpt lat="48.1757" lon="6.78198">
        <ele>590</ele>
        <time>2024-11-18T15:41:45Z</time>
      </trkpt>
      <trkpt lat="48.17579" lon="6.78198">
        <ele>589</ele>
        <time>2024-11-18T15:41:55Z</time>
      </trkpt>
      <trkpt lat="48.17585" lon="6.782">
        <ele>588.3</ele>
        <time>2024-11-18T15:42:04Z</time>
      </trkpt>
      <trkpt lat="48.17585" lon="6.782">
        <ele>588.3</ele>
        <time>2024-11-18T15:42:05Z</time>
      </trkpt>
      <trkpt lat="48.17587" lon="6.78201">
        <ele>589.3</ele>
        <time>2024-11-18T15:42:08Z</time>
      </trkpt>
      <trkpt lat="48.17587" lon="6.78201">
        <ele>589.2</ele>
        <time>2024-11-18T15:42:09Z</time>
      </trkpt>
      <trkpt lat="48.17587" lon="6.78201">
        <ele>589.2</ele>
        <time>2024-11-18T15:42:10Z</time>
      </trkpt>
      <trkpt lat="48.17593" lon="6.78204">
        <ele>588.2</ele>
        <time>2024-11-18T15:42:21Z</time>
      </trkpt>
      <trkpt lat="48.17593" lon="6.78204">
        <ele>588.2</ele>
        <time>2024-11-18T15:42:22Z</time>
      </trkpt>
      <trkpt lat="48.17593" lon="6.78204">
        <ele>588.1</ele>
        <time>2024-11-18T15:42:23Z</time>
      </trkpt>
      <trkpt lat="48.17596" lon="6.78206">
        <ele>588.7</ele>
        <time>2024-11-18T15:42:54Z</time>
      </trkpt>
      <trkpt lat="48.17597" lon="6.78207">
        <ele>588.7</ele>
        <time>2024-11-18T15:42:55Z</time>
      </trkpt>
      <trkpt lat="48.17597" lon="6.78207">
        <ele>588.7</ele>
        <time>2024-11-18T15:42:56Z</time>
      </trkpt>
      <trkpt lat="48.17597" lon="6.78207">
        <ele>588.7</ele>
        <time>2024-11-18T15:42:57Z</time>
      </trkpt>
      <trkpt lat="48.17601" lon="6.78205">
        <ele>588.3</ele>
        <time>2024-11-18T15:43:16Z</time>
      </trkpt>
      <trkpt lat="48.17601" lon="6.78206">
        <ele>588.3</ele>
        <time>2024-11-18T15:43:17Z</time>
      </trkpt>
      <trkpt lat="48.17603" lon="6.78208">
        <ele>587.9</ele>
        <time>2024-11-18T15:43:23Z</time>
      </trkpt>
      <trkpt lat="48.17603" lon="6.78207">
        <ele>587.9</ele>
        <time>2024-11-18T15:43:24Z</time>
      </trkpt>
      <trkpt lat="48.17603" lon="6.78207">
        <ele>587.9</ele>
        <time>2024-11-18T15:43:25Z</time>
      </trkpt>
      <trkpt lat="48.17604" lon="6.78209">
        <ele>588.8</ele>
        <time>2024-11-18T15:43:56Z</time>
      </trkpt>
      <trkpt lat="48.17605" lon="6.78209">
        <ele>588.4</ele>
        <time>2024-11-18T15:43:57Z</time>
      </trkpt>
      <trkpt lat="48.17614" lon="6.78214">
        <ele>587.9</ele>
        <time>2024-11-18T15:44:06Z</time>
      </trkpt>
      <trkpt lat="48.1762" lon="6.78219">
        <ele>587.7</ele>
        <time>2024-11-18T15:44:19Z</time>
      </trkpt>
      <trkpt lat="48.1762" lon="6.78219">
        <ele>587.7</ele>
        <time>2024-11-18T15:44:20Z</time>
      </trkpt>
      <trkpt lat="48.1762" lon="6.78219">
        <ele>587.7</ele>
        <time>2024-11-18T15:44:28Z</time>
      </trkpt>
      <trkpt lat="48.1762" lon="6.78219">
        <ele>587.7</ele>
        <time>2024-11-18T15:44:29Z</time>
      </trkpt>
      <trkpt lat="48.1762" lon="6.78219">
        <ele>587.7</ele>
        <time>2024-11-18T15:44:30Z</time>
      </trkpt>
      <trkpt lat="48.1762" lon="6.78219">
        <ele>587.7</ele>
        <time>2024-11-18T15:44:31Z</time>
      </trkpt>
      <trkpt lat="48.1762" lon="6.78219">
        <ele>587.7</ele>
        <time>2024-11-18T15:44:32Z</time>
      </trkpt>
      <trkpt lat="48.17621" lon="6.78219">
        <ele>587.7</ele>
        <time>2024-11-18T15:44:39Z</time>
      </trkpt>
      <trkpt lat="48.17621" lon="6.78219">
        <ele>587.7</ele>
        <time>2024-11-18T15:44:40Z</time>
      </trkpt>
      <trkpt lat="48.1763" lon="6.78226">
        <ele>587.8</ele>
        <time>2024-11-18T15:44:48Z</time>
      </trkpt>
      <trkpt lat="48.17638" lon="6.78234">
        <ele>586.9</ele>
        <time>2024-11-18T15:44:55Z</time>
      </trkpt>
      <trkpt lat="48.17647" lon="6.78241">
        <ele>586.8</ele>
        <time>2024-11-18T15:45:04Z</time>
      </trkpt>
      <trkpt lat="48.17654" lon="6.7825">
        <ele>587.5</ele>
        <time>2024-11-18T15:45:13Z</time>
      </trkpt>
      <trkpt lat="48.17662" lon="6.7826">
        <ele>589.6</ele>
        <time>2024-11-18T15:45:22Z</time>
      </trkpt>
      <trkpt lat="48.17671" lon="6.78264">
        <ele>588.4</ele>
        <time>2024-11-18T15:45:33Z</time>
      </trkpt>
      <trkpt lat="48.17678" lon="6.78268">
        <ele>587.4</ele>
        <time>2024-11-18T15:45:39Z</time>
      </trkpt>
      <trkpt lat="48.1768" lon="6.78268">
        <ele>586.9</ele>
        <time>2024-11-18T15:45:40Z</time>
      </trkpt>
      <trkpt lat="48.17681" lon="6.78268">
        <ele>586.9</ele>
        <time>2024-11-18T15:45:41Z</time>
      </trkpt>
      <trkpt lat="48.17683" lon="6.78267">
        <ele>586.5</ele>
        <time>2024-11-18T15:45:42Z</time>
      </trkpt>
      <trkpt lat="48.17684" lon="6.78267">
        <ele>586.5</ele>
        <time>2024-11-18T15:45:43Z</time>
      </trkpt>
      <trkpt lat="48.17693" lon="6.78273">
        <ele>586.1</ele>
        <time>2024-11-18T15:45:53Z</time>
      </trkpt>
      <trkpt lat="48.17702" lon="6.78272">
        <ele>584.1</ele>
        <time>2024-11-18T15:46:01Z</time>
      </trkpt>
      <trkpt lat="48.17711" lon="6.78263">
        <ele>581.1</ele>
        <time>2024-11-18T15:46:10Z</time>
      </trkpt>
      <trkpt lat="48.1772" lon="6.78263">
        <ele>579.7</ele>
        <time>2024-11-18T15:46:21Z</time>
      </trkpt>
      <trkpt lat="48.17729" lon="6.78256">
        <ele>577.2</ele>
        <time>2024-11-18T15:46:31Z</time>
      </trkpt>
      <trkpt lat="48.17727" lon="6.78252">
        <ele>576.7</ele>
        <time>2024-11-18T15:46:44Z</time>
      </trkpt>
      <trkpt lat="48.17728" lon="6.78251">
        <ele>575.7</ele>
        <time>2024-11-18T15:46:45Z</time>
      </trkpt>
      <trkpt lat="48.17727" lon="6.78251">
        <ele>575.7</ele>
        <time>2024-11-18T15:47:06Z</time>
      </trkpt>
      <trkpt lat="48.17727" lon="6.78251">
        <ele>575.7</ele>
        <time>2024-11-18T15:47:07Z</time>
      </trkpt>
      <trkpt lat="48.17727" lon="6.78251">
        <ele>575.7</ele>
        <time>2024-11-18T15:47:08Z</time>
      </trkpt>
      <trkpt lat="48.17727" lon="6.78251">
        <ele>575.7</ele>
        <time>2024-11-18T15:47:09Z</time>
      </trkpt>
      <trkpt lat="48.17727" lon="6.78251">
        <ele>575.7</ele>
        <time>2024-11-18T15:47:10Z</time>
      </trkpt>
      <trkpt lat="48.17728" lon="6.7825">
        <ele>575.3</ele>
        <time>2024-11-18T15:47:11Z</time>
      </trkpt>
      <trkpt lat="48.17731" lon="6.78251">
        <ele>574.8</ele>
        <time>2024-11-18T15:47:14Z</time>
      </trkpt>
      <trkpt lat="48.17732" lon="6.78251">
        <ele>574.8</ele>
        <time>2024-11-18T15:47:15Z</time>
      </trkpt>
      <trkpt lat="48.17733" lon="6.78249">
        <ele>574.8</ele>
        <time>2024-11-18T15:47:16Z</time>
      </trkpt>
      <trkpt lat="48.17732" lon="6.7824">
        <ele>573</ele>
        <time>2024-11-18T15:47:36Z</time>
      </trkpt>
      <trkpt lat="48.17732" lon="6.7824">
        <ele>573</ele>
        <time>2024-11-18T15:47:37Z</time>
      </trkpt>
      <trkpt lat="48.17733" lon="6.78239">
        <ele>573</ele>
        <time>2024-11-18T15:48:18Z</time>
      </trkpt>
      <trkpt lat="48.17734" lon="6.78239">
        <ele>572.5</ele>
        <time>2024-11-18T15:48:19Z</time>
      </trkpt>
      <trkpt lat="48.17735" lon="6.78239">
        <ele>572.5</ele>
        <time>2024-11-18T15:48:20Z</time>
      </trkpt>
      <trkpt lat="48.17735" lon="6.78239">
        <ele>572.5</ele>
        <time>2024-11-18T15:48:21Z</time>
      </trkpt>
      <trkpt lat="48.17735" lon="6.78239">
        <ele>572.5</ele>
        <time>2024-11-18T15:48:22Z</time>
      </trkpt>
      <trkpt lat="48.17735" lon="6.78239">
        <ele>572.5</ele>
        <time>2024-11-18T15:48:46Z</time>
      </trkpt>
      <trkpt lat="48.17735" lon="6.78238">
        <ele>571.7</ele>
        <time>2024-11-18T15:48:47Z</time>
      </trkpt>
      <trkpt lat="48.17735" lon="6.78236">
        <ele>571.7</ele>
        <time>2024-11-18T15:48:48Z</time>
      </trkpt>
      <trkpt lat="48.17739" lon="6.78223">
        <ele>568.9</ele>
        <time>2024-11-18T15:48:56Z</time>
      </trkpt>
      <trkpt lat="48.17741" lon="6.7821">
        <ele>565.9</ele>
        <time>2024-11-18T15:49:07Z</time>
      </trkpt>
      <trkpt lat="48.1774" lon="6.78195">
        <ele>562.4</ele>
        <time>2024-11-18T15:49:18Z</time>
      </trkpt>
      <trkpt lat="48.17741" lon="6.78181">
        <ele>560.4</ele>
        <time>2024-11-18T15:49:26Z</time>
      </trkpt>
      <trkpt lat="48.17746" lon="6.78192">
        <ele>561.4</ele>
        <time>2024-11-18T15:49:47Z</time>
      </trkpt>
      <trkpt lat="48.17752" lon="6.78204">
        <ele>561.8</ele>
        <time>2024-11-18T15:49:52Z</time>
      </trkpt>
      <trkpt lat="48.17755" lon="6.78217">
        <ele>563.6</ele>
        <time>2024-11-18T15:49:58Z</time>
      </trkpt>
      <trkpt lat="48.17758" lon="6.78231">
        <ele>566.1</ele>
        <time>2024-11-18T15:50:06Z</time>
      </trkpt>
      <trkpt lat="48.17762" lon="6.78245">
        <ele>567.9</ele>
        <time>2024-11-18T15:50:14Z</time>
      </trkpt>
      <trkpt lat="48.17764" lon="6.78259">
        <ele>570</ele>
        <time>2024-11-18T15:50:22Z</time>
      </trkpt>
      <trkpt lat="48.17768" lon="6.78272">
        <ele>571.4</ele>
        <time>2024-11-18T15:50:29Z</time>
      </trkpt>
      <trkpt lat="48.17772" lon="6.78284">
        <ele>573.2</ele>
        <time>2024-11-18T15:50:34Z</time>
      </trkpt>
      <trkpt lat="48.17777" lon="6.78296">
        <ele>574.1</ele>
        <time>2024-11-18T15:50:41Z</time>
      </trkpt>
      <trkpt lat="48.17782" lon="6.78309">
        <ele>575.7</ele>
        <time>2024-11-18T15:50:48Z</time>
      </trkpt>
      <trkpt lat="48.17786" lon="6.78321">
        <ele>576.3</ele>
        <time>2024-11-18T15:50:55Z</time>
      </trkpt>
      <trkpt lat="48.1779" lon="6.78336">
        <ele>577.9</ele>
        <time>2024-11-18T15:51:03Z</time>
      </trkpt>
      <trkpt lat="48.17793" lon="6.78349">
        <ele>579.3</ele>
        <time>2024-11-18T15:51:10Z</time>
      </trkpt>
      <trkpt lat="48.17795" lon="6.78363">
        <ele>580.4</ele>
        <time>2024-11-18T15:51:18Z</time>
      </trkpt>
      <trkpt lat="48.178" lon="6.78376">
        <ele>579.9</ele>
        <time>2024-11-18T15:51:26Z</time>
      </trkpt>
      <trkpt lat="48.17803" lon="6.7839">
        <ele>580.8</ele>
        <time>2024-11-18T15:51:35Z</time>
      </trkpt>
      <trkpt lat="48.17806" lon="6.78404">
        <ele>580.8</ele>
        <time>2024-11-18T15:51:42Z</time>
      </trkpt>
      <trkpt lat="48.17808" lon="6.78418">
        <ele>580.6</ele>
        <time>2024-11-18T15:51:51Z</time>
      </trkpt>
      <trkpt lat="48.17812" lon="6.78431">
        <ele>580.2</ele>
        <time>2024-11-18T15:51:59Z</time>
      </trkpt>
      <trkpt lat="48.17816" lon="6.78444">
        <ele>580</ele>
        <time>2024-11-18T15:52:07Z</time>
      </trkpt>
      <trkpt lat="48.17821" lon="6.78456">
        <ele>578.4</ele>
        <time>2024-11-18T15:52:14Z</time>
      </trkpt>
      <trkpt lat="48.17824" lon="6.7847">
        <ele>577.4</ele>
        <time>2024-11-18T15:52:22Z</time>
      </trkpt>
      <trkpt lat="48.1783" lon="6.78482">
        <ele>575.6</ele>
        <time>2024-11-18T15:52:30Z</time>
      </trkpt>
      <trkpt lat="48.17834" lon="6.78494">
        <ele>573.7</ele>
        <time>2024-11-18T15:52:38Z</time>
      </trkpt>
      <trkpt lat="48.17839" lon="6.78507">
        <ele>572.9</ele>
        <time>2024-11-18T15:52:50Z</time>
      </trkpt>
      <trkpt lat="48.17843" lon="6.78519">
        <ele>571.2</ele>
        <time>2024-11-18T15:52:58Z</time>
      </trkpt>
      <trkpt lat="48.17845" lon="6.78532">
        <ele>571.8</ele>
        <time>2024-11-18T15:53:06Z</time>
      </trkpt>
      <trkpt lat="48.17849" lon="6.78546">
        <ele>570.2</ele>
        <time>2024-11-18T15:53:13Z</time>
      </trkpt>
      <trkpt lat="48.17852" lon="6.78559">
        <ele>569.4</ele>
        <time>2024-11-18T15:53:20Z</time>
      </trkpt>
      <trkpt lat="48.17854" lon="6.78573">
        <ele>568.5</ele>
        <time>2024-11-18T15:53:27Z</time>
      </trkpt>
      <trkpt lat="48.17857" lon="6.78588">
        <ele>567.3</ele>
        <time>2024-11-18T15:53:37Z</time>
      </trkpt>
      <trkpt lat="48.17857" lon="6.78602">
        <ele>567.8</ele>
        <time>2024-11-18T15:53:45Z</time>
      </trkpt>
      <trkpt lat="48.17856" lon="6.78615">
        <ele>569.9</ele>
        <time>2024-11-18T15:53:53Z</time>
      </trkpt>
      <trkpt lat="48.17854" lon="6.78629">
        <ele>570.8</ele>
        <time>2024-11-18T15:54:01Z</time>
      </trkpt>
      <trkpt lat="48.17858" lon="6.78642">
        <ele>570.4</ele>
        <time>2024-11-18T15:54:08Z</time>
      </trkpt>
      <trkpt lat="48.17856" lon="6.78655">
        <ele>572.8</ele>
        <time>2024-11-18T15:54:15Z</time>
      </trkpt>
      <trkpt lat="48.17857" lon="6.7867">
        <ele>572.5</ele>
        <time>2024-11-18T15:54:23Z</time>
      </trkpt>
      <trkpt lat="48.17857" lon="6.78684">
        <ele>573.3</ele>
        <time>2024-11-18T15:54:31Z</time>
      </trkpt>
      <trkpt lat="48.17859" lon="6.78697">
        <ele>572.7</ele>
        <time>2024-11-18T15:54:39Z</time>
      </trkpt>
      <trkpt lat="48.1786" lon="6.78712">
        <ele>573.4</ele>
        <time>2024-11-18T15:54:47Z</time>
      </trkpt>
      <trkpt lat="48.17856" lon="6.78724">
        <ele>576.2</ele>
        <time>2024-11-18T15:54:54Z</time>
      </trkpt>
      <trkpt lat="48.17853" lon="6.78738">
        <ele>577.7</ele>
        <time>2024-11-18T15:55:04Z</time>
      </trkpt>
      <trkpt lat="48.17847" lon="6.78751">
        <ele>579.9</ele>
        <time>2024-11-18T15:55:11Z</time>
      </trkpt>
      <trkpt lat="48.17841" lon="6.78763">
        <ele>582.1</ele>
        <time>2024-11-18T15:55:19Z</time>
      </trkpt>
      <trkpt lat="48.17833" lon="6.7877">
        <ele>585.7</ele>
        <time>2024-11-18T15:55:25Z</time>
      </trkpt>
      <trkpt lat="48.17828" lon="6.78783">
        <ele>587.4</ele>
        <time>2024-11-18T15:55:33Z</time>
      </trkpt>
      <trkpt lat="48.17826" lon="6.78797">
        <ele>586.1</ele>
        <time>2024-11-18T15:55:42Z</time>
      </trkpt>
      <trkpt lat="48.17823" lon="6.7881">
        <ele>585.4</ele>
        <time>2024-11-18T15:55:52Z</time>
      </trkpt>
      <trkpt lat="48.17814" lon="6.78818">
        <ele>586.9</ele>
        <time>2024-11-18T15:56:02Z</time>
      </trkpt>
      <trkpt lat="48.17809" lon="6.7883">
        <ele>586.8</ele>
        <time>2024-11-18T15:56:10Z</time>
      </trkpt>
      <trkpt lat="48.17804" lon="6.78841">
        <ele>586.1</ele>
        <time>2024-11-18T15:56:19Z</time>
      </trkpt>
      <trkpt lat="48.17805" lon="6.78853">
        <ele>583.2</ele>
        <time>2024-11-18T15:56:39Z</time>
      </trkpt>
      <trkpt lat="48.17805" lon="6.78853">
        <ele>583.2</ele>
        <time>2024-11-18T15:56:40Z</time>
      </trkpt>
      <trkpt lat="48.17805" lon="6.78853">
        <ele>583.2</ele>
        <time>2024-11-18T15:56:49Z</time>
      </trkpt>
      <trkpt lat="48.17805" lon="6.78853">
        <ele>583.2</ele>
        <time>2024-11-18T15:56:50Z</time>
      </trkpt>
      <trkpt lat="48.17804" lon="6.78852">
        <ele>584.6</ele>
        <time>2024-11-18T15:56:51Z</time>
      </trkpt>
      <trkpt lat="48.17805" lon="6.78837">
        <ele>586.1</ele>
        <time>2024-11-18T15:57:11Z</time>
      </trkpt>
      <trkpt lat="48.17805" lon="6.78824">
        <ele>588.2</ele>
        <time>2024-11-18T15:57:20Z</time>
      </trkpt>
      <trkpt lat="48.17804" lon="6.78809">
        <ele>590.9</ele>
        <time>2024-11-18T15:57:31Z</time>
      </trkpt>
      <trkpt lat="48.17808" lon="6.78797">
        <ele>590.8</ele>
        <time>2024-11-18T15:57:44Z</time>
      </trkpt>
      <trkpt lat="48.17815" lon="6.78785">
        <ele>590.5</ele>
        <time>2024-11-18T15:57:54Z</time>
      </trkpt>
      <trkpt lat="48.1782" lon="6.78771">
        <ele>589.7</ele>
        <time>2024-11-18T15:58:01Z</time>
      </trkpt>
      <trkpt lat="48.17825" lon="6.78759">
        <ele>589.1</ele>
        <time>2024-11-18T15:58:10Z</time>
      </trkpt>
      <trkpt lat="48.17828" lon="6.78745">
        <ele>586.8</ele>
        <time>2024-11-18T15:58:16Z</time>
      </trkpt>
      <trkpt lat="48.1783" lon="6.78732">
        <ele>586.7</ele>
        <time>2024-11-18T15:58:23Z</time>
      </trkpt>
      <trkpt lat="48.17833" lon="6.78717">
        <ele>585.2</ele>
        <time>2024-11-18T15:58:32Z</time>
      </trkpt>
      <trkpt lat="48.1783" lon="6.78704">
        <ele>586.4</ele>
        <time>2024-11-18T15:58:46Z</time>
      </trkpt>
      <trkpt lat="48.17826" lon="6.7869">
        <ele>587.3</ele>
        <time>2024-11-18T15:58:58Z</time>
      </trkpt>
      <trkpt lat="48.17819" lon="6.78681">
        <ele>590.8</ele>
        <time>2024-11-18T15:59:07Z</time>
      </trkpt>
      <trkpt lat="48.17812" lon="6.7867">
        <ele>593.4</ele>
        <time>2024-11-18T15:59:13Z</time>
      </trkpt>
      <trkpt lat="48.17809" lon="6.78657">
        <ele>594.5</ele>
        <time>2024-11-18T15:59:25Z</time>
      </trkpt>
      <trkpt lat="48.17804" lon="6.78646">
        <ele>597.1</ele>
        <time>2024-11-18T15:59:39Z</time>
      </trkpt>
      <trkpt lat="48.178" lon="6.78632">
        <ele>597.9</ele>
        <time>2024-11-18T15:59:50Z</time>
      </trkpt>
      <trkpt lat="48.17795" lon="6.78621">
        <ele>600.4</ele>
        <time>2024-11-18T15:59:58Z</time>
      </trkpt>
      <trkpt lat="48.17794" lon="6.78607">
        <ele>599.2</ele>
        <time>2024-11-18T16:00:10Z</time>
      </trkpt>
      <trkpt lat="48.17791" lon="6.78594">
        <ele>599.9</ele>
        <time>2024-11-18T16:00:19Z</time>
      </trkpt>
      <trkpt lat="48.17789" lon="6.78586">
        <ele>600.8</ele>
        <time>2024-11-18T16:00:34Z</time>
      </trkpt>
      <trkpt lat="48.17789" lon="6.78586">
        <ele>600.8</ele>
        <time>2024-11-18T16:00:35Z</time>
      </trkpt>
      <trkpt lat="48.17789" lon="6.78586">
        <ele>600.8</ele>
        <time>2024-11-18T16:00:49Z</time>
      </trkpt>
      <trkpt lat="48.17789" lon="6.78587">
        <ele>601.1</ele>
        <time>2024-11-18T16:00:50Z</time>
      </trkpt>
      <trkpt lat="48.17791" lon="6.78601">
        <ele>600.4</ele>
        <time>2024-11-18T16:01:01Z</time>
      </trkpt>
      <trkpt lat="48.1779" lon="6.78616">
        <ele>602.8</ele>
        <time>2024-11-18T16:01:14Z</time>
      </trkpt>
      <trkpt lat="48.17793" lon="6.78629">
        <ele>602.5</ele>
        <time>2024-11-18T16:01:23Z</time>
      </trkpt>
      <trkpt lat="48.17798" lon="6.78641">
        <ele>600</ele>
        <time>2024-11-18T16:01:33Z</time>
      </trkpt>
      <trkpt lat="48.17804" lon="6.78653">
        <ele>597.6</ele>
        <time>2024-11-18T16:01:43Z</time>
      </trkpt>
      <trkpt lat="48.17808" lon="6.78667">
        <ele>594.9</ele>
        <time>2024-11-18T16:01:52Z</time>
      </trkpt>
      <trkpt lat="48.17812" lon="6.7868">
        <ele>593.6</ele>
        <time>2024-11-18T16:02:02Z</time>
      </trkpt>
      <trkpt lat="48.17818" lon="6.7869">
        <ele>591</ele>
        <time>2024-11-18T16:02:11Z</time>
      </trkpt>
      <trkpt lat="48.17823" lon="6.78702">
        <ele>588.8</ele>
        <time>2024-11-18T16:02:20Z</time>
      </trkpt>
      <trkpt lat="48.17826" lon="6.78716">
        <ele>587.9</ele>
        <time>2024-11-18T16:02:29Z</time>
      </trkpt>
      <trkpt lat="48.17828" lon="6.7873">
        <ele>587.9</ele>
        <time>2024-11-18T16:02:37Z</time>
      </trkpt>
      <trkpt lat="48.17827" lon="6.78744">
        <ele>587.9</ele>
        <time>2024-11-18T16:02:45Z</time>
      </trkpt>
      <trkpt lat="48.1782" lon="6.78756">
        <ele>590.1</ele>
        <time>2024-11-18T16:02:55Z</time>
      </trkpt>
      <trkpt lat="48.17814" lon="6.78768">
        <ele>591.8</ele>
        <time>2024-11-18T16:03:04Z</time>
      </trkpt>
      <trkpt lat="48.17811" lon="6.78782">
        <ele>592.9</ele>
        <time>2024-11-18T16:03:12Z</time>
      </trkpt>
      <trkpt lat="48.17809" lon="6.78797">
        <ele>590.7</ele>
        <time>2024-11-18T16:03:19Z</time>
      </trkpt>
      <trkpt lat="48.17807" lon="6.78811">
        <ele>589.8</ele>
        <time>2024-11-18T16:03:34Z</time>
      </trkpt>
      <trkpt lat="48.17802" lon="6.78823">
        <ele>588.9</ele>
        <time>2024-11-18T16:03:46Z</time>
      </trkpt>
      <trkpt lat="48.17803" lon="6.78837">
        <ele>586.7</ele>
        <time>2024-11-18T16:03:54Z</time>
      </trkpt>
      <trkpt lat="48.17804" lon="6.78852">
        <ele>583.7</ele>
        <time>2024-11-18T16:04:01Z</time>
      </trkpt>
      <trkpt lat="48.17802" lon="6.78867">
        <ele>582.2</ele>
        <time>2024-11-18T16:04:12Z</time>
      </trkpt>
      <trkpt lat="48.17799" lon="6.78883">
        <ele>580</ele>
        <time>2024-11-18T16:04:22Z</time>
      </trkpt>
      <trkpt lat="48.17796" lon="6.78897">
        <ele>577.8</ele>
        <time>2024-11-18T16:04:29Z</time>
      </trkpt>
      <trkpt lat="48.17795" lon="6.78902">
        <ele>577.6</ele>
        <time>2024-11-18T16:04:34Z</time>
      </trkpt>
      <trkpt lat="48.17796" lon="6.78904">
        <ele>577.6</ele>
        <time>2024-11-18T16:04:35Z</time>
      </trkpt>
      <trkpt lat="48.17796" lon="6.78904">
        <ele>577</ele>
        <time>2024-11-18T16:04:36Z</time>
      </trkpt>
      <trkpt lat="48.17796" lon="6.78905">
        <ele>577</ele>
        <time>2024-11-18T16:04:37Z</time>
      </trkpt>
      <trkpt lat="48.17796" lon="6.78905">
        <ele>576.9</ele>
        <time>2024-11-18T16:04:38Z</time>
      </trkpt>
      <trkpt lat="48.17796" lon="6.78905">
        <ele>576.9</ele>
        <time>2024-11-18T16:04:39Z</time>
      </trkpt>
      <trkpt lat="48.17797" lon="6.78906">
        <ele>576.5</ele>
        <time>2024-11-18T16:04:40Z</time>
      </trkpt>
      <trkpt lat="48.17794" lon="6.78909">
        <ele>576.3</ele>
        <time>2024-11-18T16:04:46Z</time>
      </trkpt>
      <trkpt lat="48.17793" lon="6.7891">
        <ele>576.8</ele>
        <time>2024-11-18T16:04:47Z</time>
      </trkpt>
      <trkpt lat="48.17793" lon="6.78911">
        <ele>576.8</ele>
        <time>2024-11-18T16:04:48Z</time>
      </trkpt>
      <trkpt lat="48.17794" lon="6.78925">
        <ele>574.4</ele>
        <time>2024-11-18T16:04:59Z</time>
      </trkpt>
      <trkpt lat="48.17791" lon="6.78938">
        <ele>573</ele>
        <time>2024-11-18T16:05:08Z</time>
      </trkpt>
      <trkpt lat="48.17787" lon="6.78951">
        <ele>571.9</ele>
        <time>2024-11-18T16:05:17Z</time>
      </trkpt>
      <trkpt lat="48.17783" lon="6.78963">
        <ele>571.2</ele>
        <time>2024-11-18T16:05:26Z</time>
      </trkpt>
      <trkpt lat="48.17776" lon="6.78974">
        <ele>571.1</ele>
        <time>2024-11-18T16:05:36Z</time>
      </trkpt>
      <trkpt lat="48.17769" lon="6.78982">
        <ele>571</ele>
        <time>2024-11-18T16:05:48Z</time>
      </trkpt>
      <trkpt lat="48.17762" lon="6.78994">
        <ele>570.9</ele>
        <time>2024-11-18T16:05:58Z</time>
      </trkpt>
      <trkpt lat="48.17759" lon="6.79008">
        <ele>570.7</ele>
        <time>2024-11-18T16:06:06Z</time>
      </trkpt>
      <trkpt lat="48.17765" lon="6.79019">
        <ele>569.8</ele>
        <time>2024-11-18T16:06:18Z</time>
      </trkpt>
      <trkpt lat="48.17769" lon="6.79032">
        <ele>568.2</ele>
        <time>2024-11-18T16:06:28Z</time>
      </trkpt>
      <trkpt lat="48.17765" lon="6.79045">
        <ele>567.5</ele>
        <time>2024-11-18T16:06:35Z</time>
      </trkpt>
      <trkpt lat="48.17763" lon="6.79059">
        <ele>566.4</ele>
        <time>2024-11-18T16:06:42Z</time>
      </trkpt>
      <trkpt lat="48.17763" lon="6.79073">
        <ele>565.5</ele>
        <time>2024-11-18T16:06:49Z</time>
      </trkpt>
      <trkpt lat="48.1776" lon="6.79086">
        <ele>565.2</ele>
        <time>2024-11-18T16:06:56Z</time>
      </trkpt>
      <trkpt lat="48.17757" lon="6.79099">
        <ele>565</ele>
        <time>2024-11-18T16:07:03Z</time>
      </trkpt>
      <trkpt lat="48.17753" lon="6.79111">
        <ele>564.6</ele>
        <time>2024-11-18T16:07:10Z</time>
      </trkpt>
      <trkpt lat="48.17748" lon="6.79123">
        <ele>563.7</ele>
        <time>2024-11-18T16:07:18Z</time>
      </trkpt>
      <trkpt lat="48.17744" lon="6.79137">
        <ele>563.1</ele>
        <time>2024-11-18T16:07:25Z</time>
      </trkpt>
      <trkpt lat="48.17742" lon="6.7915">
        <ele>562.3</ele>
        <time>2024-11-18T16:07:32Z</time>
      </trkpt>
      <trkpt lat="48.17741" lon="6.79164">
        <ele>561.2</ele>
        <time>2024-11-18T16:07:39Z</time>
      </trkpt>
      <trkpt lat="48.1774" lon="6.79178">
        <ele>560.3</ele>
        <time>2024-11-18T16:07:47Z</time>
      </trkpt>
      <trkpt lat="48.17748" lon="6.79187">
        <ele>559</ele>
        <time>2024-11-18T16:07:56Z</time>
      </trkpt>
      <trkpt lat="48.17758" lon="6.79185">
        <ele>557.7</ele>
        <time>2024-11-18T16:08:05Z</time>
      </trkpt>
      <trkpt lat="48.17767" lon="6.79179">
        <ele>556.3</ele>
        <time>2024-11-18T16:08:14Z</time>
      </trkpt>
      <trkpt lat="48.17774" lon="6.79172">
        <ele>555.1</ele>
        <time>2024-11-18T16:08:26Z</time>
      </trkpt>
      <trkpt lat="48.17775" lon="6.79172">
        <ele>555</ele>
        <time>2024-11-18T16:08:27Z</time>
      </trkpt>
      <trkpt lat="48.17775" lon="6.79171">
        <ele>554.9</ele>
        <time>2024-11-18T16:08:28Z</time>
      </trkpt>
      <trkpt lat="48.17776" lon="6.79171">
        <ele>554.8</ele>
        <time>2024-11-18T16:08:29Z</time>
      </trkpt>
      <trkpt lat="48.17777" lon="6.7917">
        <ele>554.6</ele>
        <time>2024-11-18T16:08:30Z</time>
      </trkpt>
      <trkpt lat="48.17787" lon="6.7917">
        <ele>553.2</ele>
        <time>2024-11-18T16:08:39Z</time>
      </trkpt>
      <trkpt lat="48.17797" lon="6.79172">
        <ele>551.9</ele>
        <time>2024-11-18T16:08:48Z</time>
      </trkpt>
      <trkpt lat="48.17806" lon="6.79176">
        <ele>550.8</ele>
        <time>2024-11-18T16:08:57Z</time>
      </trkpt>
      <trkpt lat="48.17816" lon="6.7918">
        <ele>549.9</ele>
        <time>2024-11-18T16:09:06Z</time>
      </trkpt>
      <trkpt lat="48.17825" lon="6.79185">
        <ele>549.2</ele>
        <time>2024-11-18T16:09:15Z</time>
      </trkpt>
      <trkpt lat="48.17835" lon="6.79184">
        <ele>548.4</ele>
        <time>2024-11-18T16:09:30Z</time>
      </trkpt>
      <trkpt lat="48.17842" lon="6.79176">
        <ele>547.6</ele>
        <time>2024-11-18T16:09:37Z</time>
      </trkpt>
      <trkpt lat="48.1785" lon="6.79167">
        <ele>546.8</ele>
        <time>2024-11-18T16:09:44Z</time>
      </trkpt>
      <trkpt lat="48.17856" lon="6.79157">
        <ele>545.9</ele>
        <time>2024-11-18T16:09:52Z</time>
      </trkpt>
      <trkpt lat="48.17863" lon="6.79148">
        <ele>545</ele>
        <time>2024-11-18T16:10:01Z</time>
      </trkpt>
      <trkpt lat="48.17868" lon="6.79136">
        <ele>544.1</ele>
        <time>2024-11-18T16:10:10Z</time>
      </trkpt>
      <trkpt lat="48.17875" lon="6.79125">
        <ele>542.9</ele>
        <time>2024-11-18T16:10:19Z</time>
      </trkpt>
      <trkpt lat="48.17882" lon="6.79114">
        <ele>541.7</ele>
        <time>2024-11-18T16:10:27Z</time>
      </trkpt>
      <trkpt lat="48.17888" lon="6.79103">
        <ele>540.5</ele>
        <time>2024-11-18T16:10:35Z</time>
      </trkpt>
      <trkpt lat="48.17894" lon="6.79091">
        <ele>539.5</ele>
        <time>2024-11-18T16:10:43Z</time>
      </trkpt>
      <trkpt lat="48.17901" lon="6.7908">
        <ele>538.7</ele>
        <time>2024-11-18T16:10:51Z</time>
      </trkpt>
      <trkpt lat="48.17906" lon="6.79069">
        <ele>537.9</ele>
        <time>2024-11-18T16:11:01Z</time>
      </trkpt>
      <trkpt lat="48.17913" lon="6.7906">
        <ele>537.1</ele>
        <time>2024-11-18T16:11:10Z</time>
      </trkpt>
      <trkpt lat="48.17919" lon="6.79048">
        <ele>536.2</ele>
        <time>2024-11-18T16:11:20Z</time>
      </trkpt>
      <trkpt lat="48.17925" lon="6.79037">
        <ele>535.3</ele>
        <time>2024-11-18T16:11:29Z</time>
      </trkpt>
      <trkpt lat="48.1793" lon="6.79029">
        <ele>534.7</ele>
        <time>2024-11-18T16:11:41Z</time>
      </trkpt>
      <trkpt lat="48.17931" lon="6.79029">
        <ele>534.6</ele>
        <time>2024-11-18T16:11:42Z</time>
      </trkpt>
      <trkpt lat="48.17931" lon="6.79029">
        <ele>534.6</ele>
        <time>2024-11-18T16:11:43Z</time>
      </trkpt>
      <trkpt lat="48.17934" lon="6.79027">
        <ele>534.3</ele>
        <time>2024-11-18T16:11:47Z</time>
      </trkpt>
      <trkpt lat="48.17935" lon="6.79026">
        <ele>534.3</ele>
        <time>2024-11-18T16:11:48Z</time>
      </trkpt>
      <trkpt lat="48.17942" lon="6.79017">
        <ele>533.6</ele>
        <time>2024-11-18T16:11:59Z</time>
      </trkpt>
      <trkpt lat="48.1795" lon="6.7901">
        <ele>533</ele>
        <time>2024-11-18T16:12:11Z</time>
      </trkpt>
      <trkpt lat="48.17959" lon="6.79008">
        <ele>532.5</ele>
        <time>2024-11-18T16:12:17Z</time>
      </trkpt>
      <trkpt lat="48.17968" lon="6.79004">
        <ele>531.8</ele>
        <time>2024-11-18T16:12:25Z</time>
      </trkpt>
      <trkpt lat="48.17977" lon="6.79">
        <ele>531</ele>
        <time>2024-11-18T16:12:35Z</time>
      </trkpt>
      <trkpt lat="48.17984" lon="6.78992">
        <ele>530.2</ele>
        <time>2024-11-18T16:12:46Z</time>
      </trkpt>
      <trkpt lat="48.17993" lon="6.78986">
        <ele>529.2</ele>
        <time>2024-11-18T16:12:56Z</time>
      </trkpt>
      <trkpt lat="48.18001" lon="6.7898">
        <ele>528.1</ele>
        <time>2024-11-18T16:13:02Z</time>
      </trkpt>
      <trkpt lat="48.18008" lon="6.78969">
        <ele>526.9</ele>
        <time>2024-11-18T16:13:15Z</time>
      </trkpt>
      <trkpt lat="48.18012" lon="6.78956">
        <ele>525.6</ele>
        <time>2024-11-18T16:13:26Z</time>
      </trkpt>
      <trkpt lat="48.1802" lon="6.78946">
        <ele>524.3</ele>
        <time>2024-11-18T16:13:34Z</time>
      </trkpt>
      <trkpt lat="48.18023" lon="6.78932">
        <ele>522.8</ele>
        <time>2024-11-18T16:13:40Z</time>
      </trkpt>
      <trkpt lat="48.18021" lon="6.78917">
        <ele>521.4</ele>
        <time>2024-11-18T16:13:50Z</time>
      </trkpt>
      <trkpt lat="48.18021" lon="6.78913">
        <ele>521</ele>
        <time>2024-11-18T16:14:06Z</time>
      </trkpt>
      <trkpt lat="48.18022" lon="6.78913">
        <ele>521</ele>
        <time>2024-11-18T16:14:07Z</time>
      </trkpt>
      <trkpt lat="48.18023" lon="6.78913">
        <ele>520.8</ele>
        <time>2024-11-18T16:14:08Z</time>
      </trkpt>
      <trkpt lat="48.18022" lon="6.7891">
        <ele>520.5</ele>
        <time>2024-11-18T16:14:16Z</time>
      </trkpt>
      <trkpt lat="48.18022" lon="6.78909">
        <ele>520.5</ele>
        <time>2024-11-18T16:14:17Z</time>
      </trkpt>
      <trkpt lat="48.18022" lon="6.78909">
        <ele>520.5</ele>
        <time>2024-11-18T16:14:18Z</time>
      </trkpt>
      <trkpt lat="48.18022" lon="6.78908">
        <ele>520.4</ele>
        <time>2024-11-18T16:14:19Z</time>
      </trkpt>
      <trkpt lat="48.18023" lon="6.78908">
        <ele>520.3</ele>
        <time>2024-11-18T16:14:20Z</time>
      </trkpt>
      <trkpt lat="48.18021" lon="6.78903">
        <ele>519.9</ele>
        <time>2024-11-18T16:14:29Z</time>
      </trkpt>
      <trkpt lat="48.18021" lon="6.78902">
        <ele>519.8</ele>
        <time>2024-11-18T16:14:30Z</time>
      </trkpt>
      <trkpt lat="48.18016" lon="6.78889">
        <ele>518.6</ele>
        <time>2024-11-18T16:14:39Z</time>
      </trkpt>
      <trkpt lat="48.18012" lon="6.78876">
        <ele>517.6</ele>
        <time>2024-11-18T16:14:47Z</time>
      </trkpt>
      <trkpt lat="48.18008" lon="6.78863">
        <ele>516.6</ele>
        <time>2024-11-18T16:14:54Z</time>
      </trkpt>
      <trkpt lat="48.18003" lon="6.78851">
        <ele>515.5</ele>
        <time>2024-11-18T16:15:02Z</time>
      </trkpt>
      <trkpt lat="48.17998" lon="6.7884">
        <ele>514.3</ele>
        <time>2024-11-18T16:15:11Z</time>
      </trkpt>
      <trkpt lat="48.17996" lon="6.78836">
        <ele>513.9</ele>
        <time>2024-11-18T16:15:19Z</time>
      </trkpt>
      <trkpt lat="48.17997" lon="6.78836">
        <ele>513.8</ele>
        <time>2024-11-18T16:15:20Z</time>
      </trkpt>
      <trkpt lat="48.17997" lon="6.78837">
        <ele>513.7</ele>
        <time>2024-11-18T16:15:23Z</time>
      </trkpt>
      <trkpt lat="48.17996" lon="6.78838">
        <ele>513.6</ele>
        <time>2024-11-18T16:15:24Z</time>
      </trkpt>
      <trkpt lat="48.17993" lon="6.78851">
        <ele>512.3</ele>
        <time>2024-11-18T16:15:37Z</time>
      </trkpt>
      <trkpt lat="48.17999" lon="6.78863">
        <ele>510.9</ele>
        <time>2024-11-18T16:15:46Z</time>
      </trkpt>
      <trkpt lat="48.18002" lon="6.78876">
        <ele>509.6</ele>
        <time>2024-11-18T16:15:56Z</time>
      </trkpt>
      <trkpt lat="48.18007" lon="6.78888">
        <ele>508.3</ele>
        <time>2024-11-18T16:16:04Z</time>
      </trkpt>
      <trkpt lat="48.18009" lon="6.78901">
        <ele>507.1</ele>
        <time>2024-11-18T16:16:12Z</time>
      </trkpt>
      <trkpt lat="48.18012" lon="6.78915">
        <ele>505.9</ele>
        <time>2024-11-18T16:16:21Z</time>
      </trkpt>
      <trkpt lat="48.1802" lon="6.78924">
        <ele>504.8</ele>
        <time>2024-11-18T16:16:37Z</time>
      </trkpt>
      <trkpt lat="48.1803" lon="6.78917">
        <ele>503.6</ele>
        <time>2024-11-18T16:16:57Z</time>
      </trkpt>
      <trkpt lat="48.18035" lon="6.78906">
        <ele>502.6</ele>
        <time>2024-11-18T16:17:10Z</time>
      </trkpt>
      <trkpt lat="48.18045" lon="6.78904">
        <ele>501.6</ele>
        <time>2024-11-18T16:17:16Z</time>
      </trkpt>
      <trkpt lat="48.18055" lon="6.78904">
        <ele>500.5</ele>
        <time>2024-11-18T16:17:27Z</time>
      </trkpt>
      <trkpt lat="48.18066" lon="6.78905">
        <ele>499.3</ele>
        <time>2024-11-18T16:17:35Z</time>
      </trkpt>
      <trkpt lat="48.18075" lon="6.78906">
        <ele>498.4</ele>
        <time>2024-11-18T16:17:47Z</time>
      </trkpt>
      <trkpt lat="48.18086" lon="6.78907">
        <ele>497.2</ele>
        <time>2024-11-18T16:17:53Z</time>
      </trkpt>
      <trkpt lat="48.18095" lon="6.78909">
        <ele>496.2</ele>
        <time>2024-11-18T16:17:58Z</time>
      </trkpt>
      <trkpt lat="48.18105" lon="6.78912">
        <ele>495.1</ele>
        <time>2024-11-18T16:18:05Z</time>
      </trkpt>
      <trkpt lat="48.18114" lon="6.78917">
        <ele>494.1</ele>
        <time>2024-11-18T16:18:12Z</time>
      </trkpt>
      <trkpt lat="48.18122" lon="6.78923">
        <ele>493.2</ele>
        <time>2024-11-18T16:18:19Z</time>
      </trkpt>
      <trkpt lat="48.1813" lon="6.78931">
        <ele>492.3</ele>
        <time>2024-11-18T16:18:28Z</time>
      </trkpt>
      <trkpt lat="48.18139" lon="6.78933">
        <ele>491.3</ele>
        <time>2024-11-18T16:18:43Z</time>
      </trkpt>
      <trkpt lat="48.18147" lon="6.78927">
        <ele>490.2</ele>
        <time>2024-11-18T16:18:53Z</time>
      </trkpt>
      <trkpt lat="48.18155" lon="6.78918">
        <ele>488.9</ele>
        <time>2024-11-18T16:19:05Z</time>
      </trkpt>
      <trkpt lat="48.18165" lon="6.78913">
        <ele>487.5</ele>
        <time>2024-11-18T16:19:13Z</time>
      </trkpt>
      <trkpt lat="48.18174" lon="6.78909">
        <ele>486.3</ele>
        <time>2024-11-18T16:19:22Z</time>
      </trkpt>
      <trkpt lat="48.18182" lon="6.78904">
        <ele>485.1</ele>
        <time>2024-11-18T16:19:29Z</time>
      </trkpt>
      <trkpt lat="48.1819" lon="6.78897">
        <ele>484.1</ele>
        <time>2024-11-18T16:19:38Z</time>
      </trkpt>
      <trkpt lat="48.18199" lon="6.78891">
        <ele>483</ele>
        <time>2024-11-18T16:19:45Z</time>
      </trkpt>
      <trkpt lat="48.18203" lon="6.78888">
        <ele>482.6</ele>
        <time>2024-11-18T16:19:51Z</time>
      </trkpt>
      <trkpt lat="48.18203" lon="6.78888">
        <ele>482.6</ele>
        <time>2024-11-18T16:19:52Z</time>
      </trkpt>
      <trkpt lat="48.18202" lon="6.78888">
        <ele>482.5</ele>
        <time>2024-11-18T16:19:53Z</time>
      </trkpt>
      <trkpt lat="48.18204" lon="6.78887">
        <ele>482.4</ele>
        <time>2024-11-18T16:20:01Z</time>
      </trkpt>
      <trkpt lat="48.18204" lon="6.78886">
        <ele>482.3</ele>
        <time>2024-11-18T16:20:02Z</time>
      </trkpt>
      <trkpt lat="48.18205" lon="6.78885">
        <ele>482.3</ele>
        <time>2024-11-18T16:20:03Z</time>
      </trkpt>
      <trkpt lat="48.18213" lon="6.78878">
        <ele>481.5</ele>
        <time>2024-11-18T16:20:12Z</time>
      </trkpt>
      <trkpt lat="48.18221" lon="6.78872">
        <ele>480.8</ele>
        <time>2024-11-18T16:20:21Z</time>
      </trkpt>
      <trkpt lat="48.1823" lon="6.78865">
        <ele>480</ele>
        <time>2024-11-18T16:20:29Z</time>
      </trkpt>
      <trkpt lat="48.18239" lon="6.78857">
        <ele>479.1</ele>
        <time>2024-11-18T16:20:38Z</time>
      </trkpt>
      <trkpt lat="48.18246" lon="6.78849">
        <ele>478.2</ele>
        <time>2024-11-18T16:20:46Z</time>
      </trkpt>
      <trkpt lat="48.18255" lon="6.7884">
        <ele>477.2</ele>
        <time>2024-11-18T16:20:54Z</time>
      </trkpt>
      <trkpt lat="48.18262" lon="6.78833">
        <ele>476.3</ele>
        <time>2024-11-18T16:21:03Z</time>
      </trkpt>
      <trkpt lat="48.18271" lon="6.78826">
        <ele>475.4</ele>
        <time>2024-11-18T16:21:10Z</time>
      </trkpt>
      <trkpt lat="48.18278" lon="6.78819">
        <ele>474.8</ele>
        <time>2024-11-18T16:21:18Z</time>
      </trkpt>
      <trkpt lat="48.18285" lon="6.78808">
        <ele>474.1</ele>
        <time>2024-11-18T16:21:27Z</time>
      </trkpt>
      <trkpt lat="48.18292" lon="6.78798">
        <ele>473.6</ele>
        <time>2024-11-18T16:21:38Z</time>
      </trkpt>
      <trkpt lat="48.183" lon="6.78791">
        <ele>473.2</ele>
        <time>2024-11-18T16:21:47Z</time>
      </trkpt>
      <trkpt lat="48.18309" lon="6.78787">
        <ele>472.8</ele>
        <time>2024-11-18T16:21:59Z</time>
      </trkpt>
      <trkpt lat="48.18317" lon="6.7878">
        <ele>472.4</ele>
        <time>2024-11-18T16:22:13Z</time>
      </trkpt>
      <trkpt lat="48.18325" lon="6.78771">
        <ele>472.1</ele>
        <time>2024-11-18T16:22:22Z</time>
      </trkpt>
      <trkpt lat="48.18334" lon="6.78764">
        <ele>471.7</ele>
        <time>2024-11-18T16:22:29Z</time>
      </trkpt>
      <trkpt lat="48.18343" lon="6.78756">
        <ele>471.4</ele>
        <time>2024-11-18T16:22:39Z</time>
      </trkpt>
      <trkpt lat="48.1835" lon="6.78745">
        <ele>471.1</ele>
        <time>2024-11-18T16:22:46Z</time>
      </trkpt>
      <trkpt lat="48.18357" lon="6.78736">
        <ele>470.7</ele>
        <time>2024-11-18T16:22:53Z</time>
      </trkpt>
      <trkpt lat="48.18364" lon="6.78726">
        <ele>470.3</ele>
        <time>2024-11-18T16:23:01Z</time>
      </trkpt>
      <trkpt lat="48.18371" lon="6.78717">
        <ele>470</ele>
        <time>2024-11-18T16:23:08Z</time>
      </trkpt>
      <trkpt lat="48.18377" lon="6.78707">
        <ele>469.7</ele>
        <time>2024-11-18T16:23:15Z</time>
      </trkpt>
      <trkpt lat="48.18384" lon="6.78695">
        <ele>469.3</ele>
        <time>2024-11-18T16:23:23Z</time>
      </trkpt>
      <trkpt lat="48.18391" lon="6.78685">
        <ele>469</ele>
        <time>2024-11-18T16:23:30Z</time>
      </trkpt>
      <trkpt lat="48.18398" lon="6.78675">
        <ele>468.6</ele>
        <time>2024-11-18T16:23:39Z</time>
      </trkpt>
      <trkpt lat="48.18404" lon="6.78664">
        <ele>468</ele>
        <time>2024-11-18T16:23:48Z</time>
      </trkpt>
      <trkpt lat="48.18412" lon="6.78656">
        <ele>467.1</ele>
        <time>2024-11-18T16:24:01Z</time>
      </trkpt>
      <trkpt lat="48.18421" lon="6.78651">
        <ele>466.4</ele>
        <time>2024-11-18T16:24:10Z</time>
      </trkpt>
      <trkpt lat="48.1843" lon="6.78647">
        <ele>465.8</ele>
        <time>2024-11-18T16:24:19Z</time>
      </trkpt>
      <trkpt lat="48.1844" lon="6.78646">
        <ele>465.3</ele>
        <time>2024-11-18T16:24:28Z</time>
      </trkpt>
      <trkpt lat="48.18449" lon="6.78644">
        <ele>464.9</ele>
        <time>2024-11-18T16:24:36Z</time>
      </trkpt>
      <trkpt lat="48.18458" lon="6.78644">
        <ele>464.5</ele>
        <time>2024-11-18T16:24:44Z</time>
      </trkpt>
      <trkpt lat="48.18468" lon="6.78646">
        <ele>464.3</ele>
        <time>2024-11-18T16:24:52Z</time>
      </trkpt>
      <trkpt lat="48.18477" lon="6.78649">
        <ele>464.1</ele>
        <time>2024-11-18T16:24:59Z</time>
      </trkpt>
      <trkpt lat="48.18486" lon="6.78655">
        <ele>463.9</ele>
        <time>2024-11-18T16:25:07Z</time>
      </trkpt>
      <trkpt lat="48.18492" lon="6.78666">
        <ele>463.9</ele>
        <time>2024-11-18T16:25:15Z</time>
      </trkpt>
      <trkpt lat="48.18495" lon="6.7868">
        <ele>463.8</ele>
        <time>2024-11-18T16:25:23Z</time>
      </trkpt>
      <trkpt lat="48.18498" lon="6.78693">
        <ele>463.9</ele>
        <time>2024-11-18T16:25:30Z</time>
      </trkpt>
      <trkpt lat="48.18506" lon="6.78702">
        <ele>463.7</ele>
        <time>2024-11-18T16:25:38Z</time>
      </trkpt>
      <trkpt lat="48.18515" lon="6.78698">
        <ele>463.4</ele>
        <time>2024-11-18T16:25:45Z</time>
      </trkpt>
      <trkpt lat="48.18524" lon="6.78694">
        <ele>463.2</ele>
        <time>2024-11-18T16:25:52Z</time>
      </trkpt>
      <trkpt lat="48.18533" lon="6.7869">
        <ele>463</ele>
        <time>2024-11-18T16:26:00Z</time>
      </trkpt>
      <trkpt lat="48.18542" lon="6.78687">
        <ele>462.9</ele>
        <time>2024-11-18T16:26:07Z</time>
      </trkpt>
      <trkpt lat="48.18552" lon="6.78683">
        <ele>462.7</ele>
        <time>2024-11-18T16:26:15Z</time>
      </trkpt>
      <trkpt lat="48.18561" lon="6.78681">
        <ele>462.6</ele>
        <time>2024-11-18T16:26:23Z</time>
      </trkpt>
      <trkpt lat="48.1857" lon="6.7868">
        <ele>462.5</ele>
        <time>2024-11-18T16:26:30Z</time>
      </trkpt>
      <trkpt lat="48.1858" lon="6.78679">
        <ele>462.4</ele>
        <time>2024-11-18T16:26:38Z</time>
      </trkpt>
      <trkpt lat="48.1859" lon="6.78677">
        <ele>462.3</ele>
        <time>2024-11-18T16:26:46Z</time>
      </trkpt>
      <trkpt lat="48.186" lon="6.78677">
        <ele>462.2</ele>
        <time>2024-11-18T16:26:54Z</time>
      </trkpt>
      <trkpt lat="48.18609" lon="6.7868">
        <ele>462.1</ele>
        <time>2024-11-18T16:27:01Z</time>
      </trkpt>
      <trkpt lat="48.18618" lon="6.78678">
        <ele>462</ele>
        <time>2024-11-18T16:27:08Z</time>
      </trkpt>
      <trkpt lat="48.18628" lon="6.78677">
        <ele>461.8</ele>
        <time>2024-11-18T16:27:16Z</time>
      </trkpt>
      <trkpt lat="48.18637" lon="6.78676">
        <ele>461.8</ele>
        <time>2024-11-18T16:27:24Z</time>
      </trkpt>
      <trkpt lat="48.18646" lon="6.78674">
        <ele>461.8</ele>
        <time>2024-11-18T16:27:31Z</time>
      </trkpt>
      <trkpt lat="48.18656" lon="6.78669">
        <ele>461.9</ele>
        <time>2024-11-18T16:27:40Z</time>
      </trkpt>
      <trkpt lat="48.18665" lon="6.78666">
        <ele>462</ele>
        <time>2024-11-18T16:27:47Z</time>
      </trkpt>
      <trkpt lat="48.18675" lon="6.78664">
        <ele>462</ele>
        <time>2024-11-18T16:27:55Z</time>
      </trkpt>
      <trkpt lat="48.18684" lon="6.78658">
        <ele>461.7</ele>
        <time>2024-11-18T16:28:02Z</time>
      </trkpt>
      <trkpt lat="48.18692" lon="6.78648">
        <ele>461</ele>
        <time>2024-11-18T16:28:09Z</time>
      </trkpt>
      <trkpt lat="48.18699" lon="6.78638">
        <ele>460.4</ele>
        <time>2024-11-18T16:28:17Z</time>
      </trkpt>
      <trkpt lat="48.18706" lon="6.78629">
        <ele>459.7</ele>
        <time>2024-11-18T16:28:24Z</time>
      </trkpt>
      <trkpt lat="48.18714" lon="6.7862">
        <ele>459</ele>
        <time>2024-11-18T16:28:32Z</time>
      </trkpt>
      <trkpt lat="48.18722" lon="6.78613">
        <ele>458.3</ele>
        <time>2024-11-18T16:28:39Z</time>
      </trkpt>
      <trkpt lat="48.18728" lon="6.78603">
        <ele>457.5</ele>
        <time>2024-11-18T16:28:45Z</time>
      </trkpt>
      <trkpt lat="48.18735" lon="6.78592">
        <ele>456.7</ele>
        <time>2024-11-18T16:28:52Z</time>
      </trkpt>
      <trkpt lat="48.18742" lon="6.78582">
        <ele>455.8</ele>
        <time>2024-11-18T16:29:01Z</time>
      </trkpt>
      <trkpt lat="48.1875" lon="6.78572">
        <ele>454.9</ele>
        <time>2024-11-18T16:29:09Z</time>
      </trkpt>
      <trkpt lat="48.18756" lon="6.78563">
        <ele>454.1</ele>
        <time>2024-11-18T16:29:16Z</time>
      </trkpt>
      <trkpt lat="48.18763" lon="6.78553">
        <ele>453.4</ele>
        <time>2024-11-18T16:29:23Z</time>
      </trkpt>
      <trkpt lat="48.1877" lon="6.78543">
        <ele>452.6</ele>
        <time>2024-11-18T16:29:30Z</time>
      </trkpt>
      <trkpt lat="48.18777" lon="6.78535">
        <ele>452</ele>
        <time>2024-11-18T16:29:37Z</time>
      </trkpt>
      <trkpt lat="48.18784" lon="6.78525">
        <ele>451.5</ele>
        <time>2024-11-18T16:29:44Z</time>
      </trkpt>
      <trkpt lat="48.18791" lon="6.78515">
        <ele>451</ele>
        <time>2024-11-18T16:29:51Z</time>
      </trkpt>
      <trkpt lat="48.18798" lon="6.78505">
        <ele>450.7</ele>
        <time>2024-11-18T16:29:58Z</time>
      </trkpt>
      <trkpt lat="48.18805" lon="6.78495">
        <ele>450.4</ele>
        <time>2024-11-18T16:30:05Z</time>
      </trkpt>
      <trkpt lat="48.18813" lon="6.78485">
        <ele>450.1</ele>
        <time>2024-11-18T16:30:12Z</time>
      </trkpt>
      <trkpt lat="48.1882" lon="6.78476">
        <ele>449.9</ele>
        <time>2024-11-18T16:30:19Z</time>
      </trkpt>
      <trkpt lat="48.18827" lon="6.78466">
        <ele>449.8</ele>
        <time>2024-11-18T16:30:26Z</time>
      </trkpt>
      <trkpt lat="48.18834" lon="6.78456">
        <ele>449.8</ele>
        <time>2024-11-18T16:30:33Z</time>
      </trkpt>
      <trkpt lat="48.18841" lon="6.78446">
        <ele>449.9</ele>
        <time>2024-11-18T16:30:40Z</time>
      </trkpt>
      <trkpt lat="48.18848" lon="6.78436">
        <ele>450.1</ele>
        <time>2024-11-18T16:30:47Z</time>
      </trkpt>
      <trkpt lat="48.18856" lon="6.78426">
        <ele>450.3</ele>
        <time>2024-11-18T16:30:54Z</time>
      </trkpt>
      <trkpt lat="48.18863" lon="6.78416">
        <ele>450.3</ele>
        <time>2024-11-18T16:31:01Z</time>
      </trkpt>
      <trkpt lat="48.18868" lon="6.78404">
        <ele>450.2</ele>
        <time>2024-11-18T16:31:08Z</time>
      </trkpt>
      <trkpt lat="48.18872" lon="6.78391">
        <ele>450.1</ele>
        <time>2024-11-18T16:31:15Z</time>
      </trkpt>
      <trkpt lat="48.18878" lon="6.78379">
        <ele>450</ele>
        <time>2024-11-18T16:31:23Z</time>
      </trkpt>
      <trkpt lat="48.18886" lon="6.78371">
        <ele>450</ele>
        <time>2024-11-18T16:31:30Z</time>
      </trkpt>
      <trkpt lat="48.18894" lon="6.78363">
        <ele>449.8</ele>
        <time>2024-11-18T16:31:37Z</time>
      </trkpt>
      <trkpt lat="48.18903" lon="6.78363">
        <ele>449.8</ele>
        <time>2024-11-18T16:31:44Z</time>
      </trkpt>
      <trkpt lat="48.18913" lon="6.78366">
        <ele>449.7</ele>
        <time>2024-11-18T16:31:52Z</time>
      </trkpt>
      <trkpt lat="48.18922" lon="6.78371">
        <ele>449.7</ele>
        <time>2024-11-18T16:32:00Z</time>
      </trkpt>
      <trkpt lat="48.18931" lon="6.78377">
        <ele>449.7</ele>
        <time>2024-11-18T16:32:07Z</time>
      </trkpt>
      <trkpt lat="48.18939" lon="6.78385">
        <ele>449.7</ele>
        <time>2024-11-18T16:32:15Z</time>
      </trkpt>
      <trkpt lat="48.18948" lon="6.7839">
        <ele>449.6</ele>
        <time>2024-11-18T16:32:21Z</time>
      </trkpt>
      <trkpt lat="48.18956" lon="6.78398">
        <ele>449.5</ele>
        <time>2024-11-18T16:32:28Z</time>
      </trkpt>
      <trkpt lat="48.18962" lon="6.78408">
        <ele>449.5</ele>
        <time>2024-11-18T16:32:35Z</time>
      </trkpt>
      <trkpt lat="48.1897" lon="6.78415">
        <ele>449.4</ele>
        <time>2024-11-18T16:32:41Z</time>
      </trkpt>
      <trkpt lat="48.18978" lon="6.78423">
        <ele>449.3</ele>
        <time>2024-11-18T16:32:48Z</time>
      </trkpt>
      <trkpt lat="48.18986" lon="6.78431">
        <ele>449.2</ele>
        <time>2024-11-18T16:32:55Z</time>
      </trkpt>
      <trkpt lat="48.18993" lon="6.7844">
        <ele>449.1</ele>
        <time>2024-11-18T16:33:02Z</time>
      </trkpt>
      <trkpt lat="48.19001" lon="6.78448">
        <ele>449</ele>
        <time>2024-11-18T16:33:09Z</time>
      </trkpt>
      <trkpt lat="48.19009" lon="6.78456">
        <ele>448.9</ele>
        <time>2024-11-18T16:33:16Z</time>
      </trkpt>
      <trkpt lat="48.19017" lon="6.78463">
        <ele>448.8</ele>
        <time>2024-11-18T16:33:23Z</time>
      </trkpt>
      <trkpt lat="48.19028" lon="6.78465">
        <ele>448.7</ele>
        <time>2024-11-18T16:33:30Z</time>
      </trkpt>
      <trkpt lat="48.19037" lon="6.78469">
        <ele>448.6</ele>
        <time>2024-11-18T16:33:36Z</time>
      </trkpt>
      <trkpt lat="48.19046" lon="6.78471">
        <ele>448.5</ele>
        <time>2024-11-18T16:33:42Z</time>
      </trkpt>
      <trkpt lat="48.19056" lon="6.78473">
        <ele>448.4</ele>
        <time>2024-11-18T16:33:49Z</time>
      </trkpt>
      <trkpt lat="48.19061" lon="6.78476">
        <ele>448.3</ele>
        <time>2024-11-18T16:34:02Z</time>
      </trkpt>
      <trkpt lat="48.19061" lon="6.78476">
        <ele>448.3</ele>
        <time>2024-11-18T16:34:07Z</time>
      </trkpt>
      <trkpt lat="48.19061" lon="6.78476">
        <ele>448.3</ele>
        <time>2024-11-18T16:34:07Z</time>
      </trkpt>
      <trkpt lat="48.19061" lon="6.78476">
        <ele>448.3</ele>
        <time>2024-11-18T16:34:07Z</time>
      </trkpt>
    </trkseg>
  </trk>
</gpx>